<?xml version="1.0" encoding="UTF-8" standalone="no" ?>
<gpx xmlns="http://www.topografix.com/GPX/1/1" xmlns:xsi="http://www.w3.org/2001/XMLSchema-instance" xsi:schemaLocation="http://www.topografix.com/GPX/1/1 http://www.topografix.com/GPX/1/1/gpx.xsd" version="1.1" creator="VisuGPX - https://www.visugpx.com">
  <metadata>
    <name>Oudon Brevet des grimpeurs </name>
    <desc><![CDATA[Rando organisée à Oudon édition 2017
cumuler un maximum de côtes sur 23 km]]></desc>
  </metadata>
  <trk>
    <name><![CDATA[MDa Brevet des grimpeurs 2017 23.3km]]></name>
    <extensions>
      <line xmlns="http://www.topografix.com/GPX/gpx_style/0/2">
        <color>0000FF</color>
        <width>4</width>
      </line>
    </extensions>
    <trkseg>
      <trkpt lat="47.34645" lon="-1.28261">
        <ele>10</ele>
        <time>2017-11-05T07:02:54Z</time>
      </trkpt>
      <trkpt lat="47.34644" lon="-1.28255">
        <ele>10</ele>
        <time>2017-11-05T07:02:55Z</time>
      </trkpt>
      <trkpt lat="47.34624" lon="-1.28282">
        <ele>10</ele>
        <time>2017-11-05T07:03:09Z</time>
      </trkpt>
      <trkpt lat="47.34619" lon="-1.28296">
        <ele>9</ele>
        <time>2017-11-05T07:03:17Z</time>
      </trkpt>
      <trkpt lat="47.34618" lon="-1.28319">
        <ele>10</ele>
        <time>2017-11-05T07:03:29Z</time>
      </trkpt>
      <trkpt lat="47.34629" lon="-1.28356">
        <ele>10</ele>
        <time>2017-11-05T07:03:53Z</time>
      </trkpt>
      <trkpt lat="47.34636" lon="-1.28366">
        <ele>10</ele>
        <time>2017-11-05T07:03:59Z</time>
      </trkpt>
      <trkpt lat="47.34663" lon="-1.28358">
        <ele>11</ele>
        <time>2017-11-05T07:04:17Z</time>
      </trkpt>
      <trkpt lat="47.34668" lon="-1.28345">
        <ele>10</ele>
        <time>2017-11-05T07:04:23Z</time>
      </trkpt>
      <trkpt lat="47.3468" lon="-1.2831">
        <ele>10</ele>
        <time>2017-11-05T07:04:41Z</time>
      </trkpt>
      <trkpt lat="47.34691" lon="-1.28273">
        <ele>10</ele>
        <time>2017-11-05T07:04:59Z</time>
      </trkpt>
      <trkpt lat="47.34704" lon="-1.28222">
        <ele>10</ele>
        <time>2017-11-05T07:05:23Z</time>
      </trkpt>
      <trkpt lat="47.34711" lon="-1.28185">
        <ele>10</ele>
        <time>2017-11-05T07:05:41Z</time>
      </trkpt>
      <trkpt lat="47.34719" lon="-1.28158">
        <ele>10</ele>
        <time>2017-11-05T07:05:53Z</time>
      </trkpt>
      <trkpt lat="47.34722" lon="-1.28133">
        <ele>10</ele>
        <time>2017-11-05T07:06:05Z</time>
      </trkpt>
      <trkpt lat="47.34728" lon="-1.28121">
        <ele>10</ele>
        <time>2017-11-05T07:06:11Z</time>
      </trkpt>
      <trkpt lat="47.34743" lon="-1.28074">
        <ele>11</ele>
        <time>2017-11-05T07:06:35Z</time>
      </trkpt>
      <trkpt lat="47.34749" lon="-1.2808">
        <ele>12</ele>
        <time>2017-11-05T07:06:41Z</time>
      </trkpt>
      <trkpt lat="47.34764" lon="-1.2809">
        <ele>16</ele>
        <time>2017-11-05T07:06:53Z</time>
      </trkpt>
      <trkpt lat="47.34772" lon="-1.28093">
        <ele>18</ele>
        <time>2017-11-05T07:06:59Z</time>
      </trkpt>
      <trkpt lat="47.34803" lon="-1.28101">
        <ele>24</ele>
        <time>2017-11-05T07:07:23Z</time>
      </trkpt>
      <trkpt lat="47.34833" lon="-1.2812">
        <ele>28</ele>
        <time>2017-11-05T07:07:47Z</time>
      </trkpt>
      <trkpt lat="47.34837" lon="-1.28131">
        <ele>29</ele>
        <time>2017-11-05T07:07:53Z</time>
      </trkpt>
      <trkpt lat="47.34836" lon="-1.28142">
        <ele>29</ele>
        <time>2017-11-05T07:07:59Z</time>
      </trkpt>
      <trkpt lat="47.34832" lon="-1.28152">
        <ele>29</ele>
        <time>2017-11-05T07:08:05Z</time>
      </trkpt>
      <trkpt lat="47.3482" lon="-1.28174">
        <ele>28</ele>
        <time>2017-11-05T07:08:17Z</time>
      </trkpt>
      <trkpt lat="47.34805" lon="-1.28222">
        <ele>28</ele>
        <time>2017-11-05T07:08:41Z</time>
      </trkpt>
      <trkpt lat="47.34791" lon="-1.28257">
        <ele>27</ele>
        <time>2017-11-05T07:08:59Z</time>
      </trkpt>
      <trkpt lat="47.34774" lon="-1.28308">
        <ele>25</ele>
        <time>2017-11-05T07:09:23Z</time>
      </trkpt>
      <trkpt lat="47.34763" lon="-1.28348">
        <ele>24</ele>
        <time>2017-11-05T07:09:41Z</time>
      </trkpt>
      <trkpt lat="47.34757" lon="-1.28376">
        <ele>23</ele>
        <time>2017-11-05T07:09:53Z</time>
      </trkpt>
      <trkpt lat="47.34755" lon="-1.2839">
        <ele>23</ele>
        <time>2017-11-05T07:09:59Z</time>
      </trkpt>
      <trkpt lat="47.34762" lon="-1.28398">
        <ele>25</ele>
        <time>2017-11-05T07:10:05Z</time>
      </trkpt>
      <trkpt lat="47.34786" lon="-1.28418">
        <ele>29</ele>
        <time>2017-11-05T07:10:23Z</time>
      </trkpt>
      <trkpt lat="47.34798" lon="-1.28434">
        <ele>31</ele>
        <time>2017-11-05T07:10:35Z</time>
      </trkpt>
      <trkpt lat="47.34807" lon="-1.28452">
        <ele>34</ele>
        <time>2017-11-05T07:10:47Z</time>
      </trkpt>
      <trkpt lat="47.34823" lon="-1.28497">
        <ele>40</ele>
        <time>2017-11-05T07:11:11Z</time>
      </trkpt>
      <trkpt lat="47.34839" lon="-1.28515">
        <ele>41</ele>
        <time>2017-11-05T07:11:23Z</time>
      </trkpt>
      <trkpt lat="47.34839" lon="-1.28526">
        <ele>41</ele>
        <time>2017-11-05T07:11:29Z</time>
      </trkpt>
      <trkpt lat="47.34834" lon="-1.28569">
        <ele>41</ele>
        <time>2017-11-05T07:11:47Z</time>
      </trkpt>
      <trkpt lat="47.34837" lon="-1.28617">
        <ele>39</ele>
        <time>2017-11-05T07:12:11Z</time>
      </trkpt>
      <trkpt lat="47.34829" lon="-1.28647">
        <ele>36</ele>
        <time>2017-11-05T07:12:23Z</time>
      </trkpt>
      <trkpt lat="47.34818" lon="-1.28702">
        <ele>29</ele>
        <time>2017-11-05T07:12:47Z</time>
      </trkpt>
      <trkpt lat="47.34809" lon="-1.28742">
        <ele>26</ele>
        <time>2017-11-05T07:13:05Z</time>
      </trkpt>
      <trkpt lat="47.34795" lon="-1.28756">
        <ele>24</ele>
        <time>2017-11-05T07:13:17Z</time>
      </trkpt>
      <trkpt lat="47.34768" lon="-1.28743">
        <ele>23</ele>
        <time>2017-11-05T07:13:35Z</time>
      </trkpt>
      <trkpt lat="47.34746" lon="-1.28735">
        <ele>21</ele>
        <time>2017-11-05T07:13:47Z</time>
      </trkpt>
      <trkpt lat="47.34739" lon="-1.28743">
        <ele>19</ele>
        <time>2017-11-05T07:13:53Z</time>
      </trkpt>
      <trkpt lat="47.34719" lon="-1.28808">
        <ele>13</ele>
        <time>2017-11-05T07:14:23Z</time>
      </trkpt>
      <trkpt lat="47.3471" lon="-1.28808">
        <ele>13</ele>
        <time>2017-11-05T07:14:29Z</time>
      </trkpt>
      <trkpt lat="47.34685" lon="-1.28785">
        <ele>12</ele>
        <time>2017-11-05T07:14:47Z</time>
      </trkpt>
      <trkpt lat="47.34678" lon="-1.28786">
        <ele>11</ele>
        <time>2017-11-05T07:14:53Z</time>
      </trkpt>
      <trkpt lat="47.34649" lon="-1.28805">
        <ele>10</ele>
        <time>2017-11-05T07:15:17Z</time>
      </trkpt>
      <trkpt lat="47.34613" lon="-1.28816">
        <ele>9</ele>
        <time>2017-11-05T07:15:47Z</time>
      </trkpt>
      <trkpt lat="47.34592" lon="-1.28852">
        <ele>8</ele>
        <time>2017-11-05T07:16:05Z</time>
      </trkpt>
      <trkpt lat="47.34586" lon="-1.28863">
        <ele>9</ele>
        <time>2017-11-05T07:16:11Z</time>
      </trkpt>
      <trkpt lat="47.34575" lon="-1.28892">
        <ele>13</ele>
        <time>2017-11-05T07:16:29Z</time>
      </trkpt>
      <trkpt lat="47.34589" lon="-1.28913">
        <ele>15</ele>
        <time>2017-11-05T07:16:41Z</time>
      </trkpt>
      <trkpt lat="47.34593" lon="-1.28927">
        <ele>17</ele>
        <time>2017-11-05T07:16:47Z</time>
      </trkpt>
      <trkpt lat="47.34613" lon="-1.28968">
        <ele>21</ele>
        <time>2017-11-05T07:17:11Z</time>
      </trkpt>
      <trkpt lat="47.34616" lon="-1.28977">
        <ele>22</ele>
        <time>2017-11-05T07:17:17Z</time>
      </trkpt>
      <trkpt lat="47.34619" lon="-1.28988">
        <ele>23</ele>
        <time>2017-11-05T07:17:23Z</time>
      </trkpt>
      <trkpt lat="47.34627" lon="-1.2901">
        <ele>26</ele>
        <time>2017-11-05T07:17:35Z</time>
      </trkpt>
      <trkpt lat="47.34632" lon="-1.29021">
        <ele>28</ele>
        <time>2017-11-05T07:17:41Z</time>
      </trkpt>
      <trkpt lat="47.34658" lon="-1.291">
        <ele>37</ele>
        <time>2017-11-05T07:18:23Z</time>
      </trkpt>
      <trkpt lat="47.34662" lon="-1.29109">
        <ele>38</ele>
        <time>2017-11-05T07:18:29Z</time>
      </trkpt>
      <trkpt lat="47.34666" lon="-1.2912">
        <ele>39</ele>
        <time>2017-11-05T07:18:35Z</time>
      </trkpt>
      <trkpt lat="47.34684" lon="-1.29189">
        <ele>47</ele>
        <time>2017-11-05T07:19:11Z</time>
      </trkpt>
      <trkpt lat="47.34692" lon="-1.29211">
        <ele>49</ele>
        <time>2017-11-05T07:19:23Z</time>
      </trkpt>
      <trkpt lat="47.34698" lon="-1.2922">
        <ele>50</ele>
        <time>2017-11-05T07:19:29Z</time>
      </trkpt>
      <trkpt lat="47.34712" lon="-1.29235">
        <ele>52</ele>
        <time>2017-11-05T07:19:41Z</time>
      </trkpt>
      <trkpt lat="47.34737" lon="-1.29265">
        <ele>58</ele>
        <time>2017-11-05T07:20:05Z</time>
      </trkpt>
      <trkpt lat="47.34735" lon="-1.29281">
        <ele>56</ele>
        <time>2017-11-05T07:20:11Z</time>
      </trkpt>
      <trkpt lat="47.34723" lon="-1.2929">
        <ele>55</ele>
        <time>2017-11-05T07:20:17Z</time>
      </trkpt>
      <trkpt lat="47.34693" lon="-1.29266">
        <ele>50</ele>
        <time>2017-11-05T07:20:35Z</time>
      </trkpt>
      <trkpt lat="47.34685" lon="-1.29258">
        <ele>48</ele>
        <time>2017-11-05T07:20:41Z</time>
      </trkpt>
      <trkpt lat="47.3466" lon="-1.29223">
        <ele>43</ele>
        <time>2017-11-05T07:21:05Z</time>
      </trkpt>
      <trkpt lat="47.34652" lon="-1.29215">
        <ele>40</ele>
        <time>2017-11-05T07:21:11Z</time>
      </trkpt>
      <trkpt lat="47.3462" lon="-1.29187">
        <ele>34</ele>
        <time>2017-11-05T07:21:35Z</time>
      </trkpt>
      <trkpt lat="47.34604" lon="-1.29165">
        <ele>31</ele>
        <time>2017-11-05T07:21:47Z</time>
      </trkpt>
      <trkpt lat="47.34591" lon="-1.2914">
        <ele>29</ele>
        <time>2017-11-05T07:21:59Z</time>
      </trkpt>
      <trkpt lat="47.34574" lon="-1.29143">
        <ele>27</ele>
        <time>2017-11-05T07:22:11Z</time>
      </trkpt>
      <trkpt lat="47.34568" lon="-1.29156">
        <ele>27</ele>
        <time>2017-11-05T07:22:17Z</time>
      </trkpt>
      <trkpt lat="47.34558" lon="-1.29212">
        <ele>25</ele>
        <time>2017-11-05T07:22:41Z</time>
      </trkpt>
      <trkpt lat="47.34537" lon="-1.29251">
        <ele>21</ele>
        <time>2017-11-05T07:22:59Z</time>
      </trkpt>
      <trkpt lat="47.34521" lon="-1.29287">
        <ele>18</ele>
        <time>2017-11-05T07:23:17Z</time>
      </trkpt>
      <trkpt lat="47.34504" lon="-1.29321">
        <ele>15</ele>
        <time>2017-11-05T07:23:35Z</time>
      </trkpt>
      <trkpt lat="47.345" lon="-1.29326">
        <ele>15</ele>
        <time>2017-11-05T07:23:41Z</time>
      </trkpt>
      <trkpt lat="47.34494" lon="-1.29341">
        <ele>15</ele>
        <time>2017-11-05T07:23:47Z</time>
      </trkpt>
      <trkpt lat="47.34483" lon="-1.29366">
        <ele>12</ele>
        <time>2017-11-05T07:23:59Z</time>
      </trkpt>
      <trkpt lat="47.3448" lon="-1.2938">
        <ele>11</ele>
        <time>2017-11-05T07:24:05Z</time>
      </trkpt>
      <trkpt lat="47.34476" lon="-1.29413">
        <ele>10</ele>
        <time>2017-11-05T07:24:17Z</time>
      </trkpt>
      <trkpt lat="47.34474" lon="-1.29457">
        <ele>11</ele>
        <time>2017-11-05T07:24:35Z</time>
      </trkpt>
      <trkpt lat="47.34435" lon="-1.29446">
        <ele>8</ele>
        <time>2017-11-05T07:24:59Z</time>
      </trkpt>
      <trkpt lat="47.34429" lon="-1.29458">
        <ele>8</ele>
        <time>2017-11-05T07:25:05Z</time>
      </trkpt>
      <trkpt lat="47.34425" lon="-1.29476">
        <ele>8</ele>
        <time>2017-11-05T07:25:11Z</time>
      </trkpt>
      <trkpt lat="47.3442" lon="-1.29508">
        <ele>8</ele>
        <time>2017-11-05T07:25:23Z</time>
      </trkpt>
      <trkpt lat="47.34418" lon="-1.29537">
        <ele>8</ele>
        <time>2017-11-05T07:25:35Z</time>
      </trkpt>
      <trkpt lat="47.34415" lon="-1.29566">
        <ele>9</ele>
        <time>2017-11-05T07:25:47Z</time>
      </trkpt>
      <trkpt lat="47.34405" lon="-1.29623">
        <ele>8</ele>
        <time>2017-11-05T07:26:11Z</time>
      </trkpt>
      <trkpt lat="47.34401" lon="-1.29636">
        <ele>8</ele>
        <time>2017-11-05T07:26:17Z</time>
      </trkpt>
      <trkpt lat="47.34396" lon="-1.29648">
        <ele>8</ele>
        <time>2017-11-05T07:26:23Z</time>
      </trkpt>
      <trkpt lat="47.34391" lon="-1.29659">
        <ele>8</ele>
        <time>2017-11-05T07:26:29Z</time>
      </trkpt>
      <trkpt lat="47.34373" lon="-1.29691">
        <ele>7</ele>
        <time>2017-11-05T07:26:47Z</time>
      </trkpt>
      <trkpt lat="47.34356" lon="-1.29725">
        <ele>8</ele>
        <time>2017-11-05T07:27:05Z</time>
      </trkpt>
      <trkpt lat="47.34347" lon="-1.29748">
        <ele>8</ele>
        <time>2017-11-05T07:27:17Z</time>
      </trkpt>
      <trkpt lat="47.34331" lon="-1.2978">
        <ele>8</ele>
        <time>2017-11-05T07:27:35Z</time>
      </trkpt>
      <trkpt lat="47.3432" lon="-1.2981">
        <ele>8</ele>
        <time>2017-11-05T07:27:47Z</time>
      </trkpt>
      <trkpt lat="47.3431" lon="-1.29834">
        <ele>8</ele>
        <time>2017-11-05T07:27:59Z</time>
      </trkpt>
      <trkpt lat="47.3429" lon="-1.29897">
        <ele>9</ele>
        <time>2017-11-05T07:28:29Z</time>
      </trkpt>
      <trkpt lat="47.34287" lon="-1.2991">
        <ele>9</ele>
        <time>2017-11-05T07:28:35Z</time>
      </trkpt>
      <trkpt lat="47.34276" lon="-1.29939">
        <ele>9</ele>
        <time>2017-11-05T07:28:47Z</time>
      </trkpt>
      <trkpt lat="47.34268" lon="-1.29963">
        <ele>9</ele>
        <time>2017-11-05T07:28:59Z</time>
      </trkpt>
      <trkpt lat="47.34263" lon="-1.29993">
        <ele>9</ele>
        <time>2017-11-05T07:29:11Z</time>
      </trkpt>
      <trkpt lat="47.34262" lon="-1.3002">
        <ele>9</ele>
        <time>2017-11-05T07:29:23Z</time>
      </trkpt>
      <trkpt lat="47.34255" lon="-1.3006">
        <ele>10</ele>
        <time>2017-11-05T07:29:41Z</time>
      </trkpt>
      <trkpt lat="47.34244" lon="-1.30099">
        <ele>13</ele>
        <time>2017-11-05T07:29:59Z</time>
      </trkpt>
      <trkpt lat="47.3423" lon="-1.30133">
        <ele>14</ele>
        <time>2017-11-05T07:30:17Z</time>
      </trkpt>
      <trkpt lat="47.34224" lon="-1.30162">
        <ele>7.3</ele>
        <time>2017-11-05T07:30:29Z</time>
      </trkpt>
      <trkpt lat="47.34209" lon="-1.30213">
        <ele>11</ele>
        <time>2017-11-05T07:30:47Z</time>
      </trkpt>
      <trkpt lat="47.34195" lon="-1.30251">
        <ele>13</ele>
        <time>2017-11-05T07:31:05Z</time>
      </trkpt>
      <trkpt lat="47.34166" lon="-1.30324">
        <ele>13</ele>
        <time>2017-11-05T07:31:41Z</time>
      </trkpt>
      <trkpt lat="47.3416" lon="-1.30335">
        <ele>13</ele>
        <time>2017-11-05T07:31:47Z</time>
      </trkpt>
      <trkpt lat="47.34151" lon="-1.30361">
        <ele>14</ele>
        <time>2017-11-05T07:31:59Z</time>
      </trkpt>
      <trkpt lat="47.34143" lon="-1.30384">
        <ele>15</ele>
        <time>2017-11-05T07:32:11Z</time>
      </trkpt>
      <trkpt lat="47.34127" lon="-1.30421">
        <ele>15</ele>
        <time>2017-11-05T07:32:29Z</time>
      </trkpt>
      <trkpt lat="47.34122" lon="-1.3043">
        <ele>14</ele>
        <time>2017-11-05T07:32:35Z</time>
      </trkpt>
      <trkpt lat="47.34104" lon="-1.3047">
        <ele>12</ele>
        <time>2017-11-05T07:32:53Z</time>
      </trkpt>
      <trkpt lat="47.34075" lon="-1.30534">
        <ele>11</ele>
        <time>2017-11-05T07:33:23Z</time>
      </trkpt>
      <trkpt lat="47.34057" lon="-1.3057">
        <ele>11</ele>
        <time>2017-11-05T07:33:41Z</time>
      </trkpt>
      <trkpt lat="47.34043" lon="-1.30593">
        <ele>11</ele>
        <time>2017-11-05T07:33:53Z</time>
      </trkpt>
      <trkpt lat="47.34026" lon="-1.30631">
        <ele>11</ele>
        <time>2017-11-05T07:34:11Z</time>
      </trkpt>
      <trkpt lat="47.34011" lon="-1.30655">
        <ele>11</ele>
        <time>2017-11-05T07:34:23Z</time>
      </trkpt>
      <trkpt lat="47.33987" lon="-1.30683">
        <ele>10</ele>
        <time>2017-11-05T07:34:41Z</time>
      </trkpt>
      <trkpt lat="47.3398" lon="-1.30695">
        <ele>10</ele>
        <time>2017-11-05T07:34:47Z</time>
      </trkpt>
      <trkpt lat="47.33971" lon="-1.30692">
        <ele>10</ele>
        <time>2017-11-05T07:34:53Z</time>
      </trkpt>
      <trkpt lat="47.33959" lon="-1.30676">
        <ele>10</ele>
        <time>2017-11-05T07:35:05Z</time>
      </trkpt>
      <trkpt lat="47.33942" lon="-1.30695">
        <ele>12</ele>
        <time>2017-11-05T07:35:17Z</time>
      </trkpt>
      <trkpt lat="47.33913" lon="-1.30738">
        <ele>12</ele>
        <time>2017-11-05T07:35:42Z</time>
      </trkpt>
      <trkpt lat="47.3389" lon="-1.30767">
        <ele>12</ele>
        <time>2017-11-05T07:35:59Z</time>
      </trkpt>
      <trkpt lat="47.33875" lon="-1.30785">
        <ele>12</ele>
        <time>2017-11-05T07:36:11Z</time>
      </trkpt>
      <trkpt lat="47.33842" lon="-1.30816">
        <ele>12</ele>
        <time>2017-11-05T07:36:35Z</time>
      </trkpt>
      <trkpt lat="47.33827" lon="-1.30835">
        <ele>12</ele>
        <time>2017-11-05T07:36:47Z</time>
      </trkpt>
      <trkpt lat="47.33801" lon="-1.30854">
        <ele>11</ele>
        <time>2017-11-05T07:37:05Z</time>
      </trkpt>
      <trkpt lat="47.33766" lon="-1.30888">
        <ele>11</ele>
        <time>2017-11-05T07:37:29Z</time>
      </trkpt>
      <trkpt lat="47.33751" lon="-1.30907">
        <ele>11</ele>
        <time>2017-11-05T07:37:41Z</time>
      </trkpt>
      <trkpt lat="47.33736" lon="-1.30925">
        <ele>11</ele>
        <time>2017-11-05T07:37:53Z</time>
      </trkpt>
      <trkpt lat="47.33706" lon="-1.3096">
        <ele>11</ele>
        <time>2017-11-05T07:38:17Z</time>
      </trkpt>
      <trkpt lat="47.33684" lon="-1.30983">
        <ele>12</ele>
        <time>2017-11-05T07:38:35Z</time>
      </trkpt>
      <trkpt lat="47.33677" lon="-1.30993">
        <ele>14</ele>
        <time>2017-11-05T07:38:41Z</time>
      </trkpt>
      <trkpt lat="47.3366" lon="-1.31027">
        <ele>17</ele>
        <time>2017-11-05T07:38:59Z</time>
      </trkpt>
      <trkpt lat="47.33638" lon="-1.31055">
        <ele>17</ele>
        <time>2017-11-05T07:39:17Z</time>
      </trkpt>
      <trkpt lat="47.33614" lon="-1.3108">
        <ele>16</ele>
        <time>2017-11-05T07:39:35Z</time>
      </trkpt>
      <trkpt lat="47.33588" lon="-1.31127">
        <ele>10</ele>
        <time>2017-11-05T07:39:59Z</time>
      </trkpt>
      <trkpt lat="47.33575" lon="-1.31152">
        <ele>11</ele>
        <time>2017-11-05T07:40:11Z</time>
      </trkpt>
      <trkpt lat="47.33576" lon="-1.31166">
        <ele>10</ele>
        <time>2017-11-05T07:40:17Z</time>
      </trkpt>
      <trkpt lat="47.33588" lon="-1.3119">
        <ele>13</ele>
        <time>2017-11-05T07:40:29Z</time>
      </trkpt>
      <trkpt lat="47.33593" lon="-1.31227">
        <ele>18</ele>
        <time>2017-11-05T07:40:47Z</time>
      </trkpt>
      <trkpt lat="47.33601" lon="-1.3123">
        <ele>20</ele>
        <time>2017-11-05T07:40:53Z</time>
      </trkpt>
      <trkpt lat="47.33625" lon="-1.31224">
        <ele>24</ele>
        <time>2017-11-05T07:41:10Z</time>
      </trkpt>
      <trkpt lat="47.33634" lon="-1.31225">
        <ele>29</ele>
        <time>2017-11-05T07:41:22Z</time>
      </trkpt>
      <trkpt lat="47.33639" lon="-1.31232">
        <ele>31</ele>
        <time>2017-11-05T07:41:34Z</time>
      </trkpt>
      <trkpt lat="47.33642" lon="-1.31241">
        <ele>33</ele>
        <time>2017-11-05T07:41:46Z</time>
      </trkpt>
      <trkpt lat="47.33653" lon="-1.31245">
        <ele>39</ele>
        <time>2017-11-05T07:42:10Z</time>
      </trkpt>
      <trkpt lat="47.33658" lon="-1.31254">
        <ele>41</ele>
        <time>2017-11-05T07:42:18Z</time>
      </trkpt>
      <trkpt lat="47.33667" lon="-1.31255">
        <ele>45</ele>
        <time>2017-11-05T07:42:30Z</time>
      </trkpt>
      <trkpt lat="47.33688" lon="-1.31251">
        <ele>52</ele>
        <time>2017-11-05T07:42:48Z</time>
      </trkpt>
      <trkpt lat="47.337" lon="-1.31256">
        <ele>55</ele>
        <time>2017-11-05T07:43:06Z</time>
      </trkpt>
      <trkpt lat="47.33719" lon="-1.31276">
        <ele>58</ele>
        <time>2017-11-05T07:43:30Z</time>
      </trkpt>
      <trkpt lat="47.33729" lon="-1.3128">
        <ele>60</ele>
        <time>2017-11-05T07:43:42Z</time>
      </trkpt>
      <trkpt lat="47.33766" lon="-1.31283">
        <ele>64</ele>
        <time>2017-11-05T07:44:18Z</time>
      </trkpt>
      <trkpt lat="47.33773" lon="-1.31286">
        <ele>65</ele>
        <time>2017-11-05T07:44:24Z</time>
      </trkpt>
      <trkpt lat="47.33792" lon="-1.31304">
        <ele>67</ele>
        <time>2017-11-05T07:44:42Z</time>
      </trkpt>
      <trkpt lat="47.33797" lon="-1.31309">
        <ele>67</ele>
        <time>2017-11-05T07:44:48Z</time>
      </trkpt>
      <trkpt lat="47.338" lon="-1.31318">
        <ele>67</ele>
        <time>2017-11-05T07:45:00Z</time>
      </trkpt>
      <trkpt lat="47.33818" lon="-1.31334">
        <ele>67</ele>
        <time>2017-11-05T07:45:18Z</time>
      </trkpt>
      <trkpt lat="47.33841" lon="-1.31352">
        <ele>69</ele>
        <time>2017-11-05T07:45:36Z</time>
      </trkpt>
      <trkpt lat="47.33837" lon="-1.31372">
        <ele>69</ele>
        <time>2017-11-05T07:45:48Z</time>
      </trkpt>
      <trkpt lat="47.33835" lon="-1.31388">
        <ele>70</ele>
        <time>2017-11-05T07:46:00Z</time>
      </trkpt>
      <trkpt lat="47.33822" lon="-1.31428">
        <ele>71</ele>
        <time>2017-11-05T07:46:24Z</time>
      </trkpt>
      <trkpt lat="47.33815" lon="-1.31451">
        <ele>71</ele>
        <time>2017-11-05T07:46:36Z</time>
      </trkpt>
      <trkpt lat="47.33798" lon="-1.31495">
        <ele>72</ele>
        <time>2017-11-05T07:47:00Z</time>
      </trkpt>
      <trkpt lat="47.33795" lon="-1.31507">
        <ele>72</ele>
        <time>2017-11-05T07:47:06Z</time>
      </trkpt>
      <trkpt lat="47.33786" lon="-1.31546">
        <ele>74</ele>
        <time>2017-11-05T07:47:24Z</time>
      </trkpt>
      <trkpt lat="47.33782" lon="-1.31588">
        <ele>74</ele>
        <time>2017-11-05T07:47:42Z</time>
      </trkpt>
      <trkpt lat="47.3378" lon="-1.31601">
        <ele>75</ele>
        <time>2017-11-05T07:47:48Z</time>
      </trkpt>
      <trkpt lat="47.33779" lon="-1.31627">
        <ele>75</ele>
        <time>2017-11-05T07:48:00Z</time>
      </trkpt>
      <trkpt lat="47.33775" lon="-1.31656">
        <ele>75</ele>
        <time>2017-11-05T07:48:12Z</time>
      </trkpt>
      <trkpt lat="47.33774" lon="-1.3167">
        <ele>75</ele>
        <time>2017-11-05T07:48:18Z</time>
      </trkpt>
      <trkpt lat="47.3377" lon="-1.31697">
        <ele>75</ele>
        <time>2017-11-05T07:48:30Z</time>
      </trkpt>
      <trkpt lat="47.3376" lon="-1.31736">
        <ele>75</ele>
        <time>2017-11-05T07:48:48Z</time>
      </trkpt>
      <trkpt lat="47.33744" lon="-1.31774">
        <ele>74</ele>
        <time>2017-11-05T07:49:06Z</time>
      </trkpt>
      <trkpt lat="47.33731" lon="-1.31815">
        <ele>73</ele>
        <time>2017-11-05T07:49:24Z</time>
      </trkpt>
      <trkpt lat="47.3372" lon="-1.31842">
        <ele>73</ele>
        <time>2017-11-05T07:49:36Z</time>
      </trkpt>
      <trkpt lat="47.33709" lon="-1.31867">
        <ele>72</ele>
        <time>2017-11-05T07:49:48Z</time>
      </trkpt>
      <trkpt lat="47.33683" lon="-1.31912">
        <ele>71</ele>
        <time>2017-11-05T07:50:12Z</time>
      </trkpt>
      <trkpt lat="47.33677" lon="-1.31924">
        <ele>71</ele>
        <time>2017-11-05T07:50:19Z</time>
      </trkpt>
      <trkpt lat="47.33651" lon="-1.31969">
        <ele>70</ele>
        <time>2017-11-05T07:50:42Z</time>
      </trkpt>
      <trkpt lat="47.33641" lon="-1.31992">
        <ele>70</ele>
        <time>2017-11-05T07:50:54Z</time>
      </trkpt>
      <trkpt lat="47.33625" lon="-1.32013">
        <ele>69</ele>
        <time>2017-11-05T07:51:06Z</time>
      </trkpt>
      <trkpt lat="47.33606" lon="-1.3203">
        <ele>68</ele>
        <time>2017-11-05T07:51:18Z</time>
      </trkpt>
      <trkpt lat="47.33597" lon="-1.32034">
        <ele>67</ele>
        <time>2017-11-05T07:51:24Z</time>
      </trkpt>
      <trkpt lat="47.33557" lon="-1.3203">
        <ele>66</ele>
        <time>2017-11-05T07:51:48Z</time>
      </trkpt>
      <trkpt lat="47.33548" lon="-1.32028">
        <ele>66</ele>
        <time>2017-11-05T07:51:54Z</time>
      </trkpt>
      <trkpt lat="47.33539" lon="-1.32025">
        <ele>67</ele>
        <time>2017-11-05T07:52:00Z</time>
      </trkpt>
      <trkpt lat="47.33531" lon="-1.3202">
        <ele>67</ele>
        <time>2017-11-05T07:52:06Z</time>
      </trkpt>
      <trkpt lat="47.33507" lon="-1.31992">
        <ele>66</ele>
        <time>2017-11-05T07:52:24Z</time>
      </trkpt>
      <trkpt lat="47.33489" lon="-1.31984">
        <ele>66</ele>
        <time>2017-11-05T07:52:36Z</time>
      </trkpt>
      <trkpt lat="47.33452" lon="-1.31952">
        <ele>63</ele>
        <time>2017-11-05T07:53:00Z</time>
      </trkpt>
      <trkpt lat="47.33415" lon="-1.31932">
        <ele>59</ele>
        <time>2017-11-05T07:53:24Z</time>
      </trkpt>
      <trkpt lat="47.33393" lon="-1.31944">
        <ele>58</ele>
        <time>2017-11-05T07:53:36Z</time>
      </trkpt>
      <trkpt lat="47.33374" lon="-1.31952">
        <ele>58</ele>
        <time>2017-11-05T07:53:48Z</time>
      </trkpt>
      <trkpt lat="47.33332" lon="-1.31952">
        <ele>54</ele>
        <time>2017-11-05T07:54:12Z</time>
      </trkpt>
      <trkpt lat="47.33321" lon="-1.31962">
        <ele>54</ele>
        <time>2017-11-05T07:54:18Z</time>
      </trkpt>
      <trkpt lat="47.33301" lon="-1.31978">
        <ele>53</ele>
        <time>2017-11-05T07:54:30Z</time>
      </trkpt>
      <trkpt lat="47.33293" lon="-1.31987">
        <ele>52</ele>
        <time>2017-11-05T07:54:36Z</time>
      </trkpt>
      <trkpt lat="47.33267" lon="-1.32014">
        <ele>51</ele>
        <time>2017-11-05T07:54:54Z</time>
      </trkpt>
      <trkpt lat="47.3325" lon="-1.32026">
        <ele>48</ele>
        <time>2017-11-05T07:55:07Z</time>
      </trkpt>
      <trkpt lat="47.33223" lon="-1.32041">
        <ele>43</ele>
        <time>2017-11-05T07:55:24Z</time>
      </trkpt>
      <trkpt lat="47.33206" lon="-1.32054">
        <ele>41</ele>
        <time>2017-11-05T07:55:36Z</time>
      </trkpt>
      <trkpt lat="47.33203" lon="-1.32069">
        <ele>40</ele>
        <time>2017-11-05T07:55:42Z</time>
      </trkpt>
      <trkpt lat="47.33219" lon="-1.32089">
        <ele>39</ele>
        <time>2017-11-05T07:55:54Z</time>
      </trkpt>
      <trkpt lat="47.33249" lon="-1.3212">
        <ele>43</ele>
        <time>2017-11-05T07:56:25Z</time>
      </trkpt>
      <trkpt lat="47.33263" lon="-1.32128">
        <ele>47</ele>
        <time>2017-11-05T07:56:36Z</time>
      </trkpt>
      <trkpt lat="47.33265" lon="-1.32165">
        <ele>48</ele>
        <time>2017-11-05T07:56:54Z</time>
      </trkpt>
      <trkpt lat="47.33277" lon="-1.32187">
        <ele>50</ele>
        <time>2017-11-05T07:57:06Z</time>
      </trkpt>
      <trkpt lat="47.33254" lon="-1.32204">
        <ele>45</ele>
        <time>2017-11-05T07:57:24Z</time>
      </trkpt>
      <trkpt lat="47.33236" lon="-1.32215">
        <ele>41</ele>
        <time>2017-11-05T07:57:36Z</time>
      </trkpt>
      <trkpt lat="47.33211" lon="-1.32227">
        <ele>32</ele>
        <time>2017-11-05T07:57:54Z</time>
      </trkpt>
      <trkpt lat="47.33196" lon="-1.32203">
        <ele>30</ele>
        <time>2017-11-05T07:58:12Z</time>
      </trkpt>
      <trkpt lat="47.33182" lon="-1.32199">
        <ele>26</ele>
        <time>2017-11-05T07:58:30Z</time>
      </trkpt>
      <trkpt lat="47.33179" lon="-1.32185">
        <ele>26</ele>
        <time>2017-11-05T07:58:42Z</time>
      </trkpt>
      <trkpt lat="47.3316" lon="-1.32192">
        <ele>21</ele>
        <time>2017-11-05T07:58:54Z</time>
      </trkpt>
      <trkpt lat="47.33137" lon="-1.32191">
        <ele>16</ele>
        <time>2017-11-05T07:59:06Z</time>
      </trkpt>
      <trkpt lat="47.33097" lon="-1.32178">
        <ele>10</ele>
        <time>2017-11-05T07:59:30Z</time>
      </trkpt>
      <trkpt lat="47.33086" lon="-1.32178">
        <ele>9</ele>
        <time>2017-11-05T07:59:36Z</time>
      </trkpt>
      <trkpt lat="47.33071" lon="-1.32195">
        <ele>9</ele>
        <time>2017-11-05T07:59:48Z</time>
      </trkpt>
      <trkpt lat="47.33052" lon="-1.32232">
        <ele>10</ele>
        <time>2017-11-05T08:00:06Z</time>
      </trkpt>
      <trkpt lat="47.33048" lon="-1.32243">
        <ele>10</ele>
        <time>2017-11-05T08:00:12Z</time>
      </trkpt>
      <trkpt lat="47.33048" lon="-1.32254">
        <ele>10</ele>
        <time>2017-11-05T08:00:18Z</time>
      </trkpt>
      <trkpt lat="47.33061" lon="-1.32306">
        <ele>13</ele>
        <time>2017-11-05T08:00:42Z</time>
      </trkpt>
      <trkpt lat="47.33058" lon="-1.32319">
        <ele>14</ele>
        <time>2017-11-05T08:00:48Z</time>
      </trkpt>
      <trkpt lat="47.33051" lon="-1.32369">
        <ele>22</ele>
        <time>2017-11-05T08:01:12Z</time>
      </trkpt>
      <trkpt lat="47.33042" lon="-1.32408">
        <ele>28</ele>
        <time>2017-11-05T08:01:36Z</time>
      </trkpt>
      <trkpt lat="47.33029" lon="-1.32435">
        <ele>30</ele>
        <time>2017-11-05T08:01:48Z</time>
      </trkpt>
      <trkpt lat="47.33001" lon="-1.32479">
        <ele>34</ele>
        <time>2017-11-05T08:02:13Z</time>
      </trkpt>
      <trkpt lat="47.3298" lon="-1.32498">
        <ele>33</ele>
        <time>2017-11-05T08:02:30Z</time>
      </trkpt>
      <trkpt lat="47.32966" lon="-1.32516">
        <ele>34</ele>
        <time>2017-11-05T08:02:42Z</time>
      </trkpt>
      <trkpt lat="47.32954" lon="-1.32544">
        <ele>37</ele>
        <time>2017-11-05T08:03:01Z</time>
      </trkpt>
      <trkpt lat="47.32955" lon="-1.32565">
        <ele>41</ele>
        <time>2017-11-05T08:03:12Z</time>
      </trkpt>
      <trkpt lat="47.3296" lon="-1.32586">
        <ele>45</ele>
        <time>2017-11-05T08:03:24Z</time>
      </trkpt>
      <trkpt lat="47.32967" lon="-1.32602">
        <ele>46</ele>
        <time>2017-11-05T08:03:36Z</time>
      </trkpt>
      <trkpt lat="47.32992" lon="-1.32632">
        <ele>50</ele>
        <time>2017-11-05T08:04:00Z</time>
      </trkpt>
      <trkpt lat="47.32999" lon="-1.32642">
        <ele>50</ele>
        <time>2017-11-05T08:04:06Z</time>
      </trkpt>
      <trkpt lat="47.33021" lon="-1.32662">
        <ele>53</ele>
        <time>2017-11-05T08:04:24Z</time>
      </trkpt>
      <trkpt lat="47.3306" lon="-1.32708">
        <ele>56</ele>
        <time>2017-11-05T08:04:54Z</time>
      </trkpt>
      <trkpt lat="47.3307" lon="-1.32728">
        <ele>57</ele>
        <time>2017-11-05T08:05:06Z</time>
      </trkpt>
      <trkpt lat="47.33072" lon="-1.32741">
        <ele>57</ele>
        <time>2017-11-05T08:05:12Z</time>
      </trkpt>
      <trkpt lat="47.33071" lon="-1.32753">
        <ele>59</ele>
        <time>2017-11-05T08:05:18Z</time>
      </trkpt>
      <trkpt lat="47.33062" lon="-1.32787">
        <ele>60</ele>
        <time>2017-11-05T08:05:37Z</time>
      </trkpt>
      <trkpt lat="47.33053" lon="-1.3281">
        <ele>61</ele>
        <time>2017-11-05T08:05:48Z</time>
      </trkpt>
      <trkpt lat="47.33036" lon="-1.3286">
        <ele>64</ele>
        <time>2017-11-05T08:06:12Z</time>
      </trkpt>
      <trkpt lat="47.33017" lon="-1.32893">
        <ele>65</ele>
        <time>2017-11-05T08:06:30Z</time>
      </trkpt>
      <trkpt lat="47.33004" lon="-1.32911">
        <ele>66</ele>
        <time>2017-11-05T08:06:42Z</time>
      </trkpt>
      <trkpt lat="47.33002" lon="-1.3293">
        <ele>66</ele>
        <time>2017-11-05T08:06:54Z</time>
      </trkpt>
      <trkpt lat="47.33012" lon="-1.32951">
        <ele>66</ele>
        <time>2017-11-05T08:07:06Z</time>
      </trkpt>
      <trkpt lat="47.33019" lon="-1.32959">
        <ele>66</ele>
        <time>2017-11-05T08:07:12Z</time>
      </trkpt>
      <trkpt lat="47.33053" lon="-1.32999">
        <ele>68</ele>
        <time>2017-11-05T08:07:42Z</time>
      </trkpt>
      <trkpt lat="47.33077" lon="-1.33017">
        <ele>68</ele>
        <time>2017-11-05T08:08:01Z</time>
      </trkpt>
      <trkpt lat="47.33117" lon="-1.3304">
        <ele>69</ele>
        <time>2017-11-05T08:08:31Z</time>
      </trkpt>
      <trkpt lat="47.3312" lon="-1.33047">
        <ele>69</ele>
        <time>2017-11-05T08:08:43Z</time>
      </trkpt>
      <trkpt lat="47.33115" lon="-1.33049">
        <ele>69</ele>
        <time>2017-11-05T08:08:46Z</time>
      </trkpt>
      <trkpt lat="47.33134" lon="-1.33039">
        <ele>69</ele>
        <time>2017-11-05T08:08:51Z</time>
      </trkpt>
      <trkpt lat="47.33127" lon="-1.33061">
        <ele>69</ele>
        <time>2017-11-05T08:08:57Z</time>
      </trkpt>
      <trkpt lat="47.33135" lon="-1.3304">
        <ele>69</ele>
        <time>2017-11-05T08:09:09Z</time>
      </trkpt>
      <trkpt lat="47.33117" lon="-1.33032">
        <ele>69</ele>
        <time>2017-11-05T08:09:19Z</time>
      </trkpt>
      <trkpt lat="47.33115" lon="-1.33036">
        <ele>69</ele>
        <time>2017-11-05T08:09:23Z</time>
      </trkpt>
      <trkpt lat="47.33116" lon="-1.33031">
        <ele>69</ele>
        <time>2017-11-05T08:09:28Z</time>
      </trkpt>
      <trkpt lat="47.3313" lon="-1.33021">
        <ele>69</ele>
        <time>2017-11-05T08:09:42Z</time>
      </trkpt>
      <trkpt lat="47.33162" lon="-1.32993">
        <ele>69</ele>
        <time>2017-11-05T08:10:06Z</time>
      </trkpt>
      <trkpt lat="47.33178" lon="-1.32976">
        <ele>69</ele>
        <time>2017-11-05T08:10:18Z</time>
      </trkpt>
      <trkpt lat="47.33196" lon="-1.32948">
        <ele>67</ele>
        <time>2017-11-05T08:10:36Z</time>
      </trkpt>
      <trkpt lat="47.33201" lon="-1.32936">
        <ele>66</ele>
        <time>2017-11-05T08:10:42Z</time>
      </trkpt>
      <trkpt lat="47.33189" lon="-1.32901">
        <ele>65</ele>
        <time>2017-11-05T08:11:00Z</time>
      </trkpt>
      <trkpt lat="47.33189" lon="-1.32888">
        <ele>65</ele>
        <time>2017-11-05T08:11:06Z</time>
      </trkpt>
      <trkpt lat="47.3323" lon="-1.32835">
        <ele>63</ele>
        <time>2017-11-05T08:11:42Z</time>
      </trkpt>
      <trkpt lat="47.33248" lon="-1.32818">
        <ele>61</ele>
        <time>2017-11-05T08:11:54Z</time>
      </trkpt>
      <trkpt lat="47.33252" lon="-1.32809">
        <ele>61</ele>
        <time>2017-11-05T08:12:00Z</time>
      </trkpt>
      <trkpt lat="47.33271" lon="-1.32779">
        <ele>57</ele>
        <time>2017-11-05T08:12:18Z</time>
      </trkpt>
      <trkpt lat="47.33289" lon="-1.32764">
        <ele>54</ele>
        <time>2017-11-05T08:12:30Z</time>
      </trkpt>
      <trkpt lat="47.33294" lon="-1.32757">
        <ele>53</ele>
        <time>2017-11-05T08:12:36Z</time>
      </trkpt>
      <trkpt lat="47.33307" lon="-1.32752">
        <ele>52</ele>
        <time>2017-11-05T08:12:42Z</time>
      </trkpt>
      <trkpt lat="47.33326" lon="-1.32762">
        <ele>49</ele>
        <time>2017-11-05T08:13:12Z</time>
      </trkpt>
      <trkpt lat="47.33351" lon="-1.32751">
        <ele>46</ele>
        <time>2017-11-05T08:13:24Z</time>
      </trkpt>
      <trkpt lat="47.33365" lon="-1.3273">
        <ele>45</ele>
        <time>2017-11-05T08:13:42Z</time>
      </trkpt>
      <trkpt lat="47.33374" lon="-1.32724">
        <ele>41</ele>
        <time>2017-11-05T08:13:54Z</time>
      </trkpt>
      <trkpt lat="47.33402" lon="-1.32692">
        <ele>36</ele>
        <time>2017-11-05T08:14:18Z</time>
      </trkpt>
      <trkpt lat="47.3341" lon="-1.32679">
        <ele>35</ele>
        <time>2017-11-05T08:14:24Z</time>
      </trkpt>
      <trkpt lat="47.33418" lon="-1.32647">
        <ele>32</ele>
        <time>2017-11-05T08:14:36Z</time>
      </trkpt>
      <trkpt lat="47.33405" lon="-1.32607">
        <ele>26</ele>
        <time>2017-11-05T08:14:54Z</time>
      </trkpt>
      <trkpt lat="47.33414" lon="-1.32592">
        <ele>23</ele>
        <time>2017-11-05T08:15:12Z</time>
      </trkpt>
      <trkpt lat="47.33428" lon="-1.32589">
        <ele>22</ele>
        <time>2017-11-05T08:15:24Z</time>
      </trkpt>
      <trkpt lat="47.33436" lon="-1.32591">
        <ele>22</ele>
        <time>2017-11-05T08:15:30Z</time>
      </trkpt>
      <trkpt lat="47.33456" lon="-1.32561">
        <ele>26</ele>
        <time>2017-11-05T08:15:48Z</time>
      </trkpt>
      <trkpt lat="47.33469" lon="-1.32533">
        <ele>32</ele>
        <time>2017-11-05T08:16:06Z</time>
      </trkpt>
      <trkpt lat="47.33473" lon="-1.32546">
        <ele>33</ele>
        <time>2017-11-05T08:16:24Z</time>
      </trkpt>
      <trkpt lat="47.33473" lon="-1.32552">
        <ele>33</ele>
        <time>2017-11-05T08:16:33Z</time>
      </trkpt>
      <trkpt lat="47.33479" lon="-1.32553">
        <ele>35</ele>
        <time>2017-11-05T08:16:40Z</time>
      </trkpt>
      <trkpt lat="47.33488" lon="-1.32559">
        <ele>40</ele>
        <time>2017-11-05T08:16:58Z</time>
      </trkpt>
      <trkpt lat="47.3349" lon="-1.32556">
        <ele>28.7</ele>
        <time>2017-11-05T08:16:59Z</time>
      </trkpt>
      <trkpt lat="47.33496" lon="-1.32552">
        <ele>43</ele>
        <time>2017-11-05T08:17:06Z</time>
      </trkpt>
      <trkpt lat="47.33504" lon="-1.32536">
        <ele>45</ele>
        <time>2017-11-05T08:17:18Z</time>
      </trkpt>
      <trkpt lat="47.33513" lon="-1.32534">
        <ele>48</ele>
        <time>2017-11-05T08:17:30Z</time>
      </trkpt>
      <trkpt lat="47.33525" lon="-1.32536">
        <ele>52</ele>
        <time>2017-11-05T08:17:42Z</time>
      </trkpt>
      <trkpt lat="47.33549" lon="-1.3255">
        <ele>54</ele>
        <time>2017-11-05T08:18:06Z</time>
      </trkpt>
      <trkpt lat="47.33564" lon="-1.32557">
        <ele>55</ele>
        <time>2017-11-05T08:18:18Z</time>
      </trkpt>
      <trkpt lat="47.3357" lon="-1.32566">
        <ele>55</ele>
        <time>2017-11-05T08:18:24Z</time>
      </trkpt>
      <trkpt lat="47.33562" lon="-1.32581">
        <ele>42.5</ele>
        <time>2017-11-05T08:18:36Z</time>
      </trkpt>
      <trkpt lat="47.3356" lon="-1.32599">
        <ele>54</ele>
        <time>2017-11-05T08:18:48Z</time>
      </trkpt>
      <trkpt lat="47.33569" lon="-1.32619">
        <ele>53</ele>
        <time>2017-11-05T08:19:00Z</time>
      </trkpt>
      <trkpt lat="47.33585" lon="-1.32643">
        <ele>55</ele>
        <time>2017-11-05T08:19:12Z</time>
      </trkpt>
      <trkpt lat="47.33598" lon="-1.32658">
        <ele>56</ele>
        <time>2017-11-05T08:19:24Z</time>
      </trkpt>
      <trkpt lat="47.33616" lon="-1.32687">
        <ele>51</ele>
        <time>2017-11-05T08:19:48Z</time>
      </trkpt>
      <trkpt lat="47.33616" lon="-1.32694">
        <ele>49</ele>
        <time>2017-11-05T08:19:54Z</time>
      </trkpt>
      <trkpt lat="47.33596" lon="-1.32718">
        <ele>43</ele>
        <time>2017-11-05T08:20:30Z</time>
      </trkpt>
      <trkpt lat="47.33584" lon="-1.32738">
        <ele>33</ele>
        <time>2017-11-05T08:20:42Z</time>
      </trkpt>
      <trkpt lat="47.33588" lon="-1.32746">
        <ele>31</ele>
        <time>2017-11-05T08:20:48Z</time>
      </trkpt>
      <trkpt lat="47.33597" lon="-1.32753">
        <ele>29</ele>
        <time>2017-11-05T08:20:54Z</time>
      </trkpt>
      <trkpt lat="47.33614" lon="-1.32767">
        <ele>28</ele>
        <time>2017-11-05T08:21:06Z</time>
      </trkpt>
      <trkpt lat="47.33643" lon="-1.32787">
        <ele>31</ele>
        <time>2017-11-05T08:21:24Z</time>
      </trkpt>
      <trkpt lat="47.33677" lon="-1.3283">
        <ele>32</ele>
        <time>2017-11-05T08:21:54Z</time>
      </trkpt>
      <trkpt lat="47.33695" lon="-1.32848">
        <ele>34</ele>
        <time>2017-11-05T08:22:06Z</time>
      </trkpt>
      <trkpt lat="47.33701" lon="-1.32857">
        <ele>34</ele>
        <time>2017-11-05T08:22:12Z</time>
      </trkpt>
      <trkpt lat="47.3372" lon="-1.32884">
        <ele>34</ele>
        <time>2017-11-05T08:22:30Z</time>
      </trkpt>
      <trkpt lat="47.33763" lon="-1.32923">
        <ele>38</ele>
        <time>2017-11-05T08:23:00Z</time>
      </trkpt>
      <trkpt lat="47.33782" lon="-1.32942">
        <ele>39</ele>
        <time>2017-11-05T08:23:12Z</time>
      </trkpt>
      <trkpt lat="47.33815" lon="-1.32958">
        <ele>39</ele>
        <time>2017-11-05T08:23:36Z</time>
      </trkpt>
      <trkpt lat="47.33832" lon="-1.32961">
        <ele>35</ele>
        <time>2017-11-05T08:23:54Z</time>
      </trkpt>
      <trkpt lat="47.33854" lon="-1.32976">
        <ele>38</ele>
        <time>2017-11-05T08:24:12Z</time>
      </trkpt>
      <trkpt lat="47.33861" lon="-1.32986">
        <ele>41</ele>
        <time>2017-11-05T08:24:18Z</time>
      </trkpt>
      <trkpt lat="47.33879" lon="-1.32988">
        <ele>43</ele>
        <time>2017-11-05T08:24:30Z</time>
      </trkpt>
      <trkpt lat="47.33916" lon="-1.32996">
        <ele>40</ele>
        <time>2017-11-05T08:24:54Z</time>
      </trkpt>
      <trkpt lat="47.33926" lon="-1.32996">
        <ele>40</ele>
        <time>2017-11-05T08:25:00Z</time>
      </trkpt>
      <trkpt lat="47.3394" lon="-1.33008">
        <ele>37</ele>
        <time>2017-11-05T08:25:12Z</time>
      </trkpt>
      <trkpt lat="47.3394" lon="-1.33017">
        <ele>36</ele>
        <time>2017-11-05T08:25:18Z</time>
      </trkpt>
      <trkpt lat="47.33936" lon="-1.33022">
        <ele>34</ele>
        <time>2017-11-05T08:25:24Z</time>
      </trkpt>
      <trkpt lat="47.33919" lon="-1.33057">
        <ele>36</ele>
        <time>2017-11-05T08:25:48Z</time>
      </trkpt>
      <trkpt lat="47.33912" lon="-1.33095">
        <ele>39</ele>
        <time>2017-11-05T08:26:06Z</time>
      </trkpt>
      <trkpt lat="47.33909" lon="-1.33119">
        <ele>41</ele>
        <time>2017-11-05T08:26:24Z</time>
      </trkpt>
      <trkpt lat="47.33904" lon="-1.33142">
        <ele>43</ele>
        <time>2017-11-05T08:26:36Z</time>
      </trkpt>
      <trkpt lat="47.33891" lon="-1.33177">
        <ele>46</ele>
        <time>2017-11-05T08:27:00Z</time>
      </trkpt>
      <trkpt lat="47.33881" lon="-1.33194">
        <ele>47</ele>
        <time>2017-11-05T08:27:12Z</time>
      </trkpt>
      <trkpt lat="47.33873" lon="-1.33224">
        <ele>51</ele>
        <time>2017-11-05T08:27:30Z</time>
      </trkpt>
      <trkpt lat="47.33871" lon="-1.33237">
        <ele>53</ele>
        <time>2017-11-05T08:27:36Z</time>
      </trkpt>
      <trkpt lat="47.33854" lon="-1.33273">
        <ele>58</ele>
        <time>2017-11-05T08:28:00Z</time>
      </trkpt>
      <trkpt lat="47.33851" lon="-1.33282">
        <ele>59</ele>
        <time>2017-11-05T08:28:06Z</time>
      </trkpt>
      <trkpt lat="47.33839" lon="-1.33326">
        <ele>64</ele>
        <time>2017-11-05T08:28:36Z</time>
      </trkpt>
      <trkpt lat="47.33834" lon="-1.3335">
        <ele>67</ele>
        <time>2017-11-05T08:28:48Z</time>
      </trkpt>
      <trkpt lat="47.33833" lon="-1.33362">
        <ele>67</ele>
        <time>2017-11-05T08:28:54Z</time>
      </trkpt>
      <trkpt lat="47.33822" lon="-1.33383">
        <ele>65</ele>
        <time>2017-11-05T08:29:06Z</time>
      </trkpt>
      <trkpt lat="47.33816" lon="-1.33403">
        <ele>65</ele>
        <time>2017-11-05T08:29:18Z</time>
      </trkpt>
      <trkpt lat="47.33799" lon="-1.33436">
        <ele>66</ele>
        <time>2017-11-05T08:29:36Z</time>
      </trkpt>
      <trkpt lat="47.33795" lon="-1.33456">
        <ele>67</ele>
        <time>2017-11-05T08:29:48Z</time>
      </trkpt>
      <trkpt lat="47.33765" lon="-1.33516">
        <ele>69</ele>
        <time>2017-11-05T08:30:18Z</time>
      </trkpt>
      <trkpt lat="47.33765" lon="-1.33521">
        <ele>70</ele>
        <time>2017-11-05T08:30:24Z</time>
      </trkpt>
      <trkpt lat="47.33772" lon="-1.33539">
        <ele>71</ele>
        <time>2017-11-05T08:30:36Z</time>
      </trkpt>
      <trkpt lat="47.33777" lon="-1.33547">
        <ele>71</ele>
        <time>2017-11-05T08:30:42Z</time>
      </trkpt>
      <trkpt lat="47.33785" lon="-1.33554">
        <ele>72</ele>
        <time>2017-11-05T08:30:48Z</time>
      </trkpt>
      <trkpt lat="47.338" lon="-1.33566">
        <ele>72</ele>
        <time>2017-11-05T08:31:00Z</time>
      </trkpt>
      <trkpt lat="47.33839" lon="-1.33612">
        <ele>72</ele>
        <time>2017-11-05T08:31:30Z</time>
      </trkpt>
      <trkpt lat="47.33871" lon="-1.33641">
        <ele>73</ele>
        <time>2017-11-05T08:31:54Z</time>
      </trkpt>
      <trkpt lat="47.33899" lon="-1.33678">
        <ele>73</ele>
        <time>2017-11-05T08:32:18Z</time>
      </trkpt>
      <trkpt lat="47.33906" lon="-1.33686">
        <ele>72</ele>
        <time>2017-11-05T08:32:24Z</time>
      </trkpt>
      <trkpt lat="47.33939" lon="-1.33714">
        <ele>73</ele>
        <time>2017-11-05T08:32:48Z</time>
      </trkpt>
      <trkpt lat="47.33966" lon="-1.3373">
        <ele>72</ele>
        <time>2017-11-05T08:33:06Z</time>
      </trkpt>
      <trkpt lat="47.33975" lon="-1.33737">
        <ele>72</ele>
        <time>2017-11-05T08:33:12Z</time>
      </trkpt>
      <trkpt lat="47.33998" lon="-1.3376">
        <ele>72</ele>
        <time>2017-11-05T08:33:30Z</time>
      </trkpt>
      <trkpt lat="47.34004" lon="-1.33759">
        <ele>72</ele>
        <time>2017-11-05T08:33:36Z</time>
      </trkpt>
      <trkpt lat="47.34012" lon="-1.33749">
        <ele>72</ele>
        <time>2017-11-05T08:33:42Z</time>
      </trkpt>
      <trkpt lat="47.34037" lon="-1.33703">
        <ele>71</ele>
        <time>2017-11-05T08:34:06Z</time>
      </trkpt>
      <trkpt lat="47.34042" lon="-1.33691">
        <ele>70</ele>
        <time>2017-11-05T08:34:12Z</time>
      </trkpt>
      <trkpt lat="47.34065" lon="-1.33646">
        <ele>68</ele>
        <time>2017-11-05T08:34:36Z</time>
      </trkpt>
      <trkpt lat="47.3407" lon="-1.33634">
        <ele>68</ele>
        <time>2017-11-05T08:34:42Z</time>
      </trkpt>
      <trkpt lat="47.34077" lon="-1.33612">
        <ele>66</ele>
        <time>2017-11-05T08:34:54Z</time>
      </trkpt>
      <trkpt lat="47.34097" lon="-1.33566">
        <ele>64</ele>
        <time>2017-11-05T08:35:18Z</time>
      </trkpt>
      <trkpt lat="47.34117" lon="-1.33513">
        <ele>59</ele>
        <time>2017-11-05T08:35:42Z</time>
      </trkpt>
      <trkpt lat="47.34128" lon="-1.33495">
        <ele>57</ele>
        <time>2017-11-05T08:35:54Z</time>
      </trkpt>
      <trkpt lat="47.34146" lon="-1.33461">
        <ele>53</ele>
        <time>2017-11-05T08:36:12Z</time>
      </trkpt>
      <trkpt lat="47.34156" lon="-1.33438">
        <ele>50</ele>
        <time>2017-11-05T08:36:24Z</time>
      </trkpt>
      <trkpt lat="47.34177" lon="-1.33412">
        <ele>47</ele>
        <time>2017-11-05T08:36:36Z</time>
      </trkpt>
      <trkpt lat="47.34184" lon="-1.33413">
        <ele>46</ele>
        <time>2017-11-05T08:36:42Z</time>
      </trkpt>
      <trkpt lat="47.342" lon="-1.33425">
        <ele>45</ele>
        <time>2017-11-05T08:36:54Z</time>
      </trkpt>
      <trkpt lat="47.34207" lon="-1.33446">
        <ele>42</ele>
        <time>2017-11-05T08:37:06Z</time>
      </trkpt>
      <trkpt lat="47.34221" lon="-1.33478">
        <ele>43</ele>
        <time>2017-11-05T08:37:24Z</time>
      </trkpt>
      <trkpt lat="47.34241" lon="-1.33498">
        <ele>44</ele>
        <time>2017-11-05T08:37:42Z</time>
      </trkpt>
      <trkpt lat="47.34257" lon="-1.33482">
        <ele>50</ele>
        <time>2017-11-05T08:38:00Z</time>
      </trkpt>
      <trkpt lat="47.34266" lon="-1.33472">
        <ele>52</ele>
        <time>2017-11-05T08:38:06Z</time>
      </trkpt>
      <trkpt lat="47.34273" lon="-1.33459">
        <ele>54</ele>
        <time>2017-11-05T08:38:18Z</time>
      </trkpt>
      <trkpt lat="47.34291" lon="-1.33435">
        <ele>57</ele>
        <time>2017-11-05T08:38:42Z</time>
      </trkpt>
      <trkpt lat="47.34301" lon="-1.33427">
        <ele>58</ele>
        <time>2017-11-05T08:38:54Z</time>
      </trkpt>
      <trkpt lat="47.34306" lon="-1.33424">
        <ele>58</ele>
        <time>2017-11-05T08:39:00Z</time>
      </trkpt>
      <trkpt lat="47.3432" lon="-1.33404">
        <ele>61</ele>
        <time>2017-11-05T08:39:20Z</time>
      </trkpt>
      <trkpt lat="47.34337" lon="-1.33386">
        <ele>64</ele>
        <time>2017-11-05T08:39:38Z</time>
      </trkpt>
      <trkpt lat="47.34346" lon="-1.33372">
        <ele>66</ele>
        <time>2017-11-05T08:39:50Z</time>
      </trkpt>
      <trkpt lat="47.3435" lon="-1.33365">
        <ele>67</ele>
        <time>2017-11-05T08:39:56Z</time>
      </trkpt>
      <trkpt lat="47.34387" lon="-1.33311">
        <ele>71</ele>
        <time>2017-11-05T08:40:38Z</time>
      </trkpt>
      <trkpt lat="47.34392" lon="-1.33302">
        <ele>72</ele>
        <time>2017-11-05T08:40:44Z</time>
      </trkpt>
      <trkpt lat="47.34405" lon="-1.33284">
        <ele>72</ele>
        <time>2017-11-05T08:40:56Z</time>
      </trkpt>
      <trkpt lat="47.34425" lon="-1.33259">
        <ele>72</ele>
        <time>2017-11-05T08:41:14Z</time>
      </trkpt>
      <trkpt lat="47.34435" lon="-1.33238">
        <ele>72</ele>
        <time>2017-11-05T08:41:26Z</time>
      </trkpt>
      <trkpt lat="47.34411" lon="-1.33223">
        <ele>71</ele>
        <time>2017-11-05T08:41:44Z</time>
      </trkpt>
      <trkpt lat="47.34383" lon="-1.33217">
        <ele>71</ele>
        <time>2017-11-05T08:42:02Z</time>
      </trkpt>
      <trkpt lat="47.34367" lon="-1.33211">
        <ele>71</ele>
        <time>2017-11-05T08:42:14Z</time>
      </trkpt>
      <trkpt lat="47.3435" lon="-1.33198">
        <ele>70</ele>
        <time>2017-11-05T08:42:26Z</time>
      </trkpt>
      <trkpt lat="47.34344" lon="-1.33188">
        <ele>70</ele>
        <time>2017-11-05T08:42:32Z</time>
      </trkpt>
      <trkpt lat="47.34332" lon="-1.33162">
        <ele>69</ele>
        <time>2017-11-05T08:42:44Z</time>
      </trkpt>
      <trkpt lat="47.34322" lon="-1.33142">
        <ele>69</ele>
        <time>2017-11-05T08:42:56Z</time>
      </trkpt>
      <trkpt lat="47.34308" lon="-1.33107">
        <ele>68</ele>
        <time>2017-11-05T08:43:14Z</time>
      </trkpt>
      <trkpt lat="47.34302" lon="-1.33095">
        <ele>68</ele>
        <time>2017-11-05T08:43:20Z</time>
      </trkpt>
      <trkpt lat="47.34277" lon="-1.33036">
        <ele>67</ele>
        <time>2017-11-05T08:43:50Z</time>
      </trkpt>
      <trkpt lat="47.34261" lon="-1.33037">
        <ele>67</ele>
        <time>2017-11-05T08:44:02Z</time>
      </trkpt>
      <trkpt lat="47.34236" lon="-1.33055">
        <ele>67</ele>
        <time>2017-11-05T08:44:20Z</time>
      </trkpt>
      <trkpt lat="47.34202" lon="-1.33083">
        <ele>65</ele>
        <time>2017-11-05T08:44:44Z</time>
      </trkpt>
      <trkpt lat="47.34192" lon="-1.3308">
        <ele>65</ele>
        <time>2017-11-05T08:44:50Z</time>
      </trkpt>
      <trkpt lat="47.34173" lon="-1.33044">
        <ele>64</ele>
        <time>2017-11-05T08:45:08Z</time>
      </trkpt>
      <trkpt lat="47.34168" lon="-1.33031">
        <ele>63</ele>
        <time>2017-11-05T08:45:14Z</time>
      </trkpt>
      <trkpt lat="47.34149" lon="-1.3298">
        <ele>61</ele>
        <time>2017-11-05T08:45:38Z</time>
      </trkpt>
      <trkpt lat="47.34144" lon="-1.32968">
        <ele>60</ele>
        <time>2017-11-05T08:45:44Z</time>
      </trkpt>
      <trkpt lat="47.34153" lon="-1.32933">
        <ele>59</ele>
        <time>2017-11-05T08:46:02Z</time>
      </trkpt>
      <trkpt lat="47.34133" lon="-1.32895">
        <ele>54</ele>
        <time>2017-11-05T08:46:26Z</time>
      </trkpt>
      <trkpt lat="47.34133" lon="-1.32885">
        <ele>53</ele>
        <time>2017-11-05T08:46:32Z</time>
      </trkpt>
      <trkpt lat="47.34143" lon="-1.32844">
        <ele>49</ele>
        <time>2017-11-05T08:46:56Z</time>
      </trkpt>
      <trkpt lat="47.34154" lon="-1.32819">
        <ele>46</ele>
        <time>2017-11-05T08:47:08Z</time>
      </trkpt>
      <trkpt lat="47.34159" lon="-1.32794">
        <ele>44</ele>
        <time>2017-11-05T08:47:20Z</time>
      </trkpt>
      <trkpt lat="47.34152" lon="-1.32753">
        <ele>45</ele>
        <time>2017-11-05T08:47:38Z</time>
      </trkpt>
      <trkpt lat="47.34154" lon="-1.32741">
        <ele>46</ele>
        <time>2017-11-05T08:47:44Z</time>
      </trkpt>
      <trkpt lat="47.3416" lon="-1.32726">
        <ele>46</ele>
        <time>2017-11-05T08:47:56Z</time>
      </trkpt>
      <trkpt lat="47.34168" lon="-1.32714">
        <ele>46</ele>
        <time>2017-11-05T08:48:02Z</time>
      </trkpt>
      <trkpt lat="47.34175" lon="-1.32708">
        <ele>46</ele>
        <time>2017-11-05T08:48:08Z</time>
      </trkpt>
      <trkpt lat="47.34212" lon="-1.32655">
        <ele>47</ele>
        <time>2017-11-05T08:48:50Z</time>
      </trkpt>
      <trkpt lat="47.34213" lon="-1.32623">
        <ele>49</ele>
        <time>2017-11-05T08:49:08Z</time>
      </trkpt>
      <trkpt lat="47.34209" lon="-1.32614">
        <ele>50</ele>
        <time>2017-11-05T08:49:14Z</time>
      </trkpt>
      <trkpt lat="47.34207" lon="-1.32604">
        <ele>51</ele>
        <time>2017-11-05T08:49:20Z</time>
      </trkpt>
      <trkpt lat="47.34196" lon="-1.32595">
        <ele>52</ele>
        <time>2017-11-05T08:49:32Z</time>
      </trkpt>
      <trkpt lat="47.34191" lon="-1.32586">
        <ele>53</ele>
        <time>2017-11-05T08:49:38Z</time>
      </trkpt>
      <trkpt lat="47.3415" lon="-1.32537">
        <ele>57</ele>
        <time>2017-11-05T08:50:26Z</time>
      </trkpt>
      <trkpt lat="47.34132" lon="-1.32521">
        <ele>58</ele>
        <time>2017-11-05T08:50:44Z</time>
      </trkpt>
      <trkpt lat="47.34128" lon="-1.32518">
        <ele>59</ele>
        <time>2017-11-05T08:50:50Z</time>
      </trkpt>
      <trkpt lat="47.34119" lon="-1.32505">
        <ele>58.3</ele>
        <time>2017-11-05T08:51:02Z</time>
      </trkpt>
      <trkpt lat="47.34107" lon="-1.32486">
        <ele>61</ele>
        <time>2017-11-05T08:51:14Z</time>
      </trkpt>
      <trkpt lat="47.34089" lon="-1.3247">
        <ele>62</ele>
        <time>2017-11-05T08:51:38Z</time>
      </trkpt>
      <trkpt lat="47.3408" lon="-1.32457">
        <ele>63</ele>
        <time>2017-11-05T08:51:50Z</time>
      </trkpt>
      <trkpt lat="47.34076" lon="-1.32447">
        <ele>62.4</ele>
        <time>2017-11-05T08:51:56Z</time>
      </trkpt>
      <trkpt lat="47.34067" lon="-1.32432">
        <ele>65</ele>
        <time>2017-11-05T08:52:08Z</time>
      </trkpt>
      <trkpt lat="47.34048" lon="-1.32418">
        <ele>66</ele>
        <time>2017-11-05T08:52:26Z</time>
      </trkpt>
      <trkpt lat="47.34041" lon="-1.32414">
        <ele>67</ele>
        <time>2017-11-05T08:52:32Z</time>
      </trkpt>
      <trkpt lat="47.34022" lon="-1.32388">
        <ele>68</ele>
        <time>2017-11-05T08:52:50Z</time>
      </trkpt>
      <trkpt lat="47.34018" lon="-1.32378">
        <ele>68</ele>
        <time>2017-11-05T08:52:56Z</time>
      </trkpt>
      <trkpt lat="47.3402" lon="-1.32329">
        <ele>71</ele>
        <time>2017-11-05T08:53:20Z</time>
      </trkpt>
      <trkpt lat="47.34016" lon="-1.32312">
        <ele>71</ele>
        <time>2017-11-05T08:53:32Z</time>
      </trkpt>
      <trkpt lat="47.34003" lon="-1.32277">
        <ele>71</ele>
        <time>2017-11-05T08:53:50Z</time>
      </trkpt>
      <trkpt lat="47.33986" lon="-1.32253">
        <ele>72</ele>
        <time>2017-11-05T08:54:08Z</time>
      </trkpt>
      <trkpt lat="47.33966" lon="-1.3222">
        <ele>71</ele>
        <time>2017-11-05T08:54:27Z</time>
      </trkpt>
      <trkpt lat="47.33958" lon="-1.32177">
        <ele>71</ele>
        <time>2017-11-05T08:54:44Z</time>
      </trkpt>
      <trkpt lat="47.33935" lon="-1.32153">
        <ele>72</ele>
        <time>2017-11-05T08:55:02Z</time>
      </trkpt>
      <trkpt lat="47.33918" lon="-1.32122">
        <ele>72</ele>
        <time>2017-11-05T08:55:20Z</time>
      </trkpt>
      <trkpt lat="47.339" lon="-1.32086">
        <ele>73</ele>
        <time>2017-11-05T08:55:38Z</time>
      </trkpt>
      <trkpt lat="47.33891" lon="-1.32062">
        <ele>73</ele>
        <time>2017-11-05T08:55:50Z</time>
      </trkpt>
      <trkpt lat="47.33885" lon="-1.32049">
        <ele>73</ele>
        <time>2017-11-05T08:55:56Z</time>
      </trkpt>
      <trkpt lat="47.3388" lon="-1.32021">
        <ele>73</ele>
        <time>2017-11-05T08:56:08Z</time>
      </trkpt>
      <trkpt lat="47.3387" lon="-1.31997">
        <ele>74</ele>
        <time>2017-11-05T08:56:20Z</time>
      </trkpt>
      <trkpt lat="47.33881" lon="-1.31973">
        <ele>74</ele>
        <time>2017-11-05T08:56:32Z</time>
      </trkpt>
      <trkpt lat="47.33886" lon="-1.31964">
        <ele>74</ele>
        <time>2017-11-05T08:56:38Z</time>
      </trkpt>
      <trkpt lat="47.33896" lon="-1.31929">
        <ele>75</ele>
        <time>2017-11-05T08:56:56Z</time>
      </trkpt>
      <trkpt lat="47.33917" lon="-1.31898">
        <ele>76</ele>
        <time>2017-11-05T08:57:14Z</time>
      </trkpt>
      <trkpt lat="47.33938" lon="-1.31853">
        <ele>77</ele>
        <time>2017-11-05T08:57:38Z</time>
      </trkpt>
      <trkpt lat="47.33951" lon="-1.31816">
        <ele>77</ele>
        <time>2017-11-05T08:57:56Z</time>
      </trkpt>
      <trkpt lat="47.33964" lon="-1.31797">
        <ele>77</ele>
        <time>2017-11-05T08:58:08Z</time>
      </trkpt>
      <trkpt lat="47.33979" lon="-1.3178">
        <ele>78</ele>
        <time>2017-11-05T08:58:20Z</time>
      </trkpt>
      <trkpt lat="47.33998" lon="-1.31751">
        <ele>78</ele>
        <time>2017-11-05T08:58:38Z</time>
      </trkpt>
      <trkpt lat="47.34013" lon="-1.31735">
        <ele>78</ele>
        <time>2017-11-05T08:58:50Z</time>
      </trkpt>
      <trkpt lat="47.34023" lon="-1.3174">
        <ele>78</ele>
        <time>2017-11-05T08:58:56Z</time>
      </trkpt>
      <trkpt lat="47.34057" lon="-1.31738">
        <ele>79</ele>
        <time>2017-11-05T08:59:20Z</time>
      </trkpt>
      <trkpt lat="47.34074" lon="-1.31737">
        <ele>79</ele>
        <time>2017-11-05T08:59:32Z</time>
      </trkpt>
      <trkpt lat="47.34098" lon="-1.31743">
        <ele>79</ele>
        <time>2017-11-05T08:59:50Z</time>
      </trkpt>
      <trkpt lat="47.34125" lon="-1.31741">
        <ele>79</ele>
        <time>2017-11-05T09:00:08Z</time>
      </trkpt>
      <trkpt lat="47.34145" lon="-1.31736">
        <ele>80</ele>
        <time>2017-11-05T09:00:20Z</time>
      </trkpt>
      <trkpt lat="47.34163" lon="-1.3174">
        <ele>79</ele>
        <time>2017-11-05T09:00:32Z</time>
      </trkpt>
      <trkpt lat="47.34188" lon="-1.31743">
        <ele>79</ele>
        <time>2017-11-05T09:00:44Z</time>
      </trkpt>
      <trkpt lat="47.34221" lon="-1.31742">
        <ele>79</ele>
        <time>2017-11-05T09:01:08Z</time>
      </trkpt>
      <trkpt lat="47.34238" lon="-1.31738">
        <ele>78</ele>
        <time>2017-11-05T09:01:20Z</time>
      </trkpt>
      <trkpt lat="47.34259" lon="-1.31736">
        <ele>77</ele>
        <time>2017-11-05T09:01:38Z</time>
      </trkpt>
      <trkpt lat="47.34276" lon="-1.31725">
        <ele>78</ele>
        <time>2017-11-05T09:01:50Z</time>
      </trkpt>
      <trkpt lat="47.34287" lon="-1.31706">
        <ele>77</ele>
        <time>2017-11-05T09:02:02Z</time>
      </trkpt>
      <trkpt lat="47.34283" lon="-1.31697">
        <ele>77</ele>
        <time>2017-11-05T09:02:08Z</time>
      </trkpt>
      <trkpt lat="47.34248" lon="-1.31656">
        <ele>77</ele>
        <time>2017-11-05T09:02:38Z</time>
      </trkpt>
      <trkpt lat="47.34229" lon="-1.31621">
        <ele>77</ele>
        <time>2017-11-05T09:02:56Z</time>
      </trkpt>
      <trkpt lat="47.34224" lon="-1.31612">
        <ele>77</ele>
        <time>2017-11-05T09:03:02Z</time>
      </trkpt>
      <trkpt lat="47.34202" lon="-1.31584">
        <ele>77</ele>
        <time>2017-11-05T09:03:20Z</time>
      </trkpt>
      <trkpt lat="47.34192" lon="-1.31575">
        <ele>77</ele>
        <time>2017-11-05T09:03:26Z</time>
      </trkpt>
      <trkpt lat="47.3418" lon="-1.31553">
        <ele>78</ele>
        <time>2017-11-05T09:03:38Z</time>
      </trkpt>
      <trkpt lat="47.34167" lon="-1.31533">
        <ele>79</ele>
        <time>2017-11-05T09:03:50Z</time>
      </trkpt>
      <trkpt lat="47.3415" lon="-1.31498">
        <ele>78</ele>
        <time>2017-11-05T09:04:08Z</time>
      </trkpt>
      <trkpt lat="47.34132" lon="-1.31465">
        <ele>77</ele>
        <time>2017-11-05T09:04:26Z</time>
      </trkpt>
      <trkpt lat="47.34131" lon="-1.3145">
        <ele>76</ele>
        <time>2017-11-05T09:04:32Z</time>
      </trkpt>
      <trkpt lat="47.34142" lon="-1.3143">
        <ele>74</ele>
        <time>2017-11-05T09:04:44Z</time>
      </trkpt>
      <trkpt lat="47.34155" lon="-1.31379">
        <ele>74</ele>
        <time>2017-11-05T09:05:08Z</time>
      </trkpt>
      <trkpt lat="47.34175" lon="-1.31355">
        <ele>74</ele>
        <time>2017-11-05T09:05:26Z</time>
      </trkpt>
      <trkpt lat="47.34215" lon="-1.31313">
        <ele>75</ele>
        <time>2017-11-05T09:05:56Z</time>
      </trkpt>
      <trkpt lat="47.34223" lon="-1.31305">
        <ele>75</ele>
        <time>2017-11-05T09:06:02Z</time>
      </trkpt>
      <trkpt lat="47.34235" lon="-1.31283">
        <ele>74.1</ele>
        <time>2017-11-05T09:06:14Z</time>
      </trkpt>
      <trkpt lat="47.34237" lon="-1.31268">
        <ele>75</ele>
        <time>2017-11-05T09:06:20Z</time>
      </trkpt>
      <trkpt lat="47.34235" lon="-1.31254">
        <ele>75</ele>
        <time>2017-11-05T09:06:26Z</time>
      </trkpt>
      <trkpt lat="47.34216" lon="-1.31228">
        <ele>73.2</ele>
        <time>2017-11-05T09:06:44Z</time>
      </trkpt>
      <trkpt lat="47.34203" lon="-1.31206">
        <ele>74</ele>
        <time>2017-11-05T09:06:56Z</time>
      </trkpt>
      <trkpt lat="47.34186" lon="-1.3116">
        <ele>72</ele>
        <time>2017-11-05T09:07:14Z</time>
      </trkpt>
      <trkpt lat="47.34162" lon="-1.31136">
        <ele>70</ele>
        <time>2017-11-05T09:07:32Z</time>
      </trkpt>
      <trkpt lat="47.34137" lon="-1.31117">
        <ele>69</ele>
        <time>2017-11-05T09:07:50Z</time>
      </trkpt>
      <trkpt lat="47.34117" lon="-1.31088">
        <ele>68</ele>
        <time>2017-11-05T09:08:09Z</time>
      </trkpt>
      <trkpt lat="47.34125" lon="-1.31064">
        <ele>68</ele>
        <time>2017-11-05T09:08:21Z</time>
      </trkpt>
      <trkpt lat="47.34133" lon="-1.31049">
        <ele>67</ele>
        <time>2017-11-05T09:08:32Z</time>
      </trkpt>
      <trkpt lat="47.34142" lon="-1.31039">
        <ele>67</ele>
        <time>2017-11-05T09:08:44Z</time>
      </trkpt>
      <trkpt lat="47.3415" lon="-1.31034">
        <ele>67</ele>
        <time>2017-11-05T09:08:50Z</time>
      </trkpt>
      <trkpt lat="47.34165" lon="-1.31023">
        <ele>66</ele>
        <time>2017-11-05T09:09:02Z</time>
      </trkpt>
      <trkpt lat="47.34181" lon="-1.31008">
        <ele>66</ele>
        <time>2017-11-05T09:09:14Z</time>
      </trkpt>
      <trkpt lat="47.34196" lon="-1.30993">
        <ele>65</ele>
        <time>2017-11-05T09:09:26Z</time>
      </trkpt>
      <trkpt lat="47.34232" lon="-1.30969">
        <ele>65</ele>
        <time>2017-11-05T09:09:50Z</time>
      </trkpt>
      <trkpt lat="47.34249" lon="-1.30954">
        <ele>64</ele>
        <time>2017-11-05T09:10:02Z</time>
      </trkpt>
      <trkpt lat="47.34256" lon="-1.30945">
        <ele>63</ele>
        <time>2017-11-05T09:10:08Z</time>
      </trkpt>
      <trkpt lat="47.34285" lon="-1.30896">
        <ele>61</ele>
        <time>2017-11-05T09:10:38Z</time>
      </trkpt>
      <trkpt lat="47.34295" lon="-1.30883">
        <ele>60</ele>
        <time>2017-11-05T09:10:56Z</time>
      </trkpt>
      <trkpt lat="47.34297" lon="-1.30875">
        <ele>60</ele>
        <time>2017-11-05T09:11:06Z</time>
      </trkpt>
      <trkpt lat="47.34304" lon="-1.30866">
        <ele>59</ele>
        <time>2017-11-05T09:11:12Z</time>
      </trkpt>
      <trkpt lat="47.3433" lon="-1.3085">
        <ele>59</ele>
        <time>2017-11-05T09:11:30Z</time>
      </trkpt>
      <trkpt lat="47.34337" lon="-1.30839">
        <ele>58</ele>
        <time>2017-11-05T09:11:36Z</time>
      </trkpt>
      <trkpt lat="47.34343" lon="-1.30827">
        <ele>57</ele>
        <time>2017-11-05T09:11:42Z</time>
      </trkpt>
      <trkpt lat="47.3435" lon="-1.30787">
        <ele>54</ele>
        <time>2017-11-05T09:12:00Z</time>
      </trkpt>
      <trkpt lat="47.34353" lon="-1.30773">
        <ele>53</ele>
        <time>2017-11-05T09:12:06Z</time>
      </trkpt>
      <trkpt lat="47.34376" lon="-1.3071">
        <ele>51</ele>
        <time>2017-11-05T09:12:36Z</time>
      </trkpt>
      <trkpt lat="47.34381" lon="-1.30681">
        <ele>50</ele>
        <time>2017-11-05T09:12:48Z</time>
      </trkpt>
      <trkpt lat="47.34397" lon="-1.30676">
        <ele>50</ele>
        <time>2017-11-05T09:13:00Z</time>
      </trkpt>
      <trkpt lat="47.34431" lon="-1.30701">
        <ele>51</ele>
        <time>2017-11-05T09:13:24Z</time>
      </trkpt>
      <trkpt lat="47.3444" lon="-1.30696">
        <ele>51</ele>
        <time>2017-11-05T09:13:30Z</time>
      </trkpt>
      <trkpt lat="47.34446" lon="-1.30681">
        <ele>50</ele>
        <time>2017-11-05T09:13:36Z</time>
      </trkpt>
      <trkpt lat="47.34461" lon="-1.30634">
        <ele>50</ele>
        <time>2017-11-05T09:13:54Z</time>
      </trkpt>
      <trkpt lat="47.3447" lon="-1.3059">
        <ele>48</ele>
        <time>2017-11-05T09:14:12Z</time>
      </trkpt>
      <trkpt lat="47.34476" lon="-1.30562">
        <ele>48</ele>
        <time>2017-11-05T09:14:24Z</time>
      </trkpt>
      <trkpt lat="47.34483" lon="-1.30519">
        <ele>46</ele>
        <time>2017-11-05T09:14:43Z</time>
      </trkpt>
      <trkpt lat="47.34492" lon="-1.30497">
        <ele>45</ele>
        <time>2017-11-05T09:14:54Z</time>
      </trkpt>
      <trkpt lat="47.34496" lon="-1.30488">
        <ele>46</ele>
        <time>2017-11-05T09:15:00Z</time>
      </trkpt>
      <trkpt lat="47.34515" lon="-1.30493">
        <ele>45</ele>
        <time>2017-11-05T09:15:18Z</time>
      </trkpt>
      <trkpt lat="47.34523" lon="-1.30454">
        <ele>43</ele>
        <time>2017-11-05T09:15:36Z</time>
      </trkpt>
      <trkpt lat="47.34528" lon="-1.30441">
        <ele>42</ele>
        <time>2017-11-05T09:15:42Z</time>
      </trkpt>
      <trkpt lat="47.3453" lon="-1.30419">
        <ele>41</ele>
        <time>2017-11-05T09:15:54Z</time>
      </trkpt>
      <trkpt lat="47.34537" lon="-1.3038">
        <ele>40</ele>
        <time>2017-11-05T09:16:12Z</time>
      </trkpt>
      <trkpt lat="47.34553" lon="-1.3036">
        <ele>40</ele>
        <time>2017-11-05T09:16:24Z</time>
      </trkpt>
      <trkpt lat="47.34566" lon="-1.30309">
        <ele>39</ele>
        <time>2017-11-05T09:16:48Z</time>
      </trkpt>
      <trkpt lat="47.34584" lon="-1.30284">
        <ele>36</ele>
        <time>2017-11-05T09:17:06Z</time>
      </trkpt>
      <trkpt lat="47.34585" lon="-1.30271">
        <ele>34</ele>
        <time>2017-11-05T09:17:12Z</time>
      </trkpt>
      <trkpt lat="47.34582" lon="-1.30235">
        <ele>30</ele>
        <time>2017-11-05T09:17:36Z</time>
      </trkpt>
      <trkpt lat="47.34555" lon="-1.30205">
        <ele>25</ele>
        <time>2017-11-05T09:17:59Z</time>
      </trkpt>
      <trkpt lat="47.34549" lon="-1.30204">
        <ele>25</ele>
        <time>2017-11-05T09:18:06Z</time>
      </trkpt>
      <trkpt lat="47.34544" lon="-1.30192">
        <ele>25</ele>
        <time>2017-11-05T09:18:18Z</time>
      </trkpt>
      <trkpt lat="47.34547" lon="-1.30194">
        <ele>25</ele>
        <time>2017-11-05T09:18:24Z</time>
      </trkpt>
      <trkpt lat="47.34561" lon="-1.302">
        <ele>25</ele>
        <time>2017-11-05T09:18:35Z</time>
      </trkpt>
      <trkpt lat="47.34576" lon="-1.30208">
        <ele>25</ele>
        <time>2017-11-05T09:18:53Z</time>
      </trkpt>
      <trkpt lat="47.34588" lon="-1.30207">
        <ele>26</ele>
        <time>2017-11-05T09:19:06Z</time>
      </trkpt>
      <trkpt lat="47.34593" lon="-1.30209">
        <ele>27</ele>
        <time>2017-11-05T09:19:12Z</time>
      </trkpt>
      <trkpt lat="47.34622" lon="-1.30187">
        <ele>28</ele>
        <time>2017-11-05T09:19:29Z</time>
      </trkpt>
      <trkpt lat="47.3464" lon="-1.30165">
        <ele>25</ele>
        <time>2017-11-05T09:19:41Z</time>
      </trkpt>
      <trkpt lat="47.3468" lon="-1.30189">
        <ele>22</ele>
        <time>2017-11-05T09:19:59Z</time>
      </trkpt>
      <trkpt lat="47.34711" lon="-1.30212">
        <ele>18</ele>
        <time>2017-11-05T09:20:17Z</time>
      </trkpt>
      <trkpt lat="47.34718" lon="-1.3022">
        <ele>18</ele>
        <time>2017-11-05T09:20:23Z</time>
      </trkpt>
      <trkpt lat="47.34737" lon="-1.30249">
        <ele>22</ele>
        <time>2017-11-05T09:20:42Z</time>
      </trkpt>
      <trkpt lat="47.34783" lon="-1.30268">
        <ele>23.2</ele>
        <time>2017-11-05T09:21:18Z</time>
      </trkpt>
      <trkpt lat="47.34792" lon="-1.30274">
        <ele>37</ele>
        <time>2017-11-05T09:21:24Z</time>
      </trkpt>
      <trkpt lat="47.34807" lon="-1.30278">
        <ele>36</ele>
        <time>2017-11-05T09:21:36Z</time>
      </trkpt>
      <trkpt lat="47.34817" lon="-1.30285">
        <ele>34</ele>
        <time>2017-11-05T09:21:42Z</time>
      </trkpt>
      <trkpt lat="47.34827" lon="-1.30289">
        <ele>23.4</ele>
        <time>2017-11-05T09:21:48Z</time>
      </trkpt>
      <trkpt lat="47.34849" lon="-1.30292">
        <ele>31</ele>
        <time>2017-11-05T09:22:00Z</time>
      </trkpt>
      <trkpt lat="47.34871" lon="-1.30311">
        <ele>30</ele>
        <time>2017-11-05T09:22:18Z</time>
      </trkpt>
      <trkpt lat="47.34874" lon="-1.30311">
        <ele>32</ele>
        <time>2017-11-05T09:22:24Z</time>
      </trkpt>
      <trkpt lat="47.34882" lon="-1.30297">
        <ele>37</ele>
        <time>2017-11-05T09:22:42Z</time>
      </trkpt>
      <trkpt lat="47.34886" lon="-1.30293">
        <ele>38</ele>
        <time>2017-11-05T09:22:52Z</time>
      </trkpt>
      <trkpt lat="47.34898" lon="-1.30288">
        <ele>40</ele>
        <time>2017-11-05T09:23:06Z</time>
      </trkpt>
      <trkpt lat="47.34903" lon="-1.30273">
        <ele>43</ele>
        <time>2017-11-05T09:23:24Z</time>
      </trkpt>
      <trkpt lat="47.34915" lon="-1.30257">
        <ele>44</ele>
        <time>2017-11-05T09:23:54Z</time>
      </trkpt>
      <trkpt lat="47.34921" lon="-1.30245">
        <ele>45</ele>
        <time>2017-11-05T09:24:08Z</time>
      </trkpt>
      <trkpt lat="47.34931" lon="-1.30237">
        <ele>47</ele>
        <time>2017-11-05T09:24:20Z</time>
      </trkpt>
      <trkpt lat="47.34936" lon="-1.30222">
        <ele>48</ele>
        <time>2017-11-05T09:24:38Z</time>
      </trkpt>
      <trkpt lat="47.34942" lon="-1.30209">
        <ele>49</ele>
        <time>2017-11-05T09:24:50Z</time>
      </trkpt>
      <trkpt lat="47.34956" lon="-1.30197">
        <ele>52</ele>
        <time>2017-11-05T09:25:02Z</time>
      </trkpt>
      <trkpt lat="47.34981" lon="-1.30173">
        <ele>53</ele>
        <time>2017-11-05T09:25:20Z</time>
      </trkpt>
      <trkpt lat="47.34987" lon="-1.30168">
        <ele>54</ele>
        <time>2017-11-05T09:25:26Z</time>
      </trkpt>
      <trkpt lat="47.35013" lon="-1.30138">
        <ele>56</ele>
        <time>2017-11-05T09:25:50Z</time>
      </trkpt>
      <trkpt lat="47.35023" lon="-1.30122">
        <ele>57</ele>
        <time>2017-11-05T09:26:02Z</time>
      </trkpt>
      <trkpt lat="47.35052" lon="-1.30088">
        <ele>61</ele>
        <time>2017-11-05T09:26:26Z</time>
      </trkpt>
      <trkpt lat="47.35066" lon="-1.30064">
        <ele>63</ele>
        <time>2017-11-05T09:26:44Z</time>
      </trkpt>
      <trkpt lat="47.35073" lon="-1.30054">
        <ele>64</ele>
        <time>2017-11-05T09:26:50Z</time>
      </trkpt>
      <trkpt lat="47.35087" lon="-1.3004">
        <ele>65</ele>
        <time>2017-11-05T09:27:08Z</time>
      </trkpt>
      <trkpt lat="47.35097" lon="-1.30021">
        <ele>67</ele>
        <time>2017-11-05T09:27:26Z</time>
      </trkpt>
      <trkpt lat="47.351" lon="-1.30001">
        <ele>68</ele>
        <time>2017-11-05T09:27:38Z</time>
      </trkpt>
      <trkpt lat="47.35127" lon="-1.29987">
        <ele>69</ele>
        <time>2017-11-05T09:27:50Z</time>
      </trkpt>
      <trkpt lat="47.35138" lon="-1.29976">
        <ele>69</ele>
        <time>2017-11-05T09:27:56Z</time>
      </trkpt>
      <trkpt lat="47.35156" lon="-1.29945">
        <ele>69</ele>
        <time>2017-11-05T09:28:14Z</time>
      </trkpt>
      <trkpt lat="47.35161" lon="-1.29933">
        <ele>69</ele>
        <time>2017-11-05T09:28:20Z</time>
      </trkpt>
      <trkpt lat="47.35162" lon="-1.29925">
        <ele>69</ele>
        <time>2017-11-05T09:28:26Z</time>
      </trkpt>
      <trkpt lat="47.35151" lon="-1.2991">
        <ele>69</ele>
        <time>2017-11-05T09:28:38Z</time>
      </trkpt>
      <trkpt lat="47.35132" lon="-1.29884">
        <ele>70</ele>
        <time>2017-11-05T09:28:56Z</time>
      </trkpt>
      <trkpt lat="47.35119" lon="-1.29862">
        <ele>69</ele>
        <time>2017-11-05T09:29:08Z</time>
      </trkpt>
      <trkpt lat="47.35097" lon="-1.29822">
        <ele>69</ele>
        <time>2017-11-05T09:29:32Z</time>
      </trkpt>
      <trkpt lat="47.35085" lon="-1.29803">
        <ele>68</ele>
        <time>2017-11-05T09:29:44Z</time>
      </trkpt>
      <trkpt lat="47.35065" lon="-1.29768">
        <ele>68</ele>
        <time>2017-11-05T09:30:02Z</time>
      </trkpt>
      <trkpt lat="47.35046" lon="-1.29737">
        <ele>68</ele>
        <time>2017-11-05T09:30:20Z</time>
      </trkpt>
      <trkpt lat="47.35039" lon="-1.29724">
        <ele>68</ele>
        <time>2017-11-05T09:30:26Z</time>
      </trkpt>
      <trkpt lat="47.35029" lon="-1.29699">
        <ele>67</ele>
        <time>2017-11-05T09:30:38Z</time>
      </trkpt>
      <trkpt lat="47.34997" lon="-1.29628">
        <ele>67</ele>
        <time>2017-11-05T09:31:14Z</time>
      </trkpt>
      <trkpt lat="47.3499" lon="-1.29615">
        <ele>67</ele>
        <time>2017-11-05T09:31:20Z</time>
      </trkpt>
      <trkpt lat="47.34977" lon="-1.29593">
        <ele>67</ele>
        <time>2017-11-05T09:31:32Z</time>
      </trkpt>
      <trkpt lat="47.34956" lon="-1.29563">
        <ele>67</ele>
        <time>2017-11-05T09:31:50Z</time>
      </trkpt>
      <trkpt lat="47.34938" lon="-1.29531">
        <ele>67</ele>
        <time>2017-11-05T09:32:08Z</time>
      </trkpt>
      <trkpt lat="47.34919" lon="-1.29503">
        <ele>67</ele>
        <time>2017-11-05T09:32:26Z</time>
      </trkpt>
      <trkpt lat="47.34912" lon="-1.29481">
        <ele>66</ele>
        <time>2017-11-05T09:32:38Z</time>
      </trkpt>
      <trkpt lat="47.3492" lon="-1.29467">
        <ele>67</ele>
        <time>2017-11-05T09:32:44Z</time>
      </trkpt>
      <trkpt lat="47.34928" lon="-1.29454">
        <ele>66</ele>
        <time>2017-11-05T09:32:50Z</time>
      </trkpt>
      <trkpt lat="47.34953" lon="-1.29432">
        <ele>66</ele>
        <time>2017-11-05T09:33:08Z</time>
      </trkpt>
      <trkpt lat="47.34981" lon="-1.29396">
        <ele>66</ele>
        <time>2017-11-05T09:33:32Z</time>
      </trkpt>
      <trkpt lat="47.35005" lon="-1.29371">
        <ele>64</ele>
        <time>2017-11-05T09:33:50Z</time>
      </trkpt>
      <trkpt lat="47.35023" lon="-1.29356">
        <ele>64</ele>
        <time>2017-11-05T09:34:02Z</time>
      </trkpt>
      <trkpt lat="47.35037" lon="-1.29331">
        <ele>61</ele>
        <time>2017-11-05T09:34:14Z</time>
      </trkpt>
      <trkpt lat="47.35057" lon="-1.29287">
        <ele>58</ele>
        <time>2017-11-05T09:34:38Z</time>
      </trkpt>
      <trkpt lat="47.35066" lon="-1.29283">
        <ele>58</ele>
        <time>2017-11-05T09:34:50Z</time>
      </trkpt>
      <trkpt lat="47.35063" lon="-1.29263">
        <ele>56</ele>
        <time>2017-11-05T09:35:02Z</time>
      </trkpt>
      <trkpt lat="47.35069" lon="-1.29258">
        <ele>55</ele>
        <time>2017-11-05T09:35:08Z</time>
      </trkpt>
      <trkpt lat="47.35099" lon="-1.29276">
        <ele>55</ele>
        <time>2017-11-05T09:35:26Z</time>
      </trkpt>
      <trkpt lat="47.35124" lon="-1.29271">
        <ele>53</ele>
        <time>2017-11-05T09:35:44Z</time>
      </trkpt>
      <trkpt lat="47.35128" lon="-1.2926">
        <ele>52</ele>
        <time>2017-11-05T09:35:50Z</time>
      </trkpt>
      <trkpt lat="47.35129" lon="-1.29226">
        <ele>49</ele>
        <time>2017-11-05T09:36:08Z</time>
      </trkpt>
      <trkpt lat="47.35135" lon="-1.29219">
        <ele>45.3</ele>
        <time>2017-11-05T09:36:14Z</time>
      </trkpt>
      <trkpt lat="47.35143" lon="-1.2921">
        <ele>47</ele>
        <time>2017-11-05T09:36:26Z</time>
      </trkpt>
      <trkpt lat="47.35178" lon="-1.29219">
        <ele>33.4</ele>
        <time>2017-11-05T09:36:44Z</time>
      </trkpt>
      <trkpt lat="47.35188" lon="-1.29217">
        <ele>44</ele>
        <time>2017-11-05T09:36:50Z</time>
      </trkpt>
      <trkpt lat="47.35193" lon="-1.29178">
        <ele>36</ele>
        <time>2017-11-05T09:37:08Z</time>
      </trkpt>
      <trkpt lat="47.35203" lon="-1.29181">
        <ele>34</ele>
        <time>2017-11-05T09:37:14Z</time>
      </trkpt>
      <trkpt lat="47.35224" lon="-1.29198">
        <ele>29</ele>
        <time>2017-11-05T09:37:32Z</time>
      </trkpt>
      <trkpt lat="47.35231" lon="-1.2921">
        <ele>27</ele>
        <time>2017-11-05T09:37:50Z</time>
      </trkpt>
      <trkpt lat="47.35243" lon="-1.29191">
        <ele>20</ele>
        <time>2017-11-05T09:38:02Z</time>
      </trkpt>
      <trkpt lat="47.35277" lon="-1.29219">
        <ele>16</ele>
        <time>2017-11-05T09:38:20Z</time>
      </trkpt>
      <trkpt lat="47.35283" lon="-1.29227">
        <ele>17</ele>
        <time>2017-11-05T09:38:26Z</time>
      </trkpt>
      <trkpt lat="47.35312" lon="-1.29274">
        <ele>25</ele>
        <time>2017-11-05T09:38:50Z</time>
      </trkpt>
      <trkpt lat="47.35318" lon="-1.29286">
        <ele>8.8</ele>
        <time>2017-11-05T09:38:56Z</time>
      </trkpt>
      <trkpt lat="47.35334" lon="-1.29329">
        <ele>29</ele>
        <time>2017-11-05T09:39:20Z</time>
      </trkpt>
      <trkpt lat="47.35335" lon="-1.2934">
        <ele>30</ele>
        <time>2017-11-05T09:39:26Z</time>
      </trkpt>
      <trkpt lat="47.35346" lon="-1.29355">
        <ele>24</ele>
        <time>2017-11-05T09:39:38Z</time>
      </trkpt>
      <trkpt lat="47.3536" lon="-1.29376">
        <ele>19</ele>
        <time>2017-11-05T09:39:50Z</time>
      </trkpt>
      <trkpt lat="47.35366" lon="-1.29393">
        <ele>19</ele>
        <time>2017-11-05T09:40:04Z</time>
      </trkpt>
      <trkpt lat="47.35369" lon="-1.29405">
        <ele>18</ele>
        <time>2017-11-05T09:40:10Z</time>
      </trkpt>
      <trkpt lat="47.35372" lon="-1.29413">
        <ele>16</ele>
        <time>2017-11-05T09:40:16Z</time>
      </trkpt>
      <trkpt lat="47.3536" lon="-1.29475">
        <ele>15</ele>
        <time>2017-11-05T09:40:40Z</time>
      </trkpt>
      <trkpt lat="47.3536" lon="-1.29504">
        <ele>12</ele>
        <time>2017-11-05T09:40:52Z</time>
      </trkpt>
      <trkpt lat="47.35361" lon="-1.29511">
        <ele>12</ele>
        <time>2017-11-05T09:40:58Z</time>
      </trkpt>
      <trkpt lat="47.35374" lon="-1.29549">
        <ele>15</ele>
        <time>2017-11-05T09:41:16Z</time>
      </trkpt>
      <trkpt lat="47.35383" lon="-1.29585">
        <ele>22</ele>
        <time>2017-11-05T09:41:40Z</time>
      </trkpt>
      <trkpt lat="47.35382" lon="-1.2959">
        <ele>23</ele>
        <time>2017-11-05T09:41:46Z</time>
      </trkpt>
      <trkpt lat="47.35397" lon="-1.29609">
        <ele>28</ele>
        <time>2017-11-05T09:42:04Z</time>
      </trkpt>
      <trkpt lat="47.35404" lon="-1.29611">
        <ele>27</ele>
        <time>2017-11-05T09:42:10Z</time>
      </trkpt>
      <trkpt lat="47.35425" lon="-1.2961">
        <ele>24</ele>
        <time>2017-11-05T09:42:28Z</time>
      </trkpt>
      <trkpt lat="47.3544" lon="-1.29608">
        <ele>9.7</ele>
        <time>2017-11-05T09:42:34Z</time>
      </trkpt>
      <trkpt lat="47.35451" lon="-1.29607">
        <ele>21</ele>
        <time>2017-11-05T09:42:46Z</time>
      </trkpt>
      <trkpt lat="47.35461" lon="-1.29594">
        <ele>16</ele>
        <time>2017-11-05T09:42:58Z</time>
      </trkpt>
      <trkpt lat="47.35487" lon="-1.29575">
        <ele>11</ele>
        <time>2017-11-05T09:43:16Z</time>
      </trkpt>
      <trkpt lat="47.35514" lon="-1.2954">
        <ele>11</ele>
        <time>2017-11-05T09:43:46Z</time>
      </trkpt>
      <trkpt lat="47.35528" lon="-1.29516">
        <ele>7</ele>
        <time>2017-11-05T09:43:58Z</time>
      </trkpt>
      <trkpt lat="47.35546" lon="-1.29494">
        <ele>12</ele>
        <time>2017-11-05T09:44:16Z</time>
      </trkpt>
      <trkpt lat="47.35553" lon="-1.29489">
        <ele>12</ele>
        <time>2017-11-05T09:44:22Z</time>
      </trkpt>
      <trkpt lat="47.35555" lon="-1.29468">
        <ele>12</ele>
        <time>2017-11-05T09:44:34Z</time>
      </trkpt>
      <trkpt lat="47.35566" lon="-1.29463">
        <ele>15</ele>
        <time>2017-11-05T09:44:40Z</time>
      </trkpt>
      <trkpt lat="47.35599" lon="-1.29455">
        <ele>18</ele>
        <time>2017-11-05T09:44:52Z</time>
      </trkpt>
      <trkpt lat="47.35634" lon="-1.2942">
        <ele>15</ele>
        <time>2017-11-05T09:45:28Z</time>
      </trkpt>
      <trkpt lat="47.35683" lon="-1.29401">
        <ele>8</ele>
        <time>2017-11-05T09:45:52Z</time>
      </trkpt>
      <trkpt lat="47.35711" lon="-1.29372">
        <ele>10</ele>
        <time>2017-11-05T09:46:16Z</time>
      </trkpt>
      <trkpt lat="47.35722" lon="-1.29373">
        <ele>11</ele>
        <time>2017-11-05T09:46:22Z</time>
      </trkpt>
      <trkpt lat="47.35743" lon="-1.29368">
        <ele>12</ele>
        <time>2017-11-05T09:46:34Z</time>
      </trkpt>
      <trkpt lat="47.3575" lon="-1.29362">
        <ele>10</ele>
        <time>2017-11-05T09:46:40Z</time>
      </trkpt>
      <trkpt lat="47.35753" lon="-1.29328">
        <ele>10</ele>
        <time>2017-11-05T09:46:58Z</time>
      </trkpt>
      <trkpt lat="47.35758" lon="-1.29332">
        <ele>11</ele>
        <time>2017-11-05T09:47:04Z</time>
      </trkpt>
      <trkpt lat="47.35775" lon="-1.29362">
        <ele>16</ele>
        <time>2017-11-05T09:47:22Z</time>
      </trkpt>
      <trkpt lat="47.35795" lon="-1.29406">
        <ele>21</ele>
        <time>2017-11-05T09:47:52Z</time>
      </trkpt>
      <trkpt lat="47.35808" lon="-1.29428">
        <ele>24</ele>
        <time>2017-11-05T09:48:10Z</time>
      </trkpt>
      <trkpt lat="47.35815" lon="-1.29444">
        <ele>27</ele>
        <time>2017-11-05T09:48:22Z</time>
      </trkpt>
      <trkpt lat="47.35821" lon="-1.29457">
        <ele>27</ele>
        <time>2017-11-05T09:48:34Z</time>
      </trkpt>
      <trkpt lat="47.35828" lon="-1.2947">
        <ele>31</ele>
        <time>2017-11-05T09:48:46Z</time>
      </trkpt>
      <trkpt lat="47.35849" lon="-1.2951">
        <ele>38</ele>
        <time>2017-11-05T09:49:22Z</time>
      </trkpt>
      <trkpt lat="47.35857" lon="-1.29522">
        <ele>40</ele>
        <time>2017-11-05T09:49:34Z</time>
      </trkpt>
      <trkpt lat="47.35864" lon="-1.29535">
        <ele>41</ele>
        <time>2017-11-05T09:49:46Z</time>
      </trkpt>
      <trkpt lat="47.35868" lon="-1.29539">
        <ele>41</ele>
        <time>2017-11-05T09:49:52Z</time>
      </trkpt>
      <trkpt lat="47.35878" lon="-1.2953">
        <ele>43</ele>
        <time>2017-11-05T09:50:04Z</time>
      </trkpt>
      <trkpt lat="47.35885" lon="-1.29537">
        <ele>44</ele>
        <time>2017-11-05T09:50:16Z</time>
      </trkpt>
      <trkpt lat="47.35896" lon="-1.2952">
        <ele>45</ele>
        <time>2017-11-05T09:50:34Z</time>
      </trkpt>
      <trkpt lat="47.35913" lon="-1.29501">
        <ele>46</ele>
        <time>2017-11-05T09:50:52Z</time>
      </trkpt>
      <trkpt lat="47.35914" lon="-1.29495">
        <ele>46</ele>
        <time>2017-11-05T09:50:58Z</time>
      </trkpt>
      <trkpt lat="47.35915" lon="-1.29478">
        <ele>46</ele>
        <time>2017-11-05T09:51:10Z</time>
      </trkpt>
      <trkpt lat="47.35913" lon="-1.2947">
        <ele>46</ele>
        <time>2017-11-05T09:51:16Z</time>
      </trkpt>
      <trkpt lat="47.35904" lon="-1.29449">
        <ele>45</ele>
        <time>2017-11-05T09:51:28Z</time>
      </trkpt>
      <trkpt lat="47.35897" lon="-1.29429">
        <ele>45</ele>
        <time>2017-11-05T09:51:40Z</time>
      </trkpt>
      <trkpt lat="47.35895" lon="-1.29395">
        <ele>44</ele>
        <time>2017-11-05T09:51:58Z</time>
      </trkpt>
      <trkpt lat="47.35904" lon="-1.29381">
        <ele>46</ele>
        <time>2017-11-05T09:52:04Z</time>
      </trkpt>
      <trkpt lat="47.35915" lon="-1.29374">
        <ele>47</ele>
        <time>2017-11-05T09:52:16Z</time>
      </trkpt>
      <trkpt lat="47.35923" lon="-1.29365">
        <ele>47</ele>
        <time>2017-11-05T09:52:28Z</time>
      </trkpt>
      <trkpt lat="47.35963" lon="-1.29348">
        <ele>45</ele>
        <time>2017-11-05T09:52:52Z</time>
      </trkpt>
      <trkpt lat="47.35977" lon="-1.29337">
        <ele>43</ele>
        <time>2017-11-05T09:52:58Z</time>
      </trkpt>
      <trkpt lat="47.35982" lon="-1.29327">
        <ele>42</ele>
        <time>2017-11-05T09:53:10Z</time>
      </trkpt>
      <trkpt lat="47.35988" lon="-1.29302">
        <ele>39</ele>
        <time>2017-11-05T09:53:22Z</time>
      </trkpt>
      <trkpt lat="47.35994" lon="-1.29298">
        <ele>37</ele>
        <time>2017-11-05T09:53:28Z</time>
      </trkpt>
      <trkpt lat="47.36012" lon="-1.29295">
        <ele>33</ele>
        <time>2017-11-05T09:53:52Z</time>
      </trkpt>
      <trkpt lat="47.36015" lon="-1.29292">
        <ele>32</ele>
        <time>2017-11-05T09:53:58Z</time>
      </trkpt>
      <trkpt lat="47.36018" lon="-1.29284">
        <ele>30</ele>
        <time>2017-11-05T09:54:04Z</time>
      </trkpt>
      <trkpt lat="47.36028" lon="-1.29246">
        <ele>29</ele>
        <time>2017-11-05T09:54:28Z</time>
      </trkpt>
      <trkpt lat="47.36022" lon="-1.29231">
        <ele>29</ele>
        <time>2017-11-05T09:54:40Z</time>
      </trkpt>
      <trkpt lat="47.36017" lon="-1.29212">
        <ele>27</ele>
        <time>2017-11-05T09:54:52Z</time>
      </trkpt>
      <trkpt lat="47.36009" lon="-1.29171">
        <ele>24</ele>
        <time>2017-11-05T09:55:22Z</time>
      </trkpt>
      <trkpt lat="47.3601" lon="-1.29163">
        <ele>22</ele>
        <time>2017-11-05T09:55:28Z</time>
      </trkpt>
      <trkpt lat="47.36015" lon="-1.2916">
        <ele>22</ele>
        <time>2017-11-05T09:55:34Z</time>
      </trkpt>
      <trkpt lat="47.36029" lon="-1.29141">
        <ele>21</ele>
        <time>2017-11-05T09:55:52Z</time>
      </trkpt>
      <trkpt lat="47.36047" lon="-1.29136">
        <ele>22</ele>
        <time>2017-11-05T09:56:10Z</time>
      </trkpt>
      <trkpt lat="47.36056" lon="-1.29128">
        <ele>23</ele>
        <time>2017-11-05T09:56:26Z</time>
      </trkpt>
      <trkpt lat="47.36065" lon="-1.29108">
        <ele>23</ele>
        <time>2017-11-05T09:56:38Z</time>
      </trkpt>
      <trkpt lat="47.36075" lon="-1.291">
        <ele>23</ele>
        <time>2017-11-05T09:56:50Z</time>
      </trkpt>
      <trkpt lat="47.36084" lon="-1.29085">
        <ele>25</ele>
        <time>2017-11-05T09:57:08Z</time>
      </trkpt>
      <trkpt lat="47.36089" lon="-1.2906">
        <ele>23</ele>
        <time>2017-11-05T09:57:25Z</time>
      </trkpt>
      <trkpt lat="47.36106" lon="-1.29031">
        <ele>25</ele>
        <time>2017-11-05T09:57:44Z</time>
      </trkpt>
      <trkpt lat="47.3611" lon="-1.28998">
        <ele>20</ele>
        <time>2017-11-05T09:58:02Z</time>
      </trkpt>
      <trkpt lat="47.36129" lon="-1.2895">
        <ele>22</ele>
        <time>2017-11-05T09:58:37Z</time>
      </trkpt>
      <trkpt lat="47.36134" lon="-1.28943">
        <ele>23</ele>
        <time>2017-11-05T09:58:44Z</time>
      </trkpt>
      <trkpt lat="47.36142" lon="-1.28904">
        <ele>18</ele>
        <time>2017-11-05T09:59:08Z</time>
      </trkpt>
      <trkpt lat="47.36142" lon="-1.28893">
        <ele>15</ele>
        <time>2017-11-05T09:59:14Z</time>
      </trkpt>
      <trkpt lat="47.36151" lon="-1.28875">
        <ele>18</ele>
        <time>2017-11-05T09:59:32Z</time>
      </trkpt>
      <trkpt lat="47.36155" lon="-1.28864">
        <ele>17</ele>
        <time>2017-11-05T09:59:38Z</time>
      </trkpt>
      <trkpt lat="47.36163" lon="-1.28842">
        <ele>12</ele>
        <time>2017-11-05T09:59:55Z</time>
      </trkpt>
      <trkpt lat="47.3617" lon="-1.28823">
        <ele>11</ele>
        <time>2017-11-05T10:00:08Z</time>
      </trkpt>
      <trkpt lat="47.36174" lon="-1.28819">
        <ele>13</ele>
        <time>2017-11-05T10:00:14Z</time>
      </trkpt>
      <trkpt lat="47.36175" lon="-1.28809">
        <ele>12</ele>
        <time>2017-11-05T10:00:20Z</time>
      </trkpt>
      <trkpt lat="47.36182" lon="-1.2879">
        <ele>12</ele>
        <time>2017-11-05T10:00:32Z</time>
      </trkpt>
      <trkpt lat="47.36191" lon="-1.28756">
        <ele>8</ele>
        <time>2017-11-05T10:00:56Z</time>
      </trkpt>
      <trkpt lat="47.36195" lon="-1.2875">
        <ele>8</ele>
        <time>2017-11-05T10:01:02Z</time>
      </trkpt>
      <trkpt lat="47.36207" lon="-1.28741">
        <ele>8</ele>
        <time>2017-11-05T10:01:14Z</time>
      </trkpt>
      <trkpt lat="47.36216" lon="-1.28727">
        <ele>7</ele>
        <time>2017-11-05T10:01:32Z</time>
      </trkpt>
      <trkpt lat="47.36236" lon="-1.28717">
        <ele>7</ele>
        <time>2017-11-05T10:01:43Z</time>
      </trkpt>
      <trkpt lat="47.3626" lon="-1.28711">
        <ele>9</ele>
        <time>2017-11-05T10:02:02Z</time>
      </trkpt>
      <trkpt lat="47.36291" lon="-1.28715">
        <ele>11</ele>
        <time>2017-11-05T10:02:19Z</time>
      </trkpt>
      <trkpt lat="47.3631" lon="-1.2872">
        <ele>12</ele>
        <time>2017-11-05T10:02:32Z</time>
      </trkpt>
      <trkpt lat="47.36327" lon="-1.28715">
        <ele>10</ele>
        <time>2017-11-05T10:02:49Z</time>
      </trkpt>
      <trkpt lat="47.36347" lon="-1.28728">
        <ele>12</ele>
        <time>2017-11-05T10:03:02Z</time>
      </trkpt>
      <trkpt lat="47.36365" lon="-1.28762">
        <ele>11</ele>
        <time>2017-11-05T10:03:20Z</time>
      </trkpt>
      <trkpt lat="47.36376" lon="-1.28749">
        <ele>7</ele>
        <time>2017-11-05T10:03:32Z</time>
      </trkpt>
      <trkpt lat="47.36374" lon="-1.28722">
        <ele>6</ele>
        <time>2017-11-05T10:03:44Z</time>
      </trkpt>
      <trkpt lat="47.36368" lon="-1.28698">
        <ele>7</ele>
        <time>2017-11-05T10:03:56Z</time>
      </trkpt>
      <trkpt lat="47.36368" lon="-1.28679">
        <ele>7</ele>
        <time>2017-11-05T10:04:01Z</time>
      </trkpt>
      <trkpt lat="47.36362" lon="-1.28633">
        <ele>10</ele>
        <time>2017-11-05T10:04:25Z</time>
      </trkpt>
      <trkpt lat="47.36356" lon="-1.2862">
        <ele>11</ele>
        <time>2017-11-05T10:04:31Z</time>
      </trkpt>
      <trkpt lat="47.3634" lon="-1.28597">
        <ele>14</ele>
        <time>2017-11-05T10:04:43Z</time>
      </trkpt>
      <trkpt lat="47.36329" lon="-1.28594">
        <ele>11</ele>
        <time>2017-11-05T10:04:49Z</time>
      </trkpt>
      <trkpt lat="47.3631" lon="-1.28594">
        <ele>9</ele>
        <time>2017-11-05T10:05:01Z</time>
      </trkpt>
      <trkpt lat="47.3628" lon="-1.28599">
        <ele>9</ele>
        <time>2017-11-05T10:05:20Z</time>
      </trkpt>
      <trkpt lat="47.36271" lon="-1.28605">
        <ele>8</ele>
        <time>2017-11-05T10:05:26Z</time>
      </trkpt>
      <trkpt lat="47.36272" lon="-1.28582">
        <ele>12</ele>
        <time>2017-11-05T10:05:44Z</time>
      </trkpt>
      <trkpt lat="47.36265" lon="-1.28574">
        <ele>10</ele>
        <time>2017-11-05T10:05:55Z</time>
      </trkpt>
      <trkpt lat="47.36252" lon="-1.28578">
        <ele>8</ele>
        <time>2017-11-05T10:06:07Z</time>
      </trkpt>
      <trkpt lat="47.36223" lon="-1.28581">
        <ele>16</ele>
        <time>2017-11-05T10:06:26Z</time>
      </trkpt>
      <trkpt lat="47.36223" lon="-1.28576">
        <ele>17</ele>
        <time>2017-11-05T10:06:38Z</time>
      </trkpt>
      <trkpt lat="47.36218" lon="-1.2858">
        <ele>17</ele>
        <time>2017-11-05T10:06:40Z</time>
      </trkpt>
      <trkpt lat="47.36212" lon="-1.2859">
        <ele>16</ele>
        <time>2017-11-05T10:06:49Z</time>
      </trkpt>
      <trkpt lat="47.362" lon="-1.28597">
        <ele>14</ele>
        <time>2017-11-05T10:07:01Z</time>
      </trkpt>
      <trkpt lat="47.36176" lon="-1.28617">
        <ele>16</ele>
        <time>2017-11-05T10:07:25Z</time>
      </trkpt>
      <trkpt lat="47.36151" lon="-1.28644">
        <ele>20</ele>
        <time>2017-11-05T10:07:43Z</time>
      </trkpt>
      <trkpt lat="47.36138" lon="-1.28657">
        <ele>22</ele>
        <time>2017-11-05T10:07:55Z</time>
      </trkpt>
      <trkpt lat="47.36128" lon="-1.28671">
        <ele>21</ele>
        <time>2017-11-05T10:08:07Z</time>
      </trkpt>
      <trkpt lat="47.36117" lon="-1.28711">
        <ele>18</ele>
        <time>2017-11-05T10:08:25Z</time>
      </trkpt>
      <trkpt lat="47.36113" lon="-1.28738">
        <ele>13</ele>
        <time>2017-11-05T10:08:37Z</time>
      </trkpt>
      <trkpt lat="47.36093" lon="-1.28778">
        <ele>19</ele>
        <time>2017-11-05T10:09:01Z</time>
      </trkpt>
      <trkpt lat="47.36087" lon="-1.28785">
        <ele>22</ele>
        <time>2017-11-05T10:09:07Z</time>
      </trkpt>
      <trkpt lat="47.3608" lon="-1.28819">
        <ele>18</ele>
        <time>2017-11-05T10:09:25Z</time>
      </trkpt>
      <trkpt lat="47.36063" lon="-1.2887">
        <ele>16</ele>
        <time>2017-11-05T10:09:49Z</time>
      </trkpt>
      <trkpt lat="47.36061" lon="-1.28879">
        <ele>16</ele>
        <time>2017-11-05T10:09:55Z</time>
      </trkpt>
      <trkpt lat="47.36056" lon="-1.2888">
        <ele>17</ele>
        <time>2017-11-05T10:10:07Z</time>
      </trkpt>
      <trkpt lat="47.36038" lon="-1.28878">
        <ele>24</ele>
        <time>2017-11-05T10:10:27Z</time>
      </trkpt>
      <trkpt lat="47.36034" lon="-1.28881">
        <ele>24</ele>
        <time>2017-11-05T10:10:33Z</time>
      </trkpt>
      <trkpt lat="47.36022" lon="-1.28878">
        <ele>18.2</ele>
        <time>2017-11-05T10:10:45Z</time>
      </trkpt>
      <trkpt lat="47.36014" lon="-1.28879">
        <ele>26</ele>
        <time>2017-11-05T10:10:57Z</time>
      </trkpt>
      <trkpt lat="47.36007" lon="-1.28876">
        <ele>28</ele>
        <time>2017-11-05T10:11:09Z</time>
      </trkpt>
      <trkpt lat="47.35995" lon="-1.2886">
        <ele>35</ele>
        <time>2017-11-05T10:11:33Z</time>
      </trkpt>
      <trkpt lat="47.35984" lon="-1.28852">
        <ele>35</ele>
        <time>2017-11-05T10:11:51Z</time>
      </trkpt>
      <trkpt lat="47.35981" lon="-1.28847">
        <ele>36</ele>
        <time>2017-11-05T10:11:57Z</time>
      </trkpt>
      <trkpt lat="47.35974" lon="-1.28835">
        <ele>37</ele>
        <time>2017-11-05T10:12:14Z</time>
      </trkpt>
      <trkpt lat="47.35972" lon="-1.28827">
        <ele>38</ele>
        <time>2017-11-05T10:12:21Z</time>
      </trkpt>
      <trkpt lat="47.35972" lon="-1.28825">
        <ele>38</ele>
        <time>2017-11-05T10:12:22Z</time>
      </trkpt>
      <trkpt lat="47.35989" lon="-1.28801">
        <ele>41</ele>
        <time>2017-11-05T10:12:39Z</time>
      </trkpt>
      <trkpt lat="47.36007" lon="-1.28801">
        <ele>42</ele>
        <time>2017-11-05T10:12:51Z</time>
      </trkpt>
      <trkpt lat="47.36023" lon="-1.28785">
        <ele>45</ele>
        <time>2017-11-05T10:13:15Z</time>
      </trkpt>
      <trkpt lat="47.36028" lon="-1.28775">
        <ele>46</ele>
        <time>2017-11-05T10:13:21Z</time>
      </trkpt>
      <trkpt lat="47.36039" lon="-1.28765">
        <ele>50</ele>
        <time>2017-11-05T10:13:38Z</time>
      </trkpt>
      <trkpt lat="47.36037" lon="-1.28759">
        <ele>50</ele>
        <time>2017-11-05T10:13:44Z</time>
      </trkpt>
      <trkpt lat="47.36029" lon="-1.28722">
        <ele>52</ele>
        <time>2017-11-05T10:14:08Z</time>
      </trkpt>
      <trkpt lat="47.36027" lon="-1.28717">
        <ele>53</ele>
        <time>2017-11-05T10:14:14Z</time>
      </trkpt>
      <trkpt lat="47.36027" lon="-1.28695">
        <ele>54</ele>
        <time>2017-11-05T10:14:26Z</time>
      </trkpt>
      <trkpt lat="47.36029" lon="-1.28688">
        <ele>54</ele>
        <time>2017-11-05T10:14:32Z</time>
      </trkpt>
      <trkpt lat="47.36041" lon="-1.28677">
        <ele>54</ele>
        <time>2017-11-05T10:14:49Z</time>
      </trkpt>
      <trkpt lat="47.3604" lon="-1.28649">
        <ele>54</ele>
        <time>2017-11-05T10:15:19Z</time>
      </trkpt>
      <trkpt lat="47.36043" lon="-1.28633">
        <ele>57</ele>
        <time>2017-11-05T10:15:31Z</time>
      </trkpt>
      <trkpt lat="47.3605" lon="-1.28631">
        <ele>59</ele>
        <time>2017-11-05T10:15:43Z</time>
      </trkpt>
      <trkpt lat="47.3605" lon="-1.2862">
        <ele>59</ele>
        <time>2017-11-05T10:15:49Z</time>
      </trkpt>
      <trkpt lat="47.36067" lon="-1.28557">
        <ele>61</ele>
        <time>2017-11-05T10:16:25Z</time>
      </trkpt>
      <trkpt lat="47.36084" lon="-1.28553">
        <ele>60</ele>
        <time>2017-11-05T10:16:44Z</time>
      </trkpt>
      <trkpt lat="47.36115" lon="-1.28531">
        <ele>59</ele>
        <time>2017-11-05T10:17:21Z</time>
      </trkpt>
      <trkpt lat="47.36124" lon="-1.28527">
        <ele>58</ele>
        <time>2017-11-05T10:17:25Z</time>
      </trkpt>
      <trkpt lat="47.36151" lon="-1.28527">
        <ele>53</ele>
        <time>2017-11-05T10:17:37Z</time>
      </trkpt>
      <trkpt lat="47.36161" lon="-1.28518">
        <ele>51</ele>
        <time>2017-11-05T10:17:43Z</time>
      </trkpt>
      <trkpt lat="47.36192" lon="-1.28498">
        <ele>39</ele>
        <time>2017-11-05T10:18:01Z</time>
      </trkpt>
      <trkpt lat="47.36199" lon="-1.2849">
        <ele>37</ele>
        <time>2017-11-05T10:18:07Z</time>
      </trkpt>
      <trkpt lat="47.36219" lon="-1.28445">
        <ele>31</ele>
        <time>2017-11-05T10:18:31Z</time>
      </trkpt>
      <trkpt lat="47.36221" lon="-1.28434">
        <ele>30</ele>
        <time>2017-11-05T10:18:37Z</time>
      </trkpt>
      <trkpt lat="47.36235" lon="-1.28427">
        <ele>25</ele>
        <time>2017-11-05T10:18:43Z</time>
      </trkpt>
      <trkpt lat="47.36244" lon="-1.28414">
        <ele>31</ele>
        <time>2017-11-05T10:18:55Z</time>
      </trkpt>
      <trkpt lat="47.36244" lon="-1.28405">
        <ele>34</ele>
        <time>2017-11-05T10:19:01Z</time>
      </trkpt>
      <trkpt lat="47.36238" lon="-1.28386">
        <ele>41</ele>
        <time>2017-11-05T10:19:13Z</time>
      </trkpt>
      <trkpt lat="47.36228" lon="-1.28377">
        <ele>43</ele>
        <time>2017-11-05T10:19:25Z</time>
      </trkpt>
      <trkpt lat="47.36223" lon="-1.28373">
        <ele>43</ele>
        <time>2017-11-05T10:19:31Z</time>
      </trkpt>
      <trkpt lat="47.36199" lon="-1.28362">
        <ele>45</ele>
        <time>2017-11-05T10:19:55Z</time>
      </trkpt>
      <trkpt lat="47.36183" lon="-1.28343">
        <ele>48</ele>
        <time>2017-11-05T10:20:19Z</time>
      </trkpt>
      <trkpt lat="47.36167" lon="-1.28337">
        <ele>49</ele>
        <time>2017-11-05T10:20:37Z</time>
      </trkpt>
      <trkpt lat="47.36148" lon="-1.28333">
        <ele>51</ele>
        <time>2017-11-05T10:20:55Z</time>
      </trkpt>
      <trkpt lat="47.36145" lon="-1.28331">
        <ele>46.7</ele>
        <time>2017-11-05T10:21:01Z</time>
      </trkpt>
      <trkpt lat="47.36124" lon="-1.2832">
        <ele>53</ele>
        <time>2017-11-05T10:21:25Z</time>
      </trkpt>
      <trkpt lat="47.36117" lon="-1.28309">
        <ele>54</ele>
        <time>2017-11-05T10:21:37Z</time>
      </trkpt>
      <trkpt lat="47.36099" lon="-1.28291">
        <ele>55</ele>
        <time>2017-11-05T10:21:55Z</time>
      </trkpt>
      <trkpt lat="47.36093" lon="-1.28279">
        <ele>55</ele>
        <time>2017-11-05T10:22:07Z</time>
      </trkpt>
      <trkpt lat="47.36088" lon="-1.28257">
        <ele>57</ele>
        <time>2017-11-05T10:22:25Z</time>
      </trkpt>
      <trkpt lat="47.36088" lon="-1.28225">
        <ele>60</ele>
        <time>2017-11-05T10:22:43Z</time>
      </trkpt>
      <trkpt lat="47.36086" lon="-1.2819">
        <ele>63</ele>
        <time>2017-11-05T10:23:01Z</time>
      </trkpt>
      <trkpt lat="47.36074" lon="-1.28137">
        <ele>65</ele>
        <time>2017-11-05T10:23:19Z</time>
      </trkpt>
      <trkpt lat="47.36073" lon="-1.28115">
        <ele>66</ele>
        <time>2017-11-05T10:23:31Z</time>
      </trkpt>
      <trkpt lat="47.36082" lon="-1.28113">
        <ele>65</ele>
        <time>2017-11-05T10:23:43Z</time>
      </trkpt>
      <trkpt lat="47.36071" lon="-1.28115">
        <ele>66</ele>
        <time>2017-11-05T10:23:55Z</time>
      </trkpt>
      <trkpt lat="47.36049" lon="-1.28133">
        <ele>66</ele>
        <time>2017-11-05T10:24:13Z</time>
      </trkpt>
      <trkpt lat="47.36035" lon="-1.28153">
        <ele>66</ele>
        <time>2017-11-05T10:24:25Z</time>
      </trkpt>
      <trkpt lat="47.36021" lon="-1.2816">
        <ele>66</ele>
        <time>2017-11-05T10:24:37Z</time>
      </trkpt>
      <trkpt lat="47.35998" lon="-1.28194">
        <ele>66</ele>
        <time>2017-11-05T10:24:55Z</time>
      </trkpt>
      <trkpt lat="47.35983" lon="-1.28204">
        <ele>68</ele>
        <time>2017-11-05T10:25:07Z</time>
      </trkpt>
      <trkpt lat="47.3596" lon="-1.28225">
        <ele>68.4</ele>
        <time>2017-11-05T10:25:25Z</time>
      </trkpt>
      <trkpt lat="47.35951" lon="-1.28235">
        <ele>68</ele>
        <time>2017-11-05T10:25:31Z</time>
      </trkpt>
      <trkpt lat="47.35927" lon="-1.28246">
        <ele>69</ele>
        <time>2017-11-05T10:25:49Z</time>
      </trkpt>
      <trkpt lat="47.35889" lon="-1.28277">
        <ele>70</ele>
        <time>2017-11-05T10:26:13Z</time>
      </trkpt>
      <trkpt lat="47.35883" lon="-1.28277">
        <ele>70</ele>
        <time>2017-11-05T10:26:19Z</time>
      </trkpt>
      <trkpt lat="47.35869" lon="-1.28295">
        <ele>70</ele>
        <time>2017-11-05T10:26:31Z</time>
      </trkpt>
      <trkpt lat="47.35861" lon="-1.28303">
        <ele>70</ele>
        <time>2017-11-05T10:26:37Z</time>
      </trkpt>
      <trkpt lat="47.35847" lon="-1.28327">
        <ele>70</ele>
        <time>2017-11-05T10:26:49Z</time>
      </trkpt>
      <trkpt lat="47.35841" lon="-1.28345">
        <ele>69</ele>
        <time>2017-11-05T10:26:55Z</time>
      </trkpt>
      <trkpt lat="47.35815" lon="-1.28384">
        <ele>67</ele>
        <time>2017-11-05T10:27:19Z</time>
      </trkpt>
      <trkpt lat="47.35789" lon="-1.28416">
        <ele>66</ele>
        <time>2017-11-05T10:27:37Z</time>
      </trkpt>
      <trkpt lat="47.35756" lon="-1.28473">
        <ele>64</ele>
        <time>2017-11-05T10:28:07Z</time>
      </trkpt>
      <trkpt lat="47.35746" lon="-1.28497">
        <ele>63</ele>
        <time>2017-11-05T10:28:19Z</time>
      </trkpt>
      <trkpt lat="47.35737" lon="-1.28539">
        <ele>60</ele>
        <time>2017-11-05T10:28:37Z</time>
      </trkpt>
      <trkpt lat="47.35725" lon="-1.28564">
        <ele>59</ele>
        <time>2017-11-05T10:28:49Z</time>
      </trkpt>
      <trkpt lat="47.35716" lon="-1.28607">
        <ele>56</ele>
        <time>2017-11-05T10:29:07Z</time>
      </trkpt>
      <trkpt lat="47.35714" lon="-1.28649">
        <ele>55</ele>
        <time>2017-11-05T10:29:25Z</time>
      </trkpt>
      <trkpt lat="47.35723" lon="-1.28709">
        <ele>51</ele>
        <time>2017-11-05T10:29:49Z</time>
      </trkpt>
      <trkpt lat="47.35718" lon="-1.2872">
        <ele>50</ele>
        <time>2017-11-05T10:29:55Z</time>
      </trkpt>
      <trkpt lat="47.35709" lon="-1.28726">
        <ele>49</ele>
        <time>2017-11-05T10:30:01Z</time>
      </trkpt>
      <trkpt lat="47.3569" lon="-1.28737">
        <ele>49</ele>
        <time>2017-11-05T10:30:13Z</time>
      </trkpt>
      <trkpt lat="47.3568" lon="-1.2874">
        <ele>49</ele>
        <time>2017-11-05T10:30:20Z</time>
      </trkpt>
      <trkpt lat="47.35652" lon="-1.28751">
        <ele>49</ele>
        <time>2017-11-05T10:30:37Z</time>
      </trkpt>
      <trkpt lat="47.35592" lon="-1.28779">
        <ele>47</ele>
        <time>2017-11-05T10:31:13Z</time>
      </trkpt>
      <trkpt lat="47.35574" lon="-1.28789">
        <ele>46</ele>
        <time>2017-11-05T10:31:25Z</time>
      </trkpt>
      <trkpt lat="47.35545" lon="-1.28798">
        <ele>44</ele>
        <time>2017-11-05T10:31:43Z</time>
      </trkpt>
      <trkpt lat="47.35537" lon="-1.2881">
        <ele>43</ele>
        <time>2017-11-05T10:31:49Z</time>
      </trkpt>
      <trkpt lat="47.3554" lon="-1.2883">
        <ele>43</ele>
        <time>2017-11-05T10:31:55Z</time>
      </trkpt>
      <trkpt lat="47.35544" lon="-1.28845">
        <ele>42</ele>
        <time>2017-11-05T10:32:01Z</time>
      </trkpt>
      <trkpt lat="47.35557" lon="-1.28905">
        <ele>41</ele>
        <time>2017-11-05T10:32:25Z</time>
      </trkpt>
      <trkpt lat="47.35581" lon="-1.29001">
        <ele>39</ele>
        <time>2017-11-05T10:33:07Z</time>
      </trkpt>
      <trkpt lat="47.35585" lon="-1.29014">
        <ele>39</ele>
        <time>2017-11-05T10:33:13Z</time>
      </trkpt>
      <trkpt lat="47.35588" lon="-1.29028">
        <ele>38</ele>
        <time>2017-11-05T10:33:19Z</time>
      </trkpt>
      <trkpt lat="47.356" lon="-1.2907">
        <ele>37</ele>
        <time>2017-11-05T10:33:37Z</time>
      </trkpt>
      <trkpt lat="47.35605" lon="-1.29082">
        <ele>37</ele>
        <time>2017-11-05T10:33:43Z</time>
      </trkpt>
      <trkpt lat="47.35615" lon="-1.29087">
        <ele>37</ele>
        <time>2017-11-05T10:33:49Z</time>
      </trkpt>
      <trkpt lat="47.35652" lon="-1.29069">
        <ele>32</ele>
        <time>2017-11-05T10:34:13Z</time>
      </trkpt>
      <trkpt lat="47.35669" lon="-1.29081">
        <ele>28</ele>
        <time>2017-11-05T10:34:25Z</time>
      </trkpt>
      <trkpt lat="47.35693" lon="-1.29121">
        <ele>21</ele>
        <time>2017-11-05T10:34:49Z</time>
      </trkpt>
      <trkpt lat="47.3571" lon="-1.29165">
        <ele>16</ele>
        <time>2017-11-05T10:35:07Z</time>
      </trkpt>
      <trkpt lat="47.35731" lon="-1.29197">
        <ele>11</ele>
        <time>2017-11-05T10:35:25Z</time>
      </trkpt>
      <trkpt lat="47.35742" lon="-1.29219">
        <ele>9</ele>
        <time>2017-11-05T10:35:37Z</time>
      </trkpt>
      <trkpt lat="47.35756" lon="-1.29268">
        <ele>7</ele>
        <time>2017-11-05T10:35:55Z</time>
      </trkpt>
      <trkpt lat="47.35748" lon="-1.29275">
        <ele>7</ele>
        <time>2017-11-05T10:36:01Z</time>
      </trkpt>
      <trkpt lat="47.35706" lon="-1.29303">
        <ele>8</ele>
        <time>2017-11-05T10:36:25Z</time>
      </trkpt>
      <trkpt lat="47.35701" lon="-1.29304">
        <ele>9</ele>
        <time>2017-11-05T10:36:37Z</time>
      </trkpt>
      <trkpt lat="47.35695" lon="-1.29315">
        <ele>9</ele>
        <time>2017-11-05T10:36:42Z</time>
      </trkpt>
      <trkpt lat="47.35677" lon="-1.2933">
        <ele>10</ele>
        <time>2017-11-05T10:36:53Z</time>
      </trkpt>
      <trkpt lat="47.35667" lon="-1.29332">
        <ele>9</ele>
        <time>2017-11-05T10:36:59Z</time>
      </trkpt>
      <trkpt lat="47.35644" lon="-1.2934">
        <ele>8</ele>
        <time>2017-11-05T10:37:17Z</time>
      </trkpt>
      <trkpt lat="47.35614" lon="-1.29361">
        <ele>20</ele>
        <time>2017-11-05T10:37:41Z</time>
      </trkpt>
      <trkpt lat="47.35592" lon="-1.29392">
        <ele>20</ele>
        <time>2017-11-05T10:37:59Z</time>
      </trkpt>
      <trkpt lat="47.35584" lon="-1.29405">
        <ele>21</ele>
        <time>2017-11-05T10:38:05Z</time>
      </trkpt>
      <trkpt lat="47.35576" lon="-1.29412">
        <ele>20</ele>
        <time>2017-11-05T10:38:17Z</time>
      </trkpt>
      <trkpt lat="47.35541" lon="-1.29426">
        <ele>19</ele>
        <time>2017-11-05T10:38:35Z</time>
      </trkpt>
      <trkpt lat="47.35504" lon="-1.29461">
        <ele>18</ele>
        <time>2017-11-05T10:39:05Z</time>
      </trkpt>
      <trkpt lat="47.3548" lon="-1.29475">
        <ele>15</ele>
        <time>2017-11-05T10:39:17Z</time>
      </trkpt>
      <trkpt lat="47.35448" lon="-1.2951">
        <ele>10</ele>
        <time>2017-11-05T10:39:35Z</time>
      </trkpt>
      <trkpt lat="47.35437" lon="-1.29501">
        <ele>8</ele>
        <time>2017-11-05T10:39:41Z</time>
      </trkpt>
      <trkpt lat="47.35438" lon="-1.29486">
        <ele>10</ele>
        <time>2017-11-05T10:39:47Z</time>
      </trkpt>
      <trkpt lat="47.35442" lon="-1.29478">
        <ele>11</ele>
        <time>2017-11-05T10:39:53Z</time>
      </trkpt>
      <trkpt lat="47.35449" lon="-1.29437">
        <ele>15</ele>
        <time>2017-11-05T10:40:17Z</time>
      </trkpt>
      <trkpt lat="47.35447" lon="-1.29403">
        <ele>17</ele>
        <time>2017-11-05T10:40:35Z</time>
      </trkpt>
      <trkpt lat="47.35452" lon="-1.29368">
        <ele>19</ele>
        <time>2017-11-05T10:40:53Z</time>
      </trkpt>
      <trkpt lat="47.35449" lon="-1.2935">
        <ele>19</ele>
        <time>2017-11-05T10:41:11Z</time>
      </trkpt>
      <trkpt lat="47.35441" lon="-1.29336">
        <ele>18</ele>
        <time>2017-11-05T10:41:23Z</time>
      </trkpt>
      <trkpt lat="47.35434" lon="-1.29323">
        <ele>17</ele>
        <time>2017-11-05T10:41:29Z</time>
      </trkpt>
      <trkpt lat="47.35425" lon="-1.29294">
        <ele>17</ele>
        <time>2017-11-05T10:41:47Z</time>
      </trkpt>
      <trkpt lat="47.35418" lon="-1.29271">
        <ele>17</ele>
        <time>2017-11-05T10:41:59Z</time>
      </trkpt>
      <trkpt lat="47.35413" lon="-1.29238">
        <ele>17</ele>
        <time>2017-11-05T10:42:17Z</time>
      </trkpt>
      <trkpt lat="47.35395" lon="-1.29171">
        <ele>18</ele>
        <time>2017-11-05T10:42:47Z</time>
      </trkpt>
      <trkpt lat="47.35371" lon="-1.29141">
        <ele>13</ele>
        <time>2017-11-05T10:43:05Z</time>
      </trkpt>
      <trkpt lat="47.35364" lon="-1.29132">
        <ele>14</ele>
        <time>2017-11-05T10:43:11Z</time>
      </trkpt>
      <trkpt lat="47.35359" lon="-1.29116">
        <ele>14</ele>
        <time>2017-11-05T10:43:17Z</time>
      </trkpt>
      <trkpt lat="47.3535" lon="-1.29079">
        <ele>14</ele>
        <time>2017-11-05T10:43:35Z</time>
      </trkpt>
      <trkpt lat="47.35341" lon="-1.29012">
        <ele>13</ele>
        <time>2017-11-05T10:43:58Z</time>
      </trkpt>
      <trkpt lat="47.35331" lon="-1.28993">
        <ele>14</ele>
        <time>2017-11-05T10:44:10Z</time>
      </trkpt>
      <trkpt lat="47.35309" lon="-1.28967">
        <ele>15</ele>
        <time>2017-11-05T10:44:28Z</time>
      </trkpt>
      <trkpt lat="47.3528" lon="-1.28949">
        <ele>12</ele>
        <time>2017-11-05T10:44:52Z</time>
      </trkpt>
      <trkpt lat="47.3526" lon="-1.28924">
        <ele>12</ele>
        <time>2017-11-05T10:45:10Z</time>
      </trkpt>
      <trkpt lat="47.35252" lon="-1.28903">
        <ele>14</ele>
        <time>2017-11-05T10:45:16Z</time>
      </trkpt>
      <trkpt lat="47.35231" lon="-1.28873">
        <ele>20</ele>
        <time>2017-11-05T10:45:34Z</time>
      </trkpt>
      <trkpt lat="47.35212" lon="-1.2886">
        <ele>21</ele>
        <time>2017-11-05T10:45:46Z</time>
      </trkpt>
      <trkpt lat="47.3519" lon="-1.28848">
        <ele>21</ele>
        <time>2017-11-05T10:45:58Z</time>
      </trkpt>
      <trkpt lat="47.35177" lon="-1.28838">
        <ele>21</ele>
        <time>2017-11-05T10:46:10Z</time>
      </trkpt>
      <trkpt lat="47.35156" lon="-1.28835">
        <ele>19</ele>
        <time>2017-11-05T10:46:22Z</time>
      </trkpt>
      <trkpt lat="47.3515" lon="-1.28833">
        <ele>19</ele>
        <time>2017-11-05T10:46:28Z</time>
      </trkpt>
      <trkpt lat="47.35147" lon="-1.28816">
        <ele>23</ele>
        <time>2017-11-05T10:46:46Z</time>
      </trkpt>
      <trkpt lat="47.3515" lon="-1.28799">
        <ele>28</ele>
        <time>2017-11-05T10:46:58Z</time>
      </trkpt>
      <trkpt lat="47.35148" lon="-1.28792">
        <ele>30</ele>
        <time>2017-11-05T10:47:07Z</time>
      </trkpt>
      <trkpt lat="47.35141" lon="-1.28778">
        <ele>33</ele>
        <time>2017-11-05T10:47:14Z</time>
      </trkpt>
      <trkpt lat="47.35143" lon="-1.28763">
        <ele>36</ele>
        <time>2017-11-05T10:47:34Z</time>
      </trkpt>
      <trkpt lat="47.3514" lon="-1.28756">
        <ele>37</ele>
        <time>2017-11-05T10:47:36Z</time>
      </trkpt>
      <trkpt lat="47.35143" lon="-1.28741">
        <ele>39</ele>
        <time>2017-11-05T10:47:46Z</time>
      </trkpt>
      <trkpt lat="47.35145" lon="-1.28737">
        <ele>28</ele>
        <time>2017-11-05T10:47:52Z</time>
      </trkpt>
      <trkpt lat="47.35141" lon="-1.28722">
        <ele>40</ele>
        <time>2017-11-05T10:48:06Z</time>
      </trkpt>
      <trkpt lat="47.35147" lon="-1.28718">
        <ele>39</ele>
        <time>2017-11-05T10:48:12Z</time>
      </trkpt>
      <trkpt lat="47.35153" lon="-1.28689">
        <ele>41</ele>
        <time>2017-11-05T10:48:48Z</time>
      </trkpt>
      <trkpt lat="47.35148" lon="-1.2868">
        <ele>42</ele>
        <time>2017-11-05T10:48:54Z</time>
      </trkpt>
      <trkpt lat="47.35138" lon="-1.28681">
        <ele>43</ele>
        <time>2017-11-05T10:49:06Z</time>
      </trkpt>
      <trkpt lat="47.3513" lon="-1.28684">
        <ele>43</ele>
        <time>2017-11-05T10:49:16Z</time>
      </trkpt>
      <trkpt lat="47.35112" lon="-1.28673">
        <ele>47</ele>
        <time>2017-11-05T10:49:37Z</time>
      </trkpt>
      <trkpt lat="47.35101" lon="-1.2865">
        <ele>50</ele>
        <time>2017-11-05T10:49:49Z</time>
      </trkpt>
      <trkpt lat="47.35098" lon="-1.2864">
        <ele>50</ele>
        <time>2017-11-05T10:49:55Z</time>
      </trkpt>
      <trkpt lat="47.35108" lon="-1.28619">
        <ele>50</ele>
        <time>2017-11-05T10:50:08Z</time>
      </trkpt>
      <trkpt lat="47.35116" lon="-1.28597">
        <ele>51</ele>
        <time>2017-11-05T10:50:19Z</time>
      </trkpt>
      <trkpt lat="47.35118" lon="-1.28586">
        <ele>51</ele>
        <time>2017-11-05T10:50:25Z</time>
      </trkpt>
      <trkpt lat="47.35121" lon="-1.28538">
        <ele>53</ele>
        <time>2017-11-05T10:50:50Z</time>
      </trkpt>
      <trkpt lat="47.35128" lon="-1.2852">
        <ele>53</ele>
        <time>2017-11-05T10:51:01Z</time>
      </trkpt>
      <trkpt lat="47.35135" lon="-1.28513">
        <ele>54</ele>
        <time>2017-11-05T10:51:08Z</time>
      </trkpt>
      <trkpt lat="47.35143" lon="-1.28511">
        <ele>52.8</ele>
        <time>2017-11-05T10:51:13Z</time>
      </trkpt>
      <trkpt lat="47.35187" lon="-1.28485">
        <ele>53</ele>
        <time>2017-11-05T10:51:43Z</time>
      </trkpt>
      <trkpt lat="47.35205" lon="-1.28464">
        <ele>53</ele>
        <time>2017-11-05T10:52:01Z</time>
      </trkpt>
      <trkpt lat="47.35238" lon="-1.28437">
        <ele>52</ele>
        <time>2017-11-05T10:52:25Z</time>
      </trkpt>
      <trkpt lat="47.35249" lon="-1.28414">
        <ele>52</ele>
        <time>2017-11-05T10:52:37Z</time>
      </trkpt>
      <trkpt lat="47.35262" lon="-1.28416">
        <ele>51</ele>
        <time>2017-11-05T10:52:43Z</time>
      </trkpt>
      <trkpt lat="47.35263" lon="-1.28403">
        <ele>52</ele>
        <time>2017-11-05T10:52:49Z</time>
      </trkpt>
      <trkpt lat="47.35254" lon="-1.2838">
        <ele>53</ele>
        <time>2017-11-05T10:53:01Z</time>
      </trkpt>
      <trkpt lat="47.35234" lon="-1.28301">
        <ele>58</ele>
        <time>2017-11-05T10:53:31Z</time>
      </trkpt>
      <trkpt lat="47.35233" lon="-1.28269">
        <ele>59</ele>
        <time>2017-11-05T10:53:43Z</time>
      </trkpt>
      <trkpt lat="47.3524" lon="-1.28243">
        <ele>60</ele>
        <time>2017-11-05T10:53:55Z</time>
      </trkpt>
      <trkpt lat="47.35242" lon="-1.282">
        <ele>61</ele>
        <time>2017-11-05T10:54:24Z</time>
      </trkpt>
      <trkpt lat="47.35237" lon="-1.28179">
        <ele>59</ele>
        <time>2017-11-05T10:54:30Z</time>
      </trkpt>
      <trkpt lat="47.35223" lon="-1.28151">
        <ele>58</ele>
        <time>2017-11-05T10:54:54Z</time>
      </trkpt>
      <trkpt lat="47.35219" lon="-1.28103">
        <ele>57</ele>
        <time>2017-11-05T10:55:06Z</time>
      </trkpt>
      <trkpt lat="47.35218" lon="-1.28089">
        <ele>56</ele>
        <time>2017-11-05T10:55:12Z</time>
      </trkpt>
      <trkpt lat="47.3523" lon="-1.28038">
        <ele>54</ele>
        <time>2017-11-05T10:55:42Z</time>
      </trkpt>
      <trkpt lat="47.35226" lon="-1.28035">
        <ele>54</ele>
        <time>2017-11-05T10:55:45Z</time>
      </trkpt>
      <trkpt lat="47.35221" lon="-1.27974">
        <ele>52</ele>
        <time>2017-11-05T10:56:03Z</time>
      </trkpt>
      <trkpt lat="47.35225" lon="-1.27942">
        <ele>51</ele>
        <time>2017-11-05T10:56:15Z</time>
      </trkpt>
      <trkpt lat="47.35226" lon="-1.27925">
        <ele>51</ele>
        <time>2017-11-05T10:56:21Z</time>
      </trkpt>
      <trkpt lat="47.3523" lon="-1.27893">
        <ele>50</ele>
        <time>2017-11-05T10:56:39Z</time>
      </trkpt>
      <trkpt lat="47.35236" lon="-1.2787">
        <ele>51</ele>
        <time>2017-11-05T10:56:51Z</time>
      </trkpt>
      <trkpt lat="47.35238" lon="-1.27858">
        <ele>51</ele>
        <time>2017-11-05T10:56:57Z</time>
      </trkpt>
      <trkpt lat="47.35235" lon="-1.27856">
        <ele>51</ele>
        <time>2017-11-05T10:57:03Z</time>
      </trkpt>
      <trkpt lat="47.35212" lon="-1.2787">
        <ele>49</ele>
        <time>2017-11-05T10:57:21Z</time>
      </trkpt>
      <trkpt lat="47.35202" lon="-1.27866">
        <ele>47.8</ele>
        <time>2017-11-05T10:57:26Z</time>
      </trkpt>
      <trkpt lat="47.35179" lon="-1.27857">
        <ele>46</ele>
        <time>2017-11-05T10:57:40Z</time>
      </trkpt>
      <trkpt lat="47.35153" lon="-1.27857">
        <ele>43</ele>
        <time>2017-11-05T10:57:57Z</time>
      </trkpt>
      <trkpt lat="47.35149" lon="-1.27845">
        <ele>42</ele>
        <time>2017-11-05T10:58:04Z</time>
      </trkpt>
      <trkpt lat="47.35143" lon="-1.27791">
        <ele>42</ele>
        <time>2017-11-05T10:58:28Z</time>
      </trkpt>
      <trkpt lat="47.35118" lon="-1.27791">
        <ele>38</ele>
        <time>2017-11-05T10:58:46Z</time>
      </trkpt>
      <trkpt lat="47.3511" lon="-1.27734">
        <ele>37</ele>
        <time>2017-11-05T10:59:09Z</time>
      </trkpt>
      <trkpt lat="47.35104" lon="-1.27728">
        <ele>36</ele>
        <time>2017-11-05T10:59:15Z</time>
      </trkpt>
      <trkpt lat="47.35096" lon="-1.27726">
        <ele>35</ele>
        <time>2017-11-05T10:59:21Z</time>
      </trkpt>
      <trkpt lat="47.35079" lon="-1.27727">
        <ele>34</ele>
        <time>2017-11-05T10:59:33Z</time>
      </trkpt>
      <trkpt lat="47.35051" lon="-1.27718">
        <ele>32</ele>
        <time>2017-11-05T10:59:51Z</time>
      </trkpt>
      <trkpt lat="47.35041" lon="-1.27717">
        <ele>31</ele>
        <time>2017-11-05T10:59:57Z</time>
      </trkpt>
      <trkpt lat="47.35021" lon="-1.2774">
        <ele>31</ele>
        <time>2017-11-05T11:00:16Z</time>
      </trkpt>
      <trkpt lat="47.3501" lon="-1.2772">
        <ele>30</ele>
        <time>2017-11-05T11:00:28Z</time>
      </trkpt>
      <trkpt lat="47.3499" lon="-1.27706">
        <ele>28</ele>
        <time>2017-11-05T11:00:40Z</time>
      </trkpt>
      <trkpt lat="47.34969" lon="-1.27698">
        <ele>27</ele>
        <time>2017-11-05T11:00:52Z</time>
      </trkpt>
      <trkpt lat="47.34942" lon="-1.27689">
        <ele>25</ele>
        <time>2017-11-05T11:01:10Z</time>
      </trkpt>
      <trkpt lat="47.34908" lon="-1.27705">
        <ele>21</ele>
        <time>2017-11-05T11:01:28Z</time>
      </trkpt>
      <trkpt lat="47.3487" lon="-1.27687">
        <ele>17</ele>
        <time>2017-11-05T11:01:52Z</time>
      </trkpt>
      <trkpt lat="47.34863" lon="-1.27702">
        <ele>17</ele>
        <time>2017-11-05T11:01:58Z</time>
      </trkpt>
      <trkpt lat="47.34849" lon="-1.27771">
        <ele>19</ele>
        <time>2017-11-05T11:02:22Z</time>
      </trkpt>
      <trkpt lat="47.34845" lon="-1.27785">
        <ele>19</ele>
        <time>2017-11-05T11:02:28Z</time>
      </trkpt>
      <trkpt lat="47.34839" lon="-1.27857">
        <ele>16</ele>
        <time>2017-11-05T11:02:58Z</time>
      </trkpt>
      <trkpt lat="47.34835" lon="-1.27863">
        <ele>15</ele>
        <time>2017-11-05T11:03:04Z</time>
      </trkpt>
      <trkpt lat="47.34827" lon="-1.27858">
        <ele>14</ele>
        <time>2017-11-05T11:03:10Z</time>
      </trkpt>
      <trkpt lat="47.34806" lon="-1.27846">
        <ele>10</ele>
        <time>2017-11-05T11:03:22Z</time>
      </trkpt>
      <trkpt lat="47.34769" lon="-1.27854">
        <ele>10</ele>
        <time>2017-11-05T11:03:40Z</time>
      </trkpt>
      <trkpt lat="47.3476" lon="-1.27852">
        <ele>10</ele>
        <time>2017-11-05T11:03:46Z</time>
      </trkpt>
      <trkpt lat="47.34744" lon="-1.27833">
        <ele>9</ele>
        <time>2017-11-05T11:03:58Z</time>
      </trkpt>
      <trkpt lat="47.34714" lon="-1.27824">
        <ele>9</ele>
        <time>2017-11-05T11:04:16Z</time>
      </trkpt>
      <trkpt lat="47.34683" lon="-1.27834">
        <ele>9</ele>
        <time>2017-11-05T11:04:34Z</time>
      </trkpt>
      <trkpt lat="47.34661" lon="-1.27856">
        <ele>9</ele>
        <time>2017-11-05T11:04:45Z</time>
      </trkpt>
      <trkpt lat="47.34622" lon="-1.27871">
        <ele>9</ele>
        <time>2017-11-05T11:05:10Z</time>
      </trkpt>
      <trkpt lat="47.34613" lon="-1.27874">
        <ele>9</ele>
        <time>2017-11-05T11:05:16Z</time>
      </trkpt>
      <trkpt lat="47.34573" lon="-1.27869">
        <ele>9</ele>
        <time>2017-11-05T11:05:40Z</time>
      </trkpt>
      <trkpt lat="47.34539" lon="-1.27877">
        <ele>9</ele>
        <time>2017-11-05T11:05:58Z</time>
      </trkpt>
      <trkpt lat="47.34529" lon="-1.27885">
        <ele>10</ele>
        <time>2017-11-05T11:06:03Z</time>
      </trkpt>
      <trkpt lat="47.34515" lon="-1.27905">
        <ele>11</ele>
        <time>2017-11-05T11:06:16Z</time>
      </trkpt>
      <trkpt lat="47.34512" lon="-1.27963">
        <ele>10</ele>
        <time>2017-11-05T11:06:40Z</time>
      </trkpt>
      <trkpt lat="47.34516" lon="-1.27995">
        <ele>10</ele>
        <time>2017-11-05T11:06:52Z</time>
      </trkpt>
      <trkpt lat="47.3452" lon="-1.28009">
        <ele>10</ele>
        <time>2017-11-05T11:06:58Z</time>
      </trkpt>
      <trkpt lat="47.34536" lon="-1.2805">
        <ele>10</ele>
        <time>2017-11-05T11:07:16Z</time>
      </trkpt>
      <trkpt lat="47.34547" lon="-1.28097">
        <ele>9</ele>
        <time>2017-11-05T11:07:34Z</time>
      </trkpt>
      <trkpt lat="47.34562" lon="-1.28134">
        <ele>9</ele>
        <time>2017-11-05T11:07:52Z</time>
      </trkpt>
      <trkpt lat="47.34569" lon="-1.28164">
        <ele>9</ele>
        <time>2017-11-05T11:08:04Z</time>
      </trkpt>
      <trkpt lat="47.34581" lon="-1.28207">
        <ele>9</ele>
        <time>2017-11-05T11:08:22Z</time>
      </trkpt>
      <trkpt lat="47.34588" lon="-1.28221">
        <ele>9</ele>
        <time>2017-11-05T11:08:28Z</time>
      </trkpt>
      <trkpt lat="47.34621" lon="-1.28249">
        <ele>10</ele>
        <time>2017-11-05T11:08:51Z</time>
      </trkpt>
      <trkpt lat="47.3462" lon="-1.28275">
        <ele>10</ele>
        <time>2017-11-05T11:09:09Z</time>
        <extensions>
          <visugpx:TrkExtension xmlns:visugpx="https://www.visugpx.com/editgpx/">
            <visugpx:node>1</visugpx:node>
            </visugpx:TrkExtension>
        </extensions>
      </trkpt>
    </trkseg>
  </trk>
  <trk>
    <name><![CDATA[OR-5438770--Oudon:Oudon Brevet des Grimpeurs 205]]></name>
    <extensions>
      <line xmlns="http://www.topografix.com/GPX/gpx_style/0/2">
        <color>00FF00</color>
        <width>4</width>
      </line>
    </extensions>
    <trkseg>
      <trkpt lat="47.34611" lon="-1.28308">
        <ele>9</ele>
        <time>2016-11-11T18:37:01Z</time>
      </trkpt>
      <trkpt lat="47.34614" lon="-1.28313">
        <ele>9</ele>
        <time>2016-11-11T18:39:01Z</time>
      </trkpt>
      <trkpt lat="47.34615" lon="-1.28326">
        <ele>9</ele>
        <time>2016-11-11T18:41:01Z</time>
      </trkpt>
      <trkpt lat="47.34618" lon="-1.28334">
        <ele>9</ele>
        <time>2016-11-11T18:43:01Z</time>
      </trkpt>
      <trkpt lat="47.34625" lon="-1.28346">
        <ele>10</ele>
        <time>2016-11-11T18:45:01Z</time>
      </trkpt>
      <trkpt lat="47.34627" lon="-1.28352">
        <ele>10</ele>
        <time>2016-11-11T18:47:01Z</time>
      </trkpt>
      <trkpt lat="47.3463" lon="-1.2836">
        <ele>10</ele>
        <time>2016-11-11T18:49:01Z</time>
      </trkpt>
      <trkpt lat="47.34636" lon="-1.28365">
        <ele>10</ele>
        <time>2016-11-11T18:51:01Z</time>
      </trkpt>
      <trkpt lat="47.34645" lon="-1.28365">
        <ele>11</ele>
        <time>2016-11-11T18:53:01Z</time>
      </trkpt>
      <trkpt lat="47.34654" lon="-1.28364">
        <ele>11</ele>
        <time>2016-11-11T18:55:01Z</time>
      </trkpt>
      <trkpt lat="47.34656" lon="-1.28363">
        <ele>11</ele>
        <time>2016-11-11T18:57:01Z</time>
      </trkpt>
      <trkpt lat="47.3466" lon="-1.28359">
        <ele>11</ele>
        <time>2016-11-11T18:59:01Z</time>
      </trkpt>
      <trkpt lat="47.34667" lon="-1.2835">
        <ele>11</ele>
        <time>2016-11-11T19:01:01Z</time>
      </trkpt>
      <trkpt lat="47.34673" lon="-1.28329">
        <ele>12</ele>
        <time>2016-11-11T19:03:01Z</time>
      </trkpt>
      <trkpt lat="47.34679" lon="-1.28311">
        <ele>12</ele>
        <time>2016-11-11T19:05:01Z</time>
      </trkpt>
      <trkpt lat="47.34685" lon="-1.28292">
        <ele>13</ele>
        <time>2016-11-11T19:07:01Z</time>
      </trkpt>
      <trkpt lat="47.34688" lon="-1.28275">
        <ele>13</ele>
        <time>2016-11-11T19:09:01Z</time>
      </trkpt>
      <trkpt lat="47.34692" lon="-1.28261">
        <ele>13</ele>
        <time>2016-11-11T19:11:01Z</time>
      </trkpt>
      <trkpt lat="47.34697" lon="-1.28241">
        <ele>13</ele>
        <time>2016-11-11T19:13:01Z</time>
      </trkpt>
      <trkpt lat="47.34705" lon="-1.28207">
        <ele>13</ele>
        <time>2016-11-11T19:15:01Z</time>
      </trkpt>
      <trkpt lat="47.34709" lon="-1.28189">
        <ele>13</ele>
        <time>2016-11-11T19:17:01Z</time>
      </trkpt>
      <trkpt lat="47.34712" lon="-1.28172">
        <ele>12</ele>
        <time>2016-11-11T19:19:01Z</time>
      </trkpt>
      <trkpt lat="47.34715" lon="-1.28157">
        <ele>12</ele>
        <time>2016-11-11T19:21:01Z</time>
      </trkpt>
      <trkpt lat="47.34721" lon="-1.28139">
        <ele>12</ele>
        <time>2016-11-11T19:23:01Z</time>
      </trkpt>
      <trkpt lat="47.34727" lon="-1.28121">
        <ele>13</ele>
        <time>2016-11-11T19:25:01Z</time>
      </trkpt>
      <trkpt lat="47.34732" lon="-1.28102">
        <ele>12</ele>
        <time>2016-11-11T19:27:01Z</time>
      </trkpt>
      <trkpt lat="47.34737" lon="-1.28084">
        <ele>12</ele>
        <time>2016-11-11T19:29:01Z</time>
      </trkpt>
      <trkpt lat="47.34741" lon="-1.28072">
        <ele>12</ele>
        <time>2016-11-11T19:31:01Z</time>
      </trkpt>
      <trkpt lat="47.34759" lon="-1.28078">
        <ele>14</ele>
        <time>2016-11-11T19:33:01Z</time>
      </trkpt>
      <trkpt lat="47.3476" lon="-1.2808">
        <ele>15</ele>
        <time>2016-11-11T19:35:01Z</time>
      </trkpt>
      <trkpt lat="47.34767" lon="-1.28087">
        <ele>16</ele>
        <time>2016-11-11T19:37:01Z</time>
      </trkpt>
      <trkpt lat="47.3479" lon="-1.28101">
        <ele>20</ele>
        <time>2016-11-11T19:39:01Z</time>
      </trkpt>
      <trkpt lat="47.34799" lon="-1.28102">
        <ele>21</ele>
        <time>2016-11-11T19:41:01Z</time>
      </trkpt>
      <trkpt lat="47.3481" lon="-1.28104">
        <ele>23</ele>
        <time>2016-11-11T19:43:01Z</time>
      </trkpt>
      <trkpt lat="47.34818" lon="-1.28109">
        <ele>24</ele>
        <time>2016-11-11T19:45:01Z</time>
      </trkpt>
      <trkpt lat="47.34827" lon="-1.28115">
        <ele>26</ele>
        <time>2016-11-11T19:47:01Z</time>
      </trkpt>
      <trkpt lat="47.34829" lon="-1.28115">
        <ele>26</ele>
        <time>2016-11-11T19:49:01Z</time>
      </trkpt>
      <trkpt lat="47.34832" lon="-1.2812">
        <ele>27</ele>
        <time>2016-11-11T19:51:01Z</time>
      </trkpt>
      <trkpt lat="47.3484" lon="-1.28129">
        <ele>28</ele>
        <time>2016-11-11T19:53:01Z</time>
      </trkpt>
      <trkpt lat="47.34837" lon="-1.2814">
        <ele>28</ele>
        <time>2016-11-11T19:55:01Z</time>
      </trkpt>
      <trkpt lat="47.34833" lon="-1.28152">
        <ele>28</ele>
        <time>2016-11-11T19:57:01Z</time>
      </trkpt>
      <trkpt lat="47.34828" lon="-1.2817">
        <ele>28</ele>
        <time>2016-11-11T19:59:01Z</time>
      </trkpt>
      <trkpt lat="47.34821" lon="-1.28188">
        <ele>28</ele>
        <time>2016-11-11T20:01:01Z</time>
      </trkpt>
      <trkpt lat="47.34815" lon="-1.28207">
        <ele>27</ele>
        <time>2016-11-11T20:03:01Z</time>
      </trkpt>
      <trkpt lat="47.34806" lon="-1.28224">
        <ele>26</ele>
        <time>2016-11-11T20:05:01Z</time>
      </trkpt>
      <trkpt lat="47.34803" lon="-1.28235">
        <ele>26</ele>
        <time>2016-11-11T20:07:01Z</time>
      </trkpt>
      <trkpt lat="47.34795" lon="-1.28257">
        <ele>26</ele>
        <time>2016-11-11T20:09:01Z</time>
      </trkpt>
      <trkpt lat="47.34788" lon="-1.28273">
        <ele>25</ele>
        <time>2016-11-11T20:11:01Z</time>
      </trkpt>
      <trkpt lat="47.34782" lon="-1.28285">
        <ele>25</ele>
        <time>2016-11-11T20:13:01Z</time>
      </trkpt>
      <trkpt lat="47.34775" lon="-1.28305">
        <ele>25</ele>
        <time>2016-11-11T20:15:01Z</time>
      </trkpt>
      <trkpt lat="47.34771" lon="-1.28324">
        <ele>25</ele>
        <time>2016-11-11T20:17:01Z</time>
      </trkpt>
      <trkpt lat="47.34766" lon="-1.28345">
        <ele>25</ele>
        <time>2016-11-11T20:19:01Z</time>
      </trkpt>
      <trkpt lat="47.34764" lon="-1.28361">
        <ele>24</ele>
        <time>2016-11-11T20:21:01Z</time>
      </trkpt>
      <trkpt lat="47.34761" lon="-1.28382">
        <ele>24</ele>
        <time>2016-11-11T20:23:01Z</time>
      </trkpt>
      <trkpt lat="47.34762" lon="-1.28384">
        <ele>24</ele>
        <time>2016-11-11T20:25:01Z</time>
      </trkpt>
      <trkpt lat="47.34765" lon="-1.28392">
        <ele>25</ele>
        <time>2016-11-11T20:27:01Z</time>
      </trkpt>
      <trkpt lat="47.34765" lon="-1.28394">
        <ele>25</ele>
        <time>2016-11-11T20:29:01Z</time>
      </trkpt>
      <trkpt lat="47.34775" lon="-1.28406">
        <ele>26</ele>
        <time>2016-11-11T20:31:01Z</time>
      </trkpt>
      <trkpt lat="47.34785" lon="-1.28411">
        <ele>28</ele>
        <time>2016-11-11T20:33:01Z</time>
      </trkpt>
      <trkpt lat="47.34794" lon="-1.28418">
        <ele>30</ele>
        <time>2016-11-11T20:35:01Z</time>
      </trkpt>
      <trkpt lat="47.34806" lon="-1.28435">
        <ele>32</ele>
        <time>2016-11-11T20:37:01Z</time>
      </trkpt>
      <trkpt lat="47.34815" lon="-1.28467">
        <ele>34</ele>
        <time>2016-11-11T20:39:01Z</time>
      </trkpt>
      <trkpt lat="47.34818" lon="-1.28472">
        <ele>35</ele>
        <time>2016-11-11T20:41:01Z</time>
      </trkpt>
      <trkpt lat="47.34819" lon="-1.28476">
        <ele>35</ele>
        <time>2016-11-11T20:43:01Z</time>
      </trkpt>
      <trkpt lat="47.34822" lon="-1.28497">
        <ele>36</ele>
        <time>2016-11-11T20:45:01Z</time>
      </trkpt>
      <trkpt lat="47.3483" lon="-1.28507">
        <ele>37</ele>
        <time>2016-11-11T20:47:01Z</time>
      </trkpt>
      <trkpt lat="47.34836" lon="-1.28516">
        <ele>38</ele>
        <time>2016-11-11T20:49:01Z</time>
      </trkpt>
      <trkpt lat="47.34839" lon="-1.28532">
        <ele>38</ele>
        <time>2016-11-11T20:51:01Z</time>
      </trkpt>
      <trkpt lat="47.34838" lon="-1.2855">
        <ele>38</ele>
        <time>2016-11-11T20:53:01Z</time>
      </trkpt>
      <trkpt lat="47.34836" lon="-1.28571">
        <ele>37</ele>
        <time>2016-11-11T20:55:01Z</time>
      </trkpt>
      <trkpt lat="47.34837" lon="-1.28595">
        <ele>37</ele>
        <time>2016-11-11T20:57:01Z</time>
      </trkpt>
      <trkpt lat="47.34837" lon="-1.28617">
        <ele>35</ele>
        <time>2016-11-11T20:59:01Z</time>
      </trkpt>
      <trkpt lat="47.34832" lon="-1.28639">
        <ele>33</ele>
        <time>2016-11-11T21:01:01Z</time>
      </trkpt>
      <trkpt lat="47.34827" lon="-1.28667">
        <ele>30</ele>
        <time>2016-11-11T21:03:01Z</time>
      </trkpt>
      <trkpt lat="47.34823" lon="-1.28692">
        <ele>29</ele>
        <time>2016-11-11T21:05:01Z</time>
      </trkpt>
      <trkpt lat="47.34811" lon="-1.28738">
        <ele>25</ele>
        <time>2016-11-11T21:07:01Z</time>
      </trkpt>
      <trkpt lat="47.34803" lon="-1.28749">
        <ele>24</ele>
        <time>2016-11-11T21:09:01Z</time>
      </trkpt>
      <trkpt lat="47.34791" lon="-1.28748">
        <ele>23</ele>
        <time>2016-11-11T21:11:01Z</time>
      </trkpt>
      <trkpt lat="47.3478" lon="-1.28742">
        <ele>22</ele>
        <time>2016-11-11T21:13:01Z</time>
      </trkpt>
      <trkpt lat="47.34772" lon="-1.28737">
        <ele>21</ele>
        <time>2016-11-11T21:15:01Z</time>
      </trkpt>
      <trkpt lat="47.34762" lon="-1.2873">
        <ele>20</ele>
        <time>2016-11-11T21:17:01Z</time>
      </trkpt>
      <trkpt lat="47.34759" lon="-1.28728">
        <ele>20</ele>
        <time>2016-11-11T21:19:01Z</time>
      </trkpt>
      <trkpt lat="47.34755" lon="-1.28732">
        <ele>19</ele>
        <time>2016-11-11T21:21:01Z</time>
      </trkpt>
      <trkpt lat="47.34753" lon="-1.28731">
        <ele>19</ele>
        <time>2016-11-11T21:23:01Z</time>
      </trkpt>
      <trkpt lat="47.3475" lon="-1.28734">
        <ele>19</ele>
        <time>2016-11-11T21:25:01Z</time>
      </trkpt>
      <trkpt lat="47.34749" lon="-1.28735">
        <ele>18</ele>
        <time>2016-11-11T21:27:01Z</time>
      </trkpt>
      <trkpt lat="47.34742" lon="-1.28754">
        <ele>17</ele>
        <time>2016-11-11T21:29:01Z</time>
      </trkpt>
      <trkpt lat="47.34737" lon="-1.2877">
        <ele>16</ele>
        <time>2016-11-11T21:31:01Z</time>
      </trkpt>
      <trkpt lat="47.34731" lon="-1.28787">
        <ele>15</ele>
        <time>2016-11-11T21:33:01Z</time>
      </trkpt>
      <trkpt lat="47.34729" lon="-1.2879">
        <ele>15</ele>
        <time>2016-11-11T21:35:01Z</time>
      </trkpt>
      <trkpt lat="47.34726" lon="-1.28797">
        <ele>14</ele>
        <time>2016-11-11T21:37:01Z</time>
      </trkpt>
      <trkpt lat="47.34719" lon="-1.28805">
        <ele>13</ele>
        <time>2016-11-11T21:39:01Z</time>
      </trkpt>
      <trkpt lat="47.34713" lon="-1.28802">
        <ele>13</ele>
        <time>2016-11-11T21:41:01Z</time>
      </trkpt>
      <trkpt lat="47.34701" lon="-1.28793">
        <ele>13</ele>
        <time>2016-11-11T21:43:01Z</time>
      </trkpt>
      <trkpt lat="47.34689" lon="-1.2878">
        <ele>12</ele>
        <time>2016-11-11T21:45:01Z</time>
      </trkpt>
      <trkpt lat="47.34676" lon="-1.28769">
        <ele>12</ele>
        <time>2016-11-11T21:47:01Z</time>
      </trkpt>
      <trkpt lat="47.34663" lon="-1.28762">
        <ele>11</ele>
        <time>2016-11-11T21:49:01Z</time>
      </trkpt>
      <trkpt lat="47.34661" lon="-1.28763">
        <ele>11</ele>
        <time>2016-11-11T21:51:01Z</time>
      </trkpt>
      <trkpt lat="47.34657" lon="-1.28767">
        <ele>11</ele>
        <time>2016-11-11T21:53:01Z</time>
      </trkpt>
      <trkpt lat="47.34653" lon="-1.28771">
        <ele>11</ele>
        <time>2016-11-11T21:55:01Z</time>
      </trkpt>
      <trkpt lat="47.34649" lon="-1.28776">
        <ele>11</ele>
        <time>2016-11-11T21:57:01Z</time>
      </trkpt>
      <trkpt lat="47.34644" lon="-1.28783">
        <ele>10</ele>
        <time>2016-11-11T21:59:01Z</time>
      </trkpt>
      <trkpt lat="47.34639" lon="-1.28795">
        <ele>10</ele>
        <time>2016-11-11T22:01:01Z</time>
      </trkpt>
      <trkpt lat="47.34635" lon="-1.288">
        <ele>10</ele>
        <time>2016-11-11T22:03:01Z</time>
      </trkpt>
      <trkpt lat="47.34628" lon="-1.28804">
        <ele>10</ele>
        <time>2016-11-11T22:05:01Z</time>
      </trkpt>
      <trkpt lat="47.34618" lon="-1.2881">
        <ele>9</ele>
        <time>2016-11-11T22:07:01Z</time>
      </trkpt>
      <trkpt lat="47.34614" lon="-1.28822">
        <ele>9</ele>
        <time>2016-11-11T22:09:01Z</time>
      </trkpt>
      <trkpt lat="47.34595" lon="-1.28853">
        <ele>11</ele>
        <time>2016-11-11T22:11:01Z</time>
      </trkpt>
      <trkpt lat="47.34585" lon="-1.28873">
        <ele>13</ele>
        <time>2016-11-11T22:13:01Z</time>
      </trkpt>
      <trkpt lat="47.34579" lon="-1.28883">
        <ele>14</ele>
        <time>2016-11-11T22:15:01Z</time>
      </trkpt>
      <trkpt lat="47.34578" lon="-1.28889">
        <ele>14</ele>
        <time>2016-11-11T22:17:01Z</time>
      </trkpt>
      <trkpt lat="47.3458" lon="-1.28893">
        <ele>15</ele>
        <time>2016-11-11T22:19:01Z</time>
      </trkpt>
      <trkpt lat="47.34588" lon="-1.28904">
        <ele>16</ele>
        <time>2016-11-11T22:21:01Z</time>
      </trkpt>
      <trkpt lat="47.34598" lon="-1.28918">
        <ele>16</ele>
        <time>2016-11-11T22:23:01Z</time>
      </trkpt>
      <trkpt lat="47.34607" lon="-1.28934">
        <ele>17</ele>
        <time>2016-11-11T22:25:01Z</time>
      </trkpt>
      <trkpt lat="47.34613" lon="-1.28947">
        <ele>18</ele>
        <time>2016-11-11T22:27:01Z</time>
      </trkpt>
      <trkpt lat="47.34614" lon="-1.28948">
        <ele>18</ele>
        <time>2016-11-11T22:29:01Z</time>
      </trkpt>
      <trkpt lat="47.3462" lon="-1.28961">
        <ele>19</ele>
        <time>2016-11-11T22:31:01Z</time>
      </trkpt>
      <trkpt lat="47.34621" lon="-1.28963">
        <ele>20</ele>
        <time>2016-11-11T22:33:01Z</time>
      </trkpt>
      <trkpt lat="47.34632" lon="-1.28996">
        <ele>23</ele>
        <time>2016-11-11T22:35:01Z</time>
      </trkpt>
      <trkpt lat="47.34636" lon="-1.29012">
        <ele>24</ele>
        <time>2016-11-11T22:37:01Z</time>
      </trkpt>
      <trkpt lat="47.34649" lon="-1.29042">
        <ele>27</ele>
        <time>2016-11-11T22:39:01Z</time>
      </trkpt>
      <trkpt lat="47.34653" lon="-1.29057">
        <ele>29</ele>
        <time>2016-11-11T22:41:01Z</time>
      </trkpt>
      <trkpt lat="47.34654" lon="-1.29072">
        <ele>31</ele>
        <time>2016-11-11T22:43:01Z</time>
      </trkpt>
      <trkpt lat="47.3466" lon="-1.29089">
        <ele>33</ele>
        <time>2016-11-11T22:45:01Z</time>
      </trkpt>
      <trkpt lat="47.34663" lon="-1.29103">
        <ele>34</ele>
        <time>2016-11-11T22:47:01Z</time>
      </trkpt>
      <trkpt lat="47.34663" lon="-1.29115">
        <ele>35</ele>
        <time>2016-11-11T22:49:01Z</time>
      </trkpt>
      <trkpt lat="47.34667" lon="-1.29126">
        <ele>37</ele>
        <time>2016-11-11T22:51:01Z</time>
      </trkpt>
      <trkpt lat="47.34669" lon="-1.29146">
        <ele>39</ele>
        <time>2016-11-11T22:53:01Z</time>
      </trkpt>
      <trkpt lat="47.34674" lon="-1.29157">
        <ele>40</ele>
        <time>2016-11-11T22:55:01Z</time>
      </trkpt>
      <trkpt lat="47.34677" lon="-1.29161">
        <ele>41</ele>
        <time>2016-11-11T22:57:01Z</time>
      </trkpt>
      <trkpt lat="47.34685" lon="-1.29179">
        <ele>44</ele>
        <time>2016-11-11T22:59:01Z</time>
      </trkpt>
      <trkpt lat="47.34692" lon="-1.29197">
        <ele>46</ele>
        <time>2016-11-11T23:01:01Z</time>
      </trkpt>
      <trkpt lat="47.347" lon="-1.29209">
        <ele>48</ele>
        <time>2016-11-11T23:03:01Z</time>
      </trkpt>
      <trkpt lat="47.3471" lon="-1.29223">
        <ele>50</ele>
        <time>2016-11-11T23:05:01Z</time>
      </trkpt>
      <trkpt lat="47.34721" lon="-1.29235">
        <ele>52</ele>
        <time>2016-11-11T23:07:01Z</time>
      </trkpt>
      <trkpt lat="47.34732" lon="-1.29249">
        <ele>55</ele>
        <time>2016-11-11T23:09:01Z</time>
      </trkpt>
      <trkpt lat="47.34745" lon="-1.29259">
        <ele>57</ele>
        <time>2016-11-11T23:11:01Z</time>
      </trkpt>
      <trkpt lat="47.34748" lon="-1.2927">
        <ele>58</ele>
        <time>2016-11-11T23:13:01Z</time>
      </trkpt>
      <trkpt lat="47.34745" lon="-1.29271">
        <ele>57</ele>
        <time>2016-11-11T23:15:01Z</time>
      </trkpt>
      <trkpt lat="47.3473" lon="-1.29272">
        <ele>55</ele>
        <time>2016-11-11T23:17:01Z</time>
      </trkpt>
      <trkpt lat="47.34714" lon="-1.29263">
        <ele>52</ele>
        <time>2016-11-11T23:19:01Z</time>
      </trkpt>
      <trkpt lat="47.34698" lon="-1.29243">
        <ele>48</ele>
        <time>2016-11-11T23:21:01Z</time>
      </trkpt>
      <trkpt lat="47.34689" lon="-1.29234">
        <ele>46</ele>
        <time>2016-11-11T23:23:01Z</time>
      </trkpt>
      <trkpt lat="47.34674" lon="-1.2922">
        <ele>43</ele>
        <time>2016-11-11T23:25:01Z</time>
      </trkpt>
      <trkpt lat="47.3466" lon="-1.29208">
        <ele>40</ele>
        <time>2016-11-11T23:27:01Z</time>
      </trkpt>
      <trkpt lat="47.34619" lon="-1.29172">
        <ele>32</ele>
        <time>2016-11-11T23:29:01Z</time>
      </trkpt>
      <trkpt lat="47.34602" lon="-1.29143">
        <ele>29</ele>
        <time>2016-11-11T23:31:01Z</time>
      </trkpt>
      <trkpt lat="47.34593" lon="-1.2913">
        <ele>27</ele>
        <time>2016-11-11T23:33:01Z</time>
      </trkpt>
      <trkpt lat="47.3459" lon="-1.29128">
        <ele>27</ele>
        <time>2016-11-11T23:35:01Z</time>
      </trkpt>
      <trkpt lat="47.34584" lon="-1.2913">
        <ele>26</ele>
        <time>2016-11-11T23:37:01Z</time>
      </trkpt>
      <trkpt lat="47.34575" lon="-1.29139">
        <ele>25</ele>
        <time>2016-11-11T23:39:01Z</time>
      </trkpt>
      <trkpt lat="47.3457" lon="-1.29155">
        <ele>24</ele>
        <time>2016-11-11T23:41:01Z</time>
      </trkpt>
      <trkpt lat="47.34567" lon="-1.29174">
        <ele>24</ele>
        <time>2016-11-11T23:43:01Z</time>
      </trkpt>
      <trkpt lat="47.34563" lon="-1.29191">
        <ele>24</ele>
        <time>2016-11-11T23:45:01Z</time>
      </trkpt>
      <trkpt lat="47.34561" lon="-1.29206">
        <ele>24</ele>
        <time>2016-11-11T23:47:01Z</time>
      </trkpt>
      <trkpt lat="47.34555" lon="-1.2922">
        <ele>23</ele>
        <time>2016-11-11T23:49:01Z</time>
      </trkpt>
      <trkpt lat="47.34545" lon="-1.29235">
        <ele>22</ele>
        <time>2016-11-11T23:51:01Z</time>
      </trkpt>
      <trkpt lat="47.34537" lon="-1.29254">
        <ele>20</ele>
        <time>2016-11-11T23:53:01Z</time>
      </trkpt>
      <trkpt lat="47.34534" lon="-1.29261">
        <ele>20</ele>
        <time>2016-11-11T23:55:01Z</time>
      </trkpt>
      <trkpt lat="47.3453" lon="-1.2927">
        <ele>19</ele>
        <time>2016-11-11T23:57:01Z</time>
      </trkpt>
      <trkpt lat="47.34517" lon="-1.29302">
        <ele>18</ele>
        <time>2016-11-11T23:59:01Z</time>
      </trkpt>
      <trkpt lat="47.345" lon="-1.29335">
        <ele>15</ele>
        <time>2016-11-12T00:01:01Z</time>
      </trkpt>
      <trkpt lat="47.34491" lon="-1.29356">
        <ele>14</ele>
        <time>2016-11-12T00:03:01Z</time>
      </trkpt>
      <trkpt lat="47.34487" lon="-1.29374">
        <ele>14</ele>
        <time>2016-11-12T00:05:01Z</time>
      </trkpt>
      <trkpt lat="47.34486" lon="-1.29391">
        <ele>14</ele>
        <time>2016-11-12T00:07:01Z</time>
      </trkpt>
      <trkpt lat="47.34484" lon="-1.29417">
        <ele>13</ele>
        <time>2016-11-12T00:09:01Z</time>
      </trkpt>
      <trkpt lat="47.34483" lon="-1.29443">
        <ele>14</ele>
        <time>2016-11-12T00:11:01Z</time>
      </trkpt>
      <trkpt lat="47.34478" lon="-1.29451">
        <ele>13</ele>
        <time>2016-11-12T00:13:01Z</time>
      </trkpt>
      <trkpt lat="47.34475" lon="-1.29451">
        <ele>13</ele>
        <time>2016-11-12T00:15:01Z</time>
      </trkpt>
      <trkpt lat="47.34459" lon="-1.2945">
        <ele>11</ele>
        <time>2016-11-12T00:17:01Z</time>
      </trkpt>
      <trkpt lat="47.34444" lon="-1.29447">
        <ele>10</ele>
        <time>2016-11-12T00:19:01Z</time>
      </trkpt>
      <trkpt lat="47.34436" lon="-1.29448">
        <ele>9</ele>
        <time>2016-11-12T00:21:01Z</time>
      </trkpt>
      <trkpt lat="47.34435" lon="-1.29451">
        <ele>9</ele>
        <time>2016-11-12T00:23:01Z</time>
      </trkpt>
      <trkpt lat="47.34432" lon="-1.29467">
        <ele>9</ele>
        <time>2016-11-12T00:25:01Z</time>
      </trkpt>
      <trkpt lat="47.34431" lon="-1.29479">
        <ele>9</ele>
        <time>2016-11-12T00:27:01Z</time>
      </trkpt>
      <trkpt lat="47.34429" lon="-1.29485">
        <ele>9</ele>
        <time>2016-11-12T00:29:01Z</time>
      </trkpt>
      <trkpt lat="47.34426" lon="-1.29507">
        <ele>9</ele>
        <time>2016-11-12T00:31:01Z</time>
      </trkpt>
      <trkpt lat="47.34424" lon="-1.29529">
        <ele>9</ele>
        <time>2016-11-12T00:33:01Z</time>
      </trkpt>
      <trkpt lat="47.34423" lon="-1.29542">
        <ele>10</ele>
        <time>2016-11-12T00:35:01Z</time>
      </trkpt>
      <trkpt lat="47.3442" lon="-1.29579">
        <ele>10</ele>
        <time>2016-11-12T00:37:01Z</time>
      </trkpt>
      <trkpt lat="47.34416" lon="-1.296">
        <ele>10</ele>
        <time>2016-11-12T00:39:01Z</time>
      </trkpt>
      <trkpt lat="47.34411" lon="-1.29625">
        <ele>10</ele>
        <time>2016-11-12T00:41:01Z</time>
      </trkpt>
      <trkpt lat="47.34405" lon="-1.29643">
        <ele>10</ele>
        <time>2016-11-12T00:43:01Z</time>
      </trkpt>
      <trkpt lat="47.34397" lon="-1.29661">
        <ele>10</ele>
        <time>2016-11-12T00:45:01Z</time>
      </trkpt>
      <trkpt lat="47.34384" lon="-1.29683">
        <ele>10</ele>
        <time>2016-11-12T00:47:01Z</time>
      </trkpt>
      <trkpt lat="47.34373" lon="-1.29701">
        <ele>10</ele>
        <time>2016-11-12T00:49:01Z</time>
      </trkpt>
      <trkpt lat="47.34363" lon="-1.29721">
        <ele>10</ele>
        <time>2016-11-12T00:51:01Z</time>
      </trkpt>
      <trkpt lat="47.34349" lon="-1.29754">
        <ele>9</ele>
        <time>2016-11-12T00:53:01Z</time>
      </trkpt>
      <trkpt lat="47.34324" lon="-1.29808">
        <ele>10</ele>
        <time>2016-11-12T00:55:01Z</time>
      </trkpt>
      <trkpt lat="47.34314" lon="-1.2983">
        <ele>10</ele>
        <time>2016-11-12T00:57:01Z</time>
      </trkpt>
      <trkpt lat="47.34307" lon="-1.29853">
        <ele>10</ele>
        <time>2016-11-12T00:59:01Z</time>
      </trkpt>
      <trkpt lat="47.34292" lon="-1.29896">
        <ele>10</ele>
        <time>2016-11-12T01:01:01Z</time>
      </trkpt>
      <trkpt lat="47.34278" lon="-1.29945">
        <ele>10</ele>
        <time>2016-11-12T01:03:01Z</time>
      </trkpt>
      <trkpt lat="47.34275" lon="-1.29958">
        <ele>10</ele>
        <time>2016-11-12T01:05:01Z</time>
      </trkpt>
      <trkpt lat="47.34272" lon="-1.29977">
        <ele>10</ele>
        <time>2016-11-12T01:07:01Z</time>
      </trkpt>
      <trkpt lat="47.3427" lon="-1.29995">
        <ele>10</ele>
        <time>2016-11-12T01:09:01Z</time>
      </trkpt>
      <trkpt lat="47.34268" lon="-1.30014">
        <ele>10</ele>
        <time>2016-11-12T01:11:01Z</time>
      </trkpt>
      <trkpt lat="47.34262" lon="-1.30039">
        <ele>10</ele>
        <time>2016-11-12T01:13:01Z</time>
      </trkpt>
      <trkpt lat="47.34254" lon="-1.30071">
        <ele>11</ele>
        <time>2016-11-12T01:15:01Z</time>
      </trkpt>
      <trkpt lat="47.3425" lon="-1.30086">
        <ele>11</ele>
        <time>2016-11-12T01:17:01Z</time>
      </trkpt>
      <trkpt lat="47.34249" lon="-1.30093">
        <ele>11</ele>
        <time>2016-11-12T01:19:01Z</time>
      </trkpt>
      <trkpt lat="47.34247" lon="-1.30097">
        <ele>11</ele>
        <time>2016-11-12T01:21:01Z</time>
      </trkpt>
      <trkpt lat="47.34241" lon="-1.30116">
        <ele>12</ele>
        <time>2016-11-12T01:23:01Z</time>
      </trkpt>
      <trkpt lat="47.34237" lon="-1.30129">
        <ele>12</ele>
        <time>2016-11-12T01:25:01Z</time>
      </trkpt>
      <trkpt lat="47.34234" lon="-1.30143">
        <ele>12</ele>
        <time>2016-11-12T01:27:01Z</time>
      </trkpt>
      <trkpt lat="47.34229" lon="-1.3016">
        <ele>12</ele>
        <time>2016-11-12T01:29:01Z</time>
      </trkpt>
      <trkpt lat="47.34227" lon="-1.30165">
        <ele>12</ele>
        <time>2016-11-12T01:31:01Z</time>
      </trkpt>
      <trkpt lat="47.34224" lon="-1.30173">
        <ele>13</ele>
        <time>2016-11-12T01:33:01Z</time>
      </trkpt>
      <trkpt lat="47.34219" lon="-1.30188">
        <ele>13</ele>
        <time>2016-11-12T01:35:01Z</time>
      </trkpt>
      <trkpt lat="47.34213" lon="-1.30208">
        <ele>14</ele>
        <time>2016-11-12T01:37:01Z</time>
      </trkpt>
      <trkpt lat="47.34208" lon="-1.30223">
        <ele>14</ele>
        <time>2016-11-12T01:39:01Z</time>
      </trkpt>
      <trkpt lat="47.34203" lon="-1.30238">
        <ele>14</ele>
        <time>2016-11-12T01:41:01Z</time>
      </trkpt>
      <trkpt lat="47.34195" lon="-1.30255">
        <ele>14</ele>
        <time>2016-11-12T01:43:01Z</time>
      </trkpt>
      <trkpt lat="47.34189" lon="-1.30274">
        <ele>15</ele>
        <time>2016-11-12T01:45:01Z</time>
      </trkpt>
      <trkpt lat="47.34183" lon="-1.30291">
        <ele>15</ele>
        <time>2016-11-12T01:47:01Z</time>
      </trkpt>
      <trkpt lat="47.34177" lon="-1.30303">
        <ele>15</ele>
        <time>2016-11-12T01:49:01Z</time>
      </trkpt>
      <trkpt lat="47.3417" lon="-1.30318">
        <ele>15</ele>
        <time>2016-11-12T01:51:01Z</time>
      </trkpt>
      <trkpt lat="47.34164" lon="-1.30332">
        <ele>15</ele>
        <time>2016-11-12T01:53:01Z</time>
      </trkpt>
      <trkpt lat="47.34159" lon="-1.30344">
        <ele>15</ele>
        <time>2016-11-12T01:55:01Z</time>
      </trkpt>
      <trkpt lat="47.34153" lon="-1.3036">
        <ele>15</ele>
        <time>2016-11-12T01:57:01Z</time>
      </trkpt>
      <trkpt lat="47.34145" lon="-1.30378">
        <ele>15</ele>
        <time>2016-11-12T01:59:01Z</time>
      </trkpt>
      <trkpt lat="47.34144" lon="-1.30384">
        <ele>16</ele>
        <time>2016-11-12T02:01:01Z</time>
      </trkpt>
      <trkpt lat="47.34141" lon="-1.30395">
        <ele>16</ele>
        <time>2016-11-12T02:03:01Z</time>
      </trkpt>
      <trkpt lat="47.34135" lon="-1.30407">
        <ele>16</ele>
        <time>2016-11-12T02:05:01Z</time>
      </trkpt>
      <trkpt lat="47.34127" lon="-1.30424">
        <ele>16</ele>
        <time>2016-11-12T02:07:01Z</time>
      </trkpt>
      <trkpt lat="47.3411" lon="-1.30463">
        <ele>15</ele>
        <time>2016-11-12T02:09:01Z</time>
      </trkpt>
      <trkpt lat="47.341" lon="-1.30484">
        <ele>14</ele>
        <time>2016-11-12T02:11:01Z</time>
      </trkpt>
      <trkpt lat="47.34087" lon="-1.30514">
        <ele>13</ele>
        <time>2016-11-12T02:13:01Z</time>
      </trkpt>
      <trkpt lat="47.34075" lon="-1.30536">
        <ele>13</ele>
        <time>2016-11-12T02:15:01Z</time>
      </trkpt>
      <trkpt lat="47.34068" lon="-1.30551">
        <ele>13</ele>
        <time>2016-11-12T02:17:01Z</time>
      </trkpt>
      <trkpt lat="47.3406" lon="-1.30563">
        <ele>12</ele>
        <time>2016-11-12T02:19:01Z</time>
      </trkpt>
      <trkpt lat="47.34052" lon="-1.30579">
        <ele>12</ele>
        <time>2016-11-12T02:21:01Z</time>
      </trkpt>
      <trkpt lat="47.34044" lon="-1.30594">
        <ele>12</ele>
        <time>2016-11-12T02:23:01Z</time>
      </trkpt>
      <trkpt lat="47.34033" lon="-1.30615">
        <ele>13</ele>
        <time>2016-11-12T02:25:01Z</time>
      </trkpt>
      <trkpt lat="47.34024" lon="-1.30631">
        <ele>13</ele>
        <time>2016-11-12T02:27:01Z</time>
      </trkpt>
      <trkpt lat="47.34016" lon="-1.30644">
        <ele>13</ele>
        <time>2016-11-12T02:29:01Z</time>
      </trkpt>
      <trkpt lat="47.34006" lon="-1.30657">
        <ele>12</ele>
        <time>2016-11-12T02:31:01Z</time>
      </trkpt>
      <trkpt lat="47.33994" lon="-1.30675">
        <ele>13</ele>
        <time>2016-11-12T02:33:01Z</time>
      </trkpt>
      <trkpt lat="47.33984" lon="-1.30688">
        <ele>15</ele>
        <time>2016-11-12T02:35:01Z</time>
      </trkpt>
      <trkpt lat="47.33973" lon="-1.30687">
        <ele>14</ele>
        <time>2016-11-12T02:37:01Z</time>
      </trkpt>
      <trkpt lat="47.33973" lon="-1.3068">
        <ele>13</ele>
        <time>2016-11-12T02:39:01Z</time>
      </trkpt>
      <trkpt lat="47.33968" lon="-1.30673">
        <ele>13</ele>
        <time>2016-11-12T02:41:01Z</time>
      </trkpt>
      <trkpt lat="47.3396" lon="-1.30669">
        <ele>12</ele>
        <time>2016-11-12T02:43:01Z</time>
      </trkpt>
      <trkpt lat="47.33952" lon="-1.30677">
        <ele>13</ele>
        <time>2016-11-12T02:45:01Z</time>
      </trkpt>
      <trkpt lat="47.33945" lon="-1.3069">
        <ele>13</ele>
        <time>2016-11-12T02:47:01Z</time>
      </trkpt>
      <trkpt lat="47.33936" lon="-1.30701">
        <ele>14</ele>
        <time>2016-11-12T02:49:01Z</time>
      </trkpt>
      <trkpt lat="47.33917" lon="-1.30732">
        <ele>13</ele>
        <time>2016-11-12T02:51:01Z</time>
      </trkpt>
      <trkpt lat="47.33883" lon="-1.30772">
        <ele>13</ele>
        <time>2016-11-12T02:53:01Z</time>
      </trkpt>
      <trkpt lat="47.33874" lon="-1.30782">
        <ele>13</ele>
        <time>2016-11-12T02:55:01Z</time>
      </trkpt>
      <trkpt lat="47.33863" lon="-1.30792">
        <ele>13</ele>
        <time>2016-11-12T02:57:01Z</time>
      </trkpt>
      <trkpt lat="47.33855" lon="-1.30802">
        <ele>13</ele>
        <time>2016-11-12T02:59:01Z</time>
      </trkpt>
      <trkpt lat="47.33842" lon="-1.30808">
        <ele>12</ele>
        <time>2016-11-12T03:01:01Z</time>
      </trkpt>
      <trkpt lat="47.33833" lon="-1.3082">
        <ele>12</ele>
        <time>2016-11-12T03:03:01Z</time>
      </trkpt>
      <trkpt lat="47.33827" lon="-1.30829">
        <ele>13</ele>
        <time>2016-11-12T03:05:01Z</time>
      </trkpt>
      <trkpt lat="47.33818" lon="-1.30836">
        <ele>13</ele>
        <time>2016-11-12T03:07:01Z</time>
      </trkpt>
      <trkpt lat="47.33809" lon="-1.30845">
        <ele>14</ele>
        <time>2016-11-12T03:09:01Z</time>
      </trkpt>
      <trkpt lat="47.33798" lon="-1.30856">
        <ele>15</ele>
        <time>2016-11-12T03:11:01Z</time>
      </trkpt>
      <trkpt lat="47.33787" lon="-1.30866">
        <ele>15</ele>
        <time>2016-11-12T03:13:01Z</time>
      </trkpt>
      <trkpt lat="47.33775" lon="-1.30874">
        <ele>15</ele>
        <time>2016-11-12T03:15:01Z</time>
      </trkpt>
      <trkpt lat="47.33766" lon="-1.30885">
        <ele>15</ele>
        <time>2016-11-12T03:17:01Z</time>
      </trkpt>
      <trkpt lat="47.33757" lon="-1.30896">
        <ele>16</ele>
        <time>2016-11-12T03:19:01Z</time>
      </trkpt>
      <trkpt lat="47.33749" lon="-1.30904">
        <ele>16</ele>
        <time>2016-11-12T03:21:01Z</time>
      </trkpt>
      <trkpt lat="47.33741" lon="-1.30916">
        <ele>17</ele>
        <time>2016-11-12T03:23:01Z</time>
      </trkpt>
      <trkpt lat="47.33734" lon="-1.30923">
        <ele>18</ele>
        <time>2016-11-12T03:25:01Z</time>
      </trkpt>
      <trkpt lat="47.33728" lon="-1.30932">
        <ele>19</ele>
        <time>2016-11-12T03:27:01Z</time>
      </trkpt>
      <trkpt lat="47.33723" lon="-1.30939">
        <ele>20</ele>
        <time>2016-11-12T03:29:01Z</time>
      </trkpt>
      <trkpt lat="47.33701" lon="-1.30965">
        <ele>20</ele>
        <time>2016-11-12T03:31:01Z</time>
      </trkpt>
      <trkpt lat="47.33692" lon="-1.30977">
        <ele>20</ele>
        <time>2016-11-12T03:33:01Z</time>
      </trkpt>
      <trkpt lat="47.33683" lon="-1.30983">
        <ele>19</ele>
        <time>2016-11-12T03:35:01Z</time>
      </trkpt>
      <trkpt lat="47.33679" lon="-1.30988">
        <ele>19</ele>
        <time>2016-11-12T03:37:01Z</time>
      </trkpt>
      <trkpt lat="47.33676" lon="-1.30992">
        <ele>18</ele>
        <time>2016-11-12T03:39:01Z</time>
      </trkpt>
      <trkpt lat="47.33668" lon="-1.31005">
        <ele>18</ele>
        <time>2016-11-12T03:41:01Z</time>
      </trkpt>
      <trkpt lat="47.3366" lon="-1.31018">
        <ele>19</ele>
        <time>2016-11-12T03:43:01Z</time>
      </trkpt>
      <trkpt lat="47.33653" lon="-1.31029">
        <ele>19</ele>
        <time>2016-11-12T03:45:01Z</time>
      </trkpt>
      <trkpt lat="47.33633" lon="-1.31064">
        <ele>19</ele>
        <time>2016-11-12T03:47:01Z</time>
      </trkpt>
      <trkpt lat="47.33625" lon="-1.31077">
        <ele>19</ele>
        <time>2016-11-12T03:49:01Z</time>
      </trkpt>
      <trkpt lat="47.33617" lon="-1.31088">
        <ele>18</ele>
        <time>2016-11-12T03:51:01Z</time>
      </trkpt>
      <trkpt lat="47.33612" lon="-1.31093">
        <ele>17</ele>
        <time>2016-11-12T03:53:01Z</time>
      </trkpt>
      <trkpt lat="47.33603" lon="-1.31108">
        <ele>16</ele>
        <time>2016-11-12T03:55:01Z</time>
      </trkpt>
      <trkpt lat="47.33602" lon="-1.31108">
        <ele>16</ele>
        <time>2016-11-12T03:57:01Z</time>
      </trkpt>
      <trkpt lat="47.33598" lon="-1.31117">
        <ele>15</ele>
        <time>2016-11-12T03:59:01Z</time>
      </trkpt>
      <trkpt lat="47.33592" lon="-1.31126">
        <ele>15</ele>
        <time>2016-11-12T04:01:01Z</time>
      </trkpt>
      <trkpt lat="47.33584" lon="-1.31139">
        <ele>13</ele>
        <time>2016-11-12T04:03:01Z</time>
      </trkpt>
      <trkpt lat="47.33577" lon="-1.3115">
        <ele>13</ele>
        <time>2016-11-12T04:05:01Z</time>
      </trkpt>
      <trkpt lat="47.33575" lon="-1.31161">
        <ele>13</ele>
        <time>2016-11-12T04:07:01Z</time>
      </trkpt>
      <trkpt lat="47.33576" lon="-1.31163">
        <ele>14</ele>
        <time>2016-11-12T04:09:01Z</time>
      </trkpt>
      <trkpt lat="47.33582" lon="-1.31168">
        <ele>15</ele>
        <time>2016-11-12T04:11:01Z</time>
      </trkpt>
      <trkpt lat="47.33577" lon="-1.31185">
        <ele>17</ele>
        <time>2016-11-12T04:13:01Z</time>
      </trkpt>
      <trkpt lat="47.33589" lon="-1.31179">
        <ele>19</ele>
        <time>2016-11-12T04:15:01Z</time>
      </trkpt>
      <trkpt lat="47.33596" lon="-1.31192">
        <ele>23</ele>
        <time>2016-11-12T04:17:01Z</time>
      </trkpt>
      <trkpt lat="47.336" lon="-1.31199">
        <ele>25</ele>
        <time>2016-11-12T04:19:01Z</time>
      </trkpt>
      <trkpt lat="47.33605" lon="-1.31207">
        <ele>28</ele>
        <time>2016-11-12T04:21:01Z</time>
      </trkpt>
      <trkpt lat="47.33614" lon="-1.31207">
        <ele>30</ele>
        <time>2016-11-12T04:23:01Z</time>
      </trkpt>
      <trkpt lat="47.33616" lon="-1.31209">
        <ele>31</ele>
        <time>2016-11-12T04:25:01Z</time>
      </trkpt>
      <trkpt lat="47.33621" lon="-1.3121">
        <ele>33</ele>
        <time>2016-11-12T04:27:01Z</time>
      </trkpt>
      <trkpt lat="47.33626" lon="-1.31211">
        <ele>34</ele>
        <time>2016-11-12T04:29:01Z</time>
      </trkpt>
      <trkpt lat="47.3363" lon="-1.31214">
        <ele>36</ele>
        <time>2016-11-12T04:31:01Z</time>
      </trkpt>
      <trkpt lat="47.33633" lon="-1.31219">
        <ele>37</ele>
        <time>2016-11-12T04:33:01Z</time>
      </trkpt>
      <trkpt lat="47.33635" lon="-1.3122">
        <ele>38</ele>
        <time>2016-11-12T04:35:01Z</time>
      </trkpt>
      <trkpt lat="47.33636" lon="-1.31221">
        <ele>38</ele>
        <time>2016-11-12T04:37:01Z</time>
      </trkpt>
      <trkpt lat="47.33637" lon="-1.31223">
        <ele>39</ele>
        <time>2016-11-12T04:39:01Z</time>
      </trkpt>
      <trkpt lat="47.33637" lon="-1.31226">
        <ele>39</ele>
        <time>2016-11-12T04:41:01Z</time>
      </trkpt>
      <trkpt lat="47.33638" lon="-1.31227">
        <ele>40</ele>
        <time>2016-11-12T04:43:01Z</time>
      </trkpt>
      <trkpt lat="47.33639" lon="-1.31232">
        <ele>40</ele>
        <time>2016-11-12T04:45:01Z</time>
      </trkpt>
      <trkpt lat="47.3364" lon="-1.31232">
        <ele>41</ele>
        <time>2016-11-12T04:47:01Z</time>
      </trkpt>
      <trkpt lat="47.33643" lon="-1.31233">
        <ele>42</ele>
        <time>2016-11-12T04:49:01Z</time>
      </trkpt>
      <trkpt lat="47.33645" lon="-1.31232">
        <ele>42</ele>
        <time>2016-11-12T04:51:01Z</time>
      </trkpt>
      <trkpt lat="47.3365" lon="-1.3123">
        <ele>43</ele>
        <time>2016-11-12T04:53:01Z</time>
      </trkpt>
      <trkpt lat="47.33654" lon="-1.31231">
        <ele>44</ele>
        <time>2016-11-12T04:55:01Z</time>
      </trkpt>
      <trkpt lat="47.33655" lon="-1.31234">
        <ele>45</ele>
        <time>2016-11-12T04:57:01Z</time>
      </trkpt>
      <trkpt lat="47.33657" lon="-1.31236">
        <ele>46</ele>
        <time>2016-11-12T04:59:01Z</time>
      </trkpt>
      <trkpt lat="47.33661" lon="-1.31238">
        <ele>47</ele>
        <time>2016-11-12T05:01:01Z</time>
      </trkpt>
      <trkpt lat="47.33662" lon="-1.31248">
        <ele>49</ele>
        <time>2016-11-12T05:03:01Z</time>
      </trkpt>
      <trkpt lat="47.33668" lon="-1.31251">
        <ele>50</ele>
        <time>2016-11-12T05:05:01Z</time>
      </trkpt>
      <trkpt lat="47.33668" lon="-1.31252">
        <ele>51</ele>
        <time>2016-11-12T05:07:01Z</time>
      </trkpt>
      <trkpt lat="47.33673" lon="-1.31252">
        <ele>51</ele>
        <time>2016-11-12T05:09:01Z</time>
      </trkpt>
      <trkpt lat="47.33674" lon="-1.31251">
        <ele>51</ele>
        <time>2016-11-12T05:11:01Z</time>
      </trkpt>
      <trkpt lat="47.33675" lon="-1.3125">
        <ele>51</ele>
        <time>2016-11-12T05:13:01Z</time>
      </trkpt>
      <trkpt lat="47.33682" lon="-1.31252">
        <ele>53</ele>
        <time>2016-11-12T05:15:01Z</time>
      </trkpt>
      <trkpt lat="47.33683" lon="-1.31251">
        <ele>53</ele>
        <time>2016-11-12T05:17:01Z</time>
      </trkpt>
      <trkpt lat="47.33684" lon="-1.31253">
        <ele>53</ele>
        <time>2016-11-12T05:19:01Z</time>
      </trkpt>
      <trkpt lat="47.33685" lon="-1.31254">
        <ele>54</ele>
        <time>2016-11-12T05:21:01Z</time>
      </trkpt>
      <trkpt lat="47.33688" lon="-1.31254">
        <ele>54</ele>
        <time>2016-11-12T05:23:01Z</time>
      </trkpt>
      <trkpt lat="47.3369" lon="-1.31253">
        <ele>54</ele>
        <time>2016-11-12T05:25:01Z</time>
      </trkpt>
      <trkpt lat="47.33691" lon="-1.31254">
        <ele>55</ele>
        <time>2016-11-12T05:27:01Z</time>
      </trkpt>
      <trkpt lat="47.33695" lon="-1.31255">
        <ele>55</ele>
        <time>2016-11-12T05:29:01Z</time>
      </trkpt>
      <trkpt lat="47.33701" lon="-1.3126">
        <ele>57</ele>
        <time>2016-11-12T05:31:01Z</time>
      </trkpt>
      <trkpt lat="47.33706" lon="-1.31264">
        <ele>58</ele>
        <time>2016-11-12T05:33:01Z</time>
      </trkpt>
      <trkpt lat="47.3371" lon="-1.31264">
        <ele>59</ele>
        <time>2016-11-12T05:35:01Z</time>
      </trkpt>
      <trkpt lat="47.33715" lon="-1.31268">
        <ele>60</ele>
        <time>2016-11-12T05:37:01Z</time>
      </trkpt>
      <trkpt lat="47.33716" lon="-1.31266">
        <ele>60</ele>
        <time>2016-11-12T05:39:01Z</time>
      </trkpt>
      <trkpt lat="47.3372" lon="-1.31265">
        <ele>60</ele>
        <time>2016-11-12T05:41:01Z</time>
      </trkpt>
      <trkpt lat="47.33722" lon="-1.31265">
        <ele>60</ele>
        <time>2016-11-12T05:43:01Z</time>
      </trkpt>
      <trkpt lat="47.33725" lon="-1.31266">
        <ele>61</ele>
        <time>2016-11-12T05:45:01Z</time>
      </trkpt>
      <trkpt lat="47.33727" lon="-1.31267">
        <ele>61</ele>
        <time>2016-11-12T05:47:01Z</time>
      </trkpt>
      <trkpt lat="47.3373" lon="-1.31269">
        <ele>62</ele>
        <time>2016-11-12T05:49:01Z</time>
      </trkpt>
      <trkpt lat="47.33734" lon="-1.31272">
        <ele>62</ele>
        <time>2016-11-12T05:51:01Z</time>
      </trkpt>
      <trkpt lat="47.33735" lon="-1.31276">
        <ele>63</ele>
        <time>2016-11-12T05:53:01Z</time>
      </trkpt>
      <trkpt lat="47.33743" lon="-1.31277">
        <ele>64</ele>
        <time>2016-11-12T05:55:01Z</time>
      </trkpt>
      <trkpt lat="47.33747" lon="-1.3128">
        <ele>64</ele>
        <time>2016-11-12T05:57:01Z</time>
      </trkpt>
      <trkpt lat="47.33752" lon="-1.31284">
        <ele>65</ele>
        <time>2016-11-12T05:59:01Z</time>
      </trkpt>
      <trkpt lat="47.33754" lon="-1.31286">
        <ele>65</ele>
        <time>2016-11-12T06:01:01Z</time>
      </trkpt>
      <trkpt lat="47.33756" lon="-1.31286">
        <ele>65</ele>
        <time>2016-11-12T06:03:01Z</time>
      </trkpt>
      <trkpt lat="47.33761" lon="-1.31289">
        <ele>65</ele>
        <time>2016-11-12T06:05:01Z</time>
      </trkpt>
      <trkpt lat="47.33768" lon="-1.31293">
        <ele>65</ele>
        <time>2016-11-12T06:07:01Z</time>
      </trkpt>
      <trkpt lat="47.33777" lon="-1.31298">
        <ele>66</ele>
        <time>2016-11-12T06:09:01Z</time>
      </trkpt>
      <trkpt lat="47.33786" lon="-1.31302">
        <ele>66</ele>
        <time>2016-11-12T06:11:01Z</time>
      </trkpt>
      <trkpt lat="47.33795" lon="-1.31307">
        <ele>66</ele>
        <time>2016-11-12T06:13:01Z</time>
      </trkpt>
      <trkpt lat="47.33801" lon="-1.31313">
        <ele>67</ele>
        <time>2016-11-12T06:15:01Z</time>
      </trkpt>
      <trkpt lat="47.33811" lon="-1.31322">
        <ele>67</ele>
        <time>2016-11-12T06:17:01Z</time>
      </trkpt>
      <trkpt lat="47.33821" lon="-1.31328">
        <ele>68</ele>
        <time>2016-11-12T06:19:01Z</time>
      </trkpt>
      <trkpt lat="47.33823" lon="-1.31331">
        <ele>68</ele>
        <time>2016-11-12T06:21:01Z</time>
      </trkpt>
      <trkpt lat="47.33827" lon="-1.31335">
        <ele>68</ele>
        <time>2016-11-12T06:23:01Z</time>
      </trkpt>
      <trkpt lat="47.33837" lon="-1.31345">
        <ele>68</ele>
        <time>2016-11-12T06:25:01Z</time>
      </trkpt>
      <trkpt lat="47.3384" lon="-1.31349">
        <ele>68</ele>
        <time>2016-11-12T06:27:01Z</time>
      </trkpt>
      <trkpt lat="47.33844" lon="-1.31352">
        <ele>68</ele>
        <time>2016-11-12T06:29:01Z</time>
      </trkpt>
      <trkpt lat="47.33851" lon="-1.31355">
        <ele>68</ele>
        <time>2016-11-12T06:31:01Z</time>
      </trkpt>
      <trkpt lat="47.33855" lon="-1.31361">
        <ele>68</ele>
        <time>2016-11-12T06:33:01Z</time>
      </trkpt>
      <trkpt lat="47.33863" lon="-1.31369">
        <ele>68</ele>
        <time>2016-11-12T06:35:01Z</time>
      </trkpt>
      <trkpt lat="47.33871" lon="-1.31381">
        <ele>68</ele>
        <time>2016-11-12T06:37:01Z</time>
      </trkpt>
      <trkpt lat="47.3388" lon="-1.31392">
        <ele>69</ele>
        <time>2016-11-12T06:39:01Z</time>
      </trkpt>
      <trkpt lat="47.33882" lon="-1.31392">
        <ele>69</ele>
        <time>2016-11-12T06:41:01Z</time>
      </trkpt>
      <trkpt lat="47.33883" lon="-1.31395">
        <ele>69</ele>
        <time>2016-11-12T06:43:01Z</time>
      </trkpt>
      <trkpt lat="47.33887" lon="-1.31401">
        <ele>69</ele>
        <time>2016-11-12T06:45:01Z</time>
      </trkpt>
      <trkpt lat="47.3389" lon="-1.31404">
        <ele>69</ele>
        <time>2016-11-12T06:47:01Z</time>
      </trkpt>
      <trkpt lat="47.33897" lon="-1.31414">
        <ele>69</ele>
        <time>2016-11-12T06:49:01Z</time>
      </trkpt>
      <trkpt lat="47.33897" lon="-1.31416">
        <ele>69</ele>
        <time>2016-11-12T06:51:01Z</time>
      </trkpt>
      <trkpt lat="47.33901" lon="-1.31425">
        <ele>69</ele>
        <time>2016-11-12T06:53:01Z</time>
      </trkpt>
      <trkpt lat="47.33905" lon="-1.31435">
        <ele>69</ele>
        <time>2016-11-12T06:55:01Z</time>
      </trkpt>
      <trkpt lat="47.33911" lon="-1.31446">
        <ele>70</ele>
        <time>2016-11-12T06:57:01Z</time>
      </trkpt>
      <trkpt lat="47.33914" lon="-1.3145">
        <ele>70</ele>
        <time>2016-11-12T06:59:01Z</time>
      </trkpt>
      <trkpt lat="47.33914" lon="-1.31451">
        <ele>70</ele>
        <time>2016-11-12T07:01:01Z</time>
      </trkpt>
      <trkpt lat="47.33915" lon="-1.31454">
        <ele>70</ele>
        <time>2016-11-12T07:03:01Z</time>
      </trkpt>
      <trkpt lat="47.33922" lon="-1.31456">
        <ele>70</ele>
        <time>2016-11-12T07:05:01Z</time>
      </trkpt>
      <trkpt lat="47.33935" lon="-1.31463">
        <ele>70</ele>
        <time>2016-11-12T07:07:01Z</time>
      </trkpt>
      <trkpt lat="47.33946" lon="-1.31471">
        <ele>71</ele>
        <time>2016-11-12T07:09:01Z</time>
      </trkpt>
      <trkpt lat="47.33957" lon="-1.31484">
        <ele>71</ele>
        <time>2016-11-12T07:11:01Z</time>
      </trkpt>
      <trkpt lat="47.33978" lon="-1.31516">
        <ele>73</ele>
        <time>2016-11-12T07:13:01Z</time>
      </trkpt>
      <trkpt lat="47.33985" lon="-1.3153">
        <ele>73</ele>
        <time>2016-11-12T07:15:01Z</time>
      </trkpt>
      <trkpt lat="47.33989" lon="-1.31546">
        <ele>74</ele>
        <time>2016-11-12T07:17:01Z</time>
      </trkpt>
      <trkpt lat="47.33992" lon="-1.31556">
        <ele>74</ele>
        <time>2016-11-12T07:19:01Z</time>
      </trkpt>
      <trkpt lat="47.33995" lon="-1.31563">
        <ele>74</ele>
        <time>2016-11-12T07:21:01Z</time>
      </trkpt>
      <trkpt lat="47.33998" lon="-1.31576">
        <ele>75</ele>
        <time>2016-11-12T07:23:01Z</time>
      </trkpt>
      <trkpt lat="47.34" lon="-1.31584">
        <ele>75</ele>
        <time>2016-11-12T07:25:01Z</time>
      </trkpt>
      <trkpt lat="47.33998" lon="-1.31585">
        <ele>75</ele>
        <time>2016-11-12T07:27:01Z</time>
      </trkpt>
      <trkpt lat="47.33998" lon="-1.31591">
        <ele>75</ele>
        <time>2016-11-12T07:29:01Z</time>
      </trkpt>
      <trkpt lat="47.34004" lon="-1.31608">
        <ele>75</ele>
        <time>2016-11-12T07:31:01Z</time>
      </trkpt>
      <trkpt lat="47.3401" lon="-1.31627">
        <ele>75</ele>
        <time>2016-11-12T07:33:01Z</time>
      </trkpt>
      <trkpt lat="47.34015" lon="-1.3164">
        <ele>75</ele>
        <time>2016-11-12T07:35:01Z</time>
      </trkpt>
      <trkpt lat="47.34022" lon="-1.31655">
        <ele>75</ele>
        <time>2016-11-12T07:37:01Z</time>
      </trkpt>
      <trkpt lat="47.34026" lon="-1.3167">
        <ele>76</ele>
        <time>2016-11-12T07:39:01Z</time>
      </trkpt>
      <trkpt lat="47.34029" lon="-1.31688">
        <ele>76</ele>
        <time>2016-11-12T07:41:01Z</time>
      </trkpt>
      <trkpt lat="47.34031" lon="-1.31706">
        <ele>76</ele>
        <time>2016-11-12T07:43:01Z</time>
      </trkpt>
      <trkpt lat="47.34031" lon="-1.31709">
        <ele>76</ele>
        <time>2016-11-12T07:45:01Z</time>
      </trkpt>
      <trkpt lat="47.34028" lon="-1.31721">
        <ele>76</ele>
        <time>2016-11-12T07:47:01Z</time>
      </trkpt>
      <trkpt lat="47.34026" lon="-1.31722">
        <ele>76</ele>
        <time>2016-11-12T07:49:01Z</time>
      </trkpt>
      <trkpt lat="47.3401" lon="-1.3174">
        <ele>76</ele>
        <time>2016-11-12T07:51:01Z</time>
      </trkpt>
      <trkpt lat="47.33998" lon="-1.31755">
        <ele>76</ele>
        <time>2016-11-12T07:53:01Z</time>
      </trkpt>
      <trkpt lat="47.33987" lon="-1.3177">
        <ele>76</ele>
        <time>2016-11-12T07:55:01Z</time>
      </trkpt>
      <trkpt lat="47.33977" lon="-1.31787">
        <ele>76</ele>
        <time>2016-11-12T07:57:01Z</time>
      </trkpt>
      <trkpt lat="47.33966" lon="-1.31804">
        <ele>76</ele>
        <time>2016-11-12T07:59:01Z</time>
      </trkpt>
      <trkpt lat="47.33958" lon="-1.3182">
        <ele>75</ele>
        <time>2016-11-12T08:01:01Z</time>
      </trkpt>
      <trkpt lat="47.33951" lon="-1.31837">
        <ele>75</ele>
        <time>2016-11-12T08:03:01Z</time>
      </trkpt>
      <trkpt lat="47.3394" lon="-1.3186">
        <ele>75</ele>
        <time>2016-11-12T08:05:01Z</time>
      </trkpt>
      <trkpt lat="47.33935" lon="-1.31873">
        <ele>75</ele>
        <time>2016-11-12T08:07:01Z</time>
      </trkpt>
      <trkpt lat="47.33924" lon="-1.31894">
        <ele>74</ele>
        <time>2016-11-12T08:09:01Z</time>
      </trkpt>
      <trkpt lat="47.33916" lon="-1.31912">
        <ele>74</ele>
        <time>2016-11-12T08:11:01Z</time>
      </trkpt>
      <trkpt lat="47.33908" lon="-1.31927">
        <ele>74</ele>
        <time>2016-11-12T08:13:01Z</time>
      </trkpt>
      <trkpt lat="47.33902" lon="-1.31944">
        <ele>73</ele>
        <time>2016-11-12T08:15:01Z</time>
      </trkpt>
      <trkpt lat="47.33895" lon="-1.31958">
        <ele>73</ele>
        <time>2016-11-12T08:17:01Z</time>
      </trkpt>
      <trkpt lat="47.3389" lon="-1.31968">
        <ele>73</ele>
        <time>2016-11-12T08:19:01Z</time>
      </trkpt>
      <trkpt lat="47.33884" lon="-1.3198">
        <ele>73</ele>
        <time>2016-11-12T08:21:01Z</time>
      </trkpt>
      <trkpt lat="47.33882" lon="-1.3199">
        <ele>72</ele>
        <time>2016-11-12T08:23:01Z</time>
      </trkpt>
      <trkpt lat="47.33883" lon="-1.31993">
        <ele>72</ele>
        <time>2016-11-12T08:25:01Z</time>
      </trkpt>
      <trkpt lat="47.33887" lon="-1.31996">
        <ele>72</ele>
        <time>2016-11-12T08:27:01Z</time>
      </trkpt>
      <trkpt lat="47.33886" lon="-1.31998">
        <ele>72</ele>
        <time>2016-11-12T08:29:01Z</time>
      </trkpt>
      <trkpt lat="47.3389" lon="-1.3201">
        <ele>72</ele>
        <time>2016-11-12T08:31:01Z</time>
      </trkpt>
      <trkpt lat="47.33894" lon="-1.32026">
        <ele>72</ele>
        <time>2016-11-12T08:33:01Z</time>
      </trkpt>
      <trkpt lat="47.33896" lon="-1.32028">
        <ele>72</ele>
        <time>2016-11-12T08:35:01Z</time>
      </trkpt>
      <trkpt lat="47.33897" lon="-1.32039">
        <ele>72</ele>
        <time>2016-11-12T08:37:01Z</time>
      </trkpt>
      <trkpt lat="47.33898" lon="-1.32044">
        <ele>72</ele>
        <time>2016-11-12T08:39:01Z</time>
      </trkpt>
      <trkpt lat="47.33901" lon="-1.32048">
        <ele>72</ele>
        <time>2016-11-12T08:41:01Z</time>
      </trkpt>
      <trkpt lat="47.33906" lon="-1.32067">
        <ele>72</ele>
        <time>2016-11-12T08:43:01Z</time>
      </trkpt>
      <trkpt lat="47.33906" lon="-1.32069">
        <ele>72</ele>
        <time>2016-11-12T08:45:01Z</time>
      </trkpt>
      <trkpt lat="47.33911" lon="-1.32081">
        <ele>72</ele>
        <time>2016-11-12T08:47:01Z</time>
      </trkpt>
      <trkpt lat="47.33919" lon="-1.32096">
        <ele>72</ele>
        <time>2016-11-12T08:49:01Z</time>
      </trkpt>
      <trkpt lat="47.33921" lon="-1.32101">
        <ele>71</ele>
        <time>2016-11-12T08:51:01Z</time>
      </trkpt>
      <trkpt lat="47.33924" lon="-1.32107">
        <ele>71</ele>
        <time>2016-11-12T08:53:01Z</time>
      </trkpt>
      <trkpt lat="47.33928" lon="-1.32118">
        <ele>71</ele>
        <time>2016-11-12T08:55:01Z</time>
      </trkpt>
      <trkpt lat="47.33933" lon="-1.32135">
        <ele>71</ele>
        <time>2016-11-12T08:57:01Z</time>
      </trkpt>
      <trkpt lat="47.33941" lon="-1.3215">
        <ele>71</ele>
        <time>2016-11-12T08:59:01Z</time>
      </trkpt>
      <trkpt lat="47.3395" lon="-1.32158">
        <ele>71</ele>
        <time>2016-11-12T09:01:01Z</time>
      </trkpt>
      <trkpt lat="47.33959" lon="-1.32169">
        <ele>71</ele>
        <time>2016-11-12T09:03:01Z</time>
      </trkpt>
      <trkpt lat="47.33963" lon="-1.32182">
        <ele>71</ele>
        <time>2016-11-12T09:05:01Z</time>
      </trkpt>
      <trkpt lat="47.33965" lon="-1.32201">
        <ele>71</ele>
        <time>2016-11-12T09:07:01Z</time>
      </trkpt>
      <trkpt lat="47.3397" lon="-1.32216">
        <ele>72</ele>
        <time>2016-11-12T09:09:01Z</time>
      </trkpt>
      <trkpt lat="47.33973" lon="-1.32223">
        <ele>72</ele>
        <time>2016-11-12T09:11:01Z</time>
      </trkpt>
      <trkpt lat="47.33972" lon="-1.32225">
        <ele>72</ele>
        <time>2016-11-12T09:13:01Z</time>
      </trkpt>
      <trkpt lat="47.33964" lon="-1.32237">
        <ele>71</ele>
        <time>2016-11-12T09:15:01Z</time>
      </trkpt>
      <trkpt lat="47.33956" lon="-1.32246">
        <ele>71</ele>
        <time>2016-11-12T09:17:01Z</time>
      </trkpt>
      <trkpt lat="47.33947" lon="-1.32256">
        <ele>71</ele>
        <time>2016-11-12T09:19:01Z</time>
      </trkpt>
      <trkpt lat="47.33938" lon="-1.32268">
        <ele>70</ele>
        <time>2016-11-12T09:21:01Z</time>
      </trkpt>
      <trkpt lat="47.3392" lon="-1.32287">
        <ele>70</ele>
        <time>2016-11-12T09:23:01Z</time>
      </trkpt>
      <trkpt lat="47.33908" lon="-1.32297">
        <ele>70</ele>
        <time>2016-11-12T09:25:01Z</time>
      </trkpt>
      <trkpt lat="47.339" lon="-1.3231">
        <ele>70</ele>
        <time>2016-11-12T09:27:01Z</time>
      </trkpt>
      <trkpt lat="47.33898" lon="-1.32317">
        <ele>70</ele>
        <time>2016-11-12T09:29:01Z</time>
      </trkpt>
      <trkpt lat="47.33897" lon="-1.3232">
        <ele>70</ele>
        <time>2016-11-12T09:31:01Z</time>
      </trkpt>
      <trkpt lat="47.33896" lon="-1.32328">
        <ele>70</ele>
        <time>2016-11-12T09:33:01Z</time>
      </trkpt>
      <trkpt lat="47.33894" lon="-1.32339">
        <ele>70</ele>
        <time>2016-11-12T09:35:01Z</time>
      </trkpt>
      <trkpt lat="47.33887" lon="-1.32356">
        <ele>69</ele>
        <time>2016-11-12T09:37:01Z</time>
      </trkpt>
      <trkpt lat="47.33882" lon="-1.32365">
        <ele>68</ele>
        <time>2016-11-12T09:39:01Z</time>
      </trkpt>
      <trkpt lat="47.33881" lon="-1.32368">
        <ele>68</ele>
        <time>2016-11-12T09:41:01Z</time>
      </trkpt>
      <trkpt lat="47.33875" lon="-1.3238">
        <ele>67</ele>
        <time>2016-11-12T09:43:01Z</time>
      </trkpt>
      <trkpt lat="47.33871" lon="-1.32392">
        <ele>67</ele>
        <time>2016-11-12T09:45:01Z</time>
      </trkpt>
      <trkpt lat="47.33861" lon="-1.32415">
        <ele>66</ele>
        <time>2016-11-12T09:47:01Z</time>
      </trkpt>
      <trkpt lat="47.33849" lon="-1.32436">
        <ele>65</ele>
        <time>2016-11-12T09:49:01Z</time>
      </trkpt>
      <trkpt lat="47.33843" lon="-1.32444">
        <ele>65</ele>
        <time>2016-11-12T09:51:01Z</time>
      </trkpt>
      <trkpt lat="47.3384" lon="-1.32448">
        <ele>64</ele>
        <time>2016-11-12T09:53:01Z</time>
      </trkpt>
      <trkpt lat="47.33822" lon="-1.32468">
        <ele>63</ele>
        <time>2016-11-12T09:55:01Z</time>
      </trkpt>
      <trkpt lat="47.33812" lon="-1.32481">
        <ele>63</ele>
        <time>2016-11-12T09:57:01Z</time>
      </trkpt>
      <trkpt lat="47.33805" lon="-1.32496">
        <ele>62</ele>
        <time>2016-11-12T09:59:01Z</time>
      </trkpt>
      <trkpt lat="47.33802" lon="-1.3251">
        <ele>62</ele>
        <time>2016-11-12T10:01:01Z</time>
      </trkpt>
      <trkpt lat="47.33794" lon="-1.32526">
        <ele>62</ele>
        <time>2016-11-12T10:03:01Z</time>
      </trkpt>
      <trkpt lat="47.33773" lon="-1.32563">
        <ele>61</ele>
        <time>2016-11-12T10:05:01Z</time>
      </trkpt>
      <trkpt lat="47.33762" lon="-1.32583">
        <ele>60</ele>
        <time>2016-11-12T10:07:01Z</time>
      </trkpt>
      <trkpt lat="47.33751" lon="-1.32603">
        <ele>60</ele>
        <time>2016-11-12T10:09:01Z</time>
      </trkpt>
      <trkpt lat="47.3374" lon="-1.32631">
        <ele>58</ele>
        <time>2016-11-12T10:11:01Z</time>
      </trkpt>
      <trkpt lat="47.33725" lon="-1.32662">
        <ele>55</ele>
        <time>2016-11-12T10:13:01Z</time>
      </trkpt>
      <trkpt lat="47.33717" lon="-1.32666">
        <ele>54</ele>
        <time>2016-11-12T10:15:01Z</time>
      </trkpt>
      <trkpt lat="47.33716" lon="-1.32664">
        <ele>54</ele>
        <time>2016-11-12T10:17:01Z</time>
      </trkpt>
      <trkpt lat="47.33712" lon="-1.32659">
        <ele>54</ele>
        <time>2016-11-12T10:19:01Z</time>
      </trkpt>
      <trkpt lat="47.33702" lon="-1.32646">
        <ele>54</ele>
        <time>2016-11-12T10:21:01Z</time>
      </trkpt>
      <trkpt lat="47.33692" lon="-1.32633">
        <ele>54</ele>
        <time>2016-11-12T10:23:01Z</time>
      </trkpt>
      <trkpt lat="47.33684" lon="-1.32619">
        <ele>54</ele>
        <time>2016-11-12T10:25:01Z</time>
      </trkpt>
      <trkpt lat="47.33674" lon="-1.32614">
        <ele>53</ele>
        <time>2016-11-12T10:27:01Z</time>
      </trkpt>
      <trkpt lat="47.33671" lon="-1.32611">
        <ele>53</ele>
        <time>2016-11-12T10:29:01Z</time>
      </trkpt>
      <trkpt lat="47.33664" lon="-1.32605">
        <ele>53</ele>
        <time>2016-11-12T10:31:01Z</time>
      </trkpt>
      <trkpt lat="47.33658" lon="-1.32597">
        <ele>53</ele>
        <time>2016-11-12T10:33:01Z</time>
      </trkpt>
      <trkpt lat="47.33638" lon="-1.32582">
        <ele>53</ele>
        <time>2016-11-12T10:35:01Z</time>
      </trkpt>
      <trkpt lat="47.33631" lon="-1.32574">
        <ele>52</ele>
        <time>2016-11-12T10:37:01Z</time>
      </trkpt>
      <trkpt lat="47.33628" lon="-1.32571">
        <ele>52</ele>
        <time>2016-11-12T10:39:01Z</time>
      </trkpt>
      <trkpt lat="47.33625" lon="-1.32567">
        <ele>52</ele>
        <time>2016-11-12T10:41:01Z</time>
      </trkpt>
      <trkpt lat="47.33624" lon="-1.32563">
        <ele>52</ele>
        <time>2016-11-12T10:43:01Z</time>
      </trkpt>
      <trkpt lat="47.33616" lon="-1.32556">
        <ele>52</ele>
        <time>2016-11-12T10:45:01Z</time>
      </trkpt>
      <trkpt lat="47.33613" lon="-1.32555">
        <ele>51</ele>
        <time>2016-11-12T10:47:01Z</time>
      </trkpt>
      <trkpt lat="47.33597" lon="-1.32555">
        <ele>50</ele>
        <time>2016-11-12T10:49:01Z</time>
      </trkpt>
      <trkpt lat="47.33585" lon="-1.32556">
        <ele>49</ele>
        <time>2016-11-12T10:51:01Z</time>
      </trkpt>
      <trkpt lat="47.33577" lon="-1.32553">
        <ele>48</ele>
        <time>2016-11-12T10:53:01Z</time>
      </trkpt>
      <trkpt lat="47.33576" lon="-1.32553">
        <ele>48</ele>
        <time>2016-11-12T10:55:01Z</time>
      </trkpt>
      <trkpt lat="47.33573" lon="-1.32562">
        <ele>47</ele>
        <time>2016-11-12T10:57:01Z</time>
      </trkpt>
      <trkpt lat="47.33565" lon="-1.32571">
        <ele>44</ele>
        <time>2016-11-12T10:59:01Z</time>
      </trkpt>
      <trkpt lat="47.33562" lon="-1.3258">
        <ele>43</ele>
        <time>2016-11-12T11:01:01Z</time>
      </trkpt>
      <trkpt lat="47.33562" lon="-1.32597">
        <ele>41</ele>
        <time>2016-11-12T11:03:01Z</time>
      </trkpt>
      <trkpt lat="47.33565" lon="-1.32614">
        <ele>40</ele>
        <time>2016-11-12T11:05:01Z</time>
      </trkpt>
      <trkpt lat="47.3357" lon="-1.32626">
        <ele>39</ele>
        <time>2016-11-12T11:07:01Z</time>
      </trkpt>
      <trkpt lat="47.33575" lon="-1.32627">
        <ele>40</ele>
        <time>2016-11-12T11:09:01Z</time>
      </trkpt>
      <trkpt lat="47.33583" lon="-1.32632">
        <ele>42</ele>
        <time>2016-11-12T11:11:01Z</time>
      </trkpt>
      <trkpt lat="47.33591" lon="-1.3264">
        <ele>41</ele>
        <time>2016-11-12T11:13:01Z</time>
      </trkpt>
      <trkpt lat="47.33603" lon="-1.3265">
        <ele>42</ele>
        <time>2016-11-12T11:15:01Z</time>
      </trkpt>
      <trkpt lat="47.33609" lon="-1.32657">
        <ele>42</ele>
        <time>2016-11-12T11:17:01Z</time>
      </trkpt>
      <trkpt lat="47.33611" lon="-1.32658">
        <ele>42</ele>
        <time>2016-11-12T11:19:01Z</time>
      </trkpt>
      <trkpt lat="47.33614" lon="-1.32663">
        <ele>42</ele>
        <time>2016-11-12T11:21:01Z</time>
      </trkpt>
      <trkpt lat="47.33617" lon="-1.32677">
        <ele>40</ele>
        <time>2016-11-12T11:23:01Z</time>
      </trkpt>
      <trkpt lat="47.33619" lon="-1.32679">
        <ele>40</ele>
        <time>2016-11-12T11:25:01Z</time>
      </trkpt>
      <trkpt lat="47.3362" lon="-1.32683">
        <ele>40</ele>
        <time>2016-11-12T11:27:01Z</time>
      </trkpt>
      <trkpt lat="47.33621" lon="-1.32685">
        <ele>40</ele>
        <time>2016-11-12T11:29:01Z</time>
      </trkpt>
      <trkpt lat="47.33618" lon="-1.32687">
        <ele>39</ele>
        <time>2016-11-12T11:31:01Z</time>
      </trkpt>
      <trkpt lat="47.33614" lon="-1.32691">
        <ele>38</ele>
        <time>2016-11-12T11:33:01Z</time>
      </trkpt>
      <trkpt lat="47.33607" lon="-1.32698">
        <ele>36</ele>
        <time>2016-11-12T11:35:01Z</time>
      </trkpt>
      <trkpt lat="47.33603" lon="-1.32708">
        <ele>34</ele>
        <time>2016-11-12T11:37:01Z</time>
      </trkpt>
      <trkpt lat="47.336" lon="-1.32711">
        <ele>33</ele>
        <time>2016-11-12T11:39:01Z</time>
      </trkpt>
      <trkpt lat="47.336" lon="-1.32712">
        <ele>33</ele>
        <time>2016-11-12T11:41:01Z</time>
      </trkpt>
      <trkpt lat="47.33599" lon="-1.32712">
        <ele>33</ele>
        <time>2016-11-12T11:43:01Z</time>
      </trkpt>
      <trkpt lat="47.33593" lon="-1.32721">
        <ele>30</ele>
        <time>2016-11-12T11:45:01Z</time>
      </trkpt>
      <trkpt lat="47.3359" lon="-1.32725">
        <ele>30</ele>
        <time>2016-11-12T11:47:01Z</time>
      </trkpt>
      <trkpt lat="47.33585" lon="-1.32725">
        <ele>29</ele>
        <time>2016-11-12T11:49:01Z</time>
      </trkpt>
      <trkpt lat="47.33576" lon="-1.32724">
        <ele>28</ele>
        <time>2016-11-12T11:51:01Z</time>
      </trkpt>
      <trkpt lat="47.33573" lon="-1.32721">
        <ele>29</ele>
        <time>2016-11-12T11:53:01Z</time>
      </trkpt>
      <trkpt lat="47.33569" lon="-1.32716">
        <ele>29</ele>
        <time>2016-11-12T11:55:01Z</time>
      </trkpt>
      <trkpt lat="47.33561" lon="-1.32708">
        <ele>29</ele>
        <time>2016-11-12T11:57:01Z</time>
      </trkpt>
      <trkpt lat="47.33558" lon="-1.32705">
        <ele>29</ele>
        <time>2016-11-12T11:59:01Z</time>
      </trkpt>
      <trkpt lat="47.33552" lon="-1.32701">
        <ele>28</ele>
        <time>2016-11-12T12:01:01Z</time>
      </trkpt>
      <trkpt lat="47.33546" lon="-1.32699">
        <ele>28</ele>
        <time>2016-11-12T12:03:01Z</time>
      </trkpt>
      <trkpt lat="47.33538" lon="-1.32692">
        <ele>27</ele>
        <time>2016-11-12T12:05:01Z</time>
      </trkpt>
      <trkpt lat="47.33534" lon="-1.32686">
        <ele>27</ele>
        <time>2016-11-12T12:07:01Z</time>
      </trkpt>
      <trkpt lat="47.33531" lon="-1.32683">
        <ele>26</ele>
        <time>2016-11-12T12:09:01Z</time>
      </trkpt>
      <trkpt lat="47.33523" lon="-1.32672">
        <ele>25</ele>
        <time>2016-11-12T12:11:01Z</time>
      </trkpt>
      <trkpt lat="47.33522" lon="-1.32668">
        <ele>25</ele>
        <time>2016-11-12T12:13:01Z</time>
      </trkpt>
      <trkpt lat="47.33518" lon="-1.32663">
        <ele>24</ele>
        <time>2016-11-12T12:15:01Z</time>
      </trkpt>
      <trkpt lat="47.33513" lon="-1.32659">
        <ele>24</ele>
        <time>2016-11-12T12:17:01Z</time>
      </trkpt>
      <trkpt lat="47.3351" lon="-1.32655">
        <ele>23</ele>
        <time>2016-11-12T12:19:01Z</time>
      </trkpt>
      <trkpt lat="47.33509" lon="-1.32653">
        <ele>23</ele>
        <time>2016-11-12T12:21:01Z</time>
      </trkpt>
      <trkpt lat="47.33503" lon="-1.32648">
        <ele>23</ele>
        <time>2016-11-12T12:23:01Z</time>
      </trkpt>
      <trkpt lat="47.33497" lon="-1.32639">
        <ele>23</ele>
        <time>2016-11-12T12:25:01Z</time>
      </trkpt>
      <trkpt lat="47.33495" lon="-1.32632">
        <ele>24</ele>
        <time>2016-11-12T12:27:01Z</time>
      </trkpt>
      <trkpt lat="47.33486" lon="-1.3262">
        <ele>25</ele>
        <time>2016-11-12T12:29:01Z</time>
      </trkpt>
      <trkpt lat="47.33482" lon="-1.32616">
        <ele>25</ele>
        <time>2016-11-12T12:31:01Z</time>
      </trkpt>
      <trkpt lat="47.3348" lon="-1.3261">
        <ele>25</ele>
        <time>2016-11-12T12:33:01Z</time>
      </trkpt>
      <trkpt lat="47.33472" lon="-1.32604">
        <ele>25</ele>
        <time>2016-11-12T12:35:01Z</time>
      </trkpt>
      <trkpt lat="47.33463" lon="-1.32598">
        <ele>24</ele>
        <time>2016-11-12T12:37:01Z</time>
      </trkpt>
      <trkpt lat="47.33455" lon="-1.32588">
        <ele>24</ele>
        <time>2016-11-12T12:39:01Z</time>
      </trkpt>
      <trkpt lat="47.33444" lon="-1.32584">
        <ele>22</ele>
        <time>2016-11-12T12:41:01Z</time>
      </trkpt>
      <trkpt lat="47.33431" lon="-1.32584">
        <ele>21</ele>
        <time>2016-11-12T12:43:01Z</time>
      </trkpt>
      <trkpt lat="47.33429" lon="-1.32584">
        <ele>21</ele>
        <time>2016-11-12T12:45:01Z</time>
      </trkpt>
      <trkpt lat="47.3343" lon="-1.32581">
        <ele>21</ele>
        <time>2016-11-12T12:47:01Z</time>
      </trkpt>
      <trkpt lat="47.33424" lon="-1.32583">
        <ele>20</ele>
        <time>2016-11-12T12:49:01Z</time>
      </trkpt>
      <trkpt lat="47.3342" lon="-1.32585">
        <ele>20</ele>
        <time>2016-11-12T12:51:01Z</time>
      </trkpt>
      <trkpt lat="47.33416" lon="-1.32587">
        <ele>20</ele>
        <time>2016-11-12T12:53:01Z</time>
      </trkpt>
      <trkpt lat="47.33405" lon="-1.32592">
        <ele>22</ele>
        <time>2016-11-12T12:55:01Z</time>
      </trkpt>
      <trkpt lat="47.33401" lon="-1.32597">
        <ele>23</ele>
        <time>2016-11-12T12:57:01Z</time>
      </trkpt>
      <trkpt lat="47.33399" lon="-1.32602">
        <ele>24</ele>
        <time>2016-11-12T12:59:01Z</time>
      </trkpt>
      <trkpt lat="47.33399" lon="-1.32604">
        <ele>24</ele>
        <time>2016-11-12T13:01:01Z</time>
      </trkpt>
      <trkpt lat="47.33401" lon="-1.32607">
        <ele>24</ele>
        <time>2016-11-12T13:03:01Z</time>
      </trkpt>
      <trkpt lat="47.334" lon="-1.3261">
        <ele>25</ele>
        <time>2016-11-12T13:05:01Z</time>
      </trkpt>
      <trkpt lat="47.33402" lon="-1.32619">
        <ele>26</ele>
        <time>2016-11-12T13:07:01Z</time>
      </trkpt>
      <trkpt lat="47.33402" lon="-1.32628">
        <ele>27</ele>
        <time>2016-11-12T13:09:01Z</time>
      </trkpt>
      <trkpt lat="47.33402" lon="-1.32631">
        <ele>27</ele>
        <time>2016-11-12T13:11:01Z</time>
      </trkpt>
      <trkpt lat="47.33402" lon="-1.3264">
        <ele>28</ele>
        <time>2016-11-12T13:13:01Z</time>
      </trkpt>
      <trkpt lat="47.33404" lon="-1.32644">
        <ele>28</ele>
        <time>2016-11-12T13:15:01Z</time>
      </trkpt>
      <trkpt lat="47.33403" lon="-1.32649">
        <ele>29</ele>
        <time>2016-11-12T13:17:01Z</time>
      </trkpt>
      <trkpt lat="47.33404" lon="-1.32657">
        <ele>30</ele>
        <time>2016-11-12T13:19:01Z</time>
      </trkpt>
      <trkpt lat="47.33403" lon="-1.32658">
        <ele>30</ele>
        <time>2016-11-12T13:21:01Z</time>
      </trkpt>
      <trkpt lat="47.33399" lon="-1.32663">
        <ele>31</ele>
        <time>2016-11-12T13:23:01Z</time>
      </trkpt>
      <trkpt lat="47.33398" lon="-1.3267">
        <ele>32</ele>
        <time>2016-11-12T13:25:01Z</time>
      </trkpt>
      <trkpt lat="47.33393" lon="-1.32681">
        <ele>35</ele>
        <time>2016-11-12T13:27:01Z</time>
      </trkpt>
      <trkpt lat="47.3339" lon="-1.32682">
        <ele>36</ele>
        <time>2016-11-12T13:29:01Z</time>
      </trkpt>
      <trkpt lat="47.33386" lon="-1.32686">
        <ele>37</ele>
        <time>2016-11-12T13:31:01Z</time>
      </trkpt>
      <trkpt lat="47.33374" lon="-1.32702">
        <ele>41</ele>
        <time>2016-11-12T13:33:01Z</time>
      </trkpt>
      <trkpt lat="47.33369" lon="-1.32708">
        <ele>42</ele>
        <time>2016-11-12T13:35:01Z</time>
      </trkpt>
      <trkpt lat="47.33369" lon="-1.32712">
        <ele>42</ele>
        <time>2016-11-12T13:37:01Z</time>
      </trkpt>
      <trkpt lat="47.33365" lon="-1.32715">
        <ele>43</ele>
        <time>2016-11-12T13:39:01Z</time>
      </trkpt>
      <trkpt lat="47.3336" lon="-1.32724">
        <ele>45</ele>
        <time>2016-11-12T13:41:01Z</time>
      </trkpt>
      <trkpt lat="47.33358" lon="-1.32725">
        <ele>45</ele>
        <time>2016-11-12T13:43:01Z</time>
      </trkpt>
      <trkpt lat="47.33356" lon="-1.3273">
        <ele>45</ele>
        <time>2016-11-12T13:45:01Z</time>
      </trkpt>
      <trkpt lat="47.33351" lon="-1.32739">
        <ele>47</ele>
        <time>2016-11-12T13:47:01Z</time>
      </trkpt>
      <trkpt lat="47.3335" lon="-1.32739">
        <ele>47</ele>
        <time>2016-11-12T13:49:01Z</time>
      </trkpt>
      <trkpt lat="47.33346" lon="-1.32742">
        <ele>47</ele>
        <time>2016-11-12T13:51:01Z</time>
      </trkpt>
      <trkpt lat="47.33345" lon="-1.32743">
        <ele>48</ele>
        <time>2016-11-12T13:53:01Z</time>
      </trkpt>
      <trkpt lat="47.33342" lon="-1.32745">
        <ele>48</ele>
        <time>2016-11-12T13:55:01Z</time>
      </trkpt>
      <trkpt lat="47.33334" lon="-1.32748">
        <ele>49</ele>
        <time>2016-11-12T13:57:01Z</time>
      </trkpt>
      <trkpt lat="47.33327" lon="-1.32751">
        <ele>50</ele>
        <time>2016-11-12T13:59:01Z</time>
      </trkpt>
      <trkpt lat="47.33326" lon="-1.32752">
        <ele>50</ele>
        <time>2016-11-12T14:01:01Z</time>
      </trkpt>
      <trkpt lat="47.33324" lon="-1.32749">
        <ele>50</ele>
        <time>2016-11-12T14:03:01Z</time>
      </trkpt>
      <trkpt lat="47.33323" lon="-1.32747">
        <ele>50</ele>
        <time>2016-11-12T14:05:01Z</time>
      </trkpt>
      <trkpt lat="47.33317" lon="-1.32745">
        <ele>50</ele>
        <time>2016-11-12T14:07:01Z</time>
      </trkpt>
      <trkpt lat="47.33315" lon="-1.32741">
        <ele>50</ele>
        <time>2016-11-12T14:09:01Z</time>
      </trkpt>
      <trkpt lat="47.33312" lon="-1.32742">
        <ele>51</ele>
        <time>2016-11-12T14:11:01Z</time>
      </trkpt>
      <trkpt lat="47.33309" lon="-1.32744">
        <ele>51</ele>
        <time>2016-11-12T14:13:01Z</time>
      </trkpt>
      <trkpt lat="47.33302" lon="-1.32749">
        <ele>52</ele>
        <time>2016-11-12T14:15:01Z</time>
      </trkpt>
      <trkpt lat="47.33296" lon="-1.3275">
        <ele>53</ele>
        <time>2016-11-12T14:17:01Z</time>
      </trkpt>
      <trkpt lat="47.33291" lon="-1.32753">
        <ele>53</ele>
        <time>2016-11-12T14:19:01Z</time>
      </trkpt>
      <trkpt lat="47.33289" lon="-1.32755">
        <ele>53</ele>
        <time>2016-11-12T14:21:01Z</time>
      </trkpt>
      <trkpt lat="47.33281" lon="-1.32761">
        <ele>55</ele>
        <time>2016-11-12T14:23:01Z</time>
      </trkpt>
      <trkpt lat="47.33277" lon="-1.32763">
        <ele>55</ele>
        <time>2016-11-12T14:25:01Z</time>
      </trkpt>
      <trkpt lat="47.33269" lon="-1.32776">
        <ele>56</ele>
        <time>2016-11-12T14:27:01Z</time>
      </trkpt>
      <trkpt lat="47.33268" lon="-1.32777">
        <ele>57</ele>
        <time>2016-11-12T14:29:01Z</time>
      </trkpt>
      <trkpt lat="47.33264" lon="-1.32784">
        <ele>57</ele>
        <time>2016-11-12T14:31:01Z</time>
      </trkpt>
      <trkpt lat="47.33259" lon="-1.32793">
        <ele>58</ele>
        <time>2016-11-12T14:33:01Z</time>
      </trkpt>
      <trkpt lat="47.33255" lon="-1.32801">
        <ele>59</ele>
        <time>2016-11-12T14:35:01Z</time>
      </trkpt>
      <trkpt lat="47.3325" lon="-1.32811">
        <ele>60</ele>
        <time>2016-11-12T14:37:01Z</time>
      </trkpt>
      <trkpt lat="47.33248" lon="-1.32814">
        <ele>60</ele>
        <time>2016-11-12T14:39:01Z</time>
      </trkpt>
      <trkpt lat="47.33243" lon="-1.32817">
        <ele>60</ele>
        <time>2016-11-12T14:41:01Z</time>
      </trkpt>
      <trkpt lat="47.33237" lon="-1.32826">
        <ele>61</ele>
        <time>2016-11-12T14:43:01Z</time>
      </trkpt>
      <trkpt lat="47.33231" lon="-1.32832">
        <ele>61</ele>
        <time>2016-11-12T14:45:01Z</time>
      </trkpt>
      <trkpt lat="47.33218" lon="-1.32851">
        <ele>62</ele>
        <time>2016-11-12T14:47:01Z</time>
      </trkpt>
      <trkpt lat="47.33209" lon="-1.32861">
        <ele>63</ele>
        <time>2016-11-12T14:49:01Z</time>
      </trkpt>
      <trkpt lat="47.33199" lon="-1.32871">
        <ele>63</ele>
        <time>2016-11-12T14:51:01Z</time>
      </trkpt>
      <trkpt lat="47.33191" lon="-1.32885">
        <ele>64</ele>
        <time>2016-11-12T14:53:01Z</time>
      </trkpt>
      <trkpt lat="47.33191" lon="-1.32889">
        <ele>64</ele>
        <time>2016-11-12T14:55:01Z</time>
      </trkpt>
      <trkpt lat="47.33191" lon="-1.32899">
        <ele>65</ele>
        <time>2016-11-12T14:57:01Z</time>
      </trkpt>
      <trkpt lat="47.33193" lon="-1.32903">
        <ele>65</ele>
        <time>2016-11-12T14:59:01Z</time>
      </trkpt>
      <trkpt lat="47.33196" lon="-1.32915">
        <ele>65</ele>
        <time>2016-11-12T15:01:01Z</time>
      </trkpt>
      <trkpt lat="47.33203" lon="-1.32931">
        <ele>65</ele>
        <time>2016-11-12T15:03:01Z</time>
      </trkpt>
      <trkpt lat="47.33203" lon="-1.32935">
        <ele>65</ele>
        <time>2016-11-12T15:05:01Z</time>
      </trkpt>
      <trkpt lat="47.33202" lon="-1.32941">
        <ele>65</ele>
        <time>2016-11-12T15:07:01Z</time>
      </trkpt>
      <trkpt lat="47.33191" lon="-1.32954">
        <ele>66</ele>
        <time>2016-11-12T15:09:01Z</time>
      </trkpt>
      <trkpt lat="47.33178" lon="-1.32973">
        <ele>66</ele>
        <time>2016-11-12T15:11:01Z</time>
      </trkpt>
      <trkpt lat="47.33177" lon="-1.32975">
        <ele>66</ele>
        <time>2016-11-12T15:13:01Z</time>
      </trkpt>
      <trkpt lat="47.33172" lon="-1.3298">
        <ele>66</ele>
        <time>2016-11-12T15:15:01Z</time>
      </trkpt>
      <trkpt lat="47.33168" lon="-1.32985">
        <ele>66</ele>
        <time>2016-11-12T15:17:01Z</time>
      </trkpt>
      <trkpt lat="47.33163" lon="-1.32992">
        <ele>66</ele>
        <time>2016-11-12T15:19:01Z</time>
      </trkpt>
      <trkpt lat="47.33152" lon="-1.33005">
        <ele>66</ele>
        <time>2016-11-12T15:21:01Z</time>
      </trkpt>
      <trkpt lat="47.33134" lon="-1.33018">
        <ele>66</ele>
        <time>2016-11-12T15:23:01Z</time>
      </trkpt>
      <trkpt lat="47.33125" lon="-1.33026">
        <ele>66</ele>
        <time>2016-11-12T15:25:01Z</time>
      </trkpt>
      <trkpt lat="47.33117" lon="-1.33036">
        <ele>66</ele>
        <time>2016-11-12T15:27:01Z</time>
      </trkpt>
      <trkpt lat="47.33115" lon="-1.33037">
        <ele>66</ele>
        <time>2016-11-12T15:29:01Z</time>
      </trkpt>
      <trkpt lat="47.33109" lon="-1.33038">
        <ele>66</ele>
        <time>2016-11-12T15:31:01Z</time>
      </trkpt>
      <trkpt lat="47.33107" lon="-1.33037">
        <ele>66</ele>
        <time>2016-11-12T15:33:01Z</time>
      </trkpt>
      <trkpt lat="47.33101" lon="-1.33032">
        <ele>66</ele>
        <time>2016-11-12T15:35:01Z</time>
      </trkpt>
      <trkpt lat="47.3309" lon="-1.33024">
        <ele>66</ele>
        <time>2016-11-12T15:37:01Z</time>
      </trkpt>
      <trkpt lat="47.33078" lon="-1.33019">
        <ele>66</ele>
        <time>2016-11-12T15:39:01Z</time>
      </trkpt>
      <trkpt lat="47.33064" lon="-1.3301">
        <ele>65</ele>
        <time>2016-11-12T15:41:01Z</time>
      </trkpt>
      <trkpt lat="47.3305" lon="-1.33001">
        <ele>65</ele>
        <time>2016-11-12T15:43:01Z</time>
      </trkpt>
      <trkpt lat="47.33037" lon="-1.3299">
        <ele>65</ele>
        <time>2016-11-12T15:45:01Z</time>
      </trkpt>
      <trkpt lat="47.33026" lon="-1.32977">
        <ele>65</ele>
        <time>2016-11-12T15:47:01Z</time>
      </trkpt>
      <trkpt lat="47.33011" lon="-1.32957">
        <ele>64</ele>
        <time>2016-11-12T15:49:01Z</time>
      </trkpt>
      <trkpt lat="47.33001" lon="-1.32939">
        <ele>64</ele>
        <time>2016-11-12T15:51:01Z</time>
      </trkpt>
      <trkpt lat="47.32991" lon="-1.32929">
        <ele>64</ele>
        <time>2016-11-12T15:53:01Z</time>
      </trkpt>
      <trkpt lat="47.32984" lon="-1.32938">
        <ele>64</ele>
        <time>2016-11-12T15:55:01Z</time>
      </trkpt>
      <trkpt lat="47.32976" lon="-1.32956">
        <ele>63</ele>
        <time>2016-11-12T15:57:01Z</time>
      </trkpt>
      <trkpt lat="47.32974" lon="-1.32964">
        <ele>63</ele>
        <time>2016-11-12T15:59:01Z</time>
      </trkpt>
      <trkpt lat="47.32973" lon="-1.32967">
        <ele>63</ele>
        <time>2016-11-12T16:01:01Z</time>
      </trkpt>
      <trkpt lat="47.32969" lon="-1.32973">
        <ele>63</ele>
        <time>2016-11-12T16:03:01Z</time>
      </trkpt>
      <trkpt lat="47.32969" lon="-1.32975">
        <ele>63</ele>
        <time>2016-11-12T16:05:01Z</time>
      </trkpt>
      <trkpt lat="47.32969" lon="-1.32972">
        <ele>63</ele>
        <time>2016-11-12T16:07:01Z</time>
      </trkpt>
      <trkpt lat="47.32972" lon="-1.32966">
        <ele>63</ele>
        <time>2016-11-12T16:09:01Z</time>
      </trkpt>
      <trkpt lat="47.32971" lon="-1.32969">
        <ele>63</ele>
        <time>2016-11-12T16:11:01Z</time>
      </trkpt>
      <trkpt lat="47.32964" lon="-1.32984">
        <ele>62</ele>
        <time>2016-11-12T16:13:01Z</time>
      </trkpt>
      <trkpt lat="47.32957" lon="-1.33001">
        <ele>62</ele>
        <time>2016-11-12T16:15:01Z</time>
      </trkpt>
      <trkpt lat="47.32946" lon="-1.33026">
        <ele>60</ele>
        <time>2016-11-12T16:17:01Z</time>
      </trkpt>
      <trkpt lat="47.32945" lon="-1.33028">
        <ele>60</ele>
        <time>2016-11-12T16:19:01Z</time>
      </trkpt>
      <trkpt lat="47.32939" lon="-1.33041">
        <ele>59</ele>
        <time>2016-11-12T16:21:01Z</time>
      </trkpt>
      <trkpt lat="47.32934" lon="-1.33054">
        <ele>57</ele>
        <time>2016-11-12T16:23:01Z</time>
      </trkpt>
      <trkpt lat="47.32922" lon="-1.33087">
        <ele>54</ele>
        <time>2016-11-12T16:25:01Z</time>
      </trkpt>
      <trkpt lat="47.32915" lon="-1.33099">
        <ele>52</ele>
        <time>2016-11-12T16:27:01Z</time>
      </trkpt>
      <trkpt lat="47.32912" lon="-1.33108">
        <ele>50</ele>
        <time>2016-11-12T16:29:01Z</time>
      </trkpt>
      <trkpt lat="47.32908" lon="-1.33118">
        <ele>48</ele>
        <time>2016-11-12T16:31:01Z</time>
      </trkpt>
      <trkpt lat="47.32906" lon="-1.33119">
        <ele>48</ele>
        <time>2016-11-12T16:33:01Z</time>
      </trkpt>
      <trkpt lat="47.32896" lon="-1.33125">
        <ele>45</ele>
        <time>2016-11-12T16:35:01Z</time>
      </trkpt>
      <trkpt lat="47.32887" lon="-1.33124">
        <ele>43</ele>
        <time>2016-11-12T16:37:01Z</time>
      </trkpt>
      <trkpt lat="47.32885" lon="-1.33129">
        <ele>42</ele>
        <time>2016-11-12T16:39:01Z</time>
      </trkpt>
      <trkpt lat="47.32884" lon="-1.33134">
        <ele>41</ele>
        <time>2016-11-12T16:41:01Z</time>
      </trkpt>
      <trkpt lat="47.32885" lon="-1.33136">
        <ele>41</ele>
        <time>2016-11-12T16:43:01Z</time>
      </trkpt>
      <trkpt lat="47.32887" lon="-1.33141">
        <ele>41</ele>
        <time>2016-11-12T16:45:01Z</time>
      </trkpt>
      <trkpt lat="47.32887" lon="-1.33144">
        <ele>41</ele>
        <time>2016-11-12T16:47:01Z</time>
      </trkpt>
      <trkpt lat="47.32892" lon="-1.3315">
        <ele>41</ele>
        <time>2016-11-12T16:49:01Z</time>
      </trkpt>
      <trkpt lat="47.32901" lon="-1.33154">
        <ele>43</ele>
        <time>2016-11-12T16:51:01Z</time>
      </trkpt>
      <trkpt lat="47.3291" lon="-1.33162">
        <ele>44</ele>
        <time>2016-11-12T16:53:01Z</time>
      </trkpt>
      <trkpt lat="47.32912" lon="-1.33172">
        <ele>43</ele>
        <time>2016-11-12T16:55:01Z</time>
      </trkpt>
      <trkpt lat="47.32911" lon="-1.33172">
        <ele>43</ele>
        <time>2016-11-12T16:57:01Z</time>
      </trkpt>
      <trkpt lat="47.32912" lon="-1.33184">
        <ele>42</ele>
        <time>2016-11-12T16:59:01Z</time>
      </trkpt>
      <trkpt lat="47.32919" lon="-1.33201">
        <ele>41</ele>
        <time>2016-11-12T17:01:01Z</time>
      </trkpt>
      <trkpt lat="47.32926" lon="-1.33208">
        <ele>41</ele>
        <time>2016-11-12T17:03:01Z</time>
      </trkpt>
      <trkpt lat="47.32925" lon="-1.33213">
        <ele>40</ele>
        <time>2016-11-12T17:05:01Z</time>
      </trkpt>
      <trkpt lat="47.32927" lon="-1.33226">
        <ele>39</ele>
        <time>2016-11-12T17:07:01Z</time>
      </trkpt>
      <trkpt lat="47.32933" lon="-1.33238">
        <ele>38</ele>
        <time>2016-11-12T17:09:01Z</time>
      </trkpt>
      <trkpt lat="47.32938" lon="-1.33249">
        <ele>37</ele>
        <time>2016-11-12T17:11:01Z</time>
      </trkpt>
      <trkpt lat="47.32939" lon="-1.33255">
        <ele>38</ele>
        <time>2016-11-12T17:13:01Z</time>
      </trkpt>
      <trkpt lat="47.32938" lon="-1.33264">
        <ele>38</ele>
        <time>2016-11-12T17:15:01Z</time>
      </trkpt>
      <trkpt lat="47.32938" lon="-1.33267">
        <ele>38</ele>
        <time>2016-11-12T17:17:01Z</time>
      </trkpt>
      <trkpt lat="47.32934" lon="-1.33267">
        <ele>37</ele>
        <time>2016-11-12T17:19:01Z</time>
      </trkpt>
      <trkpt lat="47.32929" lon="-1.33264">
        <ele>36</ele>
        <time>2016-11-12T17:21:01Z</time>
      </trkpt>
      <trkpt lat="47.32927" lon="-1.3326">
        <ele>36</ele>
        <time>2016-11-12T17:23:01Z</time>
      </trkpt>
      <trkpt lat="47.3292" lon="-1.33255">
        <ele>35</ele>
        <time>2016-11-12T17:25:01Z</time>
      </trkpt>
      <trkpt lat="47.32914" lon="-1.33246">
        <ele>34</ele>
        <time>2016-11-12T17:27:01Z</time>
      </trkpt>
      <trkpt lat="47.32912" lon="-1.33245">
        <ele>35</ele>
        <time>2016-11-12T17:29:01Z</time>
      </trkpt>
      <trkpt lat="47.32912" lon="-1.33243">
        <ele>35</ele>
        <time>2016-11-12T17:31:01Z</time>
      </trkpt>
      <trkpt lat="47.3291" lon="-1.33237">
        <ele>35</ele>
        <time>2016-11-12T17:33:01Z</time>
      </trkpt>
      <trkpt lat="47.32908" lon="-1.33236">
        <ele>35</ele>
        <time>2016-11-12T17:35:01Z</time>
      </trkpt>
      <trkpt lat="47.32903" lon="-1.33232">
        <ele>36</ele>
        <time>2016-11-12T17:37:01Z</time>
      </trkpt>
      <trkpt lat="47.32902" lon="-1.33229">
        <ele>36</ele>
        <time>2016-11-12T17:39:01Z</time>
      </trkpt>
      <trkpt lat="47.32895" lon="-1.33227">
        <ele>36</ele>
        <time>2016-11-12T17:41:01Z</time>
      </trkpt>
      <trkpt lat="47.3289" lon="-1.33221">
        <ele>36</ele>
        <time>2016-11-12T17:43:01Z</time>
      </trkpt>
      <trkpt lat="47.32888" lon="-1.33221">
        <ele>36</ele>
        <time>2016-11-12T17:45:01Z</time>
      </trkpt>
      <trkpt lat="47.32887" lon="-1.33218">
        <ele>36</ele>
        <time>2016-11-12T17:47:01Z</time>
      </trkpt>
      <trkpt lat="47.32881" lon="-1.33214">
        <ele>35</ele>
        <time>2016-11-12T17:49:01Z</time>
      </trkpt>
      <trkpt lat="47.32869" lon="-1.33205">
        <ele>34</ele>
        <time>2016-11-12T17:51:01Z</time>
      </trkpt>
      <trkpt lat="47.3286" lon="-1.33192">
        <ele>33</ele>
        <time>2016-11-12T17:53:01Z</time>
      </trkpt>
      <trkpt lat="47.3285" lon="-1.33184">
        <ele>32</ele>
        <time>2016-11-12T17:55:01Z</time>
      </trkpt>
      <trkpt lat="47.32839" lon="-1.33175">
        <ele>30</ele>
        <time>2016-11-12T17:57:01Z</time>
      </trkpt>
      <trkpt lat="47.32831" lon="-1.33166">
        <ele>28</ele>
        <time>2016-11-12T17:59:01Z</time>
      </trkpt>
      <trkpt lat="47.32819" lon="-1.3316">
        <ele>27</ele>
        <time>2016-11-12T18:01:01Z</time>
      </trkpt>
      <trkpt lat="47.32799" lon="-1.33144">
        <ele>26</ele>
        <time>2016-11-12T18:03:01Z</time>
      </trkpt>
      <trkpt lat="47.32772" lon="-1.33121">
        <ele>23</ele>
        <time>2016-11-12T18:05:01Z</time>
      </trkpt>
      <trkpt lat="47.32763" lon="-1.33111">
        <ele>21</ele>
        <time>2016-11-12T18:07:01Z</time>
      </trkpt>
      <trkpt lat="47.32761" lon="-1.33111">
        <ele>21</ele>
        <time>2016-11-12T18:09:01Z</time>
      </trkpt>
      <trkpt lat="47.32744" lon="-1.33093">
        <ele>19</ele>
        <time>2016-11-12T18:11:01Z</time>
      </trkpt>
      <trkpt lat="47.32737" lon="-1.33082">
        <ele>19</ele>
        <time>2016-11-12T18:13:01Z</time>
      </trkpt>
      <trkpt lat="47.32727" lon="-1.33069">
        <ele>20</ele>
        <time>2016-11-12T18:15:01Z</time>
      </trkpt>
      <trkpt lat="47.32715" lon="-1.33057">
        <ele>20</ele>
        <time>2016-11-12T18:17:01Z</time>
      </trkpt>
      <trkpt lat="47.32707" lon="-1.33049">
        <ele>19</ele>
        <time>2016-11-12T18:19:01Z</time>
      </trkpt>
      <trkpt lat="47.32693" lon="-1.33037">
        <ele>18</ele>
        <time>2016-11-12T18:21:01Z</time>
      </trkpt>
      <trkpt lat="47.32687" lon="-1.3303">
        <ele>17</ele>
        <time>2016-11-12T18:23:01Z</time>
      </trkpt>
      <trkpt lat="47.32683" lon="-1.33026">
        <ele>17</ele>
        <time>2016-11-12T18:25:01Z</time>
      </trkpt>
      <trkpt lat="47.32669" lon="-1.33015">
        <ele>14</ele>
        <time>2016-11-12T18:27:01Z</time>
      </trkpt>
      <trkpt lat="47.32659" lon="-1.33005">
        <ele>12</ele>
        <time>2016-11-12T18:29:01Z</time>
      </trkpt>
      <trkpt lat="47.32646" lon="-1.32989">
        <ele>11</ele>
        <time>2016-11-12T18:31:01Z</time>
      </trkpt>
      <trkpt lat="47.32635" lon="-1.32974">
        <ele>10</ele>
        <time>2016-11-12T18:33:01Z</time>
      </trkpt>
      <trkpt lat="47.32624" lon="-1.32957">
        <ele>8</ele>
        <time>2016-11-12T18:35:01Z</time>
      </trkpt>
      <trkpt lat="47.32623" lon="-1.32956">
        <ele>8</ele>
        <time>2016-11-12T18:37:01Z</time>
      </trkpt>
      <trkpt lat="47.32621" lon="-1.32948">
        <ele>8</ele>
        <time>2016-11-12T18:39:01Z</time>
      </trkpt>
      <trkpt lat="47.32623" lon="-1.32936">
        <ele>7</ele>
        <time>2016-11-12T18:41:01Z</time>
      </trkpt>
      <trkpt lat="47.32626" lon="-1.32931">
        <ele>7</ele>
        <time>2016-11-12T18:43:01Z</time>
      </trkpt>
      <trkpt lat="47.32635" lon="-1.32926">
        <ele>8</ele>
        <time>2016-11-12T18:45:01Z</time>
      </trkpt>
      <trkpt lat="47.32642" lon="-1.3292">
        <ele>8</ele>
        <time>2016-11-12T18:47:01Z</time>
      </trkpt>
      <trkpt lat="47.32653" lon="-1.329">
        <ele>9</ele>
        <time>2016-11-12T18:49:01Z</time>
      </trkpt>
      <trkpt lat="47.32659" lon="-1.32885">
        <ele>10</ele>
        <time>2016-11-12T18:51:01Z</time>
      </trkpt>
      <trkpt lat="47.32666" lon="-1.32875">
        <ele>11</ele>
        <time>2016-11-12T18:53:01Z</time>
      </trkpt>
      <trkpt lat="47.32675" lon="-1.32863">
        <ele>13</ele>
        <time>2016-11-12T18:55:01Z</time>
      </trkpt>
      <trkpt lat="47.32684" lon="-1.3285">
        <ele>15</ele>
        <time>2016-11-12T18:57:01Z</time>
      </trkpt>
      <trkpt lat="47.32693" lon="-1.32836">
        <ele>16</ele>
        <time>2016-11-12T18:59:01Z</time>
      </trkpt>
      <trkpt lat="47.32702" lon="-1.3282">
        <ele>16</ele>
        <time>2016-11-12T19:01:01Z</time>
      </trkpt>
      <trkpt lat="47.32711" lon="-1.32811">
        <ele>16</ele>
        <time>2016-11-12T19:03:01Z</time>
      </trkpt>
      <trkpt lat="47.32715" lon="-1.32805">
        <ele>16</ele>
        <time>2016-11-12T19:05:01Z</time>
      </trkpt>
      <trkpt lat="47.32726" lon="-1.32785">
        <ele>16</ele>
        <time>2016-11-12T19:07:01Z</time>
      </trkpt>
      <trkpt lat="47.32736" lon="-1.3277">
        <ele>15</ele>
        <time>2016-11-12T19:09:01Z</time>
      </trkpt>
      <trkpt lat="47.32745" lon="-1.32754">
        <ele>15</ele>
        <time>2016-11-12T19:11:01Z</time>
      </trkpt>
      <trkpt lat="47.32756" lon="-1.32734">
        <ele>15</ele>
        <time>2016-11-12T19:13:01Z</time>
      </trkpt>
      <trkpt lat="47.32763" lon="-1.3272">
        <ele>15</ele>
        <time>2016-11-12T19:15:01Z</time>
      </trkpt>
      <trkpt lat="47.32767" lon="-1.32706">
        <ele>14</ele>
        <time>2016-11-12T19:17:01Z</time>
      </trkpt>
      <trkpt lat="47.32775" lon="-1.32686">
        <ele>13</ele>
        <time>2016-11-12T19:19:01Z</time>
      </trkpt>
      <trkpt lat="47.32779" lon="-1.32677">
        <ele>13</ele>
        <time>2016-11-12T19:21:01Z</time>
      </trkpt>
      <trkpt lat="47.32786" lon="-1.32658">
        <ele>12</ele>
        <time>2016-11-12T19:23:01Z</time>
      </trkpt>
      <trkpt lat="47.3279" lon="-1.32654">
        <ele>13</ele>
        <time>2016-11-12T19:25:01Z</time>
      </trkpt>
      <trkpt lat="47.32792" lon="-1.32648">
        <ele>13</ele>
        <time>2016-11-12T19:27:01Z</time>
      </trkpt>
      <trkpt lat="47.328" lon="-1.32641">
        <ele>14</ele>
        <time>2016-11-12T19:29:01Z</time>
      </trkpt>
      <trkpt lat="47.32803" lon="-1.32636">
        <ele>15</ele>
        <time>2016-11-12T19:31:01Z</time>
      </trkpt>
      <trkpt lat="47.32806" lon="-1.32629">
        <ele>15</ele>
        <time>2016-11-12T19:33:01Z</time>
      </trkpt>
      <trkpt lat="47.32817" lon="-1.32615">
        <ele>15</ele>
        <time>2016-11-12T19:35:01Z</time>
      </trkpt>
      <trkpt lat="47.3282" lon="-1.32609">
        <ele>15</ele>
        <time>2016-11-12T19:37:01Z</time>
      </trkpt>
      <trkpt lat="47.3283" lon="-1.32593">
        <ele>14</ele>
        <time>2016-11-12T19:39:01Z</time>
      </trkpt>
      <trkpt lat="47.32838" lon="-1.32578">
        <ele>14</ele>
        <time>2016-11-12T19:41:01Z</time>
      </trkpt>
      <trkpt lat="47.32845" lon="-1.32564">
        <ele>15</ele>
        <time>2016-11-12T19:43:01Z</time>
      </trkpt>
      <trkpt lat="47.32851" lon="-1.3255">
        <ele>15</ele>
        <time>2016-11-12T19:45:01Z</time>
      </trkpt>
      <trkpt lat="47.32854" lon="-1.32546">
        <ele>16</ele>
        <time>2016-11-12T19:47:01Z</time>
      </trkpt>
      <trkpt lat="47.32856" lon="-1.32543">
        <ele>16</ele>
        <time>2016-11-12T19:49:01Z</time>
      </trkpt>
      <trkpt lat="47.32862" lon="-1.3253">
        <ele>16</ele>
        <time>2016-11-12T19:51:01Z</time>
      </trkpt>
      <trkpt lat="47.32866" lon="-1.3252">
        <ele>16</ele>
        <time>2016-11-12T19:53:01Z</time>
      </trkpt>
      <trkpt lat="47.32867" lon="-1.32518">
        <ele>16</ele>
        <time>2016-11-12T19:55:01Z</time>
      </trkpt>
      <trkpt lat="47.32869" lon="-1.32514">
        <ele>16</ele>
        <time>2016-11-12T19:57:01Z</time>
      </trkpt>
      <trkpt lat="47.32875" lon="-1.32505">
        <ele>16</ele>
        <time>2016-11-12T19:59:01Z</time>
      </trkpt>
      <trkpt lat="47.32877" lon="-1.32501">
        <ele>16</ele>
        <time>2016-11-12T20:01:01Z</time>
      </trkpt>
      <trkpt lat="47.3288" lon="-1.32494">
        <ele>16</ele>
        <time>2016-11-12T20:03:01Z</time>
      </trkpt>
      <trkpt lat="47.32887" lon="-1.32481">
        <ele>15</ele>
        <time>2016-11-12T20:05:01Z</time>
      </trkpt>
      <trkpt lat="47.32905" lon="-1.32444">
        <ele>15</ele>
        <time>2016-11-12T20:07:01Z</time>
      </trkpt>
      <trkpt lat="47.32916" lon="-1.32423">
        <ele>14</ele>
        <time>2016-11-12T20:09:01Z</time>
      </trkpt>
      <trkpt lat="47.32923" lon="-1.32408">
        <ele>13</ele>
        <time>2016-11-12T20:11:01Z</time>
      </trkpt>
      <trkpt lat="47.32934" lon="-1.32389">
        <ele>12</ele>
        <time>2016-11-12T20:13:01Z</time>
      </trkpt>
      <trkpt lat="47.32942" lon="-1.32371">
        <ele>10</ele>
        <time>2016-11-12T20:15:01Z</time>
      </trkpt>
      <trkpt lat="47.3295" lon="-1.32356">
        <ele>9</ele>
        <time>2016-11-12T20:17:01Z</time>
      </trkpt>
      <trkpt lat="47.32951" lon="-1.32355">
        <ele>9</ele>
        <time>2016-11-12T20:19:01Z</time>
      </trkpt>
      <trkpt lat="47.32952" lon="-1.32354">
        <ele>9</ele>
        <time>2016-11-12T20:21:01Z</time>
      </trkpt>
      <trkpt lat="47.32955" lon="-1.32348">
        <ele>8</ele>
        <time>2016-11-12T20:23:01Z</time>
      </trkpt>
      <trkpt lat="47.32956" lon="-1.32344">
        <ele>8</ele>
        <time>2016-11-12T20:25:01Z</time>
      </trkpt>
      <trkpt lat="47.3296" lon="-1.32338">
        <ele>7</ele>
        <time>2016-11-12T20:27:01Z</time>
      </trkpt>
      <trkpt lat="47.32966" lon="-1.32324">
        <ele>7</ele>
        <time>2016-11-12T20:29:01Z</time>
      </trkpt>
      <trkpt lat="47.32974" lon="-1.32306">
        <ele>7</ele>
        <time>2016-11-12T20:31:01Z</time>
      </trkpt>
      <trkpt lat="47.32983" lon="-1.32286">
        <ele>7</ele>
        <time>2016-11-12T20:33:01Z</time>
      </trkpt>
      <trkpt lat="47.32993" lon="-1.32269">
        <ele>7</ele>
        <time>2016-11-12T20:35:01Z</time>
      </trkpt>
      <trkpt lat="47.33003" lon="-1.32251">
        <ele>6</ele>
        <time>2016-11-12T20:37:01Z</time>
      </trkpt>
      <trkpt lat="47.33013" lon="-1.3223">
        <ele>6</ele>
        <time>2016-11-12T20:39:01Z</time>
      </trkpt>
      <trkpt lat="47.33022" lon="-1.32215">
        <ele>6</ele>
        <time>2016-11-12T20:41:01Z</time>
      </trkpt>
      <trkpt lat="47.33028" lon="-1.32202">
        <ele>7</ele>
        <time>2016-11-12T20:43:01Z</time>
      </trkpt>
      <trkpt lat="47.33047" lon="-1.32168">
        <ele>8</ele>
        <time>2016-11-12T20:45:01Z</time>
      </trkpt>
      <trkpt lat="47.33051" lon="-1.32168">
        <ele>8</ele>
        <time>2016-11-12T20:47:01Z</time>
      </trkpt>
      <trkpt lat="47.3306" lon="-1.32179">
        <ele>9</ele>
        <time>2016-11-12T20:49:01Z</time>
      </trkpt>
      <trkpt lat="47.33062" lon="-1.32181">
        <ele>9</ele>
        <time>2016-11-12T20:51:01Z</time>
      </trkpt>
      <trkpt lat="47.33065" lon="-1.32185">
        <ele>9</ele>
        <time>2016-11-12T20:53:01Z</time>
      </trkpt>
      <trkpt lat="47.33072" lon="-1.32181">
        <ele>10</ele>
        <time>2016-11-12T20:55:01Z</time>
      </trkpt>
      <trkpt lat="47.33072" lon="-1.32181">
        <ele>10</ele>
        <time>2016-11-12T20:57:01Z</time>
      </trkpt>
      <trkpt lat="47.33076" lon="-1.32175">
        <ele>10</ele>
        <time>2016-11-12T20:59:01Z</time>
      </trkpt>
      <trkpt lat="47.33087" lon="-1.32167">
        <ele>12</ele>
        <time>2016-11-12T21:01:01Z</time>
      </trkpt>
      <trkpt lat="47.33096" lon="-1.32163">
        <ele>13</ele>
        <time>2016-11-12T21:03:01Z</time>
      </trkpt>
      <trkpt lat="47.33104" lon="-1.32162">
        <ele>15</ele>
        <time>2016-11-12T21:05:01Z</time>
      </trkpt>
      <trkpt lat="47.33114" lon="-1.32163">
        <ele>16</ele>
        <time>2016-11-12T21:07:01Z</time>
      </trkpt>
      <trkpt lat="47.33115" lon="-1.32164">
        <ele>16</ele>
        <time>2016-11-12T21:09:01Z</time>
      </trkpt>
      <trkpt lat="47.33124" lon="-1.32167">
        <ele>18</ele>
        <time>2016-11-12T21:11:01Z</time>
      </trkpt>
      <trkpt lat="47.33132" lon="-1.32171">
        <ele>19</ele>
        <time>2016-11-12T21:13:01Z</time>
      </trkpt>
      <trkpt lat="47.3314" lon="-1.3217">
        <ele>20</ele>
        <time>2016-11-12T21:15:01Z</time>
      </trkpt>
      <trkpt lat="47.33147" lon="-1.32167">
        <ele>22</ele>
        <time>2016-11-12T21:17:01Z</time>
      </trkpt>
      <trkpt lat="47.33154" lon="-1.32165">
        <ele>23</ele>
        <time>2016-11-12T21:19:01Z</time>
      </trkpt>
      <trkpt lat="47.33163" lon="-1.32165">
        <ele>24</ele>
        <time>2016-11-12T21:21:01Z</time>
      </trkpt>
      <trkpt lat="47.33169" lon="-1.32168">
        <ele>25</ele>
        <time>2016-11-12T21:23:01Z</time>
      </trkpt>
      <trkpt lat="47.33171" lon="-1.32171">
        <ele>26</ele>
        <time>2016-11-12T21:25:01Z</time>
      </trkpt>
      <trkpt lat="47.33172" lon="-1.32174">
        <ele>26</ele>
        <time>2016-11-12T21:27:01Z</time>
      </trkpt>
      <trkpt lat="47.33173" lon="-1.32176">
        <ele>26</ele>
        <time>2016-11-12T21:29:01Z</time>
      </trkpt>
      <trkpt lat="47.33174" lon="-1.32177">
        <ele>26</ele>
        <time>2016-11-12T21:31:01Z</time>
      </trkpt>
      <trkpt lat="47.3318" lon="-1.32188">
        <ele>26</ele>
        <time>2016-11-12T21:33:01Z</time>
      </trkpt>
      <trkpt lat="47.33181" lon="-1.3219">
        <ele>26</ele>
        <time>2016-11-12T21:35:01Z</time>
      </trkpt>
      <trkpt lat="47.33182" lon="-1.32189">
        <ele>26</ele>
        <time>2016-11-12T21:37:01Z</time>
      </trkpt>
      <trkpt lat="47.33184" lon="-1.3219">
        <ele>27</ele>
        <time>2016-11-12T21:39:01Z</time>
      </trkpt>
      <trkpt lat="47.33185" lon="-1.32189">
        <ele>27</ele>
        <time>2016-11-12T21:41:01Z</time>
      </trkpt>
      <trkpt lat="47.33189" lon="-1.32192">
        <ele>28</ele>
        <time>2016-11-12T21:43:01Z</time>
      </trkpt>
      <trkpt lat="47.3319" lon="-1.32195">
        <ele>28</ele>
        <time>2016-11-12T21:45:01Z</time>
      </trkpt>
      <trkpt lat="47.33194" lon="-1.322">
        <ele>28</ele>
        <time>2016-11-12T21:47:01Z</time>
      </trkpt>
      <trkpt lat="47.332" lon="-1.32207">
        <ele>29</ele>
        <time>2016-11-12T21:49:01Z</time>
      </trkpt>
      <trkpt lat="47.33204" lon="-1.3221">
        <ele>30</ele>
        <time>2016-11-12T21:51:01Z</time>
      </trkpt>
      <trkpt lat="47.33208" lon="-1.32212">
        <ele>30</ele>
        <time>2016-11-12T21:53:01Z</time>
      </trkpt>
      <trkpt lat="47.33214" lon="-1.32211">
        <ele>32</ele>
        <time>2016-11-12T21:55:01Z</time>
      </trkpt>
      <trkpt lat="47.33222" lon="-1.32208">
        <ele>34</ele>
        <time>2016-11-12T21:57:01Z</time>
      </trkpt>
      <trkpt lat="47.3323" lon="-1.32207">
        <ele>36</ele>
        <time>2016-11-12T21:59:01Z</time>
      </trkpt>
      <trkpt lat="47.33236" lon="-1.32203">
        <ele>37</ele>
        <time>2016-11-12T22:01:01Z</time>
      </trkpt>
      <trkpt lat="47.33238" lon="-1.32203">
        <ele>38</ele>
        <time>2016-11-12T22:03:01Z</time>
      </trkpt>
      <trkpt lat="47.33252" lon="-1.32198">
        <ele>41</ele>
        <time>2016-11-12T22:05:01Z</time>
      </trkpt>
      <trkpt lat="47.33253" lon="-1.32198">
        <ele>41</ele>
        <time>2016-11-12T22:07:01Z</time>
      </trkpt>
      <trkpt lat="47.33254" lon="-1.32198">
        <ele>41</ele>
        <time>2016-11-12T22:09:01Z</time>
      </trkpt>
      <trkpt lat="47.33258" lon="-1.32196">
        <ele>42</ele>
        <time>2016-11-12T22:11:01Z</time>
      </trkpt>
      <trkpt lat="47.33267" lon="-1.3219">
        <ele>43</ele>
        <time>2016-11-12T22:13:01Z</time>
      </trkpt>
      <trkpt lat="47.33278" lon="-1.32185">
        <ele>44</ele>
        <time>2016-11-12T22:15:01Z</time>
      </trkpt>
      <trkpt lat="47.33282" lon="-1.32182">
        <ele>45</ele>
        <time>2016-11-12T22:17:01Z</time>
      </trkpt>
      <trkpt lat="47.33283" lon="-1.32181">
        <ele>45</ele>
        <time>2016-11-12T22:19:01Z</time>
      </trkpt>
      <trkpt lat="47.33288" lon="-1.32181">
        <ele>45</ele>
        <time>2016-11-12T22:21:01Z</time>
      </trkpt>
      <trkpt lat="47.3329" lon="-1.3218">
        <ele>46</ele>
        <time>2016-11-12T22:23:01Z</time>
      </trkpt>
      <trkpt lat="47.33307" lon="-1.32162">
        <ele>48</ele>
        <time>2016-11-12T22:25:01Z</time>
      </trkpt>
      <trkpt lat="47.33312" lon="-1.32155">
        <ele>49</ele>
        <time>2016-11-12T22:27:01Z</time>
      </trkpt>
      <trkpt lat="47.33325" lon="-1.32148">
        <ele>50</ele>
        <time>2016-11-12T22:29:01Z</time>
      </trkpt>
      <trkpt lat="47.33337" lon="-1.32148">
        <ele>51</ele>
        <time>2016-11-12T22:31:01Z</time>
      </trkpt>
      <trkpt lat="47.33348" lon="-1.32153">
        <ele>52</ele>
        <time>2016-11-12T22:33:01Z</time>
      </trkpt>
      <trkpt lat="47.33361" lon="-1.32154">
        <ele>52</ele>
        <time>2016-11-12T22:35:01Z</time>
      </trkpt>
      <trkpt lat="47.33372" lon="-1.32151">
        <ele>53</ele>
        <time>2016-11-12T22:37:01Z</time>
      </trkpt>
      <trkpt lat="47.33381" lon="-1.32142">
        <ele>54</ele>
        <time>2016-11-12T22:39:01Z</time>
      </trkpt>
      <trkpt lat="47.33398" lon="-1.32116">
        <ele>56</ele>
        <time>2016-11-12T22:41:01Z</time>
      </trkpt>
      <trkpt lat="47.33424" lon="-1.32063">
        <ele>59</ele>
        <time>2016-11-12T22:43:01Z</time>
      </trkpt>
      <trkpt lat="47.33432" lon="-1.32047">
        <ele>59</ele>
        <time>2016-11-12T22:45:01Z</time>
      </trkpt>
      <trkpt lat="47.3344" lon="-1.3203">
        <ele>60</ele>
        <time>2016-11-12T22:47:01Z</time>
      </trkpt>
      <trkpt lat="47.33448" lon="-1.32014">
        <ele>62</ele>
        <time>2016-11-12T22:49:01Z</time>
      </trkpt>
      <trkpt lat="47.33462" lon="-1.31986">
        <ele>64</ele>
        <time>2016-11-12T22:51:01Z</time>
      </trkpt>
      <trkpt lat="47.33463" lon="-1.31983">
        <ele>64</ele>
        <time>2016-11-12T22:53:01Z</time>
      </trkpt>
      <trkpt lat="47.33471" lon="-1.31979">
        <ele>65</ele>
        <time>2016-11-12T22:55:01Z</time>
      </trkpt>
      <trkpt lat="47.33487" lon="-1.3198">
        <ele>66</ele>
        <time>2016-11-12T22:57:01Z</time>
      </trkpt>
      <trkpt lat="47.33506" lon="-1.31992">
        <ele>67</ele>
        <time>2016-11-12T22:59:01Z</time>
      </trkpt>
      <trkpt lat="47.33515" lon="-1.32">
        <ele>68</ele>
        <time>2016-11-12T23:01:01Z</time>
      </trkpt>
      <trkpt lat="47.33523" lon="-1.32005">
        <ele>67</ele>
        <time>2016-11-12T23:03:01Z</time>
      </trkpt>
      <trkpt lat="47.33542" lon="-1.32022">
        <ele>67</ele>
        <time>2016-11-12T23:05:01Z</time>
      </trkpt>
      <trkpt lat="47.33567" lon="-1.32031">
        <ele>67</ele>
        <time>2016-11-12T23:07:01Z</time>
      </trkpt>
      <trkpt lat="47.3358" lon="-1.32031">
        <ele>67</ele>
        <time>2016-11-12T23:09:01Z</time>
      </trkpt>
      <trkpt lat="47.33594" lon="-1.32029">
        <ele>67</ele>
        <time>2016-11-12T23:11:01Z</time>
      </trkpt>
      <trkpt lat="47.33609" lon="-1.32022">
        <ele>67</ele>
        <time>2016-11-12T23:13:01Z</time>
      </trkpt>
      <trkpt lat="47.33619" lon="-1.32012">
        <ele>68</ele>
        <time>2016-11-12T23:15:01Z</time>
      </trkpt>
      <trkpt lat="47.33629" lon="-1.31999">
        <ele>68</ele>
        <time>2016-11-12T23:17:01Z</time>
      </trkpt>
      <trkpt lat="47.33638" lon="-1.31983">
        <ele>69</ele>
        <time>2016-11-12T23:19:01Z</time>
      </trkpt>
      <trkpt lat="47.33649" lon="-1.31964">
        <ele>69</ele>
        <time>2016-11-12T23:21:01Z</time>
      </trkpt>
      <trkpt lat="47.33656" lon="-1.31948">
        <ele>70</ele>
        <time>2016-11-12T23:23:01Z</time>
      </trkpt>
      <trkpt lat="47.33665" lon="-1.31929">
        <ele>70</ele>
        <time>2016-11-12T23:25:01Z</time>
      </trkpt>
      <trkpt lat="47.33689" lon="-1.3189">
        <ele>71</ele>
        <time>2016-11-12T23:27:01Z</time>
      </trkpt>
      <trkpt lat="47.33697" lon="-1.31877">
        <ele>71</ele>
        <time>2016-11-12T23:29:01Z</time>
      </trkpt>
      <trkpt lat="47.33705" lon="-1.31862">
        <ele>70</ele>
        <time>2016-11-12T23:31:01Z</time>
      </trkpt>
      <trkpt lat="47.33718" lon="-1.31831">
        <ele>71</ele>
        <time>2016-11-12T23:33:01Z</time>
      </trkpt>
      <trkpt lat="47.33724" lon="-1.31813">
        <ele>71</ele>
        <time>2016-11-12T23:35:01Z</time>
      </trkpt>
      <trkpt lat="47.33734" lon="-1.31788">
        <ele>72</ele>
        <time>2016-11-12T23:37:01Z</time>
      </trkpt>
      <trkpt lat="47.33743" lon="-1.31767">
        <ele>72</ele>
        <time>2016-11-12T23:39:01Z</time>
      </trkpt>
      <trkpt lat="47.33758" lon="-1.31727">
        <ele>73</ele>
        <time>2016-11-12T23:41:01Z</time>
      </trkpt>
      <trkpt lat="47.33765" lon="-1.31704">
        <ele>73</ele>
        <time>2016-11-12T23:43:01Z</time>
      </trkpt>
      <trkpt lat="47.33769" lon="-1.31681">
        <ele>74</ele>
        <time>2016-11-12T23:45:01Z</time>
      </trkpt>
      <trkpt lat="47.33774" lon="-1.31656">
        <ele>74</ele>
        <time>2016-11-12T23:47:01Z</time>
      </trkpt>
      <trkpt lat="47.33777" lon="-1.31635">
        <ele>73</ele>
        <time>2016-11-12T23:49:01Z</time>
      </trkpt>
      <trkpt lat="47.33779" lon="-1.31618">
        <ele>73</ele>
        <time>2016-11-12T23:51:01Z</time>
      </trkpt>
      <trkpt lat="47.3378" lon="-1.31596">
        <ele>73</ele>
        <time>2016-11-12T23:53:01Z</time>
      </trkpt>
      <trkpt lat="47.33782" lon="-1.31566">
        <ele>72</ele>
        <time>2016-11-12T23:55:01Z</time>
      </trkpt>
      <trkpt lat="47.33785" lon="-1.31542">
        <ele>73</ele>
        <time>2016-11-12T23:57:01Z</time>
      </trkpt>
      <trkpt lat="47.33795" lon="-1.31502">
        <ele>72</ele>
        <time>2016-11-12T23:59:01Z</time>
      </trkpt>
      <trkpt lat="47.338" lon="-1.31481">
        <ele>72</ele>
        <time>2016-11-13T00:01:01Z</time>
      </trkpt>
      <trkpt lat="47.33803" lon="-1.31471">
        <ele>71</ele>
        <time>2016-11-13T00:03:01Z</time>
      </trkpt>
      <trkpt lat="47.33817" lon="-1.31428">
        <ele>70</ele>
        <time>2016-11-13T00:05:01Z</time>
      </trkpt>
      <trkpt lat="47.33828" lon="-1.31393">
        <ele>69</ele>
        <time>2016-11-13T00:07:01Z</time>
      </trkpt>
      <trkpt lat="47.33834" lon="-1.31377">
        <ele>69</ele>
        <time>2016-11-13T00:09:01Z</time>
      </trkpt>
      <trkpt lat="47.33841" lon="-1.31357">
        <ele>68</ele>
        <time>2016-11-13T00:11:01Z</time>
      </trkpt>
      <trkpt lat="47.33847" lon="-1.31341">
        <ele>68</ele>
        <time>2016-11-13T00:13:01Z</time>
      </trkpt>
      <trkpt lat="47.33867" lon="-1.31311">
        <ele>67</ele>
        <time>2016-11-13T00:15:01Z</time>
      </trkpt>
      <trkpt lat="47.33884" lon="-1.31281">
        <ele>66</ele>
        <time>2016-11-13T00:17:01Z</time>
      </trkpt>
      <trkpt lat="47.33889" lon="-1.31274">
        <ele>66</ele>
        <time>2016-11-13T00:19:01Z</time>
      </trkpt>
      <trkpt lat="47.33899" lon="-1.3126">
        <ele>65</ele>
        <time>2016-11-13T00:21:01Z</time>
      </trkpt>
      <trkpt lat="47.33911" lon="-1.31242">
        <ele>65</ele>
        <time>2016-11-13T00:23:01Z</time>
      </trkpt>
      <trkpt lat="47.33922" lon="-1.31226">
        <ele>65</ele>
        <time>2016-11-13T00:25:01Z</time>
      </trkpt>
      <trkpt lat="47.33929" lon="-1.31212">
        <ele>65</ele>
        <time>2016-11-13T00:27:01Z</time>
      </trkpt>
      <trkpt lat="47.33939" lon="-1.31188">
        <ele>64</ele>
        <time>2016-11-13T00:29:01Z</time>
      </trkpt>
      <trkpt lat="47.33951" lon="-1.31165">
        <ele>65</ele>
        <time>2016-11-13T00:31:01Z</time>
      </trkpt>
      <trkpt lat="47.33964" lon="-1.31154">
        <ele>65</ele>
        <time>2016-11-13T00:33:01Z</time>
      </trkpt>
      <trkpt lat="47.33969" lon="-1.31149">
        <ele>65</ele>
        <time>2016-11-13T00:35:01Z</time>
      </trkpt>
      <trkpt lat="47.33972" lon="-1.31147">
        <ele>65</ele>
        <time>2016-11-13T00:37:01Z</time>
      </trkpt>
      <trkpt lat="47.33981" lon="-1.31139">
        <ele>65</ele>
        <time>2016-11-13T00:39:01Z</time>
      </trkpt>
      <trkpt lat="47.33996" lon="-1.31129">
        <ele>66</ele>
        <time>2016-11-13T00:41:01Z</time>
      </trkpt>
      <trkpt lat="47.34046" lon="-1.31103">
        <ele>66</ele>
        <time>2016-11-13T00:43:01Z</time>
      </trkpt>
      <trkpt lat="47.34057" lon="-1.31098">
        <ele>66</ele>
        <time>2016-11-13T00:45:01Z</time>
      </trkpt>
      <trkpt lat="47.34071" lon="-1.31095">
        <ele>66</ele>
        <time>2016-11-13T00:47:01Z</time>
      </trkpt>
      <trkpt lat="47.34099" lon="-1.3109">
        <ele>66</ele>
        <time>2016-11-13T00:49:01Z</time>
      </trkpt>
      <trkpt lat="47.34114" lon="-1.31084">
        <ele>66</ele>
        <time>2016-11-13T00:51:01Z</time>
      </trkpt>
      <trkpt lat="47.34122" lon="-1.31068">
        <ele>66</ele>
        <time>2016-11-13T00:53:01Z</time>
      </trkpt>
      <trkpt lat="47.34131" lon="-1.31048">
        <ele>65</ele>
        <time>2016-11-13T00:55:01Z</time>
      </trkpt>
      <trkpt lat="47.34142" lon="-1.31034">
        <ele>65</ele>
        <time>2016-11-13T00:57:01Z</time>
      </trkpt>
      <trkpt lat="47.34149" lon="-1.31028">
        <ele>65</ele>
        <time>2016-11-13T00:59:01Z</time>
      </trkpt>
      <trkpt lat="47.34157" lon="-1.31025">
        <ele>65</ele>
        <time>2016-11-13T01:01:01Z</time>
      </trkpt>
      <trkpt lat="47.34165" lon="-1.31019">
        <ele>64</ele>
        <time>2016-11-13T01:03:01Z</time>
      </trkpt>
      <trkpt lat="47.34169" lon="-1.31017">
        <ele>64</ele>
        <time>2016-11-13T01:05:01Z</time>
      </trkpt>
      <trkpt lat="47.34181" lon="-1.31006">
        <ele>64</ele>
        <time>2016-11-13T01:07:01Z</time>
      </trkpt>
      <trkpt lat="47.3419" lon="-1.30997">
        <ele>64</ele>
        <time>2016-11-13T01:09:01Z</time>
      </trkpt>
      <trkpt lat="47.342" lon="-1.30989">
        <ele>63</ele>
        <time>2016-11-13T01:11:01Z</time>
      </trkpt>
      <trkpt lat="47.34211" lon="-1.3098">
        <ele>62</ele>
        <time>2016-11-13T01:13:01Z</time>
      </trkpt>
      <trkpt lat="47.34222" lon="-1.30973">
        <ele>62</ele>
        <time>2016-11-13T01:15:01Z</time>
      </trkpt>
      <trkpt lat="47.34233" lon="-1.30964">
        <ele>62</ele>
        <time>2016-11-13T01:17:01Z</time>
      </trkpt>
      <trkpt lat="47.34243" lon="-1.30954">
        <ele>61</ele>
        <time>2016-11-13T01:19:01Z</time>
      </trkpt>
      <trkpt lat="47.34253" lon="-1.3094">
        <ele>61</ele>
        <time>2016-11-13T01:21:01Z</time>
      </trkpt>
      <trkpt lat="47.34263" lon="-1.30922">
        <ele>60</ele>
        <time>2016-11-13T01:23:01Z</time>
      </trkpt>
      <trkpt lat="47.34273" lon="-1.30903">
        <ele>59</ele>
        <time>2016-11-13T01:25:01Z</time>
      </trkpt>
      <trkpt lat="47.34284" lon="-1.30886">
        <ele>58</ele>
        <time>2016-11-13T01:27:01Z</time>
      </trkpt>
      <trkpt lat="47.34295" lon="-1.30868">
        <ele>57</ele>
        <time>2016-11-13T01:29:01Z</time>
      </trkpt>
      <trkpt lat="47.34307" lon="-1.30855">
        <ele>57</ele>
        <time>2016-11-13T01:31:01Z</time>
      </trkpt>
      <trkpt lat="47.34312" lon="-1.30853">
        <ele>57</ele>
        <time>2016-11-13T01:33:01Z</time>
      </trkpt>
      <trkpt lat="47.34313" lon="-1.30853">
        <ele>57</ele>
        <time>2016-11-13T01:35:01Z</time>
      </trkpt>
      <trkpt lat="47.34317" lon="-1.30852">
        <ele>57</ele>
        <time>2016-11-13T01:37:01Z</time>
      </trkpt>
      <trkpt lat="47.34317" lon="-1.30851">
        <ele>57</ele>
        <time>2016-11-13T01:39:01Z</time>
      </trkpt>
      <trkpt lat="47.34319" lon="-1.30848">
        <ele>57</ele>
        <time>2016-11-13T01:41:01Z</time>
      </trkpt>
      <trkpt lat="47.34326" lon="-1.30847">
        <ele>57</ele>
        <time>2016-11-13T01:43:01Z</time>
      </trkpt>
      <trkpt lat="47.34328" lon="-1.30842">
        <ele>56</ele>
        <time>2016-11-13T01:45:01Z</time>
      </trkpt>
      <trkpt lat="47.34338" lon="-1.30823">
        <ele>55</ele>
        <time>2016-11-13T01:47:01Z</time>
      </trkpt>
      <trkpt lat="47.34345" lon="-1.30805">
        <ele>54</ele>
        <time>2016-11-13T01:49:01Z</time>
      </trkpt>
      <trkpt lat="47.34349" lon="-1.30791">
        <ele>53</ele>
        <time>2016-11-13T01:51:01Z</time>
      </trkpt>
      <trkpt lat="47.34356" lon="-1.30774">
        <ele>52</ele>
        <time>2016-11-13T01:53:01Z</time>
      </trkpt>
      <trkpt lat="47.34359" lon="-1.30757">
        <ele>51</ele>
        <time>2016-11-13T01:55:01Z</time>
      </trkpt>
      <trkpt lat="47.34362" lon="-1.3075">
        <ele>51</ele>
        <time>2016-11-13T01:57:01Z</time>
      </trkpt>
      <trkpt lat="47.34365" lon="-1.30736">
        <ele>50</ele>
        <time>2016-11-13T01:59:01Z</time>
      </trkpt>
      <trkpt lat="47.34371" lon="-1.30722">
        <ele>50</ele>
        <time>2016-11-13T02:01:01Z</time>
      </trkpt>
      <trkpt lat="47.34375" lon="-1.30708">
        <ele>49</ele>
        <time>2016-11-13T02:03:01Z</time>
      </trkpt>
      <trkpt lat="47.34378" lon="-1.30682">
        <ele>48</ele>
        <time>2016-11-13T02:05:01Z</time>
      </trkpt>
      <trkpt lat="47.3438" lon="-1.30676">
        <ele>48</ele>
        <time>2016-11-13T02:07:01Z</time>
      </trkpt>
      <trkpt lat="47.34386" lon="-1.30674">
        <ele>48</ele>
        <time>2016-11-13T02:09:01Z</time>
      </trkpt>
      <trkpt lat="47.34389" lon="-1.30674">
        <ele>48</ele>
        <time>2016-11-13T02:11:01Z</time>
      </trkpt>
      <trkpt lat="47.34407" lon="-1.30679">
        <ele>48</ele>
        <time>2016-11-13T02:13:01Z</time>
      </trkpt>
      <trkpt lat="47.34423" lon="-1.30688">
        <ele>49</ele>
        <time>2016-11-13T02:15:01Z</time>
      </trkpt>
      <trkpt lat="47.34435" lon="-1.3069">
        <ele>49</ele>
        <time>2016-11-13T02:17:01Z</time>
      </trkpt>
      <trkpt lat="47.34445" lon="-1.30679">
        <ele>48</ele>
        <time>2016-11-13T02:19:01Z</time>
      </trkpt>
      <trkpt lat="47.34448" lon="-1.3066">
        <ele>48</ele>
        <time>2016-11-13T02:21:01Z</time>
      </trkpt>
      <trkpt lat="47.3445" lon="-1.30654">
        <ele>47</ele>
        <time>2016-11-13T02:23:01Z</time>
      </trkpt>
      <trkpt lat="47.34453" lon="-1.3065">
        <ele>47</ele>
        <time>2016-11-13T02:25:01Z</time>
      </trkpt>
      <trkpt lat="47.34457" lon="-1.30634">
        <ele>47</ele>
        <time>2016-11-13T02:27:01Z</time>
      </trkpt>
      <trkpt lat="47.34458" lon="-1.30626">
        <ele>47</ele>
        <time>2016-11-13T02:29:01Z</time>
      </trkpt>
      <trkpt lat="47.34465" lon="-1.30578">
        <ele>47</ele>
        <time>2016-11-13T02:31:01Z</time>
      </trkpt>
      <trkpt lat="47.34467" lon="-1.3057">
        <ele>47</ele>
        <time>2016-11-13T02:33:01Z</time>
      </trkpt>
      <trkpt lat="47.34467" lon="-1.30569">
        <ele>47</ele>
        <time>2016-11-13T02:35:01Z</time>
      </trkpt>
      <trkpt lat="47.34468" lon="-1.30542">
        <ele>46</ele>
        <time>2016-11-13T02:37:01Z</time>
      </trkpt>
      <trkpt lat="47.34473" lon="-1.30523">
        <ele>46</ele>
        <time>2016-11-13T02:39:01Z</time>
      </trkpt>
      <trkpt lat="47.3448" lon="-1.30508">
        <ele>46</ele>
        <time>2016-11-13T02:41:01Z</time>
      </trkpt>
      <trkpt lat="47.34485" lon="-1.30497">
        <ele>46</ele>
        <time>2016-11-13T02:43:01Z</time>
      </trkpt>
      <trkpt lat="47.3449" lon="-1.30487">
        <ele>45</ele>
        <time>2016-11-13T02:45:01Z</time>
      </trkpt>
      <trkpt lat="47.34491" lon="-1.30486">
        <ele>45</ele>
        <time>2016-11-13T02:47:01Z</time>
      </trkpt>
      <trkpt lat="47.34496" lon="-1.30488">
        <ele>46</ele>
        <time>2016-11-13T02:49:01Z</time>
      </trkpt>
      <trkpt lat="47.34502" lon="-1.30491">
        <ele>46</ele>
        <time>2016-11-13T02:51:01Z</time>
      </trkpt>
      <trkpt lat="47.34512" lon="-1.30494">
        <ele>45</ele>
        <time>2016-11-13T02:53:01Z</time>
      </trkpt>
      <trkpt lat="47.34513" lon="-1.30493">
        <ele>45</ele>
        <time>2016-11-13T02:55:01Z</time>
      </trkpt>
      <trkpt lat="47.34516" lon="-1.30488">
        <ele>45</ele>
        <time>2016-11-13T02:57:01Z</time>
      </trkpt>
      <trkpt lat="47.34519" lon="-1.30481">
        <ele>44</ele>
        <time>2016-11-13T02:59:01Z</time>
      </trkpt>
      <trkpt lat="47.3452" lon="-1.30472">
        <ele>44</ele>
        <time>2016-11-13T03:01:01Z</time>
      </trkpt>
      <trkpt lat="47.34523" lon="-1.30457">
        <ele>43</ele>
        <time>2016-11-13T03:03:01Z</time>
      </trkpt>
      <trkpt lat="47.34524" lon="-1.30445">
        <ele>43</ele>
        <time>2016-11-13T03:05:01Z</time>
      </trkpt>
      <trkpt lat="47.34527" lon="-1.30434">
        <ele>42</ele>
        <time>2016-11-13T03:07:01Z</time>
      </trkpt>
      <trkpt lat="47.34529" lon="-1.30426">
        <ele>42</ele>
        <time>2016-11-13T03:09:01Z</time>
      </trkpt>
      <trkpt lat="47.34531" lon="-1.30414">
        <ele>41</ele>
        <time>2016-11-13T03:11:01Z</time>
      </trkpt>
      <trkpt lat="47.34532" lon="-1.30403">
        <ele>41</ele>
        <time>2016-11-13T03:13:01Z</time>
      </trkpt>
      <trkpt lat="47.34536" lon="-1.30391">
        <ele>40</ele>
        <time>2016-11-13T03:15:01Z</time>
      </trkpt>
      <trkpt lat="47.34537" lon="-1.30389">
        <ele>40</ele>
        <time>2016-11-13T03:17:01Z</time>
      </trkpt>
      <trkpt lat="47.3454" lon="-1.30378">
        <ele>39</ele>
        <time>2016-11-13T03:19:01Z</time>
      </trkpt>
      <trkpt lat="47.34545" lon="-1.30365">
        <ele>38</ele>
        <time>2016-11-13T03:21:01Z</time>
      </trkpt>
      <trkpt lat="47.34546" lon="-1.30359">
        <ele>38</ele>
        <time>2016-11-13T03:23:01Z</time>
      </trkpt>
      <trkpt lat="47.34549" lon="-1.3035">
        <ele>37</ele>
        <time>2016-11-13T03:25:01Z</time>
      </trkpt>
      <trkpt lat="47.34551" lon="-1.30338">
        <ele>36</ele>
        <time>2016-11-13T03:27:01Z</time>
      </trkpt>
      <trkpt lat="47.34554" lon="-1.30324">
        <ele>35</ele>
        <time>2016-11-13T03:29:01Z</time>
      </trkpt>
      <trkpt lat="47.34559" lon="-1.30312">
        <ele>33</ele>
        <time>2016-11-13T03:31:01Z</time>
      </trkpt>
      <trkpt lat="47.3456" lon="-1.30307">
        <ele>32</ele>
        <time>2016-11-13T03:33:01Z</time>
      </trkpt>
      <trkpt lat="47.34564" lon="-1.30298">
        <ele>31</ele>
        <time>2016-11-13T03:35:01Z</time>
      </trkpt>
      <trkpt lat="47.34568" lon="-1.30287">
        <ele>30</ele>
        <time>2016-11-13T03:37:01Z</time>
      </trkpt>
      <trkpt lat="47.34569" lon="-1.30282">
        <ele>29</ele>
        <time>2016-11-13T03:39:01Z</time>
      </trkpt>
      <trkpt lat="47.34571" lon="-1.30277">
        <ele>28</ele>
        <time>2016-11-13T03:41:01Z</time>
      </trkpt>
      <trkpt lat="47.34573" lon="-1.30267">
        <ele>27</ele>
        <time>2016-11-13T03:43:01Z</time>
      </trkpt>
      <trkpt lat="47.34573" lon="-1.30257">
        <ele>26</ele>
        <time>2016-11-13T03:45:01Z</time>
      </trkpt>
      <trkpt lat="47.34574" lon="-1.30235">
        <ele>24</ele>
        <time>2016-11-13T03:47:01Z</time>
      </trkpt>
      <trkpt lat="47.34574" lon="-1.30229">
        <ele>24</ele>
        <time>2016-11-13T03:49:01Z</time>
      </trkpt>
      <trkpt lat="47.34576" lon="-1.30223">
        <ele>24</ele>
        <time>2016-11-13T03:51:01Z</time>
      </trkpt>
      <trkpt lat="47.3458" lon="-1.30214">
        <ele>23</ele>
        <time>2016-11-13T03:53:01Z</time>
      </trkpt>
      <trkpt lat="47.34584" lon="-1.3021">
        <ele>23</ele>
        <time>2016-11-13T03:55:01Z</time>
      </trkpt>
      <trkpt lat="47.34586" lon="-1.30209">
        <ele>23</ele>
        <time>2016-11-13T03:57:01Z</time>
      </trkpt>
      <trkpt lat="47.34588" lon="-1.30208">
        <ele>23</ele>
        <time>2016-11-13T03:59:01Z</time>
      </trkpt>
      <trkpt lat="47.34605" lon="-1.302">
        <ele>23</ele>
        <time>2016-11-13T04:01:01Z</time>
      </trkpt>
      <trkpt lat="47.34612" lon="-1.30195">
        <ele>23</ele>
        <time>2016-11-13T04:03:01Z</time>
      </trkpt>
      <trkpt lat="47.34632" lon="-1.30185">
        <ele>23</ele>
        <time>2016-11-13T04:05:01Z</time>
      </trkpt>
      <trkpt lat="47.34642" lon="-1.30183">
        <ele>23</ele>
        <time>2016-11-13T04:07:01Z</time>
      </trkpt>
      <trkpt lat="47.34647" lon="-1.30178">
        <ele>23</ele>
        <time>2016-11-13T04:09:01Z</time>
      </trkpt>
      <trkpt lat="47.34648" lon="-1.30174">
        <ele>23</ele>
        <time>2016-11-13T04:11:01Z</time>
      </trkpt>
      <trkpt lat="47.3465" lon="-1.3017">
        <ele>23</ele>
        <time>2016-11-13T04:13:01Z</time>
      </trkpt>
      <trkpt lat="47.34655" lon="-1.30167">
        <ele>23</ele>
        <time>2016-11-13T04:15:01Z</time>
      </trkpt>
      <trkpt lat="47.34662" lon="-1.30167">
        <ele>23</ele>
        <time>2016-11-13T04:17:01Z</time>
      </trkpt>
      <trkpt lat="47.34665" lon="-1.30167">
        <ele>23</ele>
        <time>2016-11-13T04:19:01Z</time>
      </trkpt>
      <trkpt lat="47.34671" lon="-1.30172">
        <ele>24</ele>
        <time>2016-11-13T04:21:01Z</time>
      </trkpt>
      <trkpt lat="47.34677" lon="-1.30179">
        <ele>25</ele>
        <time>2016-11-13T04:23:01Z</time>
      </trkpt>
      <trkpt lat="47.34686" lon="-1.30186">
        <ele>27</ele>
        <time>2016-11-13T04:25:01Z</time>
      </trkpt>
      <trkpt lat="47.34691" lon="-1.30193">
        <ele>27</ele>
        <time>2016-11-13T04:27:01Z</time>
      </trkpt>
      <trkpt lat="47.347" lon="-1.30208">
        <ele>29</ele>
        <time>2016-11-13T04:29:01Z</time>
      </trkpt>
      <trkpt lat="47.3471" lon="-1.30221">
        <ele>29</ele>
        <time>2016-11-13T04:31:01Z</time>
      </trkpt>
      <trkpt lat="47.34718" lon="-1.30236">
        <ele>30</ele>
        <time>2016-11-13T04:33:01Z</time>
      </trkpt>
      <trkpt lat="47.34723" lon="-1.30242">
        <ele>30</ele>
        <time>2016-11-13T04:35:01Z</time>
      </trkpt>
      <trkpt lat="47.34726" lon="-1.30244">
        <ele>30</ele>
        <time>2016-11-13T04:37:01Z</time>
      </trkpt>
      <trkpt lat="47.34729" lon="-1.30247">
        <ele>30</ele>
        <time>2016-11-13T04:39:01Z</time>
      </trkpt>
      <trkpt lat="47.34738" lon="-1.30251">
        <ele>30</ele>
        <time>2016-11-13T04:41:01Z</time>
      </trkpt>
      <trkpt lat="47.34745" lon="-1.30259">
        <ele>31</ele>
        <time>2016-11-13T04:43:01Z</time>
      </trkpt>
      <trkpt lat="47.34756" lon="-1.30265">
        <ele>32</ele>
        <time>2016-11-13T04:45:01Z</time>
      </trkpt>
      <trkpt lat="47.34767" lon="-1.30267">
        <ele>33</ele>
        <time>2016-11-13T04:47:01Z</time>
      </trkpt>
      <trkpt lat="47.34777" lon="-1.30269">
        <ele>33</ele>
        <time>2016-11-13T04:49:01Z</time>
      </trkpt>
      <trkpt lat="47.34789" lon="-1.30269">
        <ele>33</ele>
        <time>2016-11-13T04:51:01Z</time>
      </trkpt>
      <trkpt lat="47.34799" lon="-1.30271">
        <ele>34</ele>
        <time>2016-11-13T04:53:01Z</time>
      </trkpt>
      <trkpt lat="47.34811" lon="-1.30272">
        <ele>34</ele>
        <time>2016-11-13T04:55:01Z</time>
      </trkpt>
      <trkpt lat="47.34822" lon="-1.30274">
        <ele>35</ele>
        <time>2016-11-13T04:57:01Z</time>
      </trkpt>
      <trkpt lat="47.34833" lon="-1.30282">
        <ele>35</ele>
        <time>2016-11-13T04:59:01Z</time>
      </trkpt>
      <trkpt lat="47.34844" lon="-1.30288">
        <ele>36</ele>
        <time>2016-11-13T05:01:01Z</time>
      </trkpt>
      <trkpt lat="47.34851" lon="-1.30295">
        <ele>37</ele>
        <time>2016-11-13T05:03:01Z</time>
      </trkpt>
      <trkpt lat="47.34857" lon="-1.30302">
        <ele>37</ele>
        <time>2016-11-13T05:05:01Z</time>
      </trkpt>
      <trkpt lat="47.34858" lon="-1.30303">
        <ele>37</ele>
        <time>2016-11-13T05:07:01Z</time>
      </trkpt>
      <trkpt lat="47.34863" lon="-1.30308">
        <ele>37</ele>
        <time>2016-11-13T05:09:01Z</time>
      </trkpt>
      <trkpt lat="47.34869" lon="-1.30308">
        <ele>38</ele>
        <time>2016-11-13T05:11:01Z</time>
      </trkpt>
      <trkpt lat="47.34869" lon="-1.30309">
        <ele>38</ele>
        <time>2016-11-13T05:13:01Z</time>
      </trkpt>
      <trkpt lat="47.34874" lon="-1.30306">
        <ele>38</ele>
        <time>2016-11-13T05:15:01Z</time>
      </trkpt>
      <trkpt lat="47.34878" lon="-1.30301">
        <ele>38</ele>
        <time>2016-11-13T05:17:01Z</time>
      </trkpt>
      <trkpt lat="47.3488" lon="-1.30299">
        <ele>38</ele>
        <time>2016-11-13T05:19:01Z</time>
      </trkpt>
      <trkpt lat="47.34884" lon="-1.30292">
        <ele>39</ele>
        <time>2016-11-13T05:21:01Z</time>
      </trkpt>
      <trkpt lat="47.34886" lon="-1.3029">
        <ele>39</ele>
        <time>2016-11-13T05:23:01Z</time>
      </trkpt>
      <trkpt lat="47.34887" lon="-1.30288">
        <ele>39</ele>
        <time>2016-11-13T05:25:01Z</time>
      </trkpt>
      <trkpt lat="47.34892" lon="-1.30282">
        <ele>39</ele>
        <time>2016-11-13T05:27:01Z</time>
      </trkpt>
      <trkpt lat="47.34898" lon="-1.30277">
        <ele>40</ele>
        <time>2016-11-13T05:29:01Z</time>
      </trkpt>
      <trkpt lat="47.34899" lon="-1.30275">
        <ele>40</ele>
        <time>2016-11-13T05:31:01Z</time>
      </trkpt>
      <trkpt lat="47.34901" lon="-1.30273">
        <ele>40</ele>
        <time>2016-11-13T05:33:01Z</time>
      </trkpt>
      <trkpt lat="47.3491" lon="-1.30263">
        <ele>42</ele>
        <time>2016-11-13T05:35:01Z</time>
      </trkpt>
      <trkpt lat="47.34911" lon="-1.30258">
        <ele>42</ele>
        <time>2016-11-13T05:37:01Z</time>
      </trkpt>
      <trkpt lat="47.34916" lon="-1.30249">
        <ele>43</ele>
        <time>2016-11-13T05:39:01Z</time>
      </trkpt>
      <trkpt lat="47.34921" lon="-1.30244">
        <ele>44</ele>
        <time>2016-11-13T05:41:01Z</time>
      </trkpt>
      <trkpt lat="47.34925" lon="-1.30236">
        <ele>45</ele>
        <time>2016-11-13T05:43:01Z</time>
      </trkpt>
      <trkpt lat="47.34931" lon="-1.3023">
        <ele>46</ele>
        <time>2016-11-13T05:45:01Z</time>
      </trkpt>
      <trkpt lat="47.34938" lon="-1.30224">
        <ele>47</ele>
        <time>2016-11-13T05:47:01Z</time>
      </trkpt>
      <trkpt lat="47.3494" lon="-1.30218">
        <ele>47</ele>
        <time>2016-11-13T05:49:01Z</time>
      </trkpt>
      <trkpt lat="47.34943" lon="-1.30212">
        <ele>48</ele>
        <time>2016-11-13T05:51:01Z</time>
      </trkpt>
      <trkpt lat="47.34947" lon="-1.30205">
        <ele>49</ele>
        <time>2016-11-13T05:53:01Z</time>
      </trkpt>
      <trkpt lat="47.34952" lon="-1.30199">
        <ele>49</ele>
        <time>2016-11-13T05:55:01Z</time>
      </trkpt>
      <trkpt lat="47.34962" lon="-1.3019">
        <ele>50</ele>
        <time>2016-11-13T05:57:01Z</time>
      </trkpt>
      <trkpt lat="47.34967" lon="-1.30187">
        <ele>51</ele>
        <time>2016-11-13T05:59:01Z</time>
      </trkpt>
      <trkpt lat="47.34969" lon="-1.30184">
        <ele>51</ele>
        <time>2016-11-13T06:01:01Z</time>
      </trkpt>
      <trkpt lat="47.3498" lon="-1.30174">
        <ele>52</ele>
        <time>2016-11-13T06:03:01Z</time>
      </trkpt>
      <trkpt lat="47.34985" lon="-1.30167">
        <ele>52</ele>
        <time>2016-11-13T06:05:01Z</time>
      </trkpt>
      <trkpt lat="47.34992" lon="-1.30159">
        <ele>53</ele>
        <time>2016-11-13T06:07:01Z</time>
      </trkpt>
      <trkpt lat="47.34999" lon="-1.3015">
        <ele>53</ele>
        <time>2016-11-13T06:09:01Z</time>
      </trkpt>
      <trkpt lat="47.35012" lon="-1.30132">
        <ele>54</ele>
        <time>2016-11-13T06:11:01Z</time>
      </trkpt>
      <trkpt lat="47.35019" lon="-1.30124">
        <ele>55</ele>
        <time>2016-11-13T06:13:01Z</time>
      </trkpt>
      <trkpt lat="47.35025" lon="-1.30118">
        <ele>55</ele>
        <time>2016-11-13T06:15:01Z</time>
      </trkpt>
      <trkpt lat="47.35026" lon="-1.30118">
        <ele>55</ele>
        <time>2016-11-13T06:17:01Z</time>
      </trkpt>
      <trkpt lat="47.35029" lon="-1.30115">
        <ele>55</ele>
        <time>2016-11-13T06:19:01Z</time>
      </trkpt>
      <trkpt lat="47.35036" lon="-1.30103">
        <ele>56</ele>
        <time>2016-11-13T06:21:01Z</time>
      </trkpt>
      <trkpt lat="47.35045" lon="-1.30093">
        <ele>57</ele>
        <time>2016-11-13T06:23:01Z</time>
      </trkpt>
      <trkpt lat="47.35047" lon="-1.30092">
        <ele>57</ele>
        <time>2016-11-13T06:25:01Z</time>
      </trkpt>
      <trkpt lat="47.35056" lon="-1.30082">
        <ele>58</ele>
        <time>2016-11-13T06:27:01Z</time>
      </trkpt>
      <trkpt lat="47.35062" lon="-1.30072">
        <ele>59</ele>
        <time>2016-11-13T06:29:01Z</time>
      </trkpt>
      <trkpt lat="47.35067" lon="-1.30062">
        <ele>60</ele>
        <time>2016-11-13T06:31:01Z</time>
      </trkpt>
      <trkpt lat="47.35088" lon="-1.30027">
        <ele>62</ele>
        <time>2016-11-13T06:33:01Z</time>
      </trkpt>
      <trkpt lat="47.35107" lon="-1.30002">
        <ele>64</ele>
        <time>2016-11-13T06:35:01Z</time>
      </trkpt>
      <trkpt lat="47.3511" lon="-1.29997">
        <ele>64</ele>
        <time>2016-11-13T06:37:01Z</time>
      </trkpt>
      <trkpt lat="47.35113" lon="-1.29994">
        <ele>65</ele>
        <time>2016-11-13T06:39:01Z</time>
      </trkpt>
      <trkpt lat="47.35119" lon="-1.29983">
        <ele>65</ele>
        <time>2016-11-13T06:41:01Z</time>
      </trkpt>
      <trkpt lat="47.35132" lon="-1.29964">
        <ele>66</ele>
        <time>2016-11-13T06:43:01Z</time>
      </trkpt>
      <trkpt lat="47.35144" lon="-1.29953">
        <ele>66</ele>
        <time>2016-11-13T06:45:01Z</time>
      </trkpt>
      <trkpt lat="47.35153" lon="-1.29943">
        <ele>67</ele>
        <time>2016-11-13T06:47:01Z</time>
      </trkpt>
      <trkpt lat="47.35158" lon="-1.29928">
        <ele>67</ele>
        <time>2016-11-13T06:49:01Z</time>
      </trkpt>
      <trkpt lat="47.35157" lon="-1.2992">
        <ele>67</ele>
        <time>2016-11-13T06:51:01Z</time>
      </trkpt>
      <trkpt lat="47.35155" lon="-1.29915">
        <ele>67</ele>
        <time>2016-11-13T06:53:01Z</time>
      </trkpt>
      <trkpt lat="47.35153" lon="-1.29914">
        <ele>67</ele>
        <time>2016-11-13T06:55:01Z</time>
      </trkpt>
      <trkpt lat="47.35151" lon="-1.29913">
        <ele>67</ele>
        <time>2016-11-13T06:57:01Z</time>
      </trkpt>
      <trkpt lat="47.35149" lon="-1.2991">
        <ele>67</ele>
        <time>2016-11-13T06:59:01Z</time>
      </trkpt>
      <trkpt lat="47.35143" lon="-1.29896">
        <ele>67</ele>
        <time>2016-11-13T07:01:01Z</time>
      </trkpt>
      <trkpt lat="47.35131" lon="-1.29878">
        <ele>67</ele>
        <time>2016-11-13T07:03:01Z</time>
      </trkpt>
      <trkpt lat="47.35129" lon="-1.29878">
        <ele>67</ele>
        <time>2016-11-13T07:05:01Z</time>
      </trkpt>
      <trkpt lat="47.35126" lon="-1.2987">
        <ele>67</ele>
        <time>2016-11-13T07:07:01Z</time>
      </trkpt>
      <trkpt lat="47.35124" lon="-1.29867">
        <ele>67</ele>
        <time>2016-11-13T07:09:01Z</time>
      </trkpt>
      <trkpt lat="47.35111" lon="-1.29846">
        <ele>67</ele>
        <time>2016-11-13T07:11:01Z</time>
      </trkpt>
      <trkpt lat="47.35102" lon="-1.29833">
        <ele>67</ele>
        <time>2016-11-13T07:13:01Z</time>
      </trkpt>
      <trkpt lat="47.35096" lon="-1.29821">
        <ele>67</ele>
        <time>2016-11-13T07:15:01Z</time>
      </trkpt>
      <trkpt lat="47.35086" lon="-1.298">
        <ele>66</ele>
        <time>2016-11-13T07:17:01Z</time>
      </trkpt>
      <trkpt lat="47.35083" lon="-1.29794">
        <ele>66</ele>
        <time>2016-11-13T07:19:01Z</time>
      </trkpt>
      <trkpt lat="47.35078" lon="-1.29783">
        <ele>66</ele>
        <time>2016-11-13T07:21:01Z</time>
      </trkpt>
      <trkpt lat="47.35069" lon="-1.29771">
        <ele>66</ele>
        <time>2016-11-13T07:23:01Z</time>
      </trkpt>
      <trkpt lat="47.35062" lon="-1.29756">
        <ele>65</ele>
        <time>2016-11-13T07:25:01Z</time>
      </trkpt>
      <trkpt lat="47.35052" lon="-1.29743">
        <ele>65</ele>
        <time>2016-11-13T07:27:01Z</time>
      </trkpt>
      <trkpt lat="47.35043" lon="-1.29729">
        <ele>65</ele>
        <time>2016-11-13T07:29:01Z</time>
      </trkpt>
      <trkpt lat="47.35037" lon="-1.29715">
        <ele>65</ele>
        <time>2016-11-13T07:31:01Z</time>
      </trkpt>
      <trkpt lat="47.35024" lon="-1.29683">
        <ele>65</ele>
        <time>2016-11-13T07:33:01Z</time>
      </trkpt>
      <trkpt lat="47.35017" lon="-1.29665">
        <ele>65</ele>
        <time>2016-11-13T07:35:01Z</time>
      </trkpt>
      <trkpt lat="47.35009" lon="-1.2965">
        <ele>65</ele>
        <time>2016-11-13T07:37:01Z</time>
      </trkpt>
      <trkpt lat="47.35004" lon="-1.29637">
        <ele>65</ele>
        <time>2016-11-13T07:39:01Z</time>
      </trkpt>
      <trkpt lat="47.34996" lon="-1.29619">
        <ele>65</ele>
        <time>2016-11-13T07:41:01Z</time>
      </trkpt>
      <trkpt lat="47.34986" lon="-1.29602">
        <ele>65</ele>
        <time>2016-11-13T07:43:01Z</time>
      </trkpt>
      <trkpt lat="47.34971" lon="-1.29578">
        <ele>65</ele>
        <time>2016-11-13T07:45:01Z</time>
      </trkpt>
      <trkpt lat="47.34965" lon="-1.29567">
        <ele>65</ele>
        <time>2016-11-13T07:47:01Z</time>
      </trkpt>
      <trkpt lat="47.34957" lon="-1.29555">
        <ele>65</ele>
        <time>2016-11-13T07:49:01Z</time>
      </trkpt>
      <trkpt lat="47.34945" lon="-1.29534">
        <ele>65</ele>
        <time>2016-11-13T07:51:01Z</time>
      </trkpt>
      <trkpt lat="47.34934" lon="-1.29517">
        <ele>64</ele>
        <time>2016-11-13T07:53:01Z</time>
      </trkpt>
      <trkpt lat="47.34916" lon="-1.29492">
        <ele>64</ele>
        <time>2016-11-13T07:55:01Z</time>
      </trkpt>
      <trkpt lat="47.34911" lon="-1.29479">
        <ele>64</ele>
        <time>2016-11-13T07:57:01Z</time>
      </trkpt>
      <trkpt lat="47.34911" lon="-1.2947">
        <ele>64</ele>
        <time>2016-11-13T07:59:01Z</time>
      </trkpt>
      <trkpt lat="47.34914" lon="-1.29467">
        <ele>64</ele>
        <time>2016-11-13T08:01:01Z</time>
      </trkpt>
      <trkpt lat="47.34921" lon="-1.29459">
        <ele>64</ele>
        <time>2016-11-13T08:03:01Z</time>
      </trkpt>
      <trkpt lat="47.34926" lon="-1.29453">
        <ele>64</ele>
        <time>2016-11-13T08:05:01Z</time>
      </trkpt>
      <trkpt lat="47.34959" lon="-1.29417">
        <ele>63</ele>
        <time>2016-11-13T08:07:01Z</time>
      </trkpt>
      <trkpt lat="47.34965" lon="-1.2941">
        <ele>63</ele>
        <time>2016-11-13T08:09:01Z</time>
      </trkpt>
      <trkpt lat="47.34974" lon="-1.29402">
        <ele>63</ele>
        <time>2016-11-13T08:11:01Z</time>
      </trkpt>
      <trkpt lat="47.34984" lon="-1.29392">
        <ele>62</ele>
        <time>2016-11-13T08:13:01Z</time>
      </trkpt>
      <trkpt lat="47.35006" lon="-1.29373">
        <ele>61</ele>
        <time>2016-11-13T08:15:01Z</time>
      </trkpt>
      <trkpt lat="47.35012" lon="-1.29366">
        <ele>61</ele>
        <time>2016-11-13T08:17:01Z</time>
      </trkpt>
      <trkpt lat="47.35023" lon="-1.29353">
        <ele>60</ele>
        <time>2016-11-13T08:19:01Z</time>
      </trkpt>
      <trkpt lat="47.35033" lon="-1.29336">
        <ele>59</ele>
        <time>2016-11-13T08:21:01Z</time>
      </trkpt>
      <trkpt lat="47.35039" lon="-1.2932">
        <ele>58</ele>
        <time>2016-11-13T08:23:01Z</time>
      </trkpt>
      <trkpt lat="47.35045" lon="-1.29302">
        <ele>56</ele>
        <time>2016-11-13T08:25:01Z</time>
      </trkpt>
      <trkpt lat="47.35052" lon="-1.29286">
        <ele>55</ele>
        <time>2016-11-13T08:27:01Z</time>
      </trkpt>
      <trkpt lat="47.35059" lon="-1.2927">
        <ele>54</ele>
        <time>2016-11-13T08:29:01Z</time>
      </trkpt>
      <trkpt lat="47.35067" lon="-1.29256">
        <ele>52</ele>
        <time>2016-11-13T08:31:01Z</time>
      </trkpt>
      <trkpt lat="47.35068" lon="-1.29256">
        <ele>52</ele>
        <time>2016-11-13T08:33:01Z</time>
      </trkpt>
      <trkpt lat="47.35075" lon="-1.29259">
        <ele>52</ele>
        <time>2016-11-13T08:35:01Z</time>
      </trkpt>
      <trkpt lat="47.35088" lon="-1.29269">
        <ele>52</ele>
        <time>2016-11-13T08:37:01Z</time>
      </trkpt>
      <trkpt lat="47.35096" lon="-1.29276">
        <ele>51</ele>
        <time>2016-11-13T08:39:01Z</time>
      </trkpt>
      <trkpt lat="47.35099" lon="-1.29278">
        <ele>51</ele>
        <time>2016-11-13T08:41:01Z</time>
      </trkpt>
      <trkpt lat="47.35113" lon="-1.29276">
        <ele>50</ele>
        <time>2016-11-13T08:43:01Z</time>
      </trkpt>
      <trkpt lat="47.35124" lon="-1.29269">
        <ele>48</ele>
        <time>2016-11-13T08:45:01Z</time>
      </trkpt>
      <trkpt lat="47.35126" lon="-1.29268">
        <ele>48</ele>
        <time>2016-11-13T08:47:01Z</time>
      </trkpt>
      <trkpt lat="47.35127" lon="-1.29261">
        <ele>47</ele>
        <time>2016-11-13T08:49:01Z</time>
      </trkpt>
      <trkpt lat="47.35127" lon="-1.29258">
        <ele>47</ele>
        <time>2016-11-13T08:51:01Z</time>
      </trkpt>
      <trkpt lat="47.35129" lon="-1.29247">
        <ele>46</ele>
        <time>2016-11-13T08:53:01Z</time>
      </trkpt>
      <trkpt lat="47.35141" lon="-1.29221">
        <ele>43</ele>
        <time>2016-11-13T08:55:01Z</time>
      </trkpt>
      <trkpt lat="47.35143" lon="-1.29218">
        <ele>42</ele>
        <time>2016-11-13T08:57:01Z</time>
      </trkpt>
      <trkpt lat="47.35144" lon="-1.29217">
        <ele>42</ele>
        <time>2016-11-13T08:59:01Z</time>
      </trkpt>
      <trkpt lat="47.35151" lon="-1.29206">
        <ele>41</ele>
        <time>2016-11-13T09:01:01Z</time>
      </trkpt>
      <trkpt lat="47.35157" lon="-1.29204">
        <ele>40</ele>
        <time>2016-11-13T09:03:01Z</time>
      </trkpt>
      <trkpt lat="47.35169" lon="-1.29204">
        <ele>39</ele>
        <time>2016-11-13T09:05:01Z</time>
      </trkpt>
      <trkpt lat="47.35176" lon="-1.29207">
        <ele>37</ele>
        <time>2016-11-13T09:07:01Z</time>
      </trkpt>
      <trkpt lat="47.3518" lon="-1.29211">
        <ele>37</ele>
        <time>2016-11-13T09:09:01Z</time>
      </trkpt>
      <trkpt lat="47.35182" lon="-1.2921">
        <ele>36</ele>
        <time>2016-11-13T09:11:01Z</time>
      </trkpt>
      <trkpt lat="47.35184" lon="-1.29211">
        <ele>36</ele>
        <time>2016-11-13T09:13:01Z</time>
      </trkpt>
      <trkpt lat="47.35185" lon="-1.29213">
        <ele>36</ele>
        <time>2016-11-13T09:15:01Z</time>
      </trkpt>
      <trkpt lat="47.35188" lon="-1.29214">
        <ele>35</ele>
        <time>2016-11-13T09:17:01Z</time>
      </trkpt>
      <trkpt lat="47.35192" lon="-1.2921">
        <ele>34</ele>
        <time>2016-11-13T09:19:01Z</time>
      </trkpt>
      <trkpt lat="47.35196" lon="-1.29201">
        <ele>32</ele>
        <time>2016-11-13T09:21:01Z</time>
      </trkpt>
      <trkpt lat="47.35199" lon="-1.29185">
        <ele>30</ele>
        <time>2016-11-13T09:23:01Z</time>
      </trkpt>
      <trkpt lat="47.35199" lon="-1.29179">
        <ele>29</ele>
        <time>2016-11-13T09:25:01Z</time>
      </trkpt>
      <trkpt lat="47.35203" lon="-1.29177">
        <ele>28</ele>
        <time>2016-11-13T09:27:01Z</time>
      </trkpt>
      <trkpt lat="47.35206" lon="-1.2918">
        <ele>28</ele>
        <time>2016-11-13T09:29:01Z</time>
      </trkpt>
      <trkpt lat="47.3521" lon="-1.29187">
        <ele>27</ele>
        <time>2016-11-13T09:31:01Z</time>
      </trkpt>
      <trkpt lat="47.35214" lon="-1.29196">
        <ele>27</ele>
        <time>2016-11-13T09:33:01Z</time>
      </trkpt>
      <trkpt lat="47.3522" lon="-1.29201">
        <ele>26</ele>
        <time>2016-11-13T09:35:01Z</time>
      </trkpt>
      <trkpt lat="47.35221" lon="-1.29202">
        <ele>26</ele>
        <time>2016-11-13T09:37:01Z</time>
      </trkpt>
      <trkpt lat="47.35226" lon="-1.29204">
        <ele>25</ele>
        <time>2016-11-13T09:39:01Z</time>
      </trkpt>
      <trkpt lat="47.35228" lon="-1.29203">
        <ele>25</ele>
        <time>2016-11-13T09:41:01Z</time>
      </trkpt>
      <trkpt lat="47.3523" lon="-1.29202">
        <ele>24</ele>
        <time>2016-11-13T09:43:01Z</time>
      </trkpt>
      <trkpt lat="47.35231" lon="-1.29199">
        <ele>23</ele>
        <time>2016-11-13T09:45:01Z</time>
      </trkpt>
      <trkpt lat="47.35237" lon="-1.29193">
        <ele>21</ele>
        <time>2016-11-13T09:47:01Z</time>
      </trkpt>
      <trkpt lat="47.35237" lon="-1.29193">
        <ele>21</ele>
        <time>2016-11-13T09:49:01Z</time>
      </trkpt>
      <trkpt lat="47.35238" lon="-1.29194">
        <ele>21</ele>
        <time>2016-11-13T09:51:01Z</time>
      </trkpt>
      <trkpt lat="47.35241" lon="-1.29195">
        <ele>21</ele>
        <time>2016-11-13T09:53:01Z</time>
      </trkpt>
      <trkpt lat="47.35242" lon="-1.29194">
        <ele>20</ele>
        <time>2016-11-13T09:55:01Z</time>
      </trkpt>
      <trkpt lat="47.35256" lon="-1.29198">
        <ele>18</ele>
        <time>2016-11-13T09:57:01Z</time>
      </trkpt>
      <trkpt lat="47.35257" lon="-1.29201">
        <ele>18</ele>
        <time>2016-11-13T09:59:01Z</time>
      </trkpt>
      <trkpt lat="47.3526" lon="-1.29207">
        <ele>19</ele>
        <time>2016-11-13T10:01:01Z</time>
      </trkpt>
      <trkpt lat="47.35268" lon="-1.29217">
        <ele>19</ele>
        <time>2016-11-13T10:03:01Z</time>
      </trkpt>
      <trkpt lat="47.35274" lon="-1.29229">
        <ele>19</ele>
        <time>2016-11-13T10:05:01Z</time>
      </trkpt>
      <trkpt lat="47.35279" lon="-1.2924">
        <ele>19</ele>
        <time>2016-11-13T10:07:01Z</time>
      </trkpt>
      <trkpt lat="47.35279" lon="-1.29242">
        <ele>19</ele>
        <time>2016-11-13T10:09:01Z</time>
      </trkpt>
      <trkpt lat="47.35284" lon="-1.29249">
        <ele>19</ele>
        <time>2016-11-13T10:11:01Z</time>
      </trkpt>
      <trkpt lat="47.35291" lon="-1.29257">
        <ele>19</ele>
        <time>2016-11-13T10:13:01Z</time>
      </trkpt>
      <trkpt lat="47.35296" lon="-1.2926">
        <ele>19</ele>
        <time>2016-11-13T10:15:01Z</time>
      </trkpt>
      <trkpt lat="47.35303" lon="-1.29269">
        <ele>19</ele>
        <time>2016-11-13T10:17:01Z</time>
      </trkpt>
      <trkpt lat="47.35311" lon="-1.29281">
        <ele>19</ele>
        <time>2016-11-13T10:19:01Z</time>
      </trkpt>
      <trkpt lat="47.35319" lon="-1.29299">
        <ele>21</ele>
        <time>2016-11-13T10:21:01Z</time>
      </trkpt>
      <trkpt lat="47.35321" lon="-1.29312">
        <ele>22</ele>
        <time>2016-11-13T10:23:01Z</time>
      </trkpt>
      <trkpt lat="47.35321" lon="-1.29315">
        <ele>23</ele>
        <time>2016-11-13T10:25:01Z</time>
      </trkpt>
      <trkpt lat="47.35327" lon="-1.29326">
        <ele>23</ele>
        <time>2016-11-13T10:27:01Z</time>
      </trkpt>
      <trkpt lat="47.35329" lon="-1.29329">
        <ele>23</ele>
        <time>2016-11-13T10:29:01Z</time>
      </trkpt>
      <trkpt lat="47.35331" lon="-1.29335">
        <ele>23</ele>
        <time>2016-11-13T10:31:01Z</time>
      </trkpt>
      <trkpt lat="47.35334" lon="-1.29341">
        <ele>23</ele>
        <time>2016-11-13T10:33:01Z</time>
      </trkpt>
      <trkpt lat="47.35338" lon="-1.29347">
        <ele>23</ele>
        <time>2016-11-13T10:35:01Z</time>
      </trkpt>
      <trkpt lat="47.35341" lon="-1.29357">
        <ele>23</ele>
        <time>2016-11-13T10:37:01Z</time>
      </trkpt>
      <trkpt lat="47.35348" lon="-1.29367">
        <ele>22</ele>
        <time>2016-11-13T10:39:01Z</time>
      </trkpt>
      <trkpt lat="47.35353" lon="-1.29373">
        <ele>22</ele>
        <time>2016-11-13T10:41:01Z</time>
      </trkpt>
      <trkpt lat="47.35358" lon="-1.29377">
        <ele>21</ele>
        <time>2016-11-13T10:43:01Z</time>
      </trkpt>
      <trkpt lat="47.35359" lon="-1.29377">
        <ele>21</ele>
        <time>2016-11-13T10:45:01Z</time>
      </trkpt>
      <trkpt lat="47.3536" lon="-1.29389">
        <ele>21</ele>
        <time>2016-11-13T10:47:01Z</time>
      </trkpt>
      <trkpt lat="47.35362" lon="-1.29392">
        <ele>21</ele>
        <time>2016-11-13T10:49:01Z</time>
      </trkpt>
      <trkpt lat="47.35363" lon="-1.29398">
        <ele>21</ele>
        <time>2016-11-13T10:51:01Z</time>
      </trkpt>
      <trkpt lat="47.35368" lon="-1.29404">
        <ele>20</ele>
        <time>2016-11-13T10:53:01Z</time>
      </trkpt>
      <trkpt lat="47.35369" lon="-1.29411">
        <ele>20</ele>
        <time>2016-11-13T10:55:01Z</time>
      </trkpt>
      <trkpt lat="47.35363" lon="-1.29435">
        <ele>22</ele>
        <time>2016-11-13T10:57:01Z</time>
      </trkpt>
      <trkpt lat="47.35361" lon="-1.29443">
        <ele>22</ele>
        <time>2016-11-13T10:59:01Z</time>
      </trkpt>
      <trkpt lat="47.35361" lon="-1.29451">
        <ele>22</ele>
        <time>2016-11-13T11:01:01Z</time>
      </trkpt>
      <trkpt lat="47.35361" lon="-1.29451">
        <ele>22</ele>
        <time>2016-11-13T11:03:01Z</time>
      </trkpt>
      <trkpt lat="47.35359" lon="-1.29462">
        <ele>23</ele>
        <time>2016-11-13T11:05:01Z</time>
      </trkpt>
      <trkpt lat="47.35362" lon="-1.29477">
        <ele>22</ele>
        <time>2016-11-13T11:07:01Z</time>
      </trkpt>
      <trkpt lat="47.35361" lon="-1.29484">
        <ele>22</ele>
        <time>2016-11-13T11:09:01Z</time>
      </trkpt>
      <trkpt lat="47.3536" lon="-1.29488">
        <ele>23</ele>
        <time>2016-11-13T11:11:01Z</time>
      </trkpt>
      <trkpt lat="47.35361" lon="-1.29492">
        <ele>23</ele>
        <time>2016-11-13T11:13:01Z</time>
      </trkpt>
      <trkpt lat="47.35363" lon="-1.29512">
        <ele>23</ele>
        <time>2016-11-13T11:15:01Z</time>
      </trkpt>
      <trkpt lat="47.35367" lon="-1.29524">
        <ele>23</ele>
        <time>2016-11-13T11:17:01Z</time>
      </trkpt>
      <trkpt lat="47.3537" lon="-1.29526">
        <ele>23</ele>
        <time>2016-11-13T11:19:01Z</time>
      </trkpt>
      <trkpt lat="47.35372" lon="-1.29537">
        <ele>23</ele>
        <time>2016-11-13T11:21:01Z</time>
      </trkpt>
      <trkpt lat="47.35374" lon="-1.29549">
        <ele>24</ele>
        <time>2016-11-13T11:23:01Z</time>
      </trkpt>
      <trkpt lat="47.35374" lon="-1.29551">
        <ele>24</ele>
        <time>2016-11-13T11:25:01Z</time>
      </trkpt>
      <trkpt lat="47.35374" lon="-1.2956">
        <ele>25</ele>
        <time>2016-11-13T11:27:01Z</time>
      </trkpt>
      <trkpt lat="47.35375" lon="-1.29563">
        <ele>25</ele>
        <time>2016-11-13T11:29:01Z</time>
      </trkpt>
      <trkpt lat="47.35379" lon="-1.29573">
        <ele>25</ele>
        <time>2016-11-13T11:31:01Z</time>
      </trkpt>
      <trkpt lat="47.35384" lon="-1.29578">
        <ele>24</ele>
        <time>2016-11-13T11:33:01Z</time>
      </trkpt>
      <trkpt lat="47.35387" lon="-1.2958">
        <ele>24</ele>
        <time>2016-11-13T11:35:01Z</time>
      </trkpt>
      <trkpt lat="47.35395" lon="-1.29584">
        <ele>23</ele>
        <time>2016-11-13T11:37:01Z</time>
      </trkpt>
      <trkpt lat="47.354" lon="-1.29584">
        <ele>22</ele>
        <time>2016-11-13T11:39:01Z</time>
      </trkpt>
      <trkpt lat="47.35405" lon="-1.29588">
        <ele>22</ele>
        <time>2016-11-13T11:41:01Z</time>
      </trkpt>
      <trkpt lat="47.35414" lon="-1.2959">
        <ele>21</ele>
        <time>2016-11-13T11:43:01Z</time>
      </trkpt>
      <trkpt lat="47.35422" lon="-1.2959">
        <ele>20</ele>
        <time>2016-11-13T11:45:01Z</time>
      </trkpt>
      <trkpt lat="47.35431" lon="-1.2959">
        <ele>20</ele>
        <time>2016-11-13T11:47:01Z</time>
      </trkpt>
      <trkpt lat="47.35434" lon="-1.2959">
        <ele>20</ele>
        <time>2016-11-13T11:49:01Z</time>
      </trkpt>
      <trkpt lat="47.35441" lon="-1.29591">
        <ele>20</ele>
        <time>2016-11-13T11:51:01Z</time>
      </trkpt>
      <trkpt lat="47.35443" lon="-1.29592">
        <ele>20</ele>
        <time>2016-11-13T11:53:01Z</time>
      </trkpt>
      <trkpt lat="47.35451" lon="-1.29594">
        <ele>20</ele>
        <time>2016-11-13T11:55:01Z</time>
      </trkpt>
      <trkpt lat="47.35456" lon="-1.29592">
        <ele>20</ele>
        <time>2016-11-13T11:57:01Z</time>
      </trkpt>
      <trkpt lat="47.3546" lon="-1.29592">
        <ele>19</ele>
        <time>2016-11-13T11:59:01Z</time>
      </trkpt>
      <trkpt lat="47.35462" lon="-1.29591">
        <ele>19</ele>
        <time>2016-11-13T12:01:01Z</time>
      </trkpt>
      <trkpt lat="47.35471" lon="-1.29587">
        <ele>18</ele>
        <time>2016-11-13T12:03:01Z</time>
      </trkpt>
      <trkpt lat="47.35475" lon="-1.29586">
        <ele>18</ele>
        <time>2016-11-13T12:05:01Z</time>
      </trkpt>
      <trkpt lat="47.35475" lon="-1.29584">
        <ele>18</ele>
        <time>2016-11-13T12:07:01Z</time>
      </trkpt>
      <trkpt lat="47.3548" lon="-1.29582">
        <ele>17</ele>
        <time>2016-11-13T12:09:01Z</time>
      </trkpt>
      <trkpt lat="47.35482" lon="-1.29582">
        <ele>17</ele>
        <time>2016-11-13T12:11:01Z</time>
      </trkpt>
      <trkpt lat="47.35496" lon="-1.29565">
        <ele>16</ele>
        <time>2016-11-13T12:13:01Z</time>
      </trkpt>
      <trkpt lat="47.35503" lon="-1.29553">
        <ele>15</ele>
        <time>2016-11-13T12:15:01Z</time>
      </trkpt>
      <trkpt lat="47.35511" lon="-1.29543">
        <ele>14</ele>
        <time>2016-11-13T12:17:01Z</time>
      </trkpt>
      <trkpt lat="47.35521" lon="-1.29535">
        <ele>14</ele>
        <time>2016-11-13T12:19:01Z</time>
      </trkpt>
      <trkpt lat="47.35532" lon="-1.29527">
        <ele>13</ele>
        <time>2016-11-13T12:21:01Z</time>
      </trkpt>
      <trkpt lat="47.35534" lon="-1.29524">
        <ele>13</ele>
        <time>2016-11-13T12:23:01Z</time>
      </trkpt>
      <trkpt lat="47.35536" lon="-1.29519">
        <ele>13</ele>
        <time>2016-11-13T12:25:01Z</time>
      </trkpt>
      <trkpt lat="47.35543" lon="-1.29512">
        <ele>13</ele>
        <time>2016-11-13T12:27:01Z</time>
      </trkpt>
      <trkpt lat="47.35555" lon="-1.29503">
        <ele>12</ele>
        <time>2016-11-13T12:29:01Z</time>
      </trkpt>
      <trkpt lat="47.3556" lon="-1.29497">
        <ele>12</ele>
        <time>2016-11-13T12:31:01Z</time>
      </trkpt>
      <trkpt lat="47.35567" lon="-1.29494">
        <ele>12</ele>
        <time>2016-11-13T12:33:01Z</time>
      </trkpt>
      <trkpt lat="47.3557" lon="-1.2949">
        <ele>13</ele>
        <time>2016-11-13T12:35:01Z</time>
      </trkpt>
      <trkpt lat="47.3557" lon="-1.29488">
        <ele>13</ele>
        <time>2016-11-13T12:37:01Z</time>
      </trkpt>
      <trkpt lat="47.35574" lon="-1.29481">
        <ele>13</ele>
        <time>2016-11-13T12:39:01Z</time>
      </trkpt>
      <trkpt lat="47.35579" lon="-1.29474">
        <ele>13</ele>
        <time>2016-11-13T12:41:01Z</time>
      </trkpt>
      <trkpt lat="47.35582" lon="-1.29472">
        <ele>13</ele>
        <time>2016-11-13T12:43:01Z</time>
      </trkpt>
      <trkpt lat="47.35586" lon="-1.29467">
        <ele>13</ele>
        <time>2016-11-13T12:45:01Z</time>
      </trkpt>
      <trkpt lat="47.35603" lon="-1.29462">
        <ele>13</ele>
        <time>2016-11-13T12:47:01Z</time>
      </trkpt>
      <trkpt lat="47.35606" lon="-1.2946">
        <ele>13</ele>
        <time>2016-11-13T12:49:01Z</time>
      </trkpt>
      <trkpt lat="47.35607" lon="-1.29458">
        <ele>13</ele>
        <time>2016-11-13T12:51:01Z</time>
      </trkpt>
      <trkpt lat="47.35611" lon="-1.29451">
        <ele>12</ele>
        <time>2016-11-13T12:53:01Z</time>
      </trkpt>
      <trkpt lat="47.35616" lon="-1.29445">
        <ele>12</ele>
        <time>2016-11-13T12:55:01Z</time>
      </trkpt>
      <trkpt lat="47.35635" lon="-1.29429">
        <ele>11</ele>
        <time>2016-11-13T12:57:01Z</time>
      </trkpt>
      <trkpt lat="47.35643" lon="-1.29423">
        <ele>11</ele>
        <time>2016-11-13T12:59:01Z</time>
      </trkpt>
      <trkpt lat="47.35645" lon="-1.29418">
        <ele>11</ele>
        <time>2016-11-13T13:01:01Z</time>
      </trkpt>
      <trkpt lat="47.35647" lon="-1.29418">
        <ele>11</ele>
        <time>2016-11-13T13:03:01Z</time>
      </trkpt>
      <trkpt lat="47.35651" lon="-1.29412">
        <ele>10</ele>
        <time>2016-11-13T13:05:01Z</time>
      </trkpt>
      <trkpt lat="47.3566" lon="-1.29406">
        <ele>10</ele>
        <time>2016-11-13T13:07:01Z</time>
      </trkpt>
      <trkpt lat="47.35675" lon="-1.294">
        <ele>11</ele>
        <time>2016-11-13T13:09:01Z</time>
      </trkpt>
      <trkpt lat="47.35688" lon="-1.29396">
        <ele>11</ele>
        <time>2016-11-13T13:11:01Z</time>
      </trkpt>
      <trkpt lat="47.35693" lon="-1.29393">
        <ele>12</ele>
        <time>2016-11-13T13:13:01Z</time>
      </trkpt>
      <trkpt lat="47.35697" lon="-1.29388">
        <ele>12</ele>
        <time>2016-11-13T13:15:01Z</time>
      </trkpt>
      <trkpt lat="47.35701" lon="-1.29379">
        <ele>12</ele>
        <time>2016-11-13T13:17:01Z</time>
      </trkpt>
      <trkpt lat="47.35702" lon="-1.29378">
        <ele>12</ele>
        <time>2016-11-13T13:19:01Z</time>
      </trkpt>
      <trkpt lat="47.35706" lon="-1.29373">
        <ele>12</ele>
        <time>2016-11-13T13:21:01Z</time>
      </trkpt>
      <trkpt lat="47.3571" lon="-1.29371">
        <ele>12</ele>
        <time>2016-11-13T13:23:01Z</time>
      </trkpt>
      <trkpt lat="47.35715" lon="-1.2937">
        <ele>12</ele>
        <time>2016-11-13T13:25:01Z</time>
      </trkpt>
      <trkpt lat="47.35727" lon="-1.29368">
        <ele>12</ele>
        <time>2016-11-13T13:27:01Z</time>
      </trkpt>
      <trkpt lat="47.3574" lon="-1.29362">
        <ele>12</ele>
        <time>2016-11-13T13:29:01Z</time>
      </trkpt>
      <trkpt lat="47.35742" lon="-1.29359">
        <ele>12</ele>
        <time>2016-11-13T13:31:01Z</time>
      </trkpt>
      <trkpt lat="47.35747" lon="-1.29339">
        <ele>10</ele>
        <time>2016-11-13T13:33:01Z</time>
      </trkpt>
      <trkpt lat="47.35748" lon="-1.2933">
        <ele>10</ele>
        <time>2016-11-13T13:35:01Z</time>
      </trkpt>
      <trkpt lat="47.3575" lon="-1.29325">
        <ele>10</ele>
        <time>2016-11-13T13:37:01Z</time>
      </trkpt>
      <trkpt lat="47.35756" lon="-1.29326">
        <ele>11</ele>
        <time>2016-11-13T13:39:01Z</time>
      </trkpt>
      <trkpt lat="47.35762" lon="-1.29335">
        <ele>12</ele>
        <time>2016-11-13T13:41:01Z</time>
      </trkpt>
      <trkpt lat="47.35762" lon="-1.29337">
        <ele>12</ele>
        <time>2016-11-13T13:43:01Z</time>
      </trkpt>
      <trkpt lat="47.35766" lon="-1.29344">
        <ele>14</ele>
        <time>2016-11-13T13:45:01Z</time>
      </trkpt>
      <trkpt lat="47.35768" lon="-1.29346">
        <ele>14</ele>
        <time>2016-11-13T13:47:01Z</time>
      </trkpt>
      <trkpt lat="47.3577" lon="-1.29356">
        <ele>15</ele>
        <time>2016-11-13T13:49:01Z</time>
      </trkpt>
      <trkpt lat="47.35778" lon="-1.29365">
        <ele>18</ele>
        <time>2016-11-13T13:51:01Z</time>
      </trkpt>
      <trkpt lat="47.35787" lon="-1.29376">
        <ele>20</ele>
        <time>2016-11-13T13:53:01Z</time>
      </trkpt>
      <trkpt lat="47.35787" lon="-1.29378">
        <ele>20</ele>
        <time>2016-11-13T13:55:01Z</time>
      </trkpt>
      <trkpt lat="47.35788" lon="-1.29383">
        <ele>21</ele>
        <time>2016-11-13T13:57:01Z</time>
      </trkpt>
      <trkpt lat="47.35794" lon="-1.29393">
        <ele>23</ele>
        <time>2016-11-13T13:59:01Z</time>
      </trkpt>
      <trkpt lat="47.35795" lon="-1.29396">
        <ele>24</ele>
        <time>2016-11-13T14:01:01Z</time>
      </trkpt>
      <trkpt lat="47.35798" lon="-1.29402">
        <ele>25</ele>
        <time>2016-11-13T14:03:01Z</time>
      </trkpt>
      <trkpt lat="47.35799" lon="-1.29403">
        <ele>25</ele>
        <time>2016-11-13T14:05:01Z</time>
      </trkpt>
      <trkpt lat="47.35804" lon="-1.29411">
        <ele>27</ele>
        <time>2016-11-13T14:07:01Z</time>
      </trkpt>
      <trkpt lat="47.35819" lon="-1.2944">
        <ele>31</ele>
        <time>2016-11-13T14:09:01Z</time>
      </trkpt>
      <trkpt lat="47.35825" lon="-1.2945">
        <ele>33</ele>
        <time>2016-11-13T14:11:01Z</time>
      </trkpt>
      <trkpt lat="47.3583" lon="-1.29465">
        <ele>34</ele>
        <time>2016-11-13T14:13:01Z</time>
      </trkpt>
      <trkpt lat="47.35834" lon="-1.29475">
        <ele>35</ele>
        <time>2016-11-13T14:15:01Z</time>
      </trkpt>
      <trkpt lat="47.35838" lon="-1.29485">
        <ele>36</ele>
        <time>2016-11-13T14:17:01Z</time>
      </trkpt>
      <trkpt lat="47.35843" lon="-1.29497">
        <ele>37</ele>
        <time>2016-11-13T14:19:01Z</time>
      </trkpt>
      <trkpt lat="47.35847" lon="-1.2951">
        <ele>37</ele>
        <time>2016-11-13T14:21:01Z</time>
      </trkpt>
      <trkpt lat="47.35853" lon="-1.29522">
        <ele>38</ele>
        <time>2016-11-13T14:23:01Z</time>
      </trkpt>
      <trkpt lat="47.35858" lon="-1.29534">
        <ele>39</ele>
        <time>2016-11-13T14:25:01Z</time>
      </trkpt>
      <trkpt lat="47.35863" lon="-1.29543">
        <ele>40</ele>
        <time>2016-11-13T14:27:01Z</time>
      </trkpt>
      <trkpt lat="47.35866" lon="-1.29544">
        <ele>40</ele>
        <time>2016-11-13T14:29:01Z</time>
      </trkpt>
      <trkpt lat="47.3587" lon="-1.29546">
        <ele>40</ele>
        <time>2016-11-13T14:31:01Z</time>
      </trkpt>
      <trkpt lat="47.35885" lon="-1.29534">
        <ele>41</ele>
        <time>2016-11-13T14:33:01Z</time>
      </trkpt>
      <trkpt lat="47.3589" lon="-1.29527">
        <ele>42</ele>
        <time>2016-11-13T14:35:01Z</time>
      </trkpt>
      <trkpt lat="47.35898" lon="-1.29516">
        <ele>42</ele>
        <time>2016-11-13T14:37:01Z</time>
      </trkpt>
      <trkpt lat="47.35906" lon="-1.29505">
        <ele>42</ele>
        <time>2016-11-13T14:39:01Z</time>
      </trkpt>
      <trkpt lat="47.35912" lon="-1.29496">
        <ele>43</ele>
        <time>2016-11-13T14:41:01Z</time>
      </trkpt>
      <trkpt lat="47.35914" lon="-1.29485">
        <ele>43</ele>
        <time>2016-11-13T14:43:01Z</time>
      </trkpt>
      <trkpt lat="47.35914" lon="-1.2948">
        <ele>43</ele>
        <time>2016-11-13T14:45:01Z</time>
      </trkpt>
      <trkpt lat="47.35915" lon="-1.29476">
        <ele>43</ele>
        <time>2016-11-13T14:47:01Z</time>
      </trkpt>
      <trkpt lat="47.35903" lon="-1.29442">
        <ele>41</ele>
        <time>2016-11-13T14:49:01Z</time>
      </trkpt>
      <trkpt lat="47.35895" lon="-1.29422">
        <ele>40</ele>
        <time>2016-11-13T14:51:01Z</time>
      </trkpt>
      <trkpt lat="47.35889" lon="-1.29407">
        <ele>38</ele>
        <time>2016-11-13T14:53:01Z</time>
      </trkpt>
      <trkpt lat="47.35888" lon="-1.29405">
        <ele>38</ele>
        <time>2016-11-13T14:55:01Z</time>
      </trkpt>
      <trkpt lat="47.35888" lon="-1.29397">
        <ele>37</ele>
        <time>2016-11-13T14:57:01Z</time>
      </trkpt>
      <trkpt lat="47.35889" lon="-1.2939">
        <ele>37</ele>
        <time>2016-11-13T14:59:01Z</time>
      </trkpt>
      <trkpt lat="47.35893" lon="-1.29382">
        <ele>36</ele>
        <time>2016-11-13T15:01:01Z</time>
      </trkpt>
      <trkpt lat="47.359" lon="-1.29376">
        <ele>37</ele>
        <time>2016-11-13T15:03:01Z</time>
      </trkpt>
      <trkpt lat="47.35902" lon="-1.29376">
        <ele>37</ele>
        <time>2016-11-13T15:05:01Z</time>
      </trkpt>
      <trkpt lat="47.35913" lon="-1.29368">
        <ele>37</ele>
        <time>2016-11-13T15:07:01Z</time>
      </trkpt>
      <trkpt lat="47.35917" lon="-1.29364">
        <ele>38</ele>
        <time>2016-11-13T15:09:01Z</time>
      </trkpt>
      <trkpt lat="47.35919" lon="-1.29363">
        <ele>37</ele>
        <time>2016-11-13T15:11:01Z</time>
      </trkpt>
      <trkpt lat="47.35921" lon="-1.2936">
        <ele>37</ele>
        <time>2016-11-13T15:13:01Z</time>
      </trkpt>
      <trkpt lat="47.35922" lon="-1.2936">
        <ele>37</ele>
        <time>2016-11-13T15:15:01Z</time>
      </trkpt>
      <trkpt lat="47.3593" lon="-1.29357">
        <ele>37</ele>
        <time>2016-11-13T15:17:01Z</time>
      </trkpt>
      <trkpt lat="47.35937" lon="-1.29349">
        <ele>36</ele>
        <time>2016-11-13T15:19:01Z</time>
      </trkpt>
      <trkpt lat="47.35945" lon="-1.29343">
        <ele>35</ele>
        <time>2016-11-13T15:21:01Z</time>
      </trkpt>
      <trkpt lat="47.35949" lon="-1.29341">
        <ele>35</ele>
        <time>2016-11-13T15:23:01Z</time>
      </trkpt>
      <trkpt lat="47.35958" lon="-1.29334">
        <ele>34</ele>
        <time>2016-11-13T15:25:01Z</time>
      </trkpt>
      <trkpt lat="47.35969" lon="-1.29325">
        <ele>33</ele>
        <time>2016-11-13T15:27:01Z</time>
      </trkpt>
      <trkpt lat="47.35975" lon="-1.29322">
        <ele>32</ele>
        <time>2016-11-13T15:29:01Z</time>
      </trkpt>
      <trkpt lat="47.35984" lon="-1.29316">
        <ele>31</ele>
        <time>2016-11-13T15:31:01Z</time>
      </trkpt>
      <trkpt lat="47.3599" lon="-1.29308">
        <ele>30</ele>
        <time>2016-11-13T15:33:01Z</time>
      </trkpt>
      <trkpt lat="47.35992" lon="-1.29296">
        <ele>28</ele>
        <time>2016-11-13T15:35:01Z</time>
      </trkpt>
      <trkpt lat="47.35993" lon="-1.29298">
        <ele>29</ele>
        <time>2016-11-13T15:37:01Z</time>
      </trkpt>
      <trkpt lat="47.35996" lon="-1.29298">
        <ele>29</ele>
        <time>2016-11-13T15:39:01Z</time>
      </trkpt>
      <trkpt lat="47.36" lon="-1.29301">
        <ele>29</ele>
        <time>2016-11-13T15:41:01Z</time>
      </trkpt>
      <trkpt lat="47.36006" lon="-1.29298">
        <ele>29</ele>
        <time>2016-11-13T15:43:01Z</time>
      </trkpt>
      <trkpt lat="47.36014" lon="-1.29299">
        <ele>30</ele>
        <time>2016-11-13T15:45:01Z</time>
      </trkpt>
      <trkpt lat="47.36016" lon="-1.29297">
        <ele>30</ele>
        <time>2016-11-13T15:47:01Z</time>
      </trkpt>
      <trkpt lat="47.36018" lon="-1.29296">
        <ele>30</ele>
        <time>2016-11-13T15:49:01Z</time>
      </trkpt>
      <trkpt lat="47.36023" lon="-1.29289">
        <ele>29</ele>
        <time>2016-11-13T15:51:01Z</time>
      </trkpt>
      <trkpt lat="47.36023" lon="-1.29287">
        <ele>29</ele>
        <time>2016-11-13T15:53:01Z</time>
      </trkpt>
      <trkpt lat="47.36025" lon="-1.29278">
        <ele>29</ele>
        <time>2016-11-13T15:55:01Z</time>
      </trkpt>
      <trkpt lat="47.36023" lon="-1.29272">
        <ele>28</ele>
        <time>2016-11-13T15:57:01Z</time>
      </trkpt>
      <trkpt lat="47.36023" lon="-1.29266">
        <ele>28</ele>
        <time>2016-11-13T15:59:01Z</time>
      </trkpt>
      <trkpt lat="47.36015" lon="-1.29259">
        <ele>26</ele>
        <time>2016-11-13T16:01:01Z</time>
      </trkpt>
      <trkpt lat="47.36014" lon="-1.29258">
        <ele>26</ele>
        <time>2016-11-13T16:03:01Z</time>
      </trkpt>
      <trkpt lat="47.36011" lon="-1.29251">
        <ele>25</ele>
        <time>2016-11-13T16:05:01Z</time>
      </trkpt>
      <trkpt lat="47.36011" lon="-1.29242">
        <ele>24</ele>
        <time>2016-11-13T16:07:01Z</time>
      </trkpt>
      <trkpt lat="47.3601" lon="-1.29228">
        <ele>22</ele>
        <time>2016-11-13T16:09:01Z</time>
      </trkpt>
      <trkpt lat="47.36007" lon="-1.29211">
        <ele>20</ele>
        <time>2016-11-13T16:11:01Z</time>
      </trkpt>
      <trkpt lat="47.36003" lon="-1.29196">
        <ele>18</ele>
        <time>2016-11-13T16:13:01Z</time>
      </trkpt>
      <trkpt lat="47.36003" lon="-1.29181">
        <ele>16</ele>
        <time>2016-11-13T16:15:01Z</time>
      </trkpt>
      <trkpt lat="47.36005" lon="-1.2917">
        <ele>16</ele>
        <time>2016-11-13T16:17:01Z</time>
      </trkpt>
      <trkpt lat="47.36005" lon="-1.29168">
        <ele>15</ele>
        <time>2016-11-13T16:19:01Z</time>
      </trkpt>
      <trkpt lat="47.3601" lon="-1.29165">
        <ele>16</ele>
        <time>2016-11-13T16:21:01Z</time>
      </trkpt>
      <trkpt lat="47.36025" lon="-1.29159">
        <ele>19</ele>
        <time>2016-11-13T16:23:01Z</time>
      </trkpt>
      <trkpt lat="47.36026" lon="-1.29158">
        <ele>19</ele>
        <time>2016-11-13T16:25:01Z</time>
      </trkpt>
      <trkpt lat="47.36027" lon="-1.29157">
        <ele>19</ele>
        <time>2016-11-13T16:27:01Z</time>
      </trkpt>
      <trkpt lat="47.36044" lon="-1.2914">
        <ele>21</ele>
        <time>2016-11-13T16:29:01Z</time>
      </trkpt>
      <trkpt lat="47.36043" lon="-1.29136">
        <ele>21</ele>
        <time>2016-11-13T16:31:01Z</time>
      </trkpt>
      <trkpt lat="47.36045" lon="-1.29132">
        <ele>21</ele>
        <time>2016-11-13T16:33:01Z</time>
      </trkpt>
      <trkpt lat="47.36047" lon="-1.29128">
        <ele>20</ele>
        <time>2016-11-13T16:35:01Z</time>
      </trkpt>
      <trkpt lat="47.36051" lon="-1.29125">
        <ele>21</ele>
        <time>2016-11-13T16:37:01Z</time>
      </trkpt>
      <trkpt lat="47.36052" lon="-1.29125">
        <ele>21</ele>
        <time>2016-11-13T16:39:01Z</time>
      </trkpt>
      <trkpt lat="47.36057" lon="-1.29124">
        <ele>22</ele>
        <time>2016-11-13T16:41:01Z</time>
      </trkpt>
      <trkpt lat="47.3606" lon="-1.29121">
        <ele>22</ele>
        <time>2016-11-13T16:43:01Z</time>
      </trkpt>
      <trkpt lat="47.36063" lon="-1.29116">
        <ele>22</ele>
        <time>2016-11-13T16:45:01Z</time>
      </trkpt>
      <trkpt lat="47.36068" lon="-1.2911">
        <ele>22</ele>
        <time>2016-11-13T16:47:01Z</time>
      </trkpt>
      <trkpt lat="47.3607" lon="-1.29106">
        <ele>22</ele>
        <time>2016-11-13T16:49:01Z</time>
      </trkpt>
      <trkpt lat="47.36075" lon="-1.29099">
        <ele>21</ele>
        <time>2016-11-13T16:51:01Z</time>
      </trkpt>
      <trkpt lat="47.36076" lon="-1.29096">
        <ele>21</ele>
        <time>2016-11-13T16:53:01Z</time>
      </trkpt>
      <trkpt lat="47.36078" lon="-1.29093">
        <ele>21</ele>
        <time>2016-11-13T16:55:01Z</time>
      </trkpt>
      <trkpt lat="47.36082" lon="-1.29084">
        <ele>20</ele>
        <time>2016-11-13T16:57:01Z</time>
      </trkpt>
      <trkpt lat="47.36084" lon="-1.29073">
        <ele>19</ele>
        <time>2016-11-13T16:59:01Z</time>
      </trkpt>
      <trkpt lat="47.36084" lon="-1.2907">
        <ele>19</ele>
        <time>2016-11-13T17:01:01Z</time>
      </trkpt>
      <trkpt lat="47.36085" lon="-1.29066">
        <ele>18</ele>
        <time>2016-11-13T17:03:01Z</time>
      </trkpt>
      <trkpt lat="47.36087" lon="-1.29065">
        <ele>19</ele>
        <time>2016-11-13T17:05:01Z</time>
      </trkpt>
      <trkpt lat="47.36091" lon="-1.29055">
        <ele>19</ele>
        <time>2016-11-13T17:07:01Z</time>
      </trkpt>
      <trkpt lat="47.3609" lon="-1.29052">
        <ele>18</ele>
        <time>2016-11-13T17:09:01Z</time>
      </trkpt>
      <trkpt lat="47.36095" lon="-1.29044">
        <ele>19</ele>
        <time>2016-11-13T17:11:01Z</time>
      </trkpt>
      <trkpt lat="47.36102" lon="-1.29033">
        <ele>20</ele>
        <time>2016-11-13T17:13:01Z</time>
      </trkpt>
      <trkpt lat="47.36104" lon="-1.29029">
        <ele>20</ele>
        <time>2016-11-13T17:15:01Z</time>
      </trkpt>
      <trkpt lat="47.36105" lon="-1.29024">
        <ele>20</ele>
        <time>2016-11-13T17:17:01Z</time>
      </trkpt>
      <trkpt lat="47.36106" lon="-1.29022">
        <ele>20</ele>
        <time>2016-11-13T17:19:01Z</time>
      </trkpt>
      <trkpt lat="47.36105" lon="-1.29012">
        <ele>18</ele>
        <time>2016-11-13T17:21:01Z</time>
      </trkpt>
      <trkpt lat="47.36112" lon="-1.29">
        <ele>19</ele>
        <time>2016-11-13T17:23:01Z</time>
      </trkpt>
      <trkpt lat="47.36114" lon="-1.28992">
        <ele>19</ele>
        <time>2016-11-13T17:25:01Z</time>
      </trkpt>
      <trkpt lat="47.36114" lon="-1.28984">
        <ele>19</ele>
        <time>2016-11-13T17:27:01Z</time>
      </trkpt>
      <trkpt lat="47.36115" lon="-1.28979">
        <ele>19</ele>
        <time>2016-11-13T17:29:01Z</time>
      </trkpt>
      <trkpt lat="47.36116" lon="-1.28978">
        <ele>19</ele>
        <time>2016-11-13T17:31:01Z</time>
      </trkpt>
      <trkpt lat="47.36115" lon="-1.28973">
        <ele>18</ele>
        <time>2016-11-13T17:33:01Z</time>
      </trkpt>
      <trkpt lat="47.36107" lon="-1.28982">
        <ele>16</ele>
        <time>2016-11-13T17:35:01Z</time>
      </trkpt>
      <trkpt lat="47.36109" lon="-1.2898">
        <ele>17</ele>
        <time>2016-11-13T17:37:01Z</time>
      </trkpt>
      <trkpt lat="47.3611" lon="-1.28972">
        <ele>17</ele>
        <time>2016-11-13T17:39:01Z</time>
      </trkpt>
      <trkpt lat="47.3611" lon="-1.28969">
        <ele>17</ele>
        <time>2016-11-13T17:41:01Z</time>
      </trkpt>
      <trkpt lat="47.36118" lon="-1.28955">
        <ele>18</ele>
        <time>2016-11-13T17:43:01Z</time>
      </trkpt>
      <trkpt lat="47.36122" lon="-1.28945">
        <ele>18</ele>
        <time>2016-11-13T17:45:01Z</time>
      </trkpt>
      <trkpt lat="47.36128" lon="-1.28936">
        <ele>19</ele>
        <time>2016-11-13T17:47:01Z</time>
      </trkpt>
      <trkpt lat="47.36135" lon="-1.28924">
        <ele>20</ele>
        <time>2016-11-13T17:49:01Z</time>
      </trkpt>
      <trkpt lat="47.36136" lon="-1.28913">
        <ele>19</ele>
        <time>2016-11-13T17:51:01Z</time>
      </trkpt>
      <trkpt lat="47.3614" lon="-1.28908">
        <ele>20</ele>
        <time>2016-11-13T17:53:01Z</time>
      </trkpt>
      <trkpt lat="47.36141" lon="-1.28901">
        <ele>19</ele>
        <time>2016-11-13T17:55:01Z</time>
      </trkpt>
      <trkpt lat="47.36142" lon="-1.28897">
        <ele>19</ele>
        <time>2016-11-13T17:57:01Z</time>
      </trkpt>
      <trkpt lat="47.36143" lon="-1.28895">
        <ele>19</ele>
        <time>2016-11-13T17:59:01Z</time>
      </trkpt>
      <trkpt lat="47.36144" lon="-1.28892">
        <ele>19</ele>
        <time>2016-11-13T18:01:01Z</time>
      </trkpt>
      <trkpt lat="47.36146" lon="-1.28889">
        <ele>19</ele>
        <time>2016-11-13T18:03:01Z</time>
      </trkpt>
      <trkpt lat="47.36148" lon="-1.28887">
        <ele>19</ele>
        <time>2016-11-13T18:05:01Z</time>
      </trkpt>
      <trkpt lat="47.3615" lon="-1.28881">
        <ele>19</ele>
        <time>2016-11-13T18:07:01Z</time>
      </trkpt>
      <trkpt lat="47.36152" lon="-1.2888">
        <ele>19</ele>
        <time>2016-11-13T18:09:01Z</time>
      </trkpt>
      <trkpt lat="47.36157" lon="-1.28869">
        <ele>18</ele>
        <time>2016-11-13T18:11:01Z</time>
      </trkpt>
      <trkpt lat="47.36158" lon="-1.28865">
        <ele>18</ele>
        <time>2016-11-13T18:13:01Z</time>
      </trkpt>
      <trkpt lat="47.36162" lon="-1.2885">
        <ele>16</ele>
        <time>2016-11-13T18:15:01Z</time>
      </trkpt>
      <trkpt lat="47.36169" lon="-1.28841">
        <ele>16</ele>
        <time>2016-11-13T18:17:01Z</time>
      </trkpt>
      <trkpt lat="47.36171" lon="-1.28832">
        <ele>15</ele>
        <time>2016-11-13T18:19:01Z</time>
      </trkpt>
      <trkpt lat="47.36175" lon="-1.28822">
        <ele>15</ele>
        <time>2016-11-13T18:21:01Z</time>
      </trkpt>
      <trkpt lat="47.36176" lon="-1.28816">
        <ele>15</ele>
        <time>2016-11-13T18:23:01Z</time>
      </trkpt>
      <trkpt lat="47.36178" lon="-1.28812">
        <ele>15</ele>
        <time>2016-11-13T18:25:01Z</time>
      </trkpt>
      <trkpt lat="47.3618" lon="-1.28809">
        <ele>16</ele>
        <time>2016-11-13T18:27:01Z</time>
      </trkpt>
      <trkpt lat="47.36181" lon="-1.28806">
        <ele>16</ele>
        <time>2016-11-13T18:29:01Z</time>
      </trkpt>
      <trkpt lat="47.36183" lon="-1.28803">
        <ele>16</ele>
        <time>2016-11-13T18:31:01Z</time>
      </trkpt>
      <trkpt lat="47.36185" lon="-1.28796">
        <ele>15</ele>
        <time>2016-11-13T18:33:01Z</time>
      </trkpt>
      <trkpt lat="47.36189" lon="-1.28791">
        <ele>16</ele>
        <time>2016-11-13T18:35:01Z</time>
      </trkpt>
      <trkpt lat="47.36192" lon="-1.28789">
        <ele>16</ele>
        <time>2016-11-13T18:37:01Z</time>
      </trkpt>
      <trkpt lat="47.36192" lon="-1.28788">
        <ele>16</ele>
        <time>2016-11-13T18:39:01Z</time>
      </trkpt>
      <trkpt lat="47.36191" lon="-1.28783">
        <ele>15</ele>
        <time>2016-11-13T18:41:01Z</time>
      </trkpt>
      <trkpt lat="47.36191" lon="-1.28779">
        <ele>15</ele>
        <time>2016-11-13T18:43:01Z</time>
      </trkpt>
      <trkpt lat="47.36196" lon="-1.28768">
        <ele>14</ele>
        <time>2016-11-13T18:45:01Z</time>
      </trkpt>
      <trkpt lat="47.36199" lon="-1.28765">
        <ele>14</ele>
        <time>2016-11-13T18:47:01Z</time>
      </trkpt>
      <trkpt lat="47.36206" lon="-1.28758">
        <ele>14</ele>
        <time>2016-11-13T18:49:01Z</time>
      </trkpt>
      <trkpt lat="47.3621" lon="-1.28757">
        <ele>15</ele>
        <time>2016-11-13T18:51:01Z</time>
      </trkpt>
      <trkpt lat="47.36212" lon="-1.28753">
        <ele>14</ele>
        <time>2016-11-13T18:53:01Z</time>
      </trkpt>
      <trkpt lat="47.36213" lon="-1.28746">
        <ele>14</ele>
        <time>2016-11-13T18:55:01Z</time>
      </trkpt>
      <trkpt lat="47.36216" lon="-1.28743">
        <ele>14</ele>
        <time>2016-11-13T18:57:01Z</time>
      </trkpt>
      <trkpt lat="47.36221" lon="-1.2874">
        <ele>14</ele>
        <time>2016-11-13T18:59:01Z</time>
      </trkpt>
      <trkpt lat="47.36223" lon="-1.2874">
        <ele>14</ele>
        <time>2016-11-13T19:01:01Z</time>
      </trkpt>
      <trkpt lat="47.36227" lon="-1.28738">
        <ele>14</ele>
        <time>2016-11-13T19:03:01Z</time>
      </trkpt>
      <trkpt lat="47.36236" lon="-1.28734">
        <ele>14</ele>
        <time>2016-11-13T19:05:01Z</time>
      </trkpt>
      <trkpt lat="47.3624" lon="-1.28735">
        <ele>15</ele>
        <time>2016-11-13T19:07:01Z</time>
      </trkpt>
      <trkpt lat="47.36241" lon="-1.28734">
        <ele>15</ele>
        <time>2016-11-13T19:09:01Z</time>
      </trkpt>
      <trkpt lat="47.36251" lon="-1.28724">
        <ele>14</ele>
        <time>2016-11-13T19:11:01Z</time>
      </trkpt>
      <trkpt lat="47.36254" lon="-1.28723">
        <ele>14</ele>
        <time>2016-11-13T19:13:01Z</time>
      </trkpt>
      <trkpt lat="47.36257" lon="-1.28724">
        <ele>14</ele>
        <time>2016-11-13T19:15:01Z</time>
      </trkpt>
      <trkpt lat="47.36265" lon="-1.28723">
        <ele>14</ele>
        <time>2016-11-13T19:17:01Z</time>
      </trkpt>
      <trkpt lat="47.36272" lon="-1.28719">
        <ele>14</ele>
        <time>2016-11-13T19:19:01Z</time>
      </trkpt>
      <trkpt lat="47.36275" lon="-1.28719">
        <ele>14</ele>
        <time>2016-11-13T19:21:01Z</time>
      </trkpt>
      <trkpt lat="47.36284" lon="-1.28717">
        <ele>13</ele>
        <time>2016-11-13T19:23:01Z</time>
      </trkpt>
      <trkpt lat="47.36287" lon="-1.28717">
        <ele>13</ele>
        <time>2016-11-13T19:25:01Z</time>
      </trkpt>
      <trkpt lat="47.36287" lon="-1.28718">
        <ele>13</ele>
        <time>2016-11-13T19:27:01Z</time>
      </trkpt>
      <trkpt lat="47.3629" lon="-1.2872">
        <ele>14</ele>
        <time>2016-11-13T19:29:01Z</time>
      </trkpt>
      <trkpt lat="47.36295" lon="-1.28718">
        <ele>13</ele>
        <time>2016-11-13T19:31:01Z</time>
      </trkpt>
      <trkpt lat="47.36296" lon="-1.28717">
        <ele>13</ele>
        <time>2016-11-13T19:33:01Z</time>
      </trkpt>
      <trkpt lat="47.36301" lon="-1.28716">
        <ele>13</ele>
        <time>2016-11-13T19:35:01Z</time>
      </trkpt>
      <trkpt lat="47.36303" lon="-1.28718">
        <ele>13</ele>
        <time>2016-11-13T19:37:01Z</time>
      </trkpt>
      <trkpt lat="47.36314" lon="-1.28723">
        <ele>14</ele>
        <time>2016-11-13T19:39:01Z</time>
      </trkpt>
      <trkpt lat="47.36331" lon="-1.28719">
        <ele>13</ele>
        <time>2016-11-13T19:41:01Z</time>
      </trkpt>
      <trkpt lat="47.36331" lon="-1.2872">
        <ele>13</ele>
        <time>2016-11-13T19:43:01Z</time>
      </trkpt>
      <trkpt lat="47.3634" lon="-1.28721">
        <ele>13</ele>
        <time>2016-11-13T19:45:01Z</time>
      </trkpt>
      <trkpt lat="47.36345" lon="-1.28723">
        <ele>13</ele>
        <time>2016-11-13T19:47:01Z</time>
      </trkpt>
      <trkpt lat="47.3635" lon="-1.28731">
        <ele>13</ele>
        <time>2016-11-13T19:49:01Z</time>
      </trkpt>
      <trkpt lat="47.36353" lon="-1.28742">
        <ele>14</ele>
        <time>2016-11-13T19:51:01Z</time>
      </trkpt>
      <trkpt lat="47.3635" lon="-1.28762">
        <ele>17</ele>
        <time>2016-11-13T19:53:01Z</time>
      </trkpt>
      <trkpt lat="47.36355" lon="-1.28761">
        <ele>16</ele>
        <time>2016-11-13T19:55:01Z</time>
      </trkpt>
      <trkpt lat="47.36364" lon="-1.2876">
        <ele>14</ele>
        <time>2016-11-13T19:57:01Z</time>
      </trkpt>
      <trkpt lat="47.36369" lon="-1.28755">
        <ele>13</ele>
        <time>2016-11-13T19:59:01Z</time>
      </trkpt>
      <trkpt lat="47.3637" lon="-1.28754">
        <ele>13</ele>
        <time>2016-11-13T20:01:01Z</time>
      </trkpt>
      <trkpt lat="47.36372" lon="-1.28745">
        <ele>12</ele>
        <time>2016-11-13T20:03:01Z</time>
      </trkpt>
      <trkpt lat="47.36372" lon="-1.28735">
        <ele>11</ele>
        <time>2016-11-13T20:05:01Z</time>
      </trkpt>
      <trkpt lat="47.3637" lon="-1.28717">
        <ele>10</ele>
        <time>2016-11-13T20:07:01Z</time>
      </trkpt>
      <trkpt lat="47.36367" lon="-1.28702">
        <ele>9</ele>
        <time>2016-11-13T20:09:01Z</time>
      </trkpt>
      <trkpt lat="47.36366" lon="-1.2869">
        <ele>8</ele>
        <time>2016-11-13T20:11:01Z</time>
      </trkpt>
      <trkpt lat="47.36366" lon="-1.28688">
        <ele>8</ele>
        <time>2016-11-13T20:13:01Z</time>
      </trkpt>
      <trkpt lat="47.36367" lon="-1.28682">
        <ele>8</ele>
        <time>2016-11-13T20:15:01Z</time>
      </trkpt>
      <trkpt lat="47.36365" lon="-1.28674">
        <ele>7</ele>
        <time>2016-11-13T20:17:01Z</time>
      </trkpt>
      <trkpt lat="47.36365" lon="-1.28672">
        <ele>7</ele>
        <time>2016-11-13T20:19:01Z</time>
      </trkpt>
      <trkpt lat="47.36363" lon="-1.28663">
        <ele>7</ele>
        <time>2016-11-13T20:21:01Z</time>
      </trkpt>
      <trkpt lat="47.36362" lon="-1.2865">
        <ele>8</ele>
        <time>2016-11-13T20:23:01Z</time>
      </trkpt>
      <trkpt lat="47.36362" lon="-1.28641">
        <ele>9</ele>
        <time>2016-11-13T20:25:01Z</time>
      </trkpt>
      <trkpt lat="47.36359" lon="-1.28629">
        <ele>10</ele>
        <time>2016-11-13T20:27:01Z</time>
      </trkpt>
      <trkpt lat="47.36354" lon="-1.2862">
        <ele>11</ele>
        <time>2016-11-13T20:29:01Z</time>
      </trkpt>
      <trkpt lat="47.36346" lon="-1.28612">
        <ele>11</ele>
        <time>2016-11-13T20:31:01Z</time>
      </trkpt>
      <trkpt lat="47.36333" lon="-1.28604">
        <ele>12</ele>
        <time>2016-11-13T20:33:01Z</time>
      </trkpt>
      <trkpt lat="47.36321" lon="-1.28602">
        <ele>11</ele>
        <time>2016-11-13T20:35:01Z</time>
      </trkpt>
      <trkpt lat="47.36308" lon="-1.28602">
        <ele>11</ele>
        <time>2016-11-13T20:37:01Z</time>
      </trkpt>
      <trkpt lat="47.36297" lon="-1.28601">
        <ele>11</ele>
        <time>2016-11-13T20:39:01Z</time>
      </trkpt>
      <trkpt lat="47.36289" lon="-1.28601">
        <ele>11</ele>
        <time>2016-11-13T20:41:01Z</time>
      </trkpt>
      <trkpt lat="47.36276" lon="-1.28603">
        <ele>10</ele>
        <time>2016-11-13T20:43:01Z</time>
      </trkpt>
      <trkpt lat="47.36274" lon="-1.28603">
        <ele>10</ele>
        <time>2016-11-13T20:45:01Z</time>
      </trkpt>
      <trkpt lat="47.36272" lon="-1.28604">
        <ele>10</ele>
        <time>2016-11-13T20:47:01Z</time>
      </trkpt>
      <trkpt lat="47.36269" lon="-1.28585">
        <ele>11</ele>
        <time>2016-11-13T20:49:01Z</time>
      </trkpt>
      <trkpt lat="47.36266" lon="-1.28572">
        <ele>13</ele>
        <time>2016-11-13T20:51:01Z</time>
      </trkpt>
      <trkpt lat="47.36267" lon="-1.28571">
        <ele>13</ele>
        <time>2016-11-13T20:53:01Z</time>
      </trkpt>
      <trkpt lat="47.36266" lon="-1.28566">
        <ele>15</ele>
        <time>2016-11-13T20:55:01Z</time>
      </trkpt>
      <trkpt lat="47.36266" lon="-1.28563">
        <ele>15</ele>
        <time>2016-11-13T20:57:01Z</time>
      </trkpt>
      <trkpt lat="47.36266" lon="-1.2856">
        <ele>16</ele>
        <time>2016-11-13T20:59:01Z</time>
      </trkpt>
      <trkpt lat="47.36265" lon="-1.2855">
        <ele>18</ele>
        <time>2016-11-13T21:01:01Z</time>
      </trkpt>
      <trkpt lat="47.36266" lon="-1.28539">
        <ele>21</ele>
        <time>2016-11-13T21:03:01Z</time>
      </trkpt>
      <trkpt lat="47.36263" lon="-1.28532">
        <ele>22</ele>
        <time>2016-11-13T21:05:01Z</time>
      </trkpt>
      <trkpt lat="47.36264" lon="-1.28518">
        <ele>26</ele>
        <time>2016-11-13T21:07:01Z</time>
      </trkpt>
      <trkpt lat="47.36264" lon="-1.28516">
        <ele>26</ele>
        <time>2016-11-13T21:09:01Z</time>
      </trkpt>
      <trkpt lat="47.36264" lon="-1.28505">
        <ele>29</ele>
        <time>2016-11-13T21:11:01Z</time>
      </trkpt>
      <trkpt lat="47.36264" lon="-1.28493">
        <ele>30</ele>
        <time>2016-11-13T21:13:01Z</time>
      </trkpt>
      <trkpt lat="47.36265" lon="-1.28489">
        <ele>31</ele>
        <time>2016-11-13T21:15:01Z</time>
      </trkpt>
      <trkpt lat="47.36259" lon="-1.28481">
        <ele>31</ele>
        <time>2016-11-13T21:17:01Z</time>
      </trkpt>
      <trkpt lat="47.36256" lon="-1.2847">
        <ele>32</ele>
        <time>2016-11-13T21:19:01Z</time>
      </trkpt>
      <trkpt lat="47.36253" lon="-1.28464">
        <ele>32</ele>
        <time>2016-11-13T21:21:01Z</time>
      </trkpt>
      <trkpt lat="47.36249" lon="-1.28453">
        <ele>33</ele>
        <time>2016-11-13T21:23:01Z</time>
      </trkpt>
      <trkpt lat="47.36248" lon="-1.28446">
        <ele>34</ele>
        <time>2016-11-13T21:25:01Z</time>
      </trkpt>
      <trkpt lat="47.36251" lon="-1.28438">
        <ele>35</ele>
        <time>2016-11-13T21:27:01Z</time>
      </trkpt>
      <trkpt lat="47.36251" lon="-1.28435">
        <ele>35</ele>
        <time>2016-11-13T21:29:01Z</time>
      </trkpt>
      <trkpt lat="47.36249" lon="-1.28422">
        <ele>37</ele>
        <time>2016-11-13T21:31:01Z</time>
      </trkpt>
      <trkpt lat="47.36248" lon="-1.28416">
        <ele>37</ele>
        <time>2016-11-13T21:33:01Z</time>
      </trkpt>
      <trkpt lat="47.36246" lon="-1.28413">
        <ele>38</ele>
        <time>2016-11-13T21:35:01Z</time>
      </trkpt>
      <trkpt lat="47.36243" lon="-1.28404">
        <ele>39</ele>
        <time>2016-11-13T21:37:01Z</time>
      </trkpt>
      <trkpt lat="47.36243" lon="-1.28399">
        <ele>39</ele>
        <time>2016-11-13T21:39:01Z</time>
      </trkpt>
      <trkpt lat="47.36243" lon="-1.28394">
        <ele>40</ele>
        <time>2016-11-13T21:41:01Z</time>
      </trkpt>
      <trkpt lat="47.36238" lon="-1.28388">
        <ele>41</ele>
        <time>2016-11-13T21:43:01Z</time>
      </trkpt>
      <trkpt lat="47.36238" lon="-1.28387">
        <ele>41</ele>
        <time>2016-11-13T21:45:01Z</time>
      </trkpt>
      <trkpt lat="47.36231" lon="-1.28379">
        <ele>42</ele>
        <time>2016-11-13T21:47:01Z</time>
      </trkpt>
      <trkpt lat="47.36225" lon="-1.28379">
        <ele>43</ele>
        <time>2016-11-13T21:49:01Z</time>
      </trkpt>
      <trkpt lat="47.36211" lon="-1.28373">
        <ele>44</ele>
        <time>2016-11-13T21:51:01Z</time>
      </trkpt>
      <trkpt lat="47.3621" lon="-1.28372">
        <ele>44</ele>
        <time>2016-11-13T21:53:01Z</time>
      </trkpt>
      <trkpt lat="47.36207" lon="-1.2837">
        <ele>44</ele>
        <time>2016-11-13T21:55:01Z</time>
      </trkpt>
      <trkpt lat="47.36201" lon="-1.28363">
        <ele>45</ele>
        <time>2016-11-13T21:57:01Z</time>
      </trkpt>
      <trkpt lat="47.36196" lon="-1.2836">
        <ele>46</ele>
        <time>2016-11-13T21:59:01Z</time>
      </trkpt>
      <trkpt lat="47.3619" lon="-1.28354">
        <ele>46</ele>
        <time>2016-11-13T22:01:01Z</time>
      </trkpt>
      <trkpt lat="47.36183" lon="-1.28346">
        <ele>47</ele>
        <time>2016-11-13T22:03:01Z</time>
      </trkpt>
      <trkpt lat="47.36178" lon="-1.28343">
        <ele>47</ele>
        <time>2016-11-13T22:05:01Z</time>
      </trkpt>
      <trkpt lat="47.3617" lon="-1.2834">
        <ele>48</ele>
        <time>2016-11-13T22:07:01Z</time>
      </trkpt>
      <trkpt lat="47.36141" lon="-1.28322">
        <ele>51</ele>
        <time>2016-11-13T22:09:01Z</time>
      </trkpt>
      <trkpt lat="47.36131" lon="-1.28318">
        <ele>52</ele>
        <time>2016-11-13T22:11:01Z</time>
      </trkpt>
      <trkpt lat="47.36124" lon="-1.28314">
        <ele>53</ele>
        <time>2016-11-13T22:13:01Z</time>
      </trkpt>
      <trkpt lat="47.36116" lon="-1.28307">
        <ele>54</ele>
        <time>2016-11-13T22:15:01Z</time>
      </trkpt>
      <trkpt lat="47.36108" lon="-1.28302">
        <ele>55</ele>
        <time>2016-11-13T22:17:01Z</time>
      </trkpt>
      <trkpt lat="47.36107" lon="-1.28302">
        <ele>55</ele>
        <time>2016-11-13T22:19:01Z</time>
      </trkpt>
      <trkpt lat="47.36103" lon="-1.28298">
        <ele>55</ele>
        <time>2016-11-13T22:21:01Z</time>
      </trkpt>
      <trkpt lat="47.361" lon="-1.28295">
        <ele>55</ele>
        <time>2016-11-13T22:23:01Z</time>
      </trkpt>
      <trkpt lat="47.36093" lon="-1.28278">
        <ele>56</ele>
        <time>2016-11-13T22:25:01Z</time>
      </trkpt>
      <trkpt lat="47.36091" lon="-1.28272">
        <ele>57</ele>
        <time>2016-11-13T22:27:01Z</time>
      </trkpt>
      <trkpt lat="47.36089" lon="-1.28257">
        <ele>58</ele>
        <time>2016-11-13T22:29:01Z</time>
      </trkpt>
      <trkpt lat="47.3609" lon="-1.28256">
        <ele>58</ele>
        <time>2016-11-13T22:31:01Z</time>
      </trkpt>
      <trkpt lat="47.36089" lon="-1.28248">
        <ele>58</ele>
        <time>2016-11-13T22:33:01Z</time>
      </trkpt>
      <trkpt lat="47.3609" lon="-1.28231">
        <ele>58</ele>
        <time>2016-11-13T22:35:01Z</time>
      </trkpt>
      <trkpt lat="47.36091" lon="-1.28212">
        <ele>59</ele>
        <time>2016-11-13T22:37:01Z</time>
      </trkpt>
      <trkpt lat="47.36091" lon="-1.28193">
        <ele>60</ele>
        <time>2016-11-13T22:39:01Z</time>
      </trkpt>
      <trkpt lat="47.36092" lon="-1.28172">
        <ele>60</ele>
        <time>2016-11-13T22:41:01Z</time>
      </trkpt>
      <trkpt lat="47.36092" lon="-1.28154">
        <ele>61</ele>
        <time>2016-11-13T22:43:01Z</time>
      </trkpt>
      <trkpt lat="47.36093" lon="-1.28132">
        <ele>61</ele>
        <time>2016-11-13T22:45:01Z</time>
      </trkpt>
      <trkpt lat="47.36092" lon="-1.28112">
        <ele>62</ele>
        <time>2016-11-13T22:47:01Z</time>
      </trkpt>
      <trkpt lat="47.36086" lon="-1.281">
        <ele>62</ele>
        <time>2016-11-13T22:49:01Z</time>
      </trkpt>
      <trkpt lat="47.36075" lon="-1.28098">
        <ele>63</ele>
        <time>2016-11-13T22:51:01Z</time>
      </trkpt>
      <trkpt lat="47.36064" lon="-1.28105">
        <ele>63</ele>
        <time>2016-11-13T22:53:01Z</time>
      </trkpt>
      <trkpt lat="47.3605" lon="-1.28115">
        <ele>63</ele>
        <time>2016-11-13T22:55:01Z</time>
      </trkpt>
      <trkpt lat="47.36037" lon="-1.28128">
        <ele>64</ele>
        <time>2016-11-13T22:57:01Z</time>
      </trkpt>
      <trkpt lat="47.36024" lon="-1.28142">
        <ele>64</ele>
        <time>2016-11-13T22:59:01Z</time>
      </trkpt>
      <trkpt lat="47.36011" lon="-1.28156">
        <ele>64</ele>
        <time>2016-11-13T23:01:01Z</time>
      </trkpt>
      <trkpt lat="47.35989" lon="-1.28179">
        <ele>65</ele>
        <time>2016-11-13T23:03:01Z</time>
      </trkpt>
      <trkpt lat="47.35981" lon="-1.28188">
        <ele>65</ele>
        <time>2016-11-13T23:05:01Z</time>
      </trkpt>
      <trkpt lat="47.35971" lon="-1.28199">
        <ele>66</ele>
        <time>2016-11-13T23:07:01Z</time>
      </trkpt>
      <trkpt lat="47.35966" lon="-1.28206">
        <ele>66</ele>
        <time>2016-11-13T23:09:01Z</time>
      </trkpt>
      <trkpt lat="47.35956" lon="-1.28216">
        <ele>66</ele>
        <time>2016-11-13T23:11:01Z</time>
      </trkpt>
      <trkpt lat="47.35946" lon="-1.28225">
        <ele>67</ele>
        <time>2016-11-13T23:13:01Z</time>
      </trkpt>
      <trkpt lat="47.35929" lon="-1.28236">
        <ele>68</ele>
        <time>2016-11-13T23:15:01Z</time>
      </trkpt>
      <trkpt lat="47.3592" lon="-1.28242">
        <ele>68</ele>
        <time>2016-11-13T23:17:01Z</time>
      </trkpt>
      <trkpt lat="47.35907" lon="-1.28247">
        <ele>68</ele>
        <time>2016-11-13T23:19:01Z</time>
      </trkpt>
      <trkpt lat="47.35894" lon="-1.28255">
        <ele>68</ele>
        <time>2016-11-13T23:21:01Z</time>
      </trkpt>
      <trkpt lat="47.35886" lon="-1.28256">
        <ele>68</ele>
        <time>2016-11-13T23:23:01Z</time>
      </trkpt>
      <trkpt lat="47.3588" lon="-1.28249">
        <ele>68</ele>
        <time>2016-11-13T23:25:01Z</time>
      </trkpt>
      <trkpt lat="47.35879" lon="-1.28238">
        <ele>69</ele>
        <time>2016-11-13T23:27:01Z</time>
      </trkpt>
      <trkpt lat="47.35878" lon="-1.28221">
        <ele>69</ele>
        <time>2016-11-13T23:29:01Z</time>
      </trkpt>
      <trkpt lat="47.35876" lon="-1.28197">
        <ele>69</ele>
        <time>2016-11-13T23:31:01Z</time>
      </trkpt>
      <trkpt lat="47.35875" lon="-1.28195">
        <ele>69</ele>
        <time>2016-11-13T23:33:01Z</time>
      </trkpt>
      <trkpt lat="47.35871" lon="-1.28192">
        <ele>69</ele>
        <time>2016-11-13T23:35:01Z</time>
      </trkpt>
      <trkpt lat="47.35865" lon="-1.28184">
        <ele>69</ele>
        <time>2016-11-13T23:37:01Z</time>
      </trkpt>
      <trkpt lat="47.35854" lon="-1.28182">
        <ele>70</ele>
        <time>2016-11-13T23:39:01Z</time>
      </trkpt>
      <trkpt lat="47.35843" lon="-1.28186">
        <ele>70</ele>
        <time>2016-11-13T23:41:01Z</time>
      </trkpt>
      <trkpt lat="47.35831" lon="-1.28188">
        <ele>70</ele>
        <time>2016-11-13T23:43:01Z</time>
      </trkpt>
      <trkpt lat="47.35818" lon="-1.28187">
        <ele>70</ele>
        <time>2016-11-13T23:45:01Z</time>
      </trkpt>
      <trkpt lat="47.35808" lon="-1.2819">
        <ele>70</ele>
        <time>2016-11-13T23:47:01Z</time>
      </trkpt>
      <trkpt lat="47.35801" lon="-1.28196">
        <ele>70</ele>
        <time>2016-11-13T23:49:01Z</time>
      </trkpt>
      <trkpt lat="47.35797" lon="-1.28197">
        <ele>70</ele>
        <time>2016-11-13T23:51:01Z</time>
      </trkpt>
      <trkpt lat="47.35794" lon="-1.28201">
        <ele>70</ele>
        <time>2016-11-13T23:53:01Z</time>
      </trkpt>
      <trkpt lat="47.35788" lon="-1.28203">
        <ele>70</ele>
        <time>2016-11-13T23:55:01Z</time>
      </trkpt>
      <trkpt lat="47.35776" lon="-1.28206">
        <ele>71</ele>
        <time>2016-11-13T23:57:01Z</time>
      </trkpt>
      <trkpt lat="47.35767" lon="-1.28201">
        <ele>71</ele>
        <time>2016-11-13T23:59:01Z</time>
      </trkpt>
      <trkpt lat="47.35758" lon="-1.28186">
        <ele>71</ele>
        <time>2016-11-14T00:01:01Z</time>
      </trkpt>
      <trkpt lat="47.3575" lon="-1.28173">
        <ele>71</ele>
        <time>2016-11-14T00:03:01Z</time>
      </trkpt>
      <trkpt lat="47.35742" lon="-1.28156">
        <ele>71</ele>
        <time>2016-11-14T00:05:01Z</time>
      </trkpt>
      <trkpt lat="47.35739" lon="-1.28142">
        <ele>72</ele>
        <time>2016-11-14T00:07:01Z</time>
      </trkpt>
      <trkpt lat="47.35737" lon="-1.28138">
        <ele>72</ele>
        <time>2016-11-14T00:09:01Z</time>
      </trkpt>
      <trkpt lat="47.35732" lon="-1.28138">
        <ele>72</ele>
        <time>2016-11-14T00:11:01Z</time>
      </trkpt>
      <trkpt lat="47.35731" lon="-1.28139">
        <ele>72</ele>
        <time>2016-11-14T00:13:01Z</time>
      </trkpt>
      <trkpt lat="47.35714" lon="-1.28156">
        <ele>72</ele>
        <time>2016-11-14T00:15:01Z</time>
      </trkpt>
      <trkpt lat="47.35705" lon="-1.28162">
        <ele>72</ele>
        <time>2016-11-14T00:17:01Z</time>
      </trkpt>
      <trkpt lat="47.35695" lon="-1.28166">
        <ele>72</ele>
        <time>2016-11-14T00:19:01Z</time>
      </trkpt>
      <trkpt lat="47.35687" lon="-1.28163">
        <ele>72</ele>
        <time>2016-11-14T00:21:01Z</time>
      </trkpt>
      <trkpt lat="47.35678" lon="-1.28153">
        <ele>72</ele>
        <time>2016-11-14T00:23:01Z</time>
      </trkpt>
      <trkpt lat="47.3567" lon="-1.28132">
        <ele>72</ele>
        <time>2016-11-14T00:25:01Z</time>
      </trkpt>
      <trkpt lat="47.35664" lon="-1.28118">
        <ele>72</ele>
        <time>2016-11-14T00:27:01Z</time>
      </trkpt>
      <trkpt lat="47.35664" lon="-1.28101">
        <ele>71</ele>
        <time>2016-11-14T00:29:01Z</time>
      </trkpt>
      <trkpt lat="47.3566" lon="-1.28088">
        <ele>71</ele>
        <time>2016-11-14T00:31:01Z</time>
      </trkpt>
      <trkpt lat="47.35653" lon="-1.28075">
        <ele>70</ele>
        <time>2016-11-14T00:33:01Z</time>
      </trkpt>
      <trkpt lat="47.35656" lon="-1.28062">
        <ele>71</ele>
        <time>2016-11-14T00:35:01Z</time>
      </trkpt>
      <trkpt lat="47.35664" lon="-1.28063">
        <ele>71</ele>
        <time>2016-11-14T00:37:01Z</time>
      </trkpt>
      <trkpt lat="47.35671" lon="-1.28069">
        <ele>71</ele>
        <time>2016-11-14T00:39:01Z</time>
      </trkpt>
      <trkpt lat="47.3567" lon="-1.2807">
        <ele>71</ele>
        <time>2016-11-14T00:41:01Z</time>
      </trkpt>
      <trkpt lat="47.35671" lon="-1.28071">
        <ele>71</ele>
        <time>2016-11-14T00:43:01Z</time>
      </trkpt>
      <trkpt lat="47.35671" lon="-1.2807">
        <ele>71</ele>
        <time>2016-11-14T00:45:01Z</time>
      </trkpt>
      <trkpt lat="47.35674" lon="-1.2807">
        <ele>71</ele>
        <time>2016-11-14T00:47:01Z</time>
      </trkpt>
      <trkpt lat="47.35677" lon="-1.28069">
        <ele>71</ele>
        <time>2016-11-14T00:49:01Z</time>
      </trkpt>
      <trkpt lat="47.35679" lon="-1.28071">
        <ele>72</ele>
        <time>2016-11-14T00:51:01Z</time>
      </trkpt>
      <trkpt lat="47.3568" lon="-1.28073">
        <ele>72</ele>
        <time>2016-11-14T00:53:01Z</time>
      </trkpt>
      <trkpt lat="47.35681" lon="-1.28074">
        <ele>72</ele>
        <time>2016-11-14T00:55:01Z</time>
      </trkpt>
      <trkpt lat="47.3568" lon="-1.28073">
        <ele>72</ele>
        <time>2016-11-14T00:57:01Z</time>
      </trkpt>
      <trkpt lat="47.35681" lon="-1.28071">
        <ele>72</ele>
        <time>2016-11-14T00:59:01Z</time>
      </trkpt>
      <trkpt lat="47.35676" lon="-1.2807">
        <ele>71</ele>
        <time>2016-11-14T01:01:01Z</time>
      </trkpt>
      <trkpt lat="47.35666" lon="-1.28072">
        <ele>71</ele>
        <time>2016-11-14T01:03:01Z</time>
      </trkpt>
      <trkpt lat="47.35669" lon="-1.28076">
        <ele>71</ele>
        <time>2016-11-14T01:05:01Z</time>
      </trkpt>
      <trkpt lat="47.35677" lon="-1.28071">
        <ele>71</ele>
        <time>2016-11-14T01:07:01Z</time>
      </trkpt>
      <trkpt lat="47.35675" lon="-1.28071">
        <ele>71</ele>
        <time>2016-11-14T01:09:01Z</time>
      </trkpt>
      <trkpt lat="47.3567" lon="-1.2807">
        <ele>71</ele>
        <time>2016-11-14T01:11:01Z</time>
      </trkpt>
      <trkpt lat="47.35667" lon="-1.28062">
        <ele>71</ele>
        <time>2016-11-14T01:13:01Z</time>
      </trkpt>
      <trkpt lat="47.35666" lon="-1.28055">
        <ele>71</ele>
        <time>2016-11-14T01:15:01Z</time>
      </trkpt>
      <trkpt lat="47.35662" lon="-1.2804">
        <ele>71</ele>
        <time>2016-11-14T01:17:01Z</time>
      </trkpt>
      <trkpt lat="47.35661" lon="-1.28033">
        <ele>71</ele>
        <time>2016-11-14T01:19:01Z</time>
      </trkpt>
      <trkpt lat="47.35659" lon="-1.2803">
        <ele>71</ele>
        <time>2016-11-14T01:21:01Z</time>
      </trkpt>
      <trkpt lat="47.35651" lon="-1.28018">
        <ele>71</ele>
        <time>2016-11-14T01:23:01Z</time>
      </trkpt>
      <trkpt lat="47.35641" lon="-1.28014">
        <ele>70</ele>
        <time>2016-11-14T01:25:01Z</time>
      </trkpt>
      <trkpt lat="47.35639" lon="-1.28016">
        <ele>70</ele>
        <time>2016-11-14T01:27:01Z</time>
      </trkpt>
      <trkpt lat="47.35637" lon="-1.28015">
        <ele>70</ele>
        <time>2016-11-14T01:29:01Z</time>
      </trkpt>
      <trkpt lat="47.35628" lon="-1.28018">
        <ele>69</ele>
        <time>2016-11-14T01:31:01Z</time>
      </trkpt>
      <trkpt lat="47.35611" lon="-1.28019">
        <ele>68</ele>
        <time>2016-11-14T01:33:01Z</time>
      </trkpt>
      <trkpt lat="47.35606" lon="-1.28007">
        <ele>68</ele>
        <time>2016-11-14T01:35:01Z</time>
      </trkpt>
      <trkpt lat="47.35606" lon="-1.27985">
        <ele>68</ele>
        <time>2016-11-14T01:37:01Z</time>
      </trkpt>
      <trkpt lat="47.35613" lon="-1.27978">
        <ele>68</ele>
        <time>2016-11-14T01:39:01Z</time>
      </trkpt>
      <trkpt lat="47.35623" lon="-1.27973">
        <ele>69</ele>
        <time>2016-11-14T01:41:01Z</time>
      </trkpt>
      <trkpt lat="47.35624" lon="-1.27961">
        <ele>69</ele>
        <time>2016-11-14T01:43:01Z</time>
      </trkpt>
      <trkpt lat="47.35626" lon="-1.27944">
        <ele>70</ele>
        <time>2016-11-14T01:45:01Z</time>
      </trkpt>
      <trkpt lat="47.35625" lon="-1.27925">
        <ele>70</ele>
        <time>2016-11-14T01:47:01Z</time>
      </trkpt>
      <trkpt lat="47.35628" lon="-1.27909">
        <ele>70</ele>
        <time>2016-11-14T01:49:01Z</time>
      </trkpt>
      <trkpt lat="47.35627" lon="-1.279">
        <ele>70</ele>
        <time>2016-11-14T01:51:01Z</time>
      </trkpt>
      <trkpt lat="47.35627" lon="-1.27893">
        <ele>70</ele>
        <time>2016-11-14T01:53:01Z</time>
      </trkpt>
      <trkpt lat="47.35629" lon="-1.27881">
        <ele>71</ele>
        <time>2016-11-14T01:55:01Z</time>
      </trkpt>
      <trkpt lat="47.35631" lon="-1.27867">
        <ele>71</ele>
        <time>2016-11-14T01:57:01Z</time>
      </trkpt>
      <trkpt lat="47.35633" lon="-1.27848">
        <ele>71</ele>
        <time>2016-11-14T01:59:01Z</time>
      </trkpt>
      <trkpt lat="47.35635" lon="-1.27836">
        <ele>71</ele>
        <time>2016-11-14T02:01:01Z</time>
      </trkpt>
      <trkpt lat="47.35637" lon="-1.2782">
        <ele>72</ele>
        <time>2016-11-14T02:03:01Z</time>
      </trkpt>
      <trkpt lat="47.3564" lon="-1.27804">
        <ele>72</ele>
        <time>2016-11-14T02:05:01Z</time>
      </trkpt>
      <trkpt lat="47.35642" lon="-1.27788">
        <ele>72</ele>
        <time>2016-11-14T02:07:01Z</time>
      </trkpt>
      <trkpt lat="47.35645" lon="-1.27775">
        <ele>72</ele>
        <time>2016-11-14T02:09:01Z</time>
      </trkpt>
      <trkpt lat="47.35647" lon="-1.27758">
        <ele>72</ele>
        <time>2016-11-14T02:11:01Z</time>
      </trkpt>
      <trkpt lat="47.35649" lon="-1.2774">
        <ele>72</ele>
        <time>2016-11-14T02:13:01Z</time>
      </trkpt>
      <trkpt lat="47.35652" lon="-1.27721">
        <ele>72</ele>
        <time>2016-11-14T02:15:01Z</time>
      </trkpt>
      <trkpt lat="47.35659" lon="-1.2769">
        <ele>71</ele>
        <time>2016-11-14T02:17:01Z</time>
      </trkpt>
      <trkpt lat="47.35661" lon="-1.27673">
        <ele>71</ele>
        <time>2016-11-14T02:19:01Z</time>
      </trkpt>
      <trkpt lat="47.3566" lon="-1.27668">
        <ele>70</ele>
        <time>2016-11-14T02:21:01Z</time>
      </trkpt>
      <trkpt lat="47.35661" lon="-1.27662">
        <ele>70</ele>
        <time>2016-11-14T02:23:01Z</time>
      </trkpt>
      <trkpt lat="47.35658" lon="-1.27651">
        <ele>70</ele>
        <time>2016-11-14T02:25:01Z</time>
      </trkpt>
      <trkpt lat="47.35654" lon="-1.27646">
        <ele>69</ele>
        <time>2016-11-14T02:27:01Z</time>
      </trkpt>
      <trkpt lat="47.35647" lon="-1.27636">
        <ele>68</ele>
        <time>2016-11-14T02:29:01Z</time>
      </trkpt>
      <trkpt lat="47.35643" lon="-1.27621">
        <ele>68</ele>
        <time>2016-11-14T02:31:01Z</time>
      </trkpt>
      <trkpt lat="47.35644" lon="-1.27611">
        <ele>68</ele>
        <time>2016-11-14T02:33:01Z</time>
      </trkpt>
      <trkpt lat="47.35644" lon="-1.27608">
        <ele>68</ele>
        <time>2016-11-14T02:35:01Z</time>
      </trkpt>
      <trkpt lat="47.35643" lon="-1.27595">
        <ele>68</ele>
        <time>2016-11-14T02:37:01Z</time>
      </trkpt>
      <trkpt lat="47.3564" lon="-1.27573">
        <ele>68</ele>
        <time>2016-11-14T02:39:01Z</time>
      </trkpt>
      <trkpt lat="47.35637" lon="-1.27551">
        <ele>68</ele>
        <time>2016-11-14T02:41:01Z</time>
      </trkpt>
      <trkpt lat="47.35634" lon="-1.27533">
        <ele>68</ele>
        <time>2016-11-14T02:43:01Z</time>
      </trkpt>
      <trkpt lat="47.35633" lon="-1.27517">
        <ele>69</ele>
        <time>2016-11-14T02:45:01Z</time>
      </trkpt>
      <trkpt lat="47.35633" lon="-1.27482">
        <ele>69</ele>
        <time>2016-11-14T02:47:01Z</time>
      </trkpt>
      <trkpt lat="47.35629" lon="-1.27468">
        <ele>69</ele>
        <time>2016-11-14T02:49:01Z</time>
      </trkpt>
      <trkpt lat="47.3562" lon="-1.27449">
        <ele>69</ele>
        <time>2016-11-14T02:51:01Z</time>
      </trkpt>
      <trkpt lat="47.356" lon="-1.27406">
        <ele>70</ele>
        <time>2016-11-14T02:53:01Z</time>
      </trkpt>
      <trkpt lat="47.35595" lon="-1.27392">
        <ele>70</ele>
        <time>2016-11-14T02:55:01Z</time>
      </trkpt>
      <trkpt lat="47.35592" lon="-1.27378">
        <ele>70</ele>
        <time>2016-11-14T02:57:01Z</time>
      </trkpt>
      <trkpt lat="47.35584" lon="-1.27345">
        <ele>70</ele>
        <time>2016-11-14T02:59:01Z</time>
      </trkpt>
      <trkpt lat="47.35581" lon="-1.2733">
        <ele>70</ele>
        <time>2016-11-14T03:01:01Z</time>
      </trkpt>
      <trkpt lat="47.35578" lon="-1.27317">
        <ele>69</ele>
        <time>2016-11-14T03:03:01Z</time>
      </trkpt>
      <trkpt lat="47.35578" lon="-1.27311">
        <ele>69</ele>
        <time>2016-11-14T03:05:01Z</time>
      </trkpt>
      <trkpt lat="47.35574" lon="-1.27295">
        <ele>69</ele>
        <time>2016-11-14T03:07:01Z</time>
      </trkpt>
      <trkpt lat="47.35572" lon="-1.2728">
        <ele>69</ele>
        <time>2016-11-14T03:09:01Z</time>
      </trkpt>
      <trkpt lat="47.35569" lon="-1.27268">
        <ele>69</ele>
        <time>2016-11-14T03:11:01Z</time>
      </trkpt>
      <trkpt lat="47.35563" lon="-1.27236">
        <ele>69</ele>
        <time>2016-11-14T03:13:01Z</time>
      </trkpt>
      <trkpt lat="47.35563" lon="-1.27233">
        <ele>69</ele>
        <time>2016-11-14T03:15:01Z</time>
      </trkpt>
      <trkpt lat="47.35561" lon="-1.27227">
        <ele>69</ele>
        <time>2016-11-14T03:17:01Z</time>
      </trkpt>
      <trkpt lat="47.3556" lon="-1.27218">
        <ele>69</ele>
        <time>2016-11-14T03:19:01Z</time>
      </trkpt>
      <trkpt lat="47.35558" lon="-1.27211">
        <ele>69</ele>
        <time>2016-11-14T03:21:01Z</time>
      </trkpt>
      <trkpt lat="47.35558" lon="-1.27208">
        <ele>69</ele>
        <time>2016-11-14T03:23:01Z</time>
      </trkpt>
      <trkpt lat="47.35556" lon="-1.27199">
        <ele>69</ele>
        <time>2016-11-14T03:25:01Z</time>
      </trkpt>
      <trkpt lat="47.35554" lon="-1.27185">
        <ele>69</ele>
        <time>2016-11-14T03:27:01Z</time>
      </trkpt>
      <trkpt lat="47.35552" lon="-1.27154">
        <ele>69</ele>
        <time>2016-11-14T03:29:01Z</time>
      </trkpt>
      <trkpt lat="47.35551" lon="-1.27132">
        <ele>69</ele>
        <time>2016-11-14T03:31:01Z</time>
      </trkpt>
      <trkpt lat="47.3555" lon="-1.27113">
        <ele>69</ele>
        <time>2016-11-14T03:33:01Z</time>
      </trkpt>
      <trkpt lat="47.35549" lon="-1.27093">
        <ele>69</ele>
        <time>2016-11-14T03:35:01Z</time>
      </trkpt>
      <trkpt lat="47.35549" lon="-1.27082">
        <ele>69</ele>
        <time>2016-11-14T03:37:01Z</time>
      </trkpt>
      <trkpt lat="47.35548" lon="-1.27065">
        <ele>68</ele>
        <time>2016-11-14T03:39:01Z</time>
      </trkpt>
      <trkpt lat="47.35547" lon="-1.27051">
        <ele>68</ele>
        <time>2016-11-14T03:41:01Z</time>
      </trkpt>
      <trkpt lat="47.35547" lon="-1.27037">
        <ele>68</ele>
        <time>2016-11-14T03:43:01Z</time>
      </trkpt>
      <trkpt lat="47.35546" lon="-1.27018">
        <ele>68</ele>
        <time>2016-11-14T03:45:01Z</time>
      </trkpt>
      <trkpt lat="47.35545" lon="-1.27">
        <ele>68</ele>
        <time>2016-11-14T03:47:01Z</time>
      </trkpt>
      <trkpt lat="47.35545" lon="-1.26987">
        <ele>68</ele>
        <time>2016-11-14T03:49:01Z</time>
      </trkpt>
      <trkpt lat="47.35544" lon="-1.26969">
        <ele>68</ele>
        <time>2016-11-14T03:51:01Z</time>
      </trkpt>
      <trkpt lat="47.35542" lon="-1.26952">
        <ele>68</ele>
        <time>2016-11-14T03:53:01Z</time>
      </trkpt>
      <trkpt lat="47.3554" lon="-1.26938">
        <ele>68</ele>
        <time>2016-11-14T03:55:01Z</time>
      </trkpt>
      <trkpt lat="47.35539" lon="-1.2691">
        <ele>68</ele>
        <time>2016-11-14T03:57:01Z</time>
      </trkpt>
      <trkpt lat="47.3554" lon="-1.26906">
        <ele>68</ele>
        <time>2016-11-14T03:59:01Z</time>
      </trkpt>
      <trkpt lat="47.35539" lon="-1.26895">
        <ele>68</ele>
        <time>2016-11-14T04:01:01Z</time>
      </trkpt>
      <trkpt lat="47.35537" lon="-1.26879">
        <ele>68</ele>
        <time>2016-11-14T04:03:01Z</time>
      </trkpt>
      <trkpt lat="47.35537" lon="-1.2687">
        <ele>68</ele>
        <time>2016-11-14T04:05:01Z</time>
      </trkpt>
      <trkpt lat="47.35537" lon="-1.26856">
        <ele>68</ele>
        <time>2016-11-14T04:07:01Z</time>
      </trkpt>
      <trkpt lat="47.35535" lon="-1.26838">
        <ele>68</ele>
        <time>2016-11-14T04:09:01Z</time>
      </trkpt>
      <trkpt lat="47.35535" lon="-1.26824">
        <ele>68</ele>
        <time>2016-11-14T04:11:01Z</time>
      </trkpt>
      <trkpt lat="47.35532" lon="-1.26807">
        <ele>67</ele>
        <time>2016-11-14T04:13:01Z</time>
      </trkpt>
      <trkpt lat="47.3553" lon="-1.26806">
        <ele>67</ele>
        <time>2016-11-14T04:15:01Z</time>
      </trkpt>
      <trkpt lat="47.35513" lon="-1.26806">
        <ele>66</ele>
        <time>2016-11-14T04:17:01Z</time>
      </trkpt>
      <trkpt lat="47.355" lon="-1.26808">
        <ele>66</ele>
        <time>2016-11-14T04:19:01Z</time>
      </trkpt>
      <trkpt lat="47.35499" lon="-1.26808">
        <ele>66</ele>
        <time>2016-11-14T04:21:01Z</time>
      </trkpt>
      <trkpt lat="47.3547" lon="-1.26812">
        <ele>64</ele>
        <time>2016-11-14T04:23:01Z</time>
      </trkpt>
      <trkpt lat="47.3546" lon="-1.26815">
        <ele>63</ele>
        <time>2016-11-14T04:25:01Z</time>
      </trkpt>
      <trkpt lat="47.35454" lon="-1.26814">
        <ele>63</ele>
        <time>2016-11-14T04:27:01Z</time>
      </trkpt>
      <trkpt lat="47.35442" lon="-1.26816">
        <ele>62</ele>
        <time>2016-11-14T04:29:01Z</time>
      </trkpt>
      <trkpt lat="47.35431" lon="-1.26818">
        <ele>61</ele>
        <time>2016-11-14T04:31:01Z</time>
      </trkpt>
      <trkpt lat="47.35422" lon="-1.26824">
        <ele>60</ele>
        <time>2016-11-14T04:33:01Z</time>
      </trkpt>
      <trkpt lat="47.35421" lon="-1.26825">
        <ele>60</ele>
        <time>2016-11-14T04:35:01Z</time>
      </trkpt>
      <trkpt lat="47.35418" lon="-1.26822">
        <ele>60</ele>
        <time>2016-11-14T04:37:01Z</time>
      </trkpt>
      <trkpt lat="47.35417" lon="-1.26814">
        <ele>60</ele>
        <time>2016-11-14T04:39:01Z</time>
      </trkpt>
      <trkpt lat="47.3542" lon="-1.26807">
        <ele>61</ele>
        <time>2016-11-14T04:41:01Z</time>
      </trkpt>
      <trkpt lat="47.35424" lon="-1.26798">
        <ele>61</ele>
        <time>2016-11-14T04:43:01Z</time>
      </trkpt>
      <trkpt lat="47.35426" lon="-1.26795">
        <ele>61</ele>
        <time>2016-11-14T04:45:01Z</time>
      </trkpt>
      <trkpt lat="47.35427" lon="-1.26793">
        <ele>61</ele>
        <time>2016-11-14T04:47:01Z</time>
      </trkpt>
      <trkpt lat="47.35434" lon="-1.2678">
        <ele>62</ele>
        <time>2016-11-14T04:49:01Z</time>
      </trkpt>
      <trkpt lat="47.35437" lon="-1.26775">
        <ele>62</ele>
        <time>2016-11-14T04:51:01Z</time>
      </trkpt>
      <trkpt lat="47.35451" lon="-1.26749">
        <ele>63</ele>
        <time>2016-11-14T04:53:01Z</time>
      </trkpt>
      <trkpt lat="47.3547" lon="-1.2671">
        <ele>63</ele>
        <time>2016-11-14T04:55:01Z</time>
      </trkpt>
      <trkpt lat="47.35473" lon="-1.26708">
        <ele>64</ele>
        <time>2016-11-14T04:57:01Z</time>
      </trkpt>
      <trkpt lat="47.35476" lon="-1.26702">
        <ele>64</ele>
        <time>2016-11-14T04:59:01Z</time>
      </trkpt>
      <trkpt lat="47.35486" lon="-1.26688">
        <ele>64</ele>
        <time>2016-11-14T05:01:01Z</time>
      </trkpt>
      <trkpt lat="47.35513" lon="-1.26662">
        <ele>66</ele>
        <time>2016-11-14T05:03:01Z</time>
      </trkpt>
      <trkpt lat="47.3552" lon="-1.26657">
        <ele>66</ele>
        <time>2016-11-14T05:05:01Z</time>
      </trkpt>
      <trkpt lat="47.35527" lon="-1.26649">
        <ele>66</ele>
        <time>2016-11-14T05:07:01Z</time>
      </trkpt>
      <trkpt lat="47.35535" lon="-1.26641">
        <ele>66</ele>
        <time>2016-11-14T05:09:01Z</time>
      </trkpt>
      <trkpt lat="47.35544" lon="-1.26632">
        <ele>67</ele>
        <time>2016-11-14T05:11:01Z</time>
      </trkpt>
      <trkpt lat="47.35562" lon="-1.26615">
        <ele>67</ele>
        <time>2016-11-14T05:13:01Z</time>
      </trkpt>
      <trkpt lat="47.35571" lon="-1.26605">
        <ele>68</ele>
        <time>2016-11-14T05:15:01Z</time>
      </trkpt>
      <trkpt lat="47.35581" lon="-1.26594">
        <ele>68</ele>
        <time>2016-11-14T05:17:01Z</time>
      </trkpt>
      <trkpt lat="47.35589" lon="-1.26574">
        <ele>68</ele>
        <time>2016-11-14T05:19:01Z</time>
      </trkpt>
      <trkpt lat="47.3559" lon="-1.26553">
        <ele>68</ele>
        <time>2016-11-14T05:21:01Z</time>
      </trkpt>
      <trkpt lat="47.35592" lon="-1.2654">
        <ele>69</ele>
        <time>2016-11-14T05:23:01Z</time>
      </trkpt>
      <trkpt lat="47.35597" lon="-1.265">
        <ele>69</ele>
        <time>2016-11-14T05:25:01Z</time>
      </trkpt>
      <trkpt lat="47.35599" lon="-1.26484">
        <ele>69</ele>
        <time>2016-11-14T05:27:01Z</time>
      </trkpt>
      <trkpt lat="47.35602" lon="-1.26463">
        <ele>69</ele>
        <time>2016-11-14T05:29:01Z</time>
      </trkpt>
      <trkpt lat="47.35604" lon="-1.26447">
        <ele>69</ele>
        <time>2016-11-14T05:31:01Z</time>
      </trkpt>
      <trkpt lat="47.35606" lon="-1.26431">
        <ele>69</ele>
        <time>2016-11-14T05:33:01Z</time>
      </trkpt>
      <trkpt lat="47.35606" lon="-1.26413">
        <ele>69</ele>
        <time>2016-11-14T05:35:01Z</time>
      </trkpt>
      <trkpt lat="47.35602" lon="-1.2639">
        <ele>69</ele>
        <time>2016-11-14T05:37:01Z</time>
      </trkpt>
      <trkpt lat="47.35589" lon="-1.26353">
        <ele>70</ele>
        <time>2016-11-14T05:39:01Z</time>
      </trkpt>
      <trkpt lat="47.35582" lon="-1.26332">
        <ele>70</ele>
        <time>2016-11-14T05:41:01Z</time>
      </trkpt>
      <trkpt lat="47.35578" lon="-1.26324">
        <ele>70</ele>
        <time>2016-11-14T05:43:01Z</time>
      </trkpt>
      <trkpt lat="47.35571" lon="-1.26307">
        <ele>69</ele>
        <time>2016-11-14T05:45:01Z</time>
      </trkpt>
      <trkpt lat="47.35566" lon="-1.26294">
        <ele>69</ele>
        <time>2016-11-14T05:47:01Z</time>
      </trkpt>
      <trkpt lat="47.35551" lon="-1.2626">
        <ele>69</ele>
        <time>2016-11-14T05:49:01Z</time>
      </trkpt>
      <trkpt lat="47.35543" lon="-1.26244">
        <ele>68</ele>
        <time>2016-11-14T05:51:01Z</time>
      </trkpt>
      <trkpt lat="47.35535" lon="-1.26229">
        <ele>68</ele>
        <time>2016-11-14T05:53:01Z</time>
      </trkpt>
      <trkpt lat="47.35527" lon="-1.26212">
        <ele>68</ele>
        <time>2016-11-14T05:55:01Z</time>
      </trkpt>
      <trkpt lat="47.35521" lon="-1.26195">
        <ele>68</ele>
        <time>2016-11-14T05:57:01Z</time>
      </trkpt>
      <trkpt lat="47.35514" lon="-1.26173">
        <ele>68</ele>
        <time>2016-11-14T05:59:01Z</time>
      </trkpt>
      <trkpt lat="47.35496" lon="-1.26132">
        <ele>68</ele>
        <time>2016-11-14T06:01:01Z</time>
      </trkpt>
      <trkpt lat="47.35479" lon="-1.2609">
        <ele>67</ele>
        <time>2016-11-14T06:03:01Z</time>
      </trkpt>
      <trkpt lat="47.35464" lon="-1.26045">
        <ele>67</ele>
        <time>2016-11-14T06:05:01Z</time>
      </trkpt>
      <trkpt lat="47.35457" lon="-1.26022">
        <ele>67</ele>
        <time>2016-11-14T06:07:01Z</time>
      </trkpt>
      <trkpt lat="47.35448" lon="-1.25973">
        <ele>67</ele>
        <time>2016-11-14T06:09:01Z</time>
      </trkpt>
      <trkpt lat="47.35443" lon="-1.25945">
        <ele>66</ele>
        <time>2016-11-14T06:11:01Z</time>
      </trkpt>
      <trkpt lat="47.35439" lon="-1.25926">
        <ele>66</ele>
        <time>2016-11-14T06:13:01Z</time>
      </trkpt>
      <trkpt lat="47.35437" lon="-1.25912">
        <ele>65</ele>
        <time>2016-11-14T06:15:01Z</time>
      </trkpt>
      <trkpt lat="47.35432" lon="-1.25893">
        <ele>65</ele>
        <time>2016-11-14T06:17:01Z</time>
      </trkpt>
      <trkpt lat="47.35426" lon="-1.25871">
        <ele>65</ele>
        <time>2016-11-14T06:19:01Z</time>
      </trkpt>
      <trkpt lat="47.35422" lon="-1.25846">
        <ele>64</ele>
        <time>2016-11-14T06:21:01Z</time>
      </trkpt>
      <trkpt lat="47.35418" lon="-1.25839">
        <ele>64</ele>
        <time>2016-11-14T06:23:01Z</time>
      </trkpt>
      <trkpt lat="47.35413" lon="-1.25823">
        <ele>64</ele>
        <time>2016-11-14T06:25:01Z</time>
      </trkpt>
      <trkpt lat="47.35409" lon="-1.25818">
        <ele>64</ele>
        <time>2016-11-14T06:27:01Z</time>
      </trkpt>
      <trkpt lat="47.35406" lon="-1.25819">
        <ele>64</ele>
        <time>2016-11-14T06:29:01Z</time>
      </trkpt>
      <trkpt lat="47.35391" lon="-1.25827">
        <ele>64</ele>
        <time>2016-11-14T06:31:01Z</time>
      </trkpt>
      <trkpt lat="47.3538" lon="-1.25832">
        <ele>64</ele>
        <time>2016-11-14T06:33:01Z</time>
      </trkpt>
      <trkpt lat="47.35365" lon="-1.25841">
        <ele>63</ele>
        <time>2016-11-14T06:35:01Z</time>
      </trkpt>
      <trkpt lat="47.35357" lon="-1.25848">
        <ele>63</ele>
        <time>2016-11-14T06:37:01Z</time>
      </trkpt>
      <trkpt lat="47.35344" lon="-1.25853">
        <ele>63</ele>
        <time>2016-11-14T06:39:01Z</time>
      </trkpt>
      <trkpt lat="47.35331" lon="-1.25861">
        <ele>63</ele>
        <time>2016-11-14T06:41:01Z</time>
      </trkpt>
      <trkpt lat="47.3532" lon="-1.25866">
        <ele>62</ele>
        <time>2016-11-14T06:43:01Z</time>
      </trkpt>
      <trkpt lat="47.35309" lon="-1.25869">
        <ele>61</ele>
        <time>2016-11-14T06:45:01Z</time>
      </trkpt>
      <trkpt lat="47.353" lon="-1.25866">
        <ele>60</ele>
        <time>2016-11-14T06:47:01Z</time>
      </trkpt>
      <trkpt lat="47.35299" lon="-1.25866">
        <ele>60</ele>
        <time>2016-11-14T06:49:01Z</time>
      </trkpt>
      <trkpt lat="47.3528" lon="-1.2587">
        <ele>59</ele>
        <time>2016-11-14T06:51:01Z</time>
      </trkpt>
      <trkpt lat="47.35279" lon="-1.25868">
        <ele>59</ele>
        <time>2016-11-14T06:53:01Z</time>
      </trkpt>
      <trkpt lat="47.35274" lon="-1.2586">
        <ele>59</ele>
        <time>2016-11-14T06:55:01Z</time>
      </trkpt>
      <trkpt lat="47.35272" lon="-1.25858">
        <ele>59</ele>
        <time>2016-11-14T06:57:01Z</time>
      </trkpt>
      <trkpt lat="47.35269" lon="-1.25858">
        <ele>59</ele>
        <time>2016-11-14T06:59:01Z</time>
      </trkpt>
      <trkpt lat="47.35265" lon="-1.25865">
        <ele>58</ele>
        <time>2016-11-14T07:01:01Z</time>
      </trkpt>
      <trkpt lat="47.35263" lon="-1.25867">
        <ele>58</ele>
        <time>2016-11-14T07:03:01Z</time>
      </trkpt>
      <trkpt lat="47.35253" lon="-1.25874">
        <ele>57</ele>
        <time>2016-11-14T07:05:01Z</time>
      </trkpt>
      <trkpt lat="47.35244" lon="-1.25877">
        <ele>56</ele>
        <time>2016-11-14T07:07:01Z</time>
      </trkpt>
      <trkpt lat="47.35237" lon="-1.25882">
        <ele>56</ele>
        <time>2016-11-14T07:09:01Z</time>
      </trkpt>
      <trkpt lat="47.35236" lon="-1.25882">
        <ele>56</ele>
        <time>2016-11-14T07:11:01Z</time>
      </trkpt>
      <trkpt lat="47.35226" lon="-1.2589">
        <ele>55</ele>
        <time>2016-11-14T07:13:01Z</time>
      </trkpt>
      <trkpt lat="47.35219" lon="-1.25894">
        <ele>54</ele>
        <time>2016-11-14T07:15:01Z</time>
      </trkpt>
      <trkpt lat="47.35212" lon="-1.25896">
        <ele>53</ele>
        <time>2016-11-14T07:17:01Z</time>
      </trkpt>
      <trkpt lat="47.3521" lon="-1.259">
        <ele>53</ele>
        <time>2016-11-14T07:19:01Z</time>
      </trkpt>
      <trkpt lat="47.35206" lon="-1.25908">
        <ele>52</ele>
        <time>2016-11-14T07:21:01Z</time>
      </trkpt>
      <trkpt lat="47.35199" lon="-1.25921">
        <ele>51</ele>
        <time>2016-11-14T07:23:01Z</time>
      </trkpt>
      <trkpt lat="47.35195" lon="-1.25929">
        <ele>50</ele>
        <time>2016-11-14T07:25:01Z</time>
      </trkpt>
      <trkpt lat="47.35194" lon="-1.25931">
        <ele>50</ele>
        <time>2016-11-14T07:27:01Z</time>
      </trkpt>
      <trkpt lat="47.35186" lon="-1.25936">
        <ele>49</ele>
        <time>2016-11-14T07:29:01Z</time>
      </trkpt>
      <trkpt lat="47.35181" lon="-1.25943">
        <ele>49</ele>
        <time>2016-11-14T07:31:01Z</time>
      </trkpt>
      <trkpt lat="47.35179" lon="-1.25947">
        <ele>48</ele>
        <time>2016-11-14T07:33:01Z</time>
      </trkpt>
      <trkpt lat="47.35172" lon="-1.2595">
        <ele>47</ele>
        <time>2016-11-14T07:35:01Z</time>
      </trkpt>
      <trkpt lat="47.3516" lon="-1.25953">
        <ele>46</ele>
        <time>2016-11-14T07:37:01Z</time>
      </trkpt>
      <trkpt lat="47.35155" lon="-1.25956">
        <ele>45</ele>
        <time>2016-11-14T07:39:01Z</time>
      </trkpt>
      <trkpt lat="47.35146" lon="-1.25957">
        <ele>44</ele>
        <time>2016-11-14T07:41:01Z</time>
      </trkpt>
      <trkpt lat="47.35143" lon="-1.25958">
        <ele>43</ele>
        <time>2016-11-14T07:43:01Z</time>
      </trkpt>
      <trkpt lat="47.35124" lon="-1.25966">
        <ele>40</ele>
        <time>2016-11-14T07:45:01Z</time>
      </trkpt>
      <trkpt lat="47.35117" lon="-1.25967">
        <ele>39</ele>
        <time>2016-11-14T07:47:01Z</time>
      </trkpt>
      <trkpt lat="47.35114" lon="-1.25969">
        <ele>38</ele>
        <time>2016-11-14T07:49:01Z</time>
      </trkpt>
      <trkpt lat="47.3511" lon="-1.25973">
        <ele>38</ele>
        <time>2016-11-14T07:51:01Z</time>
      </trkpt>
      <trkpt lat="47.35108" lon="-1.25973">
        <ele>37</ele>
        <time>2016-11-14T07:53:01Z</time>
      </trkpt>
      <trkpt lat="47.35101" lon="-1.25978">
        <ele>36</ele>
        <time>2016-11-14T07:55:01Z</time>
      </trkpt>
      <trkpt lat="47.35092" lon="-1.25984">
        <ele>34</ele>
        <time>2016-11-14T07:57:01Z</time>
      </trkpt>
      <trkpt lat="47.35081" lon="-1.2599">
        <ele>32</ele>
        <time>2016-11-14T07:59:01Z</time>
      </trkpt>
      <trkpt lat="47.3506" lon="-1.26006">
        <ele>31</ele>
        <time>2016-11-14T08:01:01Z</time>
      </trkpt>
      <trkpt lat="47.35049" lon="-1.26015">
        <ele>30</ele>
        <time>2016-11-14T08:03:01Z</time>
      </trkpt>
      <trkpt lat="47.35031" lon="-1.26024">
        <ele>29</ele>
        <time>2016-11-14T08:05:01Z</time>
      </trkpt>
      <trkpt lat="47.35028" lon="-1.26025">
        <ele>29</ele>
        <time>2016-11-14T08:07:01Z</time>
      </trkpt>
      <trkpt lat="47.35021" lon="-1.26028">
        <ele>29</ele>
        <time>2016-11-14T08:09:01Z</time>
      </trkpt>
      <trkpt lat="47.35018" lon="-1.26027">
        <ele>29</ele>
        <time>2016-11-14T08:11:01Z</time>
      </trkpt>
      <trkpt lat="47.35006" lon="-1.26038">
        <ele>28</ele>
        <time>2016-11-14T08:13:01Z</time>
      </trkpt>
      <trkpt lat="47.34998" lon="-1.26043">
        <ele>27</ele>
        <time>2016-11-14T08:15:01Z</time>
      </trkpt>
      <trkpt lat="47.34983" lon="-1.26055">
        <ele>25</ele>
        <time>2016-11-14T08:17:01Z</time>
      </trkpt>
      <trkpt lat="47.34967" lon="-1.26062">
        <ele>22</ele>
        <time>2016-11-14T08:19:01Z</time>
      </trkpt>
      <trkpt lat="47.3496" lon="-1.26063">
        <ele>22</ele>
        <time>2016-11-14T08:21:01Z</time>
      </trkpt>
      <trkpt lat="47.34958" lon="-1.26063">
        <ele>21</ele>
        <time>2016-11-14T08:23:01Z</time>
      </trkpt>
      <trkpt lat="47.34955" lon="-1.26064">
        <ele>21</ele>
        <time>2016-11-14T08:25:01Z</time>
      </trkpt>
      <trkpt lat="47.3495" lon="-1.26066">
        <ele>20</ele>
        <time>2016-11-14T08:27:01Z</time>
      </trkpt>
      <trkpt lat="47.34948" lon="-1.26065">
        <ele>20</ele>
        <time>2016-11-14T08:29:01Z</time>
      </trkpt>
      <trkpt lat="47.34937" lon="-1.26066">
        <ele>19</ele>
        <time>2016-11-14T08:31:01Z</time>
      </trkpt>
      <trkpt lat="47.34915" lon="-1.26062">
        <ele>17</ele>
        <time>2016-11-14T08:33:01Z</time>
      </trkpt>
      <trkpt lat="47.34906" lon="-1.2606">
        <ele>16</ele>
        <time>2016-11-14T08:35:01Z</time>
      </trkpt>
      <trkpt lat="47.34882" lon="-1.26058">
        <ele>14</ele>
        <time>2016-11-14T08:37:01Z</time>
      </trkpt>
      <trkpt lat="47.34874" lon="-1.26058">
        <ele>13</ele>
        <time>2016-11-14T08:39:01Z</time>
      </trkpt>
      <trkpt lat="47.34864" lon="-1.26057">
        <ele>12</ele>
        <time>2016-11-14T08:41:01Z</time>
      </trkpt>
      <trkpt lat="47.34854" lon="-1.26058">
        <ele>11</ele>
        <time>2016-11-14T08:43:01Z</time>
      </trkpt>
      <trkpt lat="47.34848" lon="-1.26056">
        <ele>11</ele>
        <time>2016-11-14T08:45:01Z</time>
      </trkpt>
      <trkpt lat="47.34845" lon="-1.26051">
        <ele>11</ele>
        <time>2016-11-14T08:47:01Z</time>
      </trkpt>
      <trkpt lat="47.34842" lon="-1.26038">
        <ele>10</ele>
        <time>2016-11-14T08:49:01Z</time>
      </trkpt>
      <trkpt lat="47.34842" lon="-1.26036">
        <ele>10</ele>
        <time>2016-11-14T08:51:01Z</time>
      </trkpt>
      <trkpt lat="47.3484" lon="-1.26018">
        <ele>11</ele>
        <time>2016-11-14T08:53:01Z</time>
      </trkpt>
      <trkpt lat="47.34836" lon="-1.26006">
        <ele>10</ele>
        <time>2016-11-14T08:55:01Z</time>
      </trkpt>
      <trkpt lat="47.3483" lon="-1.25977">
        <ele>10</ele>
        <time>2016-11-14T08:57:01Z</time>
      </trkpt>
      <trkpt lat="47.34828" lon="-1.2596">
        <ele>10</ele>
        <time>2016-11-14T08:59:01Z</time>
      </trkpt>
      <trkpt lat="47.34823" lon="-1.25939">
        <ele>10</ele>
        <time>2016-11-14T09:01:01Z</time>
      </trkpt>
      <trkpt lat="47.34814" lon="-1.25893">
        <ele>10</ele>
        <time>2016-11-14T09:03:01Z</time>
      </trkpt>
      <trkpt lat="47.34811" lon="-1.25876">
        <ele>11</ele>
        <time>2016-11-14T09:05:01Z</time>
      </trkpt>
      <trkpt lat="47.34806" lon="-1.25853">
        <ele>11</ele>
        <time>2016-11-14T09:07:01Z</time>
      </trkpt>
      <trkpt lat="47.34802" lon="-1.25828">
        <ele>11</ele>
        <time>2016-11-14T09:09:01Z</time>
      </trkpt>
      <trkpt lat="47.34799" lon="-1.25814">
        <ele>11</ele>
        <time>2016-11-14T09:11:01Z</time>
      </trkpt>
      <trkpt lat="47.34797" lon="-1.25804">
        <ele>11</ele>
        <time>2016-11-14T09:13:01Z</time>
      </trkpt>
      <trkpt lat="47.34795" lon="-1.25794">
        <ele>10</ele>
        <time>2016-11-14T09:15:01Z</time>
      </trkpt>
      <trkpt lat="47.34792" lon="-1.25777">
        <ele>10</ele>
        <time>2016-11-14T09:17:01Z</time>
      </trkpt>
      <trkpt lat="47.34788" lon="-1.25757">
        <ele>10</ele>
        <time>2016-11-14T09:19:01Z</time>
      </trkpt>
      <trkpt lat="47.34787" lon="-1.25755">
        <ele>10</ele>
        <time>2016-11-14T09:21:01Z</time>
      </trkpt>
      <trkpt lat="47.34784" lon="-1.25744">
        <ele>9</ele>
        <time>2016-11-14T09:23:01Z</time>
      </trkpt>
      <trkpt lat="47.34778" lon="-1.25702">
        <ele>9</ele>
        <time>2016-11-14T09:25:01Z</time>
      </trkpt>
      <trkpt lat="47.34776" lon="-1.25677">
        <ele>9</ele>
        <time>2016-11-14T09:27:01Z</time>
      </trkpt>
      <trkpt lat="47.34775" lon="-1.25648">
        <ele>9</ele>
        <time>2016-11-14T09:29:01Z</time>
      </trkpt>
      <trkpt lat="47.3478" lon="-1.25599">
        <ele>11</ele>
        <time>2016-11-14T09:31:01Z</time>
      </trkpt>
      <trkpt lat="47.34785" lon="-1.25575">
        <ele>12</ele>
        <time>2016-11-14T09:33:01Z</time>
      </trkpt>
      <trkpt lat="47.34797" lon="-1.25516">
        <ele>14</ele>
        <time>2016-11-14T09:35:01Z</time>
      </trkpt>
      <trkpt lat="47.348" lon="-1.25499">
        <ele>15</ele>
        <time>2016-11-14T09:37:01Z</time>
      </trkpt>
      <trkpt lat="47.34802" lon="-1.25485">
        <ele>15</ele>
        <time>2016-11-14T09:39:01Z</time>
      </trkpt>
      <trkpt lat="47.34803" lon="-1.25467">
        <ele>15</ele>
        <time>2016-11-14T09:41:01Z</time>
      </trkpt>
      <trkpt lat="47.34803" lon="-1.25451">
        <ele>15</ele>
        <time>2016-11-14T09:43:01Z</time>
      </trkpt>
      <trkpt lat="47.34803" lon="-1.25431">
        <ele>15</ele>
        <time>2016-11-14T09:45:01Z</time>
      </trkpt>
      <trkpt lat="47.34803" lon="-1.25412">
        <ele>15</ele>
        <time>2016-11-14T09:47:01Z</time>
      </trkpt>
      <trkpt lat="47.34805" lon="-1.25396">
        <ele>16</ele>
        <time>2016-11-14T09:49:01Z</time>
      </trkpt>
      <trkpt lat="47.34807" lon="-1.25393">
        <ele>16</ele>
        <time>2016-11-14T09:51:01Z</time>
      </trkpt>
      <trkpt lat="47.34814" lon="-1.25391">
        <ele>17</ele>
        <time>2016-11-14T09:53:01Z</time>
      </trkpt>
      <trkpt lat="47.3483" lon="-1.25401">
        <ele>19</ele>
        <time>2016-11-14T09:55:01Z</time>
      </trkpt>
      <trkpt lat="47.34841" lon="-1.25402">
        <ele>22</ele>
        <time>2016-11-14T09:57:01Z</time>
      </trkpt>
      <trkpt lat="47.3485" lon="-1.25401">
        <ele>24</ele>
        <time>2016-11-14T09:59:01Z</time>
      </trkpt>
      <trkpt lat="47.34856" lon="-1.25404">
        <ele>26</ele>
        <time>2016-11-14T10:01:01Z</time>
      </trkpt>
      <trkpt lat="47.34858" lon="-1.25406">
        <ele>26</ele>
        <time>2016-11-14T10:03:01Z</time>
      </trkpt>
      <trkpt lat="47.34859" lon="-1.25413">
        <ele>26</ele>
        <time>2016-11-14T10:05:01Z</time>
      </trkpt>
      <trkpt lat="47.3486" lon="-1.25425">
        <ele>27</ele>
        <time>2016-11-14T10:07:01Z</time>
      </trkpt>
      <trkpt lat="47.34863" lon="-1.25438">
        <ele>28</ele>
        <time>2016-11-14T10:09:01Z</time>
      </trkpt>
      <trkpt lat="47.34866" lon="-1.25442">
        <ele>28</ele>
        <time>2016-11-14T10:11:01Z</time>
      </trkpt>
      <trkpt lat="47.34868" lon="-1.25442">
        <ele>29</ele>
        <time>2016-11-14T10:13:01Z</time>
      </trkpt>
      <trkpt lat="47.34875" lon="-1.2544">
        <ele>31</ele>
        <time>2016-11-14T10:15:01Z</time>
      </trkpt>
      <trkpt lat="47.34877" lon="-1.25439">
        <ele>32</ele>
        <time>2016-11-14T10:17:01Z</time>
      </trkpt>
      <trkpt lat="47.34885" lon="-1.25437">
        <ele>34</ele>
        <time>2016-11-14T10:19:01Z</time>
      </trkpt>
      <trkpt lat="47.34888" lon="-1.25446">
        <ele>35</ele>
        <time>2016-11-14T10:21:01Z</time>
      </trkpt>
      <trkpt lat="47.34888" lon="-1.25448">
        <ele>35</ele>
        <time>2016-11-14T10:23:01Z</time>
      </trkpt>
      <trkpt lat="47.34893" lon="-1.25459">
        <ele>36</ele>
        <time>2016-11-14T10:25:01Z</time>
      </trkpt>
      <trkpt lat="47.34894" lon="-1.25459">
        <ele>36</ele>
        <time>2016-11-14T10:27:01Z</time>
      </trkpt>
      <trkpt lat="47.34909" lon="-1.25451">
        <ele>41</ele>
        <time>2016-11-14T10:29:01Z</time>
      </trkpt>
      <trkpt lat="47.34917" lon="-1.25459">
        <ele>43</ele>
        <time>2016-11-14T10:31:01Z</time>
      </trkpt>
      <trkpt lat="47.34922" lon="-1.25472">
        <ele>44</ele>
        <time>2016-11-14T10:33:01Z</time>
      </trkpt>
      <trkpt lat="47.3493" lon="-1.25482">
        <ele>45</ele>
        <time>2016-11-14T10:35:01Z</time>
      </trkpt>
      <trkpt lat="47.34938" lon="-1.25479">
        <ele>46</ele>
        <time>2016-11-14T10:37:01Z</time>
      </trkpt>
      <trkpt lat="47.34947" lon="-1.2547">
        <ele>47</ele>
        <time>2016-11-14T10:39:01Z</time>
      </trkpt>
      <trkpt lat="47.34955" lon="-1.2547">
        <ele>49</ele>
        <time>2016-11-14T10:41:01Z</time>
      </trkpt>
      <trkpt lat="47.34963" lon="-1.25474">
        <ele>50</ele>
        <time>2016-11-14T10:43:01Z</time>
      </trkpt>
      <trkpt lat="47.34969" lon="-1.25482">
        <ele>50</ele>
        <time>2016-11-14T10:45:01Z</time>
      </trkpt>
      <trkpt lat="47.34978" lon="-1.25495">
        <ele>51</ele>
        <time>2016-11-14T10:47:01Z</time>
      </trkpt>
      <trkpt lat="47.34985" lon="-1.25503">
        <ele>52</ele>
        <time>2016-11-14T10:49:01Z</time>
      </trkpt>
      <trkpt lat="47.34998" lon="-1.25511">
        <ele>53</ele>
        <time>2016-11-14T10:51:01Z</time>
      </trkpt>
      <trkpt lat="47.35007" lon="-1.25512">
        <ele>54</ele>
        <time>2016-11-14T10:53:01Z</time>
      </trkpt>
      <trkpt lat="47.35014" lon="-1.2551">
        <ele>55</ele>
        <time>2016-11-14T10:55:01Z</time>
      </trkpt>
      <trkpt lat="47.35025" lon="-1.25505">
        <ele>56</ele>
        <time>2016-11-14T10:57:01Z</time>
      </trkpt>
      <trkpt lat="47.35036" lon="-1.25501">
        <ele>58</ele>
        <time>2016-11-14T10:59:01Z</time>
      </trkpt>
      <trkpt lat="47.35048" lon="-1.25491">
        <ele>60</ele>
        <time>2016-11-14T11:01:01Z</time>
      </trkpt>
      <trkpt lat="47.35056" lon="-1.25482">
        <ele>61</ele>
        <time>2016-11-14T11:03:01Z</time>
      </trkpt>
      <trkpt lat="47.35061" lon="-1.25476">
        <ele>61</ele>
        <time>2016-11-14T11:05:01Z</time>
      </trkpt>
      <trkpt lat="47.35062" lon="-1.25475">
        <ele>62</ele>
        <time>2016-11-14T11:07:01Z</time>
      </trkpt>
      <trkpt lat="47.35065" lon="-1.25472">
        <ele>62</ele>
        <time>2016-11-14T11:09:01Z</time>
      </trkpt>
      <trkpt lat="47.35069" lon="-1.25468">
        <ele>63</ele>
        <time>2016-11-14T11:11:01Z</time>
      </trkpt>
      <trkpt lat="47.35071" lon="-1.25467">
        <ele>63</ele>
        <time>2016-11-14T11:13:01Z</time>
      </trkpt>
      <trkpt lat="47.35077" lon="-1.25458">
        <ele>64</ele>
        <time>2016-11-14T11:15:01Z</time>
      </trkpt>
      <trkpt lat="47.35084" lon="-1.25449">
        <ele>65</ele>
        <time>2016-11-14T11:17:01Z</time>
      </trkpt>
      <trkpt lat="47.35095" lon="-1.25441">
        <ele>65</ele>
        <time>2016-11-14T11:19:01Z</time>
      </trkpt>
      <trkpt lat="47.35103" lon="-1.25435">
        <ele>66</ele>
        <time>2016-11-14T11:21:01Z</time>
      </trkpt>
      <trkpt lat="47.35111" lon="-1.25431">
        <ele>66</ele>
        <time>2016-11-14T11:23:01Z</time>
      </trkpt>
      <trkpt lat="47.35118" lon="-1.25427">
        <ele>66</ele>
        <time>2016-11-14T11:25:01Z</time>
      </trkpt>
      <trkpt lat="47.35119" lon="-1.25427">
        <ele>66</ele>
        <time>2016-11-14T11:27:01Z</time>
      </trkpt>
      <trkpt lat="47.3512" lon="-1.25428">
        <ele>66</ele>
        <time>2016-11-14T11:29:01Z</time>
      </trkpt>
      <trkpt lat="47.35122" lon="-1.25427">
        <ele>67</ele>
        <time>2016-11-14T11:31:01Z</time>
      </trkpt>
      <trkpt lat="47.35128" lon="-1.25424">
        <ele>67</ele>
        <time>2016-11-14T11:33:01Z</time>
      </trkpt>
      <trkpt lat="47.3513" lon="-1.25422">
        <ele>67</ele>
        <time>2016-11-14T11:35:01Z</time>
      </trkpt>
      <trkpt lat="47.35131" lon="-1.25421">
        <ele>67</ele>
        <time>2016-11-14T11:37:01Z</time>
      </trkpt>
      <trkpt lat="47.35137" lon="-1.25422">
        <ele>67</ele>
        <time>2016-11-14T11:39:01Z</time>
      </trkpt>
      <trkpt lat="47.35143" lon="-1.2542">
        <ele>67</ele>
        <time>2016-11-14T11:41:01Z</time>
      </trkpt>
      <trkpt lat="47.3515" lon="-1.2542">
        <ele>67</ele>
        <time>2016-11-14T11:43:01Z</time>
      </trkpt>
      <trkpt lat="47.35159" lon="-1.25416">
        <ele>68</ele>
        <time>2016-11-14T11:45:01Z</time>
      </trkpt>
      <trkpt lat="47.35189" lon="-1.2541">
        <ele>68</ele>
        <time>2016-11-14T11:47:01Z</time>
      </trkpt>
      <trkpt lat="47.352" lon="-1.25409">
        <ele>68</ele>
        <time>2016-11-14T11:49:01Z</time>
      </trkpt>
      <trkpt lat="47.35203" lon="-1.2541">
        <ele>68</ele>
        <time>2016-11-14T11:51:01Z</time>
      </trkpt>
      <trkpt lat="47.35204" lon="-1.25415">
        <ele>68</ele>
        <time>2016-11-14T11:53:01Z</time>
      </trkpt>
      <trkpt lat="47.35204" lon="-1.25432">
        <ele>67</ele>
        <time>2016-11-14T11:55:01Z</time>
      </trkpt>
      <trkpt lat="47.35205" lon="-1.25448">
        <ele>67</ele>
        <time>2016-11-14T11:57:01Z</time>
      </trkpt>
      <trkpt lat="47.35208" lon="-1.25464">
        <ele>66</ele>
        <time>2016-11-14T11:59:01Z</time>
      </trkpt>
      <trkpt lat="47.35211" lon="-1.25483">
        <ele>66</ele>
        <time>2016-11-14T12:01:01Z</time>
      </trkpt>
      <trkpt lat="47.35215" lon="-1.25509">
        <ele>65</ele>
        <time>2016-11-14T12:03:01Z</time>
      </trkpt>
      <trkpt lat="47.35221" lon="-1.25535">
        <ele>64</ele>
        <time>2016-11-14T12:05:01Z</time>
      </trkpt>
      <trkpt lat="47.35224" lon="-1.25547">
        <ele>63</ele>
        <time>2016-11-14T12:07:01Z</time>
      </trkpt>
      <trkpt lat="47.35229" lon="-1.25563">
        <ele>63</ele>
        <time>2016-11-14T12:09:01Z</time>
      </trkpt>
      <trkpt lat="47.35235" lon="-1.25578">
        <ele>63</ele>
        <time>2016-11-14T12:11:01Z</time>
      </trkpt>
      <trkpt lat="47.35243" lon="-1.25599">
        <ele>62</ele>
        <time>2016-11-14T12:13:01Z</time>
      </trkpt>
      <trkpt lat="47.3526" lon="-1.25636">
        <ele>62</ele>
        <time>2016-11-14T12:15:01Z</time>
      </trkpt>
      <trkpt lat="47.35278" lon="-1.25674">
        <ele>61</ele>
        <time>2016-11-14T12:17:01Z</time>
      </trkpt>
      <trkpt lat="47.35285" lon="-1.25695">
        <ele>62</ele>
        <time>2016-11-14T12:19:01Z</time>
      </trkpt>
      <trkpt lat="47.3529" lon="-1.25737">
        <ele>62</ele>
        <time>2016-11-14T12:21:01Z</time>
      </trkpt>
      <trkpt lat="47.35291" lon="-1.25755">
        <ele>61</ele>
        <time>2016-11-14T12:23:01Z</time>
      </trkpt>
      <trkpt lat="47.35293" lon="-1.25772">
        <ele>61</ele>
        <time>2016-11-14T12:25:01Z</time>
      </trkpt>
      <trkpt lat="47.35293" lon="-1.25792">
        <ele>61</ele>
        <time>2016-11-14T12:27:01Z</time>
      </trkpt>
      <trkpt lat="47.35291" lon="-1.2581">
        <ele>61</ele>
        <time>2016-11-14T12:29:01Z</time>
      </trkpt>
      <trkpt lat="47.35288" lon="-1.25833">
        <ele>60</ele>
        <time>2016-11-14T12:31:01Z</time>
      </trkpt>
      <trkpt lat="47.35284" lon="-1.25852">
        <ele>60</ele>
        <time>2016-11-14T12:33:01Z</time>
      </trkpt>
      <trkpt lat="47.35284" lon="-1.25867">
        <ele>59</ele>
        <time>2016-11-14T12:35:01Z</time>
      </trkpt>
      <trkpt lat="47.35279" lon="-1.25928">
        <ele>58</ele>
        <time>2016-11-14T12:37:01Z</time>
      </trkpt>
      <trkpt lat="47.35279" lon="-1.25945">
        <ele>58</ele>
        <time>2016-11-14T12:39:01Z</time>
      </trkpt>
      <trkpt lat="47.35277" lon="-1.25967">
        <ele>59</ele>
        <time>2016-11-14T12:41:01Z</time>
      </trkpt>
      <trkpt lat="47.35276" lon="-1.25993">
        <ele>59</ele>
        <time>2016-11-14T12:43:01Z</time>
      </trkpt>
      <trkpt lat="47.35274" lon="-1.26023">
        <ele>59</ele>
        <time>2016-11-14T12:45:01Z</time>
      </trkpt>
      <trkpt lat="47.35272" lon="-1.26045">
        <ele>59</ele>
        <time>2016-11-14T12:47:01Z</time>
      </trkpt>
      <trkpt lat="47.3527" lon="-1.26063">
        <ele>59</ele>
        <time>2016-11-14T12:49:01Z</time>
      </trkpt>
      <trkpt lat="47.35266" lon="-1.26084">
        <ele>58</ele>
        <time>2016-11-14T12:51:01Z</time>
      </trkpt>
      <trkpt lat="47.35264" lon="-1.26104">
        <ele>58</ele>
        <time>2016-11-14T12:53:01Z</time>
      </trkpt>
      <trkpt lat="47.35263" lon="-1.26114">
        <ele>58</ele>
        <time>2016-11-14T12:55:01Z</time>
      </trkpt>
      <trkpt lat="47.35263" lon="-1.26132">
        <ele>58</ele>
        <time>2016-11-14T12:57:01Z</time>
      </trkpt>
      <trkpt lat="47.35262" lon="-1.26149">
        <ele>57</ele>
        <time>2016-11-14T12:59:01Z</time>
      </trkpt>
      <trkpt lat="47.35258" lon="-1.26203">
        <ele>57</ele>
        <time>2016-11-14T13:01:01Z</time>
      </trkpt>
      <trkpt lat="47.35257" lon="-1.26224">
        <ele>57</ele>
        <time>2016-11-14T13:03:01Z</time>
      </trkpt>
      <trkpt lat="47.35254" lon="-1.26242">
        <ele>56</ele>
        <time>2016-11-14T13:05:01Z</time>
      </trkpt>
      <trkpt lat="47.35246" lon="-1.26255">
        <ele>56</ele>
        <time>2016-11-14T13:07:01Z</time>
      </trkpt>
      <trkpt lat="47.35248" lon="-1.2627">
        <ele>56</ele>
        <time>2016-11-14T13:09:01Z</time>
      </trkpt>
      <trkpt lat="47.35253" lon="-1.26299">
        <ele>56</ele>
        <time>2016-11-14T13:11:01Z</time>
      </trkpt>
      <trkpt lat="47.35253" lon="-1.26328">
        <ele>56</ele>
        <time>2016-11-14T13:13:01Z</time>
      </trkpt>
      <trkpt lat="47.35253" lon="-1.26348">
        <ele>56</ele>
        <time>2016-11-14T13:15:01Z</time>
      </trkpt>
      <trkpt lat="47.35253" lon="-1.26367">
        <ele>56</ele>
        <time>2016-11-14T13:17:01Z</time>
      </trkpt>
      <trkpt lat="47.35255" lon="-1.2638">
        <ele>56</ele>
        <time>2016-11-14T13:19:01Z</time>
      </trkpt>
      <trkpt lat="47.35258" lon="-1.26414">
        <ele>56</ele>
        <time>2016-11-14T13:21:01Z</time>
      </trkpt>
      <trkpt lat="47.3526" lon="-1.26436">
        <ele>55</ele>
        <time>2016-11-14T13:23:01Z</time>
      </trkpt>
      <trkpt lat="47.35261" lon="-1.26456">
        <ele>55</ele>
        <time>2016-11-14T13:25:01Z</time>
      </trkpt>
      <trkpt lat="47.35263" lon="-1.26479">
        <ele>55</ele>
        <time>2016-11-14T13:27:01Z</time>
      </trkpt>
      <trkpt lat="47.35264" lon="-1.26486">
        <ele>55</ele>
        <time>2016-11-14T13:29:01Z</time>
      </trkpt>
      <trkpt lat="47.35267" lon="-1.26518">
        <ele>54</ele>
        <time>2016-11-14T13:31:01Z</time>
      </trkpt>
      <trkpt lat="47.35269" lon="-1.26542">
        <ele>54</ele>
        <time>2016-11-14T13:33:01Z</time>
      </trkpt>
      <trkpt lat="47.35274" lon="-1.26603">
        <ele>52</ele>
        <time>2016-11-14T13:35:01Z</time>
      </trkpt>
      <trkpt lat="47.35278" lon="-1.26648">
        <ele>50</ele>
        <time>2016-11-14T13:37:01Z</time>
      </trkpt>
      <trkpt lat="47.35279" lon="-1.26663">
        <ele>50</ele>
        <time>2016-11-14T13:39:01Z</time>
      </trkpt>
      <trkpt lat="47.35281" lon="-1.26677">
        <ele>49</ele>
        <time>2016-11-14T13:41:01Z</time>
      </trkpt>
      <trkpt lat="47.35285" lon="-1.26722">
        <ele>48</ele>
        <time>2016-11-14T13:43:01Z</time>
      </trkpt>
      <trkpt lat="47.35286" lon="-1.26763">
        <ele>47</ele>
        <time>2016-11-14T13:45:01Z</time>
      </trkpt>
      <trkpt lat="47.35287" lon="-1.26777">
        <ele>47</ele>
        <time>2016-11-14T13:47:01Z</time>
      </trkpt>
      <trkpt lat="47.35288" lon="-1.26798">
        <ele>47</ele>
        <time>2016-11-14T13:49:01Z</time>
      </trkpt>
      <trkpt lat="47.35289" lon="-1.26819">
        <ele>47</ele>
        <time>2016-11-14T13:51:01Z</time>
      </trkpt>
      <trkpt lat="47.35289" lon="-1.26842">
        <ele>47</ele>
        <time>2016-11-14T13:53:01Z</time>
      </trkpt>
      <trkpt lat="47.35291" lon="-1.2689">
        <ele>45</ele>
        <time>2016-11-14T13:55:01Z</time>
      </trkpt>
      <trkpt lat="47.35292" lon="-1.26912">
        <ele>45</ele>
        <time>2016-11-14T13:57:01Z</time>
      </trkpt>
      <trkpt lat="47.35292" lon="-1.26955">
        <ele>44</ele>
        <time>2016-11-14T13:59:01Z</time>
      </trkpt>
      <trkpt lat="47.35292" lon="-1.26974">
        <ele>44</ele>
        <time>2016-11-14T14:01:01Z</time>
      </trkpt>
      <trkpt lat="47.35289" lon="-1.26992">
        <ele>44</ele>
        <time>2016-11-14T14:03:01Z</time>
      </trkpt>
      <trkpt lat="47.35285" lon="-1.27015">
        <ele>43</ele>
        <time>2016-11-14T14:05:01Z</time>
      </trkpt>
      <trkpt lat="47.3528" lon="-1.27031">
        <ele>43</ele>
        <time>2016-11-14T14:07:01Z</time>
      </trkpt>
      <trkpt lat="47.3527" lon="-1.2705">
        <ele>42</ele>
        <time>2016-11-14T14:09:01Z</time>
      </trkpt>
      <trkpt lat="47.3525" lon="-1.27094">
        <ele>40</ele>
        <time>2016-11-14T14:11:01Z</time>
      </trkpt>
      <trkpt lat="47.35246" lon="-1.27111">
        <ele>40</ele>
        <time>2016-11-14T14:13:01Z</time>
      </trkpt>
      <trkpt lat="47.3523" lon="-1.27149">
        <ele>39</ele>
        <time>2016-11-14T14:15:01Z</time>
      </trkpt>
      <trkpt lat="47.35222" lon="-1.27165">
        <ele>39</ele>
        <time>2016-11-14T14:17:01Z</time>
      </trkpt>
      <trkpt lat="47.35214" lon="-1.27184">
        <ele>39</ele>
        <time>2016-11-14T14:19:01Z</time>
      </trkpt>
      <trkpt lat="47.35208" lon="-1.27195">
        <ele>38</ele>
        <time>2016-11-14T14:21:01Z</time>
      </trkpt>
      <trkpt lat="47.35203" lon="-1.27207">
        <ele>38</ele>
        <time>2016-11-14T14:23:01Z</time>
      </trkpt>
      <trkpt lat="47.35195" lon="-1.27223">
        <ele>38</ele>
        <time>2016-11-14T14:25:01Z</time>
      </trkpt>
      <trkpt lat="47.35189" lon="-1.27236">
        <ele>38</ele>
        <time>2016-11-14T14:27:01Z</time>
      </trkpt>
      <trkpt lat="47.35181" lon="-1.27253">
        <ele>38</ele>
        <time>2016-11-14T14:29:01Z</time>
      </trkpt>
      <trkpt lat="47.35172" lon="-1.2727">
        <ele>37</ele>
        <time>2016-11-14T14:31:01Z</time>
      </trkpt>
      <trkpt lat="47.35166" lon="-1.27283">
        <ele>37</ele>
        <time>2016-11-14T14:33:01Z</time>
      </trkpt>
      <trkpt lat="47.35153" lon="-1.27313">
        <ele>35</ele>
        <time>2016-11-14T14:35:01Z</time>
      </trkpt>
      <trkpt lat="47.35135" lon="-1.27351">
        <ele>33</ele>
        <time>2016-11-14T14:37:01Z</time>
      </trkpt>
      <trkpt lat="47.35126" lon="-1.27366">
        <ele>32</ele>
        <time>2016-11-14T14:39:01Z</time>
      </trkpt>
      <trkpt lat="47.35116" lon="-1.27364">
        <ele>31</ele>
        <time>2016-11-14T14:41:01Z</time>
      </trkpt>
      <trkpt lat="47.35109" lon="-1.27363">
        <ele>30</ele>
        <time>2016-11-14T14:43:01Z</time>
      </trkpt>
      <trkpt lat="47.35105" lon="-1.27362">
        <ele>30</ele>
        <time>2016-11-14T14:45:01Z</time>
      </trkpt>
      <trkpt lat="47.35096" lon="-1.27362">
        <ele>29</ele>
        <time>2016-11-14T14:47:01Z</time>
      </trkpt>
      <trkpt lat="47.35058" lon="-1.27361">
        <ele>26</ele>
        <time>2016-11-14T14:49:01Z</time>
      </trkpt>
      <trkpt lat="47.35043" lon="-1.2736">
        <ele>25</ele>
        <time>2016-11-14T14:51:01Z</time>
      </trkpt>
      <trkpt lat="47.35027" lon="-1.27359">
        <ele>24</ele>
        <time>2016-11-14T14:53:01Z</time>
      </trkpt>
      <trkpt lat="47.34995" lon="-1.27356">
        <ele>22</ele>
        <time>2016-11-14T14:55:01Z</time>
      </trkpt>
      <trkpt lat="47.34983" lon="-1.27354">
        <ele>21</ele>
        <time>2016-11-14T14:57:01Z</time>
      </trkpt>
      <trkpt lat="47.3497" lon="-1.27355">
        <ele>21</ele>
        <time>2016-11-14T14:59:01Z</time>
      </trkpt>
      <trkpt lat="47.34954" lon="-1.27354">
        <ele>20</ele>
        <time>2016-11-14T15:01:01Z</time>
      </trkpt>
      <trkpt lat="47.34942" lon="-1.27355">
        <ele>19</ele>
        <time>2016-11-14T15:03:01Z</time>
      </trkpt>
      <trkpt lat="47.34939" lon="-1.27358">
        <ele>19</ele>
        <time>2016-11-14T15:05:01Z</time>
      </trkpt>
      <trkpt lat="47.34936" lon="-1.27362">
        <ele>19</ele>
        <time>2016-11-14T15:07:01Z</time>
      </trkpt>
      <trkpt lat="47.34923" lon="-1.27377">
        <ele>18</ele>
        <time>2016-11-14T15:09:01Z</time>
      </trkpt>
      <trkpt lat="47.34914" lon="-1.27392">
        <ele>18</ele>
        <time>2016-11-14T15:11:01Z</time>
      </trkpt>
      <trkpt lat="47.34911" lon="-1.2741">
        <ele>17</ele>
        <time>2016-11-14T15:13:01Z</time>
      </trkpt>
      <trkpt lat="47.34911" lon="-1.27424">
        <ele>17</ele>
        <time>2016-11-14T15:15:01Z</time>
      </trkpt>
      <trkpt lat="47.34911" lon="-1.27438">
        <ele>17</ele>
        <time>2016-11-14T15:17:01Z</time>
      </trkpt>
      <trkpt lat="47.3491" lon="-1.27443">
        <ele>17</ele>
        <time>2016-11-14T15:19:01Z</time>
      </trkpt>
      <trkpt lat="47.34906" lon="-1.27448">
        <ele>17</ele>
        <time>2016-11-14T15:21:01Z</time>
      </trkpt>
      <trkpt lat="47.34896" lon="-1.27444">
        <ele>16</ele>
        <time>2016-11-14T15:23:01Z</time>
      </trkpt>
      <trkpt lat="47.34893" lon="-1.27445">
        <ele>15</ele>
        <time>2016-11-14T15:25:01Z</time>
      </trkpt>
      <trkpt lat="47.34892" lon="-1.27446">
        <ele>15</ele>
        <time>2016-11-14T15:27:01Z</time>
      </trkpt>
      <trkpt lat="47.34888" lon="-1.27455">
        <ele>15</ele>
        <time>2016-11-14T15:29:01Z</time>
      </trkpt>
      <trkpt lat="47.34881" lon="-1.27465">
        <ele>14</ele>
        <time>2016-11-14T15:31:01Z</time>
      </trkpt>
      <trkpt lat="47.34872" lon="-1.27476">
        <ele>13</ele>
        <time>2016-11-14T15:33:01Z</time>
      </trkpt>
      <trkpt lat="47.34862" lon="-1.2748">
        <ele>12</ele>
        <time>2016-11-14T15:35:01Z</time>
      </trkpt>
      <trkpt lat="47.34859" lon="-1.27484">
        <ele>12</ele>
        <time>2016-11-14T15:37:01Z</time>
      </trkpt>
      <trkpt lat="47.34856" lon="-1.27495">
        <ele>12</ele>
        <time>2016-11-14T15:39:01Z</time>
      </trkpt>
      <trkpt lat="47.34855" lon="-1.27497">
        <ele>12</ele>
        <time>2016-11-14T15:41:01Z</time>
      </trkpt>
      <trkpt lat="47.34851" lon="-1.27509">
        <ele>11</ele>
        <time>2016-11-14T15:43:01Z</time>
      </trkpt>
      <trkpt lat="47.34847" lon="-1.27524">
        <ele>11</ele>
        <time>2016-11-14T15:45:01Z</time>
      </trkpt>
      <trkpt lat="47.34845" lon="-1.27559">
        <ele>11</ele>
        <time>2016-11-14T15:47:01Z</time>
      </trkpt>
      <trkpt lat="47.34845" lon="-1.2756">
        <ele>11</ele>
        <time>2016-11-14T15:49:01Z</time>
      </trkpt>
      <trkpt lat="47.34836" lon="-1.27579">
        <ele>9</ele>
        <time>2016-11-14T15:51:01Z</time>
      </trkpt>
      <trkpt lat="47.34833" lon="-1.27593">
        <ele>9</ele>
        <time>2016-11-14T15:53:01Z</time>
      </trkpt>
      <trkpt lat="47.34832" lon="-1.2761">
        <ele>9</ele>
        <time>2016-11-14T15:55:01Z</time>
      </trkpt>
      <trkpt lat="47.34832" lon="-1.2764">
        <ele>10</ele>
        <time>2016-11-14T15:57:01Z</time>
      </trkpt>
      <trkpt lat="47.3483" lon="-1.27669">
        <ele>10</ele>
        <time>2016-11-14T15:59:01Z</time>
      </trkpt>
      <trkpt lat="47.3483" lon="-1.27671">
        <ele>10</ele>
        <time>2016-11-14T16:01:01Z</time>
      </trkpt>
      <trkpt lat="47.34828" lon="-1.27679">
        <ele>10</ele>
        <time>2016-11-14T16:03:01Z</time>
      </trkpt>
      <trkpt lat="47.3482" lon="-1.27713">
        <ele>10</ele>
        <time>2016-11-14T16:05:01Z</time>
      </trkpt>
      <trkpt lat="47.34816" lon="-1.27731">
        <ele>10</ele>
        <time>2016-11-14T16:07:01Z</time>
      </trkpt>
      <trkpt lat="47.34814" lon="-1.27751">
        <ele>11</ele>
        <time>2016-11-14T16:09:01Z</time>
      </trkpt>
      <trkpt lat="47.34811" lon="-1.27769">
        <ele>11</ele>
        <time>2016-11-14T16:11:01Z</time>
      </trkpt>
      <trkpt lat="47.34811" lon="-1.27781">
        <ele>11</ele>
        <time>2016-11-14T16:13:01Z</time>
      </trkpt>
      <trkpt lat="47.34811" lon="-1.27796">
        <ele>12</ele>
        <time>2016-11-14T16:15:01Z</time>
      </trkpt>
      <trkpt lat="47.34811" lon="-1.27803">
        <ele>12</ele>
        <time>2016-11-14T16:17:01Z</time>
      </trkpt>
      <trkpt lat="47.3481" lon="-1.27808">
        <ele>12</ele>
        <time>2016-11-14T16:19:01Z</time>
      </trkpt>
      <trkpt lat="47.34803" lon="-1.27815">
        <ele>12</ele>
        <time>2016-11-14T16:21:01Z</time>
      </trkpt>
      <trkpt lat="47.34796" lon="-1.27828">
        <ele>12</ele>
        <time>2016-11-14T16:23:01Z</time>
      </trkpt>
      <trkpt lat="47.34791" lon="-1.27844">
        <ele>12</ele>
        <time>2016-11-14T16:25:01Z</time>
      </trkpt>
      <trkpt lat="47.34788" lon="-1.27859">
        <ele>12</ele>
        <time>2016-11-14T16:27:01Z</time>
      </trkpt>
      <trkpt lat="47.34785" lon="-1.27872">
        <ele>12</ele>
        <time>2016-11-14T16:29:01Z</time>
      </trkpt>
      <trkpt lat="47.34781" lon="-1.27877">
        <ele>12</ele>
        <time>2016-11-14T16:31:01Z</time>
      </trkpt>
      <trkpt lat="47.3478" lon="-1.2789">
        <ele>12</ele>
        <time>2016-11-14T16:33:01Z</time>
      </trkpt>
      <trkpt lat="47.3478" lon="-1.27894">
        <ele>12</ele>
        <time>2016-11-14T16:35:01Z</time>
      </trkpt>
      <trkpt lat="47.34769" lon="-1.27947">
        <ele>13</ele>
        <time>2016-11-14T16:37:01Z</time>
      </trkpt>
      <trkpt lat="47.34767" lon="-1.27952">
        <ele>13</ele>
        <time>2016-11-14T16:39:01Z</time>
      </trkpt>
      <trkpt lat="47.34764" lon="-1.27964">
        <ele>13</ele>
        <time>2016-11-14T16:41:01Z</time>
      </trkpt>
      <trkpt lat="47.34762" lon="-1.27981">
        <ele>13</ele>
        <time>2016-11-14T16:43:01Z</time>
      </trkpt>
      <trkpt lat="47.34758" lon="-1.27999">
        <ele>13</ele>
        <time>2016-11-14T16:45:01Z</time>
      </trkpt>
      <trkpt lat="47.34749" lon="-1.28038">
        <ele>12</ele>
        <time>2016-11-14T16:47:01Z</time>
      </trkpt>
      <trkpt lat="47.34744" lon="-1.28057">
        <ele>12</ele>
        <time>2016-11-14T16:49:01Z</time>
      </trkpt>
      <trkpt lat="47.3474" lon="-1.2808">
        <ele>12</ele>
        <time>2016-11-14T16:51:01Z</time>
      </trkpt>
      <trkpt lat="47.34735" lon="-1.281">
        <ele>13</ele>
        <time>2016-11-14T16:53:01Z</time>
      </trkpt>
      <trkpt lat="47.34726" lon="-1.28137">
        <ele>13</ele>
        <time>2016-11-14T16:55:01Z</time>
      </trkpt>
      <trkpt lat="47.34714" lon="-1.28185">
        <ele>13</ele>
        <time>2016-11-14T16:57:01Z</time>
      </trkpt>
      <trkpt lat="47.3471" lon="-1.28199">
        <ele>13</ele>
        <time>2016-11-14T16:59:01Z</time>
      </trkpt>
      <trkpt lat="47.34706" lon="-1.28218">
        <ele>13</ele>
        <time>2016-11-14T17:01:01Z</time>
      </trkpt>
      <trkpt lat="47.34702" lon="-1.28238">
        <ele>13</ele>
        <time>2016-11-14T17:03:01Z</time>
      </trkpt>
      <trkpt lat="47.34693" lon="-1.28271">
        <ele>13</ele>
        <time>2016-11-14T17:05:01Z</time>
      </trkpt>
      <trkpt lat="47.34685" lon="-1.28293">
        <ele>13</ele>
        <time>2016-11-14T17:07:01Z</time>
      </trkpt>
      <trkpt lat="47.3468" lon="-1.28309">
        <ele>12</ele>
        <time>2016-11-14T17:09:01Z</time>
      </trkpt>
      <trkpt lat="47.34676" lon="-1.28326">
        <ele>12</ele>
        <time>2016-11-14T17:11:01Z</time>
      </trkpt>
      <trkpt lat="47.34672" lon="-1.28334">
        <ele>12</ele>
        <time>2016-11-14T17:13:01Z</time>
      </trkpt>
      <trkpt lat="47.34669" lon="-1.2834">
        <ele>11</ele>
        <time>2016-11-14T17:15:01Z</time>
      </trkpt>
      <trkpt lat="47.34668" lon="-1.28343">
        <ele>11</ele>
        <time>2016-11-14T17:17:01Z</time>
      </trkpt>
      <trkpt lat="47.34664" lon="-1.2835">
        <ele>11</ele>
        <time>2016-11-14T17:19:01Z</time>
      </trkpt>
      <trkpt lat="47.34657" lon="-1.2836">
        <ele>11</ele>
        <time>2016-11-14T17:21:01Z</time>
      </trkpt>
      <trkpt lat="47.34646" lon="-1.2836">
        <ele>11</ele>
        <time>2016-11-14T17:23:01Z</time>
      </trkpt>
      <trkpt lat="47.34636" lon="-1.28354">
        <ele>10</ele>
        <time>2016-11-14T17:25:01Z</time>
      </trkpt>
      <trkpt lat="47.34634" lon="-1.28341">
        <ele>10</ele>
        <time>2016-11-14T17:27:01Z</time>
        <extensions>
          <visugpx:TrkExtension xmlns:visugpx="https://www.visugpx.com/editgpx/">
            <visugpx:node>1</visugpx:node>
            </visugpx:TrkExtension>
        </extensions>
      </trkpt>
    </trkseg>
  </trk>
  <trk>
    <name><![CDATA[brevet des grimpeurs-1309503]]></name>
    <extensions>
      <line xmlns="http://www.topografix.com/GPX/gpx_style/0/2">
        <color>FF0000</color>
        <width>4</width>
      </line>
    </extensions>
    <trkseg>
      <trkpt lat="47.34627" lon="-1.28279">
        <ele>9</ele>
        <time>2025-02-26T10:22:09Z</time>
      </trkpt>
      <trkpt lat="47.34627" lon="-1.28335">
        <ele>10</ele>
        <time>2025-02-26T10:23:00Z</time>
      </trkpt>
      <trkpt lat="47.34634" lon="-1.28356">
        <ele>10</ele>
        <time>2025-02-26T10:23:21Z</time>
      </trkpt>
      <trkpt lat="47.34653" lon="-1.28358">
        <ele>11</ele>
        <time>2025-02-26T10:23:46Z</time>
      </trkpt>
      <trkpt lat="47.34679" lon="-1.28294">
        <ele>12</ele>
        <time>2025-02-26T10:24:54Z</time>
      </trkpt>
      <trkpt lat="47.34726" lon="-1.28105">
        <ele>12</ele>
        <time>2025-02-26T10:27:56Z</time>
      </trkpt>
      <trkpt lat="47.34723" lon="-1.28082">
        <ele>12</ele>
        <time>2025-02-26T10:28:17Z</time>
      </trkpt>
      <trkpt lat="47.34687" lon="-1.2806">
        <ele>10</ele>
        <time>2025-02-26T10:29:09Z</time>
      </trkpt>
      <trkpt lat="47.34677" lon="-1.28037">
        <ele>10</ele>
        <time>2025-02-26T10:29:34Z</time>
      </trkpt>
      <trkpt lat="47.34691" lon="-1.27972">
        <ele>10</ele>
        <time>2025-02-26T10:30:35Z</time>
      </trkpt>
      <trkpt lat="47.34709" lon="-1.2778">
        <ele>7</ele>
        <time>2025-02-26T10:33:31Z</time>
      </trkpt>
      <trkpt lat="47.34727" lon="-1.27699">
        <ele>6</ele>
        <time>2025-02-26T10:34:48Z</time>
      </trkpt>
      <trkpt lat="47.34724" lon="-1.27633">
        <ele>5</ele>
        <time>2025-02-26T10:35:47Z</time>
      </trkpt>
      <trkpt lat="47.34748" lon="-1.27446">
        <ele>6</ele>
        <time>2025-02-26T10:38:40Z</time>
      </trkpt>
      <trkpt lat="47.34753" lon="-1.27287">
        <ele>8</ele>
        <time>2025-02-26T10:41:03Z</time>
      </trkpt>
      <trkpt lat="47.34771" lon="-1.27153">
        <ele>8</ele>
        <time>2025-02-26T10:43:07Z</time>
      </trkpt>
      <trkpt lat="47.34773" lon="-1.27077">
        <ele>8</ele>
        <time>2025-02-26T10:44:16Z</time>
      </trkpt>
      <trkpt lat="47.3479" lon="-1.27">
        <ele>7</ele>
        <time>2025-02-26T10:45:29Z</time>
      </trkpt>
      <trkpt lat="47.34828" lon="-1.26771">
        <ele>6</ele>
        <time>2025-02-26T10:49:02Z</time>
      </trkpt>
      <trkpt lat="47.34838" lon="-1.26756">
        <ele>6</ele>
        <time>2025-02-26T10:49:21Z</time>
      </trkpt>
      <trkpt lat="47.34945" lon="-1.26654">
        <ele>13</ele>
        <time>2025-02-26T10:52:11Z</time>
      </trkpt>
      <trkpt lat="47.3495" lon="-1.26641">
        <ele>14</ele>
        <time>2025-02-26T10:52:25Z</time>
      </trkpt>
      <trkpt lat="47.34921" lon="-1.26301">
        <ele>11</ele>
        <time>2025-02-26T10:57:34Z</time>
      </trkpt>
      <trkpt lat="47.34908" lon="-1.26252">
        <ele>12</ele>
        <time>2025-02-26T10:58:22Z</time>
      </trkpt>
      <trkpt lat="47.34853" lon="-1.26111">
        <ele>10</ele>
        <time>2025-02-26T11:00:49Z</time>
      </trkpt>
      <trkpt lat="47.34845" lon="-1.26073">
        <ele>10</ele>
        <time>2025-02-26T11:01:25Z</time>
      </trkpt>
      <trkpt lat="47.34916" lon="-1.2607">
        <ele>17</ele>
        <time>2025-02-26T11:03:00Z</time>
      </trkpt>
      <trkpt lat="47.34965" lon="-1.26058">
        <ele>22</ele>
        <time>2025-02-26T11:04:06Z</time>
      </trkpt>
      <trkpt lat="47.35033" lon="-1.26022">
        <ele>30</ele>
        <time>2025-02-26T11:05:43Z</time>
      </trkpt>
      <trkpt lat="47.35095" lon="-1.25972">
        <ele>35</ele>
        <time>2025-02-26T11:07:17Z</time>
      </trkpt>
      <trkpt lat="47.35161" lon="-1.25951">
        <ele>46</ele>
        <time>2025-02-26T11:08:47Z</time>
      </trkpt>
      <trkpt lat="47.35187" lon="-1.25909">
        <ele>50</ele>
        <time>2025-02-26T11:09:38Z</time>
      </trkpt>
      <trkpt lat="47.35253" lon="-1.25872">
        <ele>57</ele>
        <time>2025-02-26T11:11:13Z</time>
      </trkpt>
      <trkpt lat="47.35274" lon="-1.25849">
        <ele>59</ele>
        <time>2025-02-26T11:11:48Z</time>
      </trkpt>
      <trkpt lat="47.35282" lon="-1.25803">
        <ele>60</ele>
        <time>2025-02-26T11:12:30Z</time>
      </trkpt>
      <trkpt lat="47.3527" lon="-1.25684">
        <ele>61</ele>
        <time>2025-02-26T11:14:19Z</time>
      </trkpt>
      <trkpt lat="47.35237" lon="-1.25607">
        <ele>61</ele>
        <time>2025-02-26T11:15:42Z</time>
      </trkpt>
      <trkpt lat="47.35197" lon="-1.25474">
        <ele>66</ele>
        <time>2025-02-26T11:17:53Z</time>
      </trkpt>
      <trkpt lat="47.35196" lon="-1.25414">
        <ele>68</ele>
        <time>2025-02-26T11:18:47Z</time>
      </trkpt>
      <trkpt lat="47.35169" lon="-1.25407">
        <ele>68</ele>
        <time>2025-02-26T11:19:24Z</time>
      </trkpt>
      <trkpt lat="47.3513" lon="-1.25416">
        <ele>67</ele>
        <time>2025-02-26T11:20:17Z</time>
      </trkpt>
      <trkpt lat="47.35089" lon="-1.2544">
        <ele>65</ele>
        <time>2025-02-26T11:21:16Z</time>
      </trkpt>
      <trkpt lat="47.35042" lon="-1.2548">
        <ele>59</ele>
        <time>2025-02-26T11:22:28Z</time>
      </trkpt>
      <trkpt lat="47.35009" lon="-1.25495">
        <ele>55</ele>
        <time>2025-02-26T11:23:14Z</time>
      </trkpt>
      <trkpt lat="47.3496" lon="-1.25466">
        <ele>49</ele>
        <time>2025-02-26T11:24:24Z</time>
      </trkpt>
      <trkpt lat="47.34931" lon="-1.25471">
        <ele>45</ele>
        <time>2025-02-26T11:25:03Z</time>
      </trkpt>
      <trkpt lat="47.34912" lon="-1.25454">
        <ele>42</ele>
        <time>2025-02-26T11:25:33Z</time>
      </trkpt>
      <trkpt lat="47.34894" lon="-1.25453">
        <ele>36</ele>
        <time>2025-02-26T11:25:57Z</time>
      </trkpt>
      <trkpt lat="47.34881" lon="-1.25435">
        <ele>33</ele>
        <time>2025-02-26T11:26:21Z</time>
      </trkpt>
      <trkpt lat="47.34866" lon="-1.25435">
        <ele>28</ele>
        <time>2025-02-26T11:26:41Z</time>
      </trkpt>
      <trkpt lat="47.34858" lon="-1.25428">
        <ele>26</ele>
        <time>2025-02-26T11:26:53Z</time>
      </trkpt>
      <trkpt lat="47.34855" lon="-1.25409">
        <ele>25</ele>
        <time>2025-02-26T11:27:11Z</time>
      </trkpt>
      <trkpt lat="47.3482" lon="-1.25398">
        <ele>18</ele>
        <time>2025-02-26T11:27:59Z</time>
      </trkpt>
      <trkpt lat="47.34807" lon="-1.25387">
        <ele>16</ele>
        <time>2025-02-26T11:28:19Z</time>
      </trkpt>
      <trkpt lat="47.34787" lon="-1.25242">
        <ele>17</ele>
        <time>2025-02-26T11:30:33Z</time>
      </trkpt>
      <trkpt lat="47.348" lon="-1.25209">
        <ele>21</ele>
        <time>2025-02-26T11:31:07Z</time>
      </trkpt>
      <trkpt lat="47.34858" lon="-1.25175">
        <ele>36</ele>
        <time>2025-02-26T11:32:30Z</time>
      </trkpt>
      <trkpt lat="47.3487" lon="-1.25175">
        <ele>39</ele>
        <time>2025-02-26T11:32:46Z</time>
      </trkpt>
      <trkpt lat="47.34902" lon="-1.25156">
        <ele>48</ele>
        <time>2025-02-26T11:33:32Z</time>
      </trkpt>
      <trkpt lat="47.35047" lon="-1.25123">
        <ele>66</ele>
        <time>2025-02-26T11:36:48Z</time>
      </trkpt>
      <trkpt lat="47.35136" lon="-1.25118">
        <ele>69</ele>
        <time>2025-02-26T11:38:47Z</time>
      </trkpt>
      <trkpt lat="47.35141" lon="-1.25108">
        <ele>69</ele>
        <time>2025-02-26T11:38:58Z</time>
      </trkpt>
      <trkpt lat="47.35134" lon="-1.25002">
        <ele>68</ele>
        <time>2025-02-26T11:40:35Z</time>
      </trkpt>
      <trkpt lat="47.35109" lon="-1.24819">
        <ele>67</ele>
        <time>2025-02-26T11:43:23Z</time>
      </trkpt>
      <trkpt lat="47.35085" lon="-1.24706">
        <ele>66</ele>
        <time>2025-02-26T11:45:10Z</time>
      </trkpt>
      <trkpt lat="47.35085" lon="-1.24685">
        <ele>66</ele>
        <time>2025-02-26T11:45:29Z</time>
      </trkpt>
      <trkpt lat="47.35094" lon="-1.24653">
        <ele>65</ele>
        <time>2025-02-26T11:46:01Z</time>
      </trkpt>
      <trkpt lat="47.35117" lon="-1.24614">
        <ele>63</ele>
        <time>2025-02-26T11:46:47Z</time>
      </trkpt>
      <trkpt lat="47.3514" lon="-1.2456">
        <ele>62</ele>
        <time>2025-02-26T11:47:45Z</time>
      </trkpt>
      <trkpt lat="47.35139" lon="-1.2454">
        <ele>61</ele>
        <time>2025-02-26T11:48:03Z</time>
      </trkpt>
      <trkpt lat="47.35125" lon="-1.24496">
        <ele>57</ele>
        <time>2025-02-26T11:48:47Z</time>
      </trkpt>
      <trkpt lat="47.35131" lon="-1.24454">
        <ele>54</ele>
        <time>2025-02-26T11:49:26Z</time>
      </trkpt>
      <trkpt lat="47.35192" lon="-1.2429">
        <ele>47</ele>
        <time>2025-02-26T11:52:15Z</time>
      </trkpt>
      <trkpt lat="47.35203" lon="-1.2421">
        <ele>44</ele>
        <time>2025-02-26T11:53:29Z</time>
      </trkpt>
      <trkpt lat="47.35226" lon="-1.24153">
        <ele>44</ele>
        <time>2025-02-26T11:54:29Z</time>
      </trkpt>
      <trkpt lat="47.35227" lon="-1.24107">
        <ele>42</ele>
        <time>2025-02-26T11:55:11Z</time>
      </trkpt>
      <trkpt lat="47.35219" lon="-1.24063">
        <ele>37</ele>
        <time>2025-02-26T11:55:52Z</time>
      </trkpt>
      <trkpt lat="47.35219" lon="-1.24025">
        <ele>33</ele>
        <time>2025-02-26T11:56:26Z</time>
      </trkpt>
      <trkpt lat="47.35268" lon="-1.23954">
        <ele>26</ele>
        <time>2025-02-26T11:57:58Z</time>
      </trkpt>
      <trkpt lat="47.35256" lon="-1.2391">
        <ele>20</ele>
        <time>2025-02-26T11:58:41Z</time>
      </trkpt>
      <trkpt lat="47.35226" lon="-1.23862">
        <ele>16</ele>
        <time>2025-02-26T11:59:40Z</time>
      </trkpt>
      <trkpt lat="47.35175" lon="-1.23815">
        <ele>10</ele>
        <time>2025-02-26T12:01:00Z</time>
      </trkpt>
      <trkpt lat="47.35167" lon="-1.23816">
        <ele>9</ele>
        <time>2025-02-26T12:01:11Z</time>
      </trkpt>
      <trkpt lat="47.35159" lon="-1.23896">
        <ele>11</ele>
        <time>2025-02-26T12:02:24Z</time>
      </trkpt>
      <trkpt lat="47.35129" lon="-1.23989">
        <ele>16</ele>
        <time>2025-02-26T12:03:57Z</time>
      </trkpt>
      <trkpt lat="47.35123" lon="-1.2404">
        <ele>19</ele>
        <time>2025-02-26T12:04:44Z</time>
      </trkpt>
      <trkpt lat="47.35101" lon="-1.24126">
        <ele>18</ele>
        <time>2025-02-26T12:06:07Z</time>
      </trkpt>
      <trkpt lat="47.35044" lon="-1.24296">
        <ele>15</ele>
        <time>2025-02-26T12:08:58Z</time>
      </trkpt>
      <trkpt lat="47.35005" lon="-1.24448">
        <ele>17</ele>
        <time>2025-02-26T12:11:25Z</time>
      </trkpt>
      <trkpt lat="47.34973" lon="-1.24536">
        <ele>21</ele>
        <time>2025-02-26T12:12:55Z</time>
      </trkpt>
      <trkpt lat="47.3494" lon="-1.24598">
        <ele>20</ele>
        <time>2025-02-26T12:14:07Z</time>
      </trkpt>
      <trkpt lat="47.34927" lon="-1.24638">
        <ele>22</ele>
        <time>2025-02-26T12:14:47Z</time>
      </trkpt>
      <trkpt lat="47.34861" lon="-1.24771">
        <ele>20</ele>
        <time>2025-02-26T12:17:16Z</time>
      </trkpt>
      <trkpt lat="47.34804" lon="-1.24943">
        <ele>24</ele>
        <time>2025-02-26T12:20:09Z</time>
      </trkpt>
      <trkpt lat="47.34794" lon="-1.25003">
        <ele>23</ele>
        <time>2025-02-26T12:21:05Z</time>
      </trkpt>
      <trkpt lat="47.34777" lon="-1.25036">
        <ele>18</ele>
        <time>2025-02-26T12:21:42Z</time>
      </trkpt>
      <trkpt lat="47.34748" lon="-1.25126">
        <ele>11</ele>
        <time>2025-02-26T12:23:12Z</time>
      </trkpt>
      <trkpt lat="47.3474" lon="-1.25214">
        <ele>10</ele>
        <time>2025-02-26T12:24:33Z</time>
      </trkpt>
      <trkpt lat="47.34728" lon="-1.25246">
        <ele>9</ele>
        <time>2025-02-26T12:25:06Z</time>
      </trkpt>
      <trkpt lat="47.34718" lon="-1.25293">
        <ele>8</ele>
        <time>2025-02-26T12:25:50Z</time>
      </trkpt>
      <trkpt lat="47.34718" lon="-1.25339">
        <ele>8</ele>
        <time>2025-02-26T12:26:32Z</time>
      </trkpt>
      <trkpt lat="47.3473" lon="-1.25335">
        <ele>9</ele>
        <time>2025-02-26T12:26:48Z</time>
      </trkpt>
      <trkpt lat="47.34749" lon="-1.25353">
        <ele>9</ele>
        <time>2025-02-26T12:27:18Z</time>
      </trkpt>
      <trkpt lat="47.34772" lon="-1.25356">
        <ele>12</ele>
        <time>2025-02-26T12:27:49Z</time>
      </trkpt>
      <trkpt lat="47.34797" lon="-1.25372">
        <ele>15</ele>
        <time>2025-02-26T12:28:26Z</time>
      </trkpt>
      <trkpt lat="47.3481" lon="-1.25397">
        <ele>16</ele>
        <time>2025-02-26T12:28:54Z</time>
      </trkpt>
      <trkpt lat="47.34842" lon="-1.25399">
        <ele>22</ele>
        <time>2025-02-26T12:29:37Z</time>
      </trkpt>
      <trkpt lat="47.34862" lon="-1.25434">
        <ele>27</ele>
        <time>2025-02-26T12:30:18Z</time>
      </trkpt>
      <trkpt lat="47.34885" lon="-1.25437">
        <ele>34</ele>
        <time>2025-02-26T12:30:49Z</time>
      </trkpt>
      <trkpt lat="47.3489" lon="-1.25451">
        <ele>35</ele>
        <time>2025-02-26T12:31:03Z</time>
      </trkpt>
      <trkpt lat="47.34909" lon="-1.2545">
        <ele>41</ele>
        <time>2025-02-26T12:31:29Z</time>
      </trkpt>
      <trkpt lat="47.34921" lon="-1.25474">
        <ele>44</ele>
        <time>2025-02-26T12:31:56Z</time>
      </trkpt>
      <trkpt lat="47.34946" lon="-1.25463">
        <ele>47</ele>
        <time>2025-02-26T12:32:31Z</time>
      </trkpt>
      <trkpt lat="47.34964" lon="-1.25473">
        <ele>50</ele>
        <time>2025-02-26T12:32:56Z</time>
      </trkpt>
      <trkpt lat="47.34974" lon="-1.25489">
        <ele>51</ele>
        <time>2025-02-26T12:33:16Z</time>
      </trkpt>
      <trkpt lat="47.34995" lon="-1.25503">
        <ele>53</ele>
        <time>2025-02-26T12:33:47Z</time>
      </trkpt>
      <trkpt lat="47.3503" lon="-1.2549">
        <ele>58</ele>
        <time>2025-02-26T12:34:35Z</time>
      </trkpt>
      <trkpt lat="47.35076" lon="-1.25448">
        <ele>64</ele>
        <time>2025-02-26T12:35:47Z</time>
      </trkpt>
      <trkpt lat="47.35172" lon="-1.25405">
        <ele>68</ele>
        <time>2025-02-26T12:38:01Z</time>
      </trkpt>
      <trkpt lat="47.35187" lon="-1.25407">
        <ele>68</ele>
        <time>2025-02-26T12:38:21Z</time>
      </trkpt>
      <trkpt lat="47.35202" lon="-1.25499">
        <ele>65</ele>
        <time>2025-02-26T12:39:47Z</time>
      </trkpt>
      <trkpt lat="47.3522" lon="-1.25567">
        <ele>62</ele>
        <time>2025-02-26T12:40:53Z</time>
      </trkpt>
      <trkpt lat="47.3527" lon="-1.25684">
        <ele>61</ele>
        <time>2025-02-26T12:42:58Z</time>
      </trkpt>
      <trkpt lat="47.35284" lon="-1.2577">
        <ele>61</ele>
        <time>2025-02-26T12:44:18Z</time>
      </trkpt>
      <trkpt lat="47.35271" lon="-1.25887">
        <ele>58</ele>
        <time>2025-02-26T12:46:05Z</time>
      </trkpt>
      <trkpt lat="47.35266" lon="-1.26007">
        <ele>58</ele>
        <time>2025-02-26T12:47:53Z</time>
      </trkpt>
      <trkpt lat="47.35256" lon="-1.26078">
        <ele>57</ele>
        <time>2025-02-26T12:48:59Z</time>
      </trkpt>
      <trkpt lat="47.35245" lon="-1.26239">
        <ele>56</ele>
        <time>2025-02-26T12:51:25Z</time>
      </trkpt>
      <trkpt lat="47.35237" lon="-1.26253">
        <ele>55</ele>
        <time>2025-02-26T12:51:42Z</time>
      </trkpt>
      <trkpt lat="47.35254" lon="-1.26536">
        <ele>52</ele>
        <time>2025-02-26T12:55:59Z</time>
      </trkpt>
      <trkpt lat="47.35266" lon="-1.26636">
        <ele>50</ele>
        <time>2025-02-26T12:57:31Z</time>
      </trkpt>
      <trkpt lat="47.35281" lon="-1.26969">
        <ele>43</ele>
        <time>2025-02-26T13:02:32Z</time>
      </trkpt>
      <trkpt lat="47.35274" lon="-1.27024">
        <ele>42</ele>
        <time>2025-02-26T13:03:23Z</time>
      </trkpt>
      <trkpt lat="47.35242" lon="-1.27095">
        <ele>40</ele>
        <time>2025-02-26T13:04:40Z</time>
      </trkpt>
      <trkpt lat="47.35239" lon="-1.27114">
        <ele>40</ele>
        <time>2025-02-26T13:04:58Z</time>
      </trkpt>
      <trkpt lat="47.35124" lon="-1.27361">
        <ele>32</ele>
        <time>2025-02-26T13:09:29Z</time>
      </trkpt>
      <trkpt lat="47.34941" lon="-1.27353">
        <ele>19</ele>
        <time>2025-02-26T13:13:33Z</time>
      </trkpt>
      <trkpt lat="47.34909" lon="-1.27393">
        <ele>17</ele>
        <time>2025-02-26T13:14:29Z</time>
      </trkpt>
      <trkpt lat="47.34909" lon="-1.27405">
        <ele>17</ele>
        <time>2025-02-26T13:14:40Z</time>
      </trkpt>
      <trkpt lat="47.349" lon="-1.27414">
        <ele>16</ele>
        <time>2025-02-26T13:14:54Z</time>
      </trkpt>
      <trkpt lat="47.34869" lon="-1.27405">
        <ele>13</ele>
        <time>2025-02-26T13:15:36Z</time>
      </trkpt>
      <trkpt lat="47.34862" lon="-1.27409">
        <ele>13</ele>
        <time>2025-02-26T13:15:46Z</time>
      </trkpt>
      <trkpt lat="47.34847" lon="-1.2749">
        <ele>11</ele>
        <time>2025-02-26T13:17:02Z</time>
      </trkpt>
      <trkpt lat="47.34843" lon="-1.27548">
        <ele>10</ele>
        <time>2025-02-26T13:17:55Z</time>
      </trkpt>
      <trkpt lat="47.34831" lon="-1.27577">
        <ele>9</ele>
        <time>2025-02-26T13:18:26Z</time>
      </trkpt>
      <trkpt lat="47.34822" lon="-1.2767">
        <ele>10</ele>
        <time>2025-02-26T13:19:51Z</time>
      </trkpt>
      <trkpt lat="47.34806" lon="-1.27737">
        <ele>10</ele>
        <time>2025-02-26T13:20:55Z</time>
      </trkpt>
      <trkpt lat="47.34805" lon="-1.278">
        <ele>11</ele>
        <time>2025-02-26T13:21:52Z</time>
      </trkpt>
      <trkpt lat="47.34792" lon="-1.27824">
        <ele>11</ele>
        <time>2025-02-26T13:22:20Z</time>
      </trkpt>
      <trkpt lat="47.34778" lon="-1.2789">
        <ele>12</ele>
        <time>2025-02-26T13:23:22Z</time>
      </trkpt>
      <trkpt lat="47.34768" lon="-1.27912">
        <ele>12</ele>
        <time>2025-02-26T13:23:46Z</time>
      </trkpt>
      <trkpt lat="47.34735" lon="-1.28051">
        <ele>12</ele>
        <time>2025-02-26T13:25:59Z</time>
      </trkpt>
      <trkpt lat="47.34754" lon="-1.2807">
        <ele>13</ele>
        <time>2025-02-26T13:26:30Z</time>
      </trkpt>
      <trkpt lat="47.34793" lon="-1.2809">
        <ele>20</ele>
        <time>2025-02-26T13:27:25Z</time>
      </trkpt>
      <trkpt lat="47.34838" lon="-1.28125">
        <ele>28</ele>
        <time>2025-02-26T13:28:33Z</time>
      </trkpt>
      <trkpt lat="47.34765" lon="-1.28304">
        <ele>23</ele>
        <time>2025-02-26T13:31:42Z</time>
      </trkpt>
      <trkpt lat="47.34751" lon="-1.28374">
        <ele>22</ele>
        <time>2025-02-26T13:32:48Z</time>
      </trkpt>
      <trkpt lat="47.34804" lon="-1.28437">
        <ele>32</ele>
        <time>2025-02-26T13:34:19Z</time>
      </trkpt>
      <trkpt lat="47.3481" lon="-1.2846">
        <ele>33</ele>
        <time>2025-02-26T13:34:41Z</time>
      </trkpt>
      <trkpt lat="47.34839" lon="-1.28517">
        <ele>38</ele>
        <time>2025-02-26T13:35:45Z</time>
      </trkpt>
      <trkpt lat="47.34825" lon="-1.28639">
        <ele>32</ele>
        <time>2025-02-26T13:37:37Z</time>
      </trkpt>
      <trkpt lat="47.34806" lon="-1.28732">
        <ele>25</ele>
        <time>2025-02-26T13:39:05Z</time>
      </trkpt>
      <trkpt lat="47.34787" lon="-1.28753">
        <ele>22</ele>
        <time>2025-02-26T13:39:37Z</time>
      </trkpt>
      <trkpt lat="47.34761" lon="-1.28746">
        <ele>19</ele>
        <time>2025-02-26T13:40:12Z</time>
      </trkpt>
      <trkpt lat="47.34717" lon="-1.28697">
        <ele>17</ele>
        <time>2025-02-26T13:41:26Z</time>
      </trkpt>
      <trkpt lat="47.34701" lon="-1.28694">
        <ele>16</ele>
        <time>2025-02-26T13:41:47Z</time>
      </trkpt>
      <trkpt lat="47.34673" lon="-1.28757">
        <ele>12</ele>
        <time>2025-02-26T13:42:55Z</time>
      </trkpt>
      <trkpt lat="47.34661" lon="-1.28766">
        <ele>11</ele>
        <time>2025-02-26T13:43:13Z</time>
      </trkpt>
      <trkpt lat="47.34665" lon="-1.28778">
        <ele>11</ele>
        <time>2025-02-26T13:43:25Z</time>
      </trkpt>
      <trkpt lat="47.34653" lon="-1.28768">
        <ele>11</ele>
        <time>2025-02-26T13:43:44Z</time>
      </trkpt>
      <trkpt lat="47.34628" lon="-1.2879">
        <ele>10</ele>
        <time>2025-02-26T13:44:22Z</time>
      </trkpt>
      <trkpt lat="47.34575" lon="-1.28877">
        <ele>13</ele>
        <time>2025-02-26T13:46:08Z</time>
      </trkpt>
      <trkpt lat="47.34616" lon="-1.28966">
        <ele>20</ele>
        <time>2025-02-26T13:47:46Z</time>
      </trkpt>
      <trkpt lat="47.34655" lon="-1.29106">
        <ele>34</ele>
        <time>2025-02-26T13:50:02Z</time>
      </trkpt>
      <trkpt lat="47.34665" lon="-1.29165">
        <ele>40</ele>
        <time>2025-02-26T13:50:57Z</time>
      </trkpt>
      <trkpt lat="47.34679" lon="-1.29213">
        <ele>44</ele>
        <time>2025-02-26T13:51:45Z</time>
      </trkpt>
      <trkpt lat="47.34733" lon="-1.29273">
        <ele>55</ele>
        <time>2025-02-26T13:53:15Z</time>
      </trkpt>
      <trkpt lat="47.34729" lon="-1.2928">
        <ele>55</ele>
        <time>2025-02-26T13:53:23Z</time>
      </trkpt>
      <trkpt lat="47.34719" lon="-1.29279">
        <ele>53</ele>
        <time>2025-02-26T13:53:37Z</time>
      </trkpt>
      <trkpt lat="47.34636" lon="-1.292">
        <ele>36</ele>
        <time>2025-02-26T13:55:48Z</time>
      </trkpt>
      <trkpt lat="47.34591" lon="-1.29135">
        <ele>27</ele>
        <time>2025-02-26T13:57:12Z</time>
      </trkpt>
      <trkpt lat="47.34565" lon="-1.29137">
        <ele>24</ele>
        <time>2025-02-26T13:57:47Z</time>
      </trkpt>
      <trkpt lat="47.34531" lon="-1.29103">
        <ele>21</ele>
        <time>2025-02-26T13:58:42Z</time>
      </trkpt>
      <trkpt lat="47.34513" lon="-1.29073">
        <ele>20</ele>
        <time>2025-02-26T13:59:18Z</time>
      </trkpt>
      <trkpt lat="47.34482" lon="-1.29041">
        <ele>16</ele>
        <time>2025-02-26T14:00:09Z</time>
      </trkpt>
      <trkpt lat="47.34472" lon="-1.29046">
        <ele>15</ele>
        <time>2025-02-26T14:00:23Z</time>
      </trkpt>
      <trkpt lat="47.3445" lon="-1.29032">
        <ele>12</ele>
        <time>2025-02-26T14:00:55Z</time>
      </trkpt>
      <trkpt lat="47.34442" lon="-1.29041">
        <ele>11</ele>
        <time>2025-02-26T14:01:08Z</time>
      </trkpt>
      <trkpt lat="47.3443" lon="-1.29083">
        <ele>11</ele>
        <time>2025-02-26T14:01:49Z</time>
      </trkpt>
      <trkpt lat="47.34397" lon="-1.29104">
        <ele>9</ele>
        <time>2025-02-26T14:02:37Z</time>
      </trkpt>
      <trkpt lat="47.34372" lon="-1.29112">
        <ele>9</ele>
        <time>2025-02-26T14:03:11Z</time>
      </trkpt>
      <trkpt lat="47.34357" lon="-1.29158">
        <ele>9</ele>
        <time>2025-02-26T14:03:58Z</time>
      </trkpt>
      <trkpt lat="47.34349" lon="-1.29213">
        <ele>8</ele>
        <time>2025-02-26T14:04:48Z</time>
      </trkpt>
      <trkpt lat="47.34343" lon="-1.29224">
        <ele>8</ele>
        <time>2025-02-26T14:05:01Z</time>
      </trkpt>
      <trkpt lat="47.34317" lon="-1.29237">
        <ele>8</ele>
        <time>2025-02-26T14:05:38Z</time>
      </trkpt>
      <trkpt lat="47.34296" lon="-1.29224">
        <ele>7</ele>
        <time>2025-02-26T14:06:08Z</time>
      </trkpt>
      <trkpt lat="47.34297" lon="-1.29295">
        <ele>6</ele>
        <time>2025-02-26T14:07:12Z</time>
      </trkpt>
      <trkpt lat="47.34275" lon="-1.29508">
        <ele>6</ele>
        <time>2025-02-26T14:10:27Z</time>
      </trkpt>
      <trkpt lat="47.342" lon="-1.29686">
        <ele>6</ele>
        <time>2025-02-26T14:13:37Z</time>
      </trkpt>
      <trkpt lat="47.34185" lon="-1.29704">
        <ele>5</ele>
        <time>2025-02-26T14:14:03Z</time>
      </trkpt>
      <trkpt lat="47.34181" lon="-1.29795">
        <ele>5</ele>
        <time>2025-02-26T14:15:25Z</time>
      </trkpt>
      <trkpt lat="47.34174" lon="-1.29837">
        <ele>5</ele>
        <time>2025-02-26T14:16:04Z</time>
      </trkpt>
      <trkpt lat="47.34175" lon="-1.29885">
        <ele>5</ele>
        <time>2025-02-26T14:16:48Z</time>
      </trkpt>
      <trkpt lat="47.34147" lon="-1.3007">
        <ele>5</ele>
        <time>2025-02-26T14:19:39Z</time>
      </trkpt>
      <trkpt lat="47.34146" lon="-1.30127">
        <ele>5</ele>
        <time>2025-02-26T14:20:31Z</time>
      </trkpt>
      <trkpt lat="47.34097" lon="-1.30314">
        <ele>7</ele>
        <time>2025-02-26T14:23:32Z</time>
      </trkpt>
      <trkpt lat="47.3408" lon="-1.30329">
        <ele>6</ele>
        <time>2025-02-26T14:23:58Z</time>
      </trkpt>
      <trkpt lat="47.34065" lon="-1.30359">
        <ele>6</ele>
        <time>2025-02-26T14:24:32Z</time>
      </trkpt>
      <trkpt lat="47.34032" lon="-1.30395">
        <ele>7</ele>
        <time>2025-02-26T14:25:27Z</time>
      </trkpt>
      <trkpt lat="47.34015" lon="-1.30443">
        <ele>7</ele>
        <time>2025-02-26T14:26:16Z</time>
      </trkpt>
      <trkpt lat="47.34011" lon="-1.30528">
        <ele>8</ele>
        <time>2025-02-26T14:27:33Z</time>
      </trkpt>
      <trkpt lat="47.33997" lon="-1.30589">
        <ele>8</ele>
        <time>2025-02-26T14:28:31Z</time>
      </trkpt>
      <trkpt lat="47.33976" lon="-1.30638">
        <ele>10</ele>
        <time>2025-02-26T14:29:23Z</time>
      </trkpt>
      <trkpt lat="47.3388" lon="-1.30773">
        <ele>13</ele>
        <time>2025-02-26T14:32:20Z</time>
      </trkpt>
      <trkpt lat="47.33698" lon="-1.3095">
        <ele>17</ele>
        <time>2025-02-26T14:37:11Z</time>
      </trkpt>
      <trkpt lat="47.33677" lon="-1.30988">
        <ele>18</ele>
        <time>2025-02-26T14:37:56Z</time>
      </trkpt>
      <trkpt lat="47.33643" lon="-1.31022">
        <ele>16</ele>
        <time>2025-02-26T14:38:50Z</time>
      </trkpt>
      <trkpt lat="47.3361" lon="-1.31073">
        <ele>15</ele>
        <time>2025-02-26T14:39:54Z</time>
      </trkpt>
      <trkpt lat="47.33576" lon="-1.31146">
        <ele>13</ele>
        <time>2025-02-26T14:41:14Z</time>
      </trkpt>
      <trkpt lat="47.33577" lon="-1.31156">
        <ele>13</ele>
        <time>2025-02-26T14:41:24Z</time>
      </trkpt>
      <trkpt lat="47.33584" lon="-1.31159">
        <ele>15</ele>
        <time>2025-02-26T14:41:33Z</time>
      </trkpt>
      <trkpt lat="47.33597" lon="-1.31193">
        <ele>23</ele>
        <time>2025-02-26T14:42:09Z</time>
      </trkpt>
      <trkpt lat="47.33621" lon="-1.31203">
        <ele>32</ele>
        <time>2025-02-26T14:42:42Z</time>
      </trkpt>
      <trkpt lat="47.33645" lon="-1.31234">
        <ele>42</ele>
        <time>2025-02-26T14:43:24Z</time>
      </trkpt>
      <trkpt lat="47.33653" lon="-1.31226">
        <ele>44</ele>
        <time>2025-02-26T14:43:37Z</time>
      </trkpt>
      <trkpt lat="47.33705" lon="-1.31253">
        <ele>57</ele>
        <time>2025-02-26T14:44:51Z</time>
      </trkpt>
      <trkpt lat="47.33725" lon="-1.31271">
        <ele>61</ele>
        <time>2025-02-26T14:45:22Z</time>
      </trkpt>
      <trkpt lat="47.33762" lon="-1.31284">
        <ele>65</ele>
        <time>2025-02-26T14:46:13Z</time>
      </trkpt>
      <trkpt lat="47.33832" lon="-1.31345">
        <ele>68</ele>
        <time>2025-02-26T14:48:01Z</time>
      </trkpt>
      <trkpt lat="47.3391" lon="-1.31261">
        <ele>65</ele>
        <time>2025-02-26T14:50:10Z</time>
      </trkpt>
      <trkpt lat="47.33961" lon="-1.31165">
        <ele>65</ele>
        <time>2025-02-26T14:52:01Z</time>
      </trkpt>
      <trkpt lat="47.33966" lon="-1.31141">
        <ele>65</ele>
        <time>2025-02-26T14:52:23Z</time>
      </trkpt>
      <trkpt lat="47.33963" lon="-1.31115">
        <ele>64</ele>
        <time>2025-02-26T14:52:47Z</time>
      </trkpt>
      <trkpt lat="47.33969" lon="-1.31038">
        <ele>62</ele>
        <time>2025-02-26T14:53:57Z</time>
      </trkpt>
      <trkpt lat="47.33966" lon="-1.31023">
        <ele>61</ele>
        <time>2025-02-26T14:54:11Z</time>
      </trkpt>
      <trkpt lat="47.33905" lon="-1.31">
        <ele>58</ele>
        <time>2025-02-26T14:55:35Z</time>
      </trkpt>
      <trkpt lat="47.33889" lon="-1.30941">
        <ele>49</ele>
        <time>2025-02-26T14:56:33Z</time>
      </trkpt>
      <trkpt lat="47.33893" lon="-1.30911">
        <ele>45</ele>
        <time>2025-02-26T14:57:00Z</time>
      </trkpt>
      <trkpt lat="47.33904" lon="-1.30889">
        <ele>41</ele>
        <time>2025-02-26T14:57:25Z</time>
      </trkpt>
      <trkpt lat="47.33987" lon="-1.3084">
        <ele>39</ele>
        <time>2025-02-26T14:59:24Z</time>
      </trkpt>
      <trkpt lat="47.33999" lon="-1.30812">
        <ele>36</ele>
        <time>2025-02-26T14:59:54Z</time>
      </trkpt>
      <trkpt lat="47.33996" lon="-1.308">
        <ele>33</ele>
        <time>2025-02-26T15:00:06Z</time>
      </trkpt>
      <trkpt lat="47.33978" lon="-1.30788">
        <ele>29</ele>
        <time>2025-02-26T15:00:32Z</time>
      </trkpt>
      <trkpt lat="47.33977" lon="-1.30777">
        <ele>27</ele>
        <time>2025-02-26T15:00:42Z</time>
      </trkpt>
      <trkpt lat="47.33987" lon="-1.30743">
        <ele>22</ele>
        <time>2025-02-26T15:01:16Z</time>
      </trkpt>
      <trkpt lat="47.33981" lon="-1.30709">
        <ele>17</ele>
        <time>2025-02-26T15:01:48Z</time>
      </trkpt>
      <trkpt lat="47.33999" lon="-1.30657">
        <ele>11</ele>
        <time>2025-02-26T15:02:40Z</time>
      </trkpt>
      <trkpt lat="47.34058" lon="-1.30578">
        <ele>13</ele>
        <time>2025-02-26T15:04:27Z</time>
      </trkpt>
      <trkpt lat="47.34124" lon="-1.30428">
        <ele>15</ele>
        <time>2025-02-26T15:07:09Z</time>
      </trkpt>
      <trkpt lat="47.34166" lon="-1.30348">
        <ele>16</ele>
        <time>2025-02-26T15:08:40Z</time>
      </trkpt>
      <trkpt lat="47.34209" lon="-1.30228">
        <ele>14</ele>
        <time>2025-02-26T15:10:43Z</time>
      </trkpt>
      <trkpt lat="47.34259" lon="-1.30061">
        <ele>11</ele>
        <time>2025-02-26T15:13:28Z</time>
      </trkpt>
      <trkpt lat="47.34266" lon="-1.3">
        <ele>10</ele>
        <time>2025-02-26T15:14:24Z</time>
      </trkpt>
      <trkpt lat="47.34276" lon="-1.29961">
        <ele>10</ele>
        <time>2025-02-26T15:15:02Z</time>
      </trkpt>
      <trkpt lat="47.34282" lon="-1.2996">
        <ele>10</ele>
        <time>2025-02-26T15:15:10Z</time>
      </trkpt>
      <trkpt lat="47.34279" lon="-1.29994">
        <ele>11</ele>
        <time>2025-02-26T15:15:41Z</time>
      </trkpt>
      <trkpt lat="47.34295" lon="-1.30059">
        <ele>12</ele>
        <time>2025-02-26T15:16:43Z</time>
      </trkpt>
      <trkpt lat="47.3432" lon="-1.30103">
        <ele>14</ele>
        <time>2025-02-26T15:17:35Z</time>
      </trkpt>
      <trkpt lat="47.34326" lon="-1.30124">
        <ele>17</ele>
        <time>2025-02-26T15:17:56Z</time>
      </trkpt>
      <trkpt lat="47.34341" lon="-1.30142">
        <ele>19</ele>
        <time>2025-02-26T15:18:21Z</time>
      </trkpt>
      <trkpt lat="47.34345" lon="-1.30167">
        <ele>21</ele>
        <time>2025-02-26T15:18:45Z</time>
      </trkpt>
      <trkpt lat="47.3434" lon="-1.3019">
        <ele>23</ele>
        <time>2025-02-26T15:19:07Z</time>
      </trkpt>
      <trkpt lat="47.34341" lon="-1.30235">
        <ele>28</ele>
        <time>2025-02-26T15:19:47Z</time>
      </trkpt>
      <trkpt lat="47.34397" lon="-1.30315">
        <ele>36</ele>
        <time>2025-02-26T15:21:31Z</time>
      </trkpt>
      <trkpt lat="47.34439" lon="-1.30364">
        <ele>40</ele>
        <time>2025-02-26T15:22:43Z</time>
      </trkpt>
      <trkpt lat="47.34455" lon="-1.30391">
        <ele>42</ele>
        <time>2025-02-26T15:23:15Z</time>
      </trkpt>
      <trkpt lat="47.34465" lon="-1.30421">
        <ele>43</ele>
        <time>2025-02-26T15:23:45Z</time>
      </trkpt>
      <trkpt lat="47.34472" lon="-1.30517">
        <ele>46</ele>
        <time>2025-02-26T15:25:13Z</time>
      </trkpt>
      <trkpt lat="47.34494" lon="-1.30492">
        <ele>46</ele>
        <time>2025-02-26T15:25:50Z</time>
      </trkpt>
      <trkpt lat="47.34513" lon="-1.30499">
        <ele>45</ele>
        <time>2025-02-26T15:26:16Z</time>
      </trkpt>
      <trkpt lat="47.34539" lon="-1.30433">
        <ele>42</ele>
        <time>2025-02-26T15:27:25Z</time>
      </trkpt>
      <trkpt lat="47.34546" lon="-1.3039">
        <ele>39</ele>
        <time>2025-02-26T15:28:05Z</time>
      </trkpt>
      <trkpt lat="47.3458" lon="-1.30286">
        <ele>29</ele>
        <time>2025-02-26T15:29:49Z</time>
      </trkpt>
      <trkpt lat="47.34585" lon="-1.30214">
        <ele>23</ele>
        <time>2025-02-26T15:30:55Z</time>
      </trkpt>
      <trkpt lat="47.34656" lon="-1.30167">
        <ele>23</ele>
        <time>2025-02-26T15:32:39Z</time>
      </trkpt>
      <trkpt lat="47.34687" lon="-1.30165">
        <ele>26</ele>
        <time>2025-02-26T15:33:20Z</time>
      </trkpt>
      <trkpt lat="47.34708" lon="-1.30177">
        <ele>29</ele>
        <time>2025-02-26T15:33:50Z</time>
      </trkpt>
      <trkpt lat="47.34757" lon="-1.30233">
        <ele>31</ele>
        <time>2025-02-26T15:35:13Z</time>
      </trkpt>
      <trkpt lat="47.34845" lon="-1.30268">
        <ele>36</ele>
        <time>2025-02-26T15:37:14Z</time>
      </trkpt>
      <trkpt lat="47.34869" lon="-1.30299">
        <ele>38</ele>
        <time>2025-02-26T15:37:57Z</time>
      </trkpt>
      <trkpt lat="47.34877" lon="-1.303">
        <ele>38</ele>
        <time>2025-02-26T15:38:08Z</time>
      </trkpt>
      <trkpt lat="47.3489" lon="-1.30279">
        <ele>39</ele>
        <time>2025-02-26T15:38:33Z</time>
      </trkpt>
      <trkpt lat="47.34924" lon="-1.3025">
        <ele>44</ele>
        <time>2025-02-26T15:39:26Z</time>
      </trkpt>
      <trkpt lat="47.34948" lon="-1.30215">
        <ele>48</ele>
        <time>2025-02-26T15:40:11Z</time>
      </trkpt>
      <trkpt lat="47.35001" lon="-1.30166">
        <ele>53</ele>
        <time>2025-02-26T15:41:34Z</time>
      </trkpt>
      <trkpt lat="47.35063" lon="-1.30086">
        <ele>58</ele>
        <time>2025-02-26T15:43:24Z</time>
      </trkpt>
      <trkpt lat="47.35155" lon="-1.29939">
        <ele>67</ele>
        <time>2025-02-26T15:46:25Z</time>
      </trkpt>
      <trkpt lat="47.35148" lon="-1.2991">
        <ele>67</ele>
        <time>2025-02-26T15:46:53Z</time>
      </trkpt>
      <trkpt lat="47.35049" lon="-1.2975">
        <ele>65</ele>
        <time>2025-02-26T15:50:09Z</time>
      </trkpt>
      <trkpt lat="47.34983" lon="-1.296">
        <ele>65</ele>
        <time>2025-02-26T15:52:50Z</time>
      </trkpt>
      <trkpt lat="47.34929" lon="-1.29512">
        <ele>64</ele>
        <time>2025-02-26T15:54:38Z</time>
      </trkpt>
      <trkpt lat="47.34905" lon="-1.29488">
        <ele>64</ele>
        <time>2025-02-26T15:55:17Z</time>
      </trkpt>
      <trkpt lat="47.34903" lon="-1.29476">
        <ele>64</ele>
        <time>2025-02-26T15:55:28Z</time>
      </trkpt>
      <trkpt lat="47.34926" lon="-1.29449">
        <ele>64</ele>
        <time>2025-02-26T15:56:07Z</time>
      </trkpt>
      <trkpt lat="47.35021" lon="-1.29368">
        <ele>60</ele>
        <time>2025-02-26T15:58:33Z</time>
      </trkpt>
      <trkpt lat="47.3507" lon="-1.29267">
        <ele>53</ele>
        <time>2025-02-26T16:00:26Z</time>
      </trkpt>
      <trkpt lat="47.35076" lon="-1.29265">
        <ele>52</ele>
        <time>2025-02-26T16:00:34Z</time>
      </trkpt>
      <trkpt lat="47.35098" lon="-1.29283">
        <ele>52</ele>
        <time>2025-02-26T16:01:07Z</time>
      </trkpt>
      <trkpt lat="47.35122" lon="-1.29276">
        <ele>49</ele>
        <time>2025-02-26T16:01:40Z</time>
      </trkpt>
      <trkpt lat="47.35158" lon="-1.29218">
        <ele>41</ele>
        <time>2025-02-26T16:02:51Z</time>
      </trkpt>
      <trkpt lat="47.35181" lon="-1.29218">
        <ele>37</ele>
        <time>2025-02-26T16:03:22Z</time>
      </trkpt>
      <trkpt lat="47.35204" lon="-1.29187">
        <ele>29</ele>
        <time>2025-02-26T16:04:03Z</time>
      </trkpt>
      <trkpt lat="47.35224" lon="-1.29204">
        <ele>26</ele>
        <time>2025-02-26T16:04:34Z</time>
      </trkpt>
      <trkpt lat="47.35256" lon="-1.29202">
        <ele>19</ele>
        <time>2025-02-26T16:05:17Z</time>
      </trkpt>
      <trkpt lat="47.3531" lon="-1.29265">
        <ele>17</ele>
        <time>2025-02-26T16:06:49Z</time>
      </trkpt>
      <trkpt lat="47.35335" lon="-1.29333">
        <ele>23</ele>
        <time>2025-02-26T16:07:59Z</time>
      </trkpt>
      <trkpt lat="47.35366" lon="-1.2938">
        <ele>20</ele>
        <time>2025-02-26T16:08:58Z</time>
      </trkpt>
      <trkpt lat="47.35374" lon="-1.29403">
        <ele>19</ele>
        <time>2025-02-26T16:09:21Z</time>
      </trkpt>
      <trkpt lat="47.3537" lon="-1.29485">
        <ele>21</ele>
        <time>2025-02-26T16:10:36Z</time>
      </trkpt>
      <trkpt lat="47.35383" lon="-1.29512">
        <ele>19</ele>
        <time>2025-02-26T16:11:06Z</time>
      </trkpt>
      <trkpt lat="47.35386" lon="-1.29565">
        <ele>23</ele>
        <time>2025-02-26T16:11:54Z</time>
      </trkpt>
      <trkpt lat="47.35404" lon="-1.29586">
        <ele>22</ele>
        <time>2025-02-26T16:12:24Z</time>
      </trkpt>
      <trkpt lat="47.35449" lon="-1.29589">
        <ele>19</ele>
        <time>2025-02-26T16:13:25Z</time>
      </trkpt>
      <trkpt lat="47.3547" lon="-1.29575">
        <ele>17</ele>
        <time>2025-02-26T16:13:55Z</time>
      </trkpt>
      <trkpt lat="47.35503" lon="-1.29533">
        <ele>13</ele>
        <time>2025-02-26T16:14:53Z</time>
      </trkpt>
      <trkpt lat="47.35564" lon="-1.29492">
        <ele>12</ele>
        <time>2025-02-26T16:16:23Z</time>
      </trkpt>
      <trkpt lat="47.3557" lon="-1.2948">
        <ele>13</ele>
        <time>2025-02-26T16:16:36Z</time>
      </trkpt>
      <trkpt lat="47.35661" lon="-1.29413">
        <ele>10</ele>
        <time>2025-02-26T16:18:52Z</time>
      </trkpt>
      <trkpt lat="47.35696" lon="-1.29396">
        <ele>12</ele>
        <time>2025-02-26T16:19:41Z</time>
      </trkpt>
      <trkpt lat="47.35715" lon="-1.29373">
        <ele>12</ele>
        <time>2025-02-26T16:20:14Z</time>
      </trkpt>
      <trkpt lat="47.35744" lon="-1.29358">
        <ele>12</ele>
        <time>2025-02-26T16:20:55Z</time>
      </trkpt>
      <trkpt lat="47.35758" lon="-1.29331">
        <ele>11</ele>
        <time>2025-02-26T16:21:26Z</time>
      </trkpt>
      <trkpt lat="47.35803" lon="-1.29403">
        <ele>26</ele>
        <time>2025-02-26T16:22:54Z</time>
      </trkpt>
      <trkpt lat="47.35809" lon="-1.29428">
        <ele>29</ele>
        <time>2025-02-26T16:23:18Z</time>
      </trkpt>
      <trkpt lat="47.35843" lon="-1.29496">
        <ele>37</ele>
        <time>2025-02-26T16:24:35Z</time>
      </trkpt>
      <trkpt lat="47.35859" lon="-1.29544">
        <ele>40</ele>
        <time>2025-02-26T16:25:23Z</time>
      </trkpt>
      <trkpt lat="47.35874" lon="-1.29547">
        <ele>41</ele>
        <time>2025-02-26T16:25:43Z</time>
      </trkpt>
      <trkpt lat="47.35917" lon="-1.29504">
        <ele>43</ele>
        <time>2025-02-26T16:26:53Z</time>
      </trkpt>
      <trkpt lat="47.35919" lon="-1.29489">
        <ele>43</ele>
        <time>2025-02-26T16:27:06Z</time>
      </trkpt>
      <trkpt lat="47.35894" lon="-1.29407">
        <ele>39</ele>
        <time>2025-02-26T16:28:28Z</time>
      </trkpt>
      <trkpt lat="47.35904" lon="-1.29389">
        <ele>38</ele>
        <time>2025-02-26T16:28:49Z</time>
      </trkpt>
      <trkpt lat="47.35949" lon="-1.29342">
        <ele>35</ele>
        <time>2025-02-26T16:30:02Z</time>
      </trkpt>
      <trkpt lat="47.3598" lon="-1.29322">
        <ele>32</ele>
        <time>2025-02-26T16:30:47Z</time>
      </trkpt>
      <trkpt lat="47.35987" lon="-1.29306">
        <ele>30</ele>
        <time>2025-02-26T16:31:05Z</time>
      </trkpt>
      <trkpt lat="47.36013" lon="-1.29296">
        <ele>29</ele>
        <time>2025-02-26T16:31:40Z</time>
      </trkpt>
      <trkpt lat="47.36022" lon="-1.29267">
        <ele>28</ele>
        <time>2025-02-26T16:32:09Z</time>
      </trkpt>
      <trkpt lat="47.36013" lon="-1.29251">
        <ele>25</ele>
        <time>2025-02-26T16:32:28Z</time>
      </trkpt>
      <trkpt lat="47.35998" lon="-1.2918">
        <ele>15</ele>
        <time>2025-02-26T16:33:35Z</time>
      </trkpt>
      <trkpt lat="47.36061" lon="-1.29118">
        <ele>22</ele>
        <time>2025-02-26T16:35:16Z</time>
      </trkpt>
      <trkpt lat="47.36081" lon="-1.29067">
        <ele>18</ele>
        <time>2025-02-26T16:36:10Z</time>
      </trkpt>
      <trkpt lat="47.36104" lon="-1.29022">
        <ele>19</ele>
        <time>2025-02-26T16:37:01Z</time>
      </trkpt>
      <trkpt lat="47.36107" lon="-1.2898">
        <ele>16</ele>
        <time>2025-02-26T16:37:39Z</time>
      </trkpt>
      <trkpt lat="47.36131" lon="-1.28901">
        <ele>17</ele>
        <time>2025-02-26T16:38:57Z</time>
      </trkpt>
      <trkpt lat="47.36195" lon="-1.28769">
        <ele>14</ele>
        <time>2025-02-26T16:41:24Z</time>
      </trkpt>
      <trkpt lat="47.36234" lon="-1.28714">
        <ele>13</ele>
        <time>2025-02-26T16:42:36Z</time>
      </trkpt>
      <trkpt lat="47.36282" lon="-1.287">
        <ele>11</ele>
        <time>2025-02-26T16:43:41Z</time>
      </trkpt>
      <trkpt lat="47.3635" lon="-1.28698">
        <ele>10</ele>
        <time>2025-02-26T16:45:12Z</time>
      </trkpt>
      <trkpt lat="47.36365" lon="-1.28688">
        <ele>8</ele>
        <time>2025-02-26T16:45:34Z</time>
      </trkpt>
      <trkpt lat="47.36367" lon="-1.28647">
        <ele>8</ele>
        <time>2025-02-26T16:46:11Z</time>
      </trkpt>
      <trkpt lat="47.36363" lon="-1.28628">
        <ele>10</ele>
        <time>2025-02-26T16:46:29Z</time>
      </trkpt>
      <trkpt lat="47.36341" lon="-1.28602">
        <ele>12</ele>
        <time>2025-02-26T16:47:07Z</time>
      </trkpt>
      <trkpt lat="47.36324" lon="-1.28597">
        <ele>12</ele>
        <time>2025-02-26T16:47:30Z</time>
      </trkpt>
      <trkpt lat="47.36273" lon="-1.28602">
        <ele>10</ele>
        <time>2025-02-26T16:48:38Z</time>
      </trkpt>
      <trkpt lat="47.36272" lon="-1.28584">
        <ele>11</ele>
        <time>2025-02-26T16:48:54Z</time>
      </trkpt>
      <trkpt lat="47.3625" lon="-1.28543">
        <ele>19</ele>
        <time>2025-02-26T16:49:41Z</time>
      </trkpt>
      <trkpt lat="47.36243" lon="-1.28546">
        <ele>20</ele>
        <time>2025-02-26T16:49:51Z</time>
      </trkpt>
      <trkpt lat="47.36257" lon="-1.28528">
        <ele>23</ele>
        <time>2025-02-26T16:50:16Z</time>
      </trkpt>
      <trkpt lat="47.36254" lon="-1.28467">
        <ele>32</ele>
        <time>2025-02-26T16:51:11Z</time>
      </trkpt>
      <trkpt lat="47.36237" lon="-1.28396">
        <ele>40</ele>
        <time>2025-02-26T16:52:19Z</time>
      </trkpt>
      <trkpt lat="47.362" lon="-1.28374">
        <ele>45</ele>
        <time>2025-02-26T16:53:13Z</time>
      </trkpt>
      <trkpt lat="47.36158" lon="-1.28334">
        <ele>49</ele>
        <time>2025-02-26T16:54:19Z</time>
      </trkpt>
      <trkpt lat="47.36112" lon="-1.28308">
        <ele>54</ele>
        <time>2025-02-26T16:55:25Z</time>
      </trkpt>
      <trkpt lat="47.36097" lon="-1.28289">
        <ele>56</ele>
        <time>2025-02-26T16:55:51Z</time>
      </trkpt>
      <trkpt lat="47.36093" lon="-1.28273">
        <ele>57</ele>
        <time>2025-02-26T16:56:07Z</time>
      </trkpt>
      <trkpt lat="47.36098" lon="-1.28196">
        <ele>59</ele>
        <time>2025-02-26T16:57:17Z</time>
      </trkpt>
      <trkpt lat="47.36096" lon="-1.28112">
        <ele>62</ele>
        <time>2025-02-26T16:58:33Z</time>
      </trkpt>
      <trkpt lat="47.36089" lon="-1.28102">
        <ele>62</ele>
        <time>2025-02-26T16:58:46Z</time>
      </trkpt>
      <trkpt lat="47.36072" lon="-1.28105">
        <ele>63</ele>
        <time>2025-02-26T16:59:09Z</time>
      </trkpt>
      <trkpt lat="47.36049" lon="-1.28122">
        <ele>63</ele>
        <time>2025-02-26T16:59:43Z</time>
      </trkpt>
      <trkpt lat="47.35953" lon="-1.28222">
        <ele>66</ele>
        <time>2025-02-26T17:02:20Z</time>
      </trkpt>
      <trkpt lat="47.35884" lon="-1.28265">
        <ele>68</ele>
        <time>2025-02-26T17:04:00Z</time>
      </trkpt>
      <trkpt lat="47.3578" lon="-1.28426">
        <ele>64</ele>
        <time>2025-02-26T17:07:21Z</time>
      </trkpt>
      <trkpt lat="47.35754" lon="-1.28476">
        <ele>63</ele>
        <time>2025-02-26T17:08:18Z</time>
      </trkpt>
      <trkpt lat="47.35721" lon="-1.28604">
        <ele>55</ele>
        <time>2025-02-26T17:10:21Z</time>
      </trkpt>
      <trkpt lat="47.35718" lon="-1.28632">
        <ele>54</ele>
        <time>2025-02-26T17:10:47Z</time>
      </trkpt>
      <trkpt lat="47.35725" lon="-1.28703">
        <ele>50</ele>
        <time>2025-02-26T17:11:52Z</time>
      </trkpt>
      <trkpt lat="47.35721" lon="-1.28715">
        <ele>50</ele>
        <time>2025-02-26T17:12:04Z</time>
      </trkpt>
      <trkpt lat="47.35542" lon="-1.28798">
        <ele>41</ele>
        <time>2025-02-26T17:16:14Z</time>
      </trkpt>
      <trkpt lat="47.35538" lon="-1.28809">
        <ele>40</ele>
        <time>2025-02-26T17:16:26Z</time>
      </trkpt>
      <trkpt lat="47.35565" lon="-1.28942">
        <ele>38</ele>
        <time>2025-02-26T17:18:31Z</time>
      </trkpt>
      <trkpt lat="47.35602" lon="-1.29076">
        <ele>34</ele>
        <time>2025-02-26T17:20:42Z</time>
      </trkpt>
      <trkpt lat="47.35648" lon="-1.29066">
        <ele>29</ele>
        <time>2025-02-26T17:21:44Z</time>
      </trkpt>
      <trkpt lat="47.35665" lon="-1.29082">
        <ele>26</ele>
        <time>2025-02-26T17:22:11Z</time>
      </trkpt>
      <trkpt lat="47.35684" lon="-1.29141">
        <ele>22</ele>
        <time>2025-02-26T17:23:10Z</time>
      </trkpt>
      <trkpt lat="47.35707" lon="-1.29178">
        <ele>17</ele>
        <time>2025-02-26T17:23:55Z</time>
      </trkpt>
      <trkpt lat="47.35739" lon="-1.29253">
        <ele>8</ele>
        <time>2025-02-26T17:25:16Z</time>
      </trkpt>
      <trkpt lat="47.35716" lon="-1.29282">
        <ele>11</ele>
        <time>2025-02-26T17:25:56Z</time>
      </trkpt>
      <trkpt lat="47.35641" lon="-1.29343">
        <ele>13</ele>
        <time>2025-02-26T17:27:50Z</time>
      </trkpt>
      <trkpt lat="47.35598" lon="-1.2941">
        <ele>12</ele>
        <time>2025-02-26T17:29:14Z</time>
      </trkpt>
      <trkpt lat="47.35533" lon="-1.29439">
        <ele>14</ele>
        <time>2025-02-26T17:30:44Z</time>
      </trkpt>
      <trkpt lat="47.3548" lon="-1.29476">
        <ele>11</ele>
        <time>2025-02-26T17:32:02Z</time>
      </trkpt>
      <trkpt lat="47.35464" lon="-1.29495">
        <ele>10</ele>
        <time>2025-02-26T17:32:30Z</time>
      </trkpt>
      <trkpt lat="47.35439" lon="-1.295">
        <ele>10</ele>
        <time>2025-02-26T17:33:04Z</time>
      </trkpt>
      <trkpt lat="47.35446" lon="-1.29483">
        <ele>11</ele>
        <time>2025-02-26T17:33:22Z</time>
      </trkpt>
      <trkpt lat="47.35459" lon="-1.29384">
        <ele>15</ele>
        <time>2025-02-26T17:34:53Z</time>
      </trkpt>
      <trkpt lat="47.35448" lon="-1.29347">
        <ele>15</ele>
        <time>2025-02-26T17:35:29Z</time>
      </trkpt>
      <trkpt lat="47.35423" lon="-1.29293">
        <ele>14</ele>
        <time>2025-02-26T17:36:28Z</time>
      </trkpt>
      <trkpt lat="47.35402" lon="-1.29176">
        <ele>16</ele>
        <time>2025-02-26T17:38:18Z</time>
      </trkpt>
      <trkpt lat="47.35361" lon="-1.29118">
        <ele>13</ele>
        <time>2025-02-26T17:39:34Z</time>
      </trkpt>
      <trkpt lat="47.35349" lon="-1.29049">
        <ele>13</ele>
        <time>2025-02-26T17:40:38Z</time>
      </trkpt>
      <trkpt lat="47.35334" lon="-1.29012">
        <ele>13</ele>
        <time>2025-02-26T17:41:17Z</time>
      </trkpt>
      <trkpt lat="47.35294" lon="-1.28947">
        <ele>13</ele>
        <time>2025-02-26T17:42:36Z</time>
      </trkpt>
      <trkpt lat="47.35252" lon="-1.28908">
        <ele>11</ele>
        <time>2025-02-26T17:43:43Z</time>
      </trkpt>
      <trkpt lat="47.35251" lon="-1.28901">
        <ele>12</ele>
        <time>2025-02-26T17:43:49Z</time>
      </trkpt>
      <trkpt lat="47.35196" lon="-1.28861">
        <ele>16</ele>
        <time>2025-02-26T17:45:11Z</time>
      </trkpt>
      <trkpt lat="47.35147" lon="-1.2885">
        <ele>16</ele>
        <time>2025-02-26T17:46:17Z</time>
      </trkpt>
      <trkpt lat="47.35149" lon="-1.28824">
        <ele>19</ele>
        <time>2025-02-26T17:46:41Z</time>
      </trkpt>
      <trkpt lat="47.35144" lon="-1.28805">
        <ele>23</ele>
        <time>2025-02-26T17:46:59Z</time>
      </trkpt>
      <trkpt lat="47.35144" lon="-1.28749">
        <ele>34</ele>
        <time>2025-02-26T17:47:50Z</time>
      </trkpt>
      <trkpt lat="47.35158" lon="-1.2869">
        <ele>40</ele>
        <time>2025-02-26T17:48:46Z</time>
      </trkpt>
      <trkpt lat="47.35147" lon="-1.28682">
        <ele>42</ele>
        <time>2025-02-26T17:49:03Z</time>
      </trkpt>
      <trkpt lat="47.35133" lon="-1.28686">
        <ele>43</ele>
        <time>2025-02-26T17:49:22Z</time>
      </trkpt>
      <trkpt lat="47.35124" lon="-1.28671">
        <ele>45</ele>
        <time>2025-02-26T17:49:40Z</time>
      </trkpt>
      <trkpt lat="47.35037" lon="-1.28683">
        <ele>47</ele>
        <time>2025-02-26T17:51:36Z</time>
      </trkpt>
      <trkpt lat="47.35029" lon="-1.28675">
        <ele>48</ele>
        <time>2025-02-26T17:51:49Z</time>
      </trkpt>
      <trkpt lat="47.35029" lon="-1.28584">
        <ele>50</ele>
        <time>2025-02-26T17:53:12Z</time>
      </trkpt>
      <trkpt lat="47.35021" lon="-1.28561">
        <ele>51</ele>
        <time>2025-02-26T17:53:35Z</time>
      </trkpt>
      <trkpt lat="47.34898" lon="-1.28541">
        <ele>45</ele>
        <time>2025-02-26T17:56:20Z</time>
      </trkpt>
      <trkpt lat="47.34853" lon="-1.28525">
        <ele>40</ele>
        <time>2025-02-26T17:57:22Z</time>
      </trkpt>
      <trkpt lat="47.34826" lon="-1.28493">
        <ele>37</ele>
        <time>2025-02-26T17:58:08Z</time>
      </trkpt>
      <trkpt lat="47.348" lon="-1.28429">
        <ele>31</ele>
        <time>2025-02-26T17:59:15Z</time>
      </trkpt>
      <trkpt lat="47.34734" lon="-1.28373">
        <ele>20</ele>
        <time>2025-02-26T18:00:57Z</time>
      </trkpt>
      <trkpt lat="47.34708" lon="-1.28432">
        <ele>18</ele>
        <time>2025-02-26T18:02:01Z</time>
      </trkpt>
      <trkpt lat="47.34662" lon="-1.28428">
        <ele>13</ele>
        <time>2025-02-26T18:03:02Z</time>
      </trkpt>
      <trkpt lat="47.34653" lon="-1.2842">
        <ele>12</ele>
        <time>2025-02-26T18:03:16Z</time>
      </trkpt>
      <trkpt lat="47.34634" lon="-1.28367">
        <ele>10</ele>
        <time>2025-02-26T18:04:10Z</time>
      </trkpt>
      <trkpt lat="47.34628" lon="-1.28325">
        <ele>10</ele>
        <time>2025-02-26T18:04:49Z</time>
      </trkpt>
      <trkpt lat="47.34634" lon="-1.28277">
        <ele>9</ele>
        <time>2025-02-26T18:05:33Z</time>
        <extensions>
          <visugpx:TrkExtension xmlns:visugpx="https://www.visugpx.com/editgpx/">
            <visugpx:node>1</visugpx:node>
            </visugpx:TrkExtension>
        </extensions>
      </trkpt>
    </trkseg>
  </trk>
</gpx>